<?xml version="1.0" encoding="UTF-8" standalone="no" ?>
<gpx xmlns="http://www.topografix.com/GPX/1/1" xmlns:xsi="http://www.w3.org/2001/XMLSchema-instance" xsi:schemaLocation="http://www.topografix.com/GPX/1/1 http://www.topografix.com/GPX/1/1/gpx.xsd" version="1.1" creator="VisuGPX - https://www.visugpx.com">
  <metadata>
    <name>VTT du mercredi 18 octobre 2018 (de Coulevon, à 2)</name>
    <desc><![CDATA[Avec Chris j'ai tenté de passer à l'ouest des Brûleux pour rejoindre un chemin avant Colombier, mais il a fallu faire demi-tour et repartir sur Bellenoye.
Temps exceptionnel, terrain archi sec.]]></desc>
  </metadata>
  <wpt lat="47.64521" lon="6.18035">
    <ele>228</ele>
    <name><![CDATA[0000063]]></name>
  </wpt>
  <trk>
    <name><![CDATA[2018-10-17 13:08]]></name>
    <trkseg>
      <trkpt lat="47.64521" lon="6.18035">
        <ele>228</ele>
        <time>2018-10-17T11:08:10Z</time>
      </trkpt>
      <trkpt lat="47.64525" lon="6.1803">
        <ele>228</ele>
        <time>2018-10-17T11:08:12Z</time>
      </trkpt>
      <trkpt lat="47.64531" lon="6.18027">
        <ele>229</ele>
        <time>2018-10-17T11:08:15Z</time>
      </trkpt>
      <trkpt lat="47.64537" lon="6.18023">
        <ele>229</ele>
        <time>2018-10-17T11:08:18Z</time>
      </trkpt>
      <trkpt lat="47.6454" lon="6.18018">
        <ele>229</ele>
        <time>2018-10-17T11:08:21Z</time>
      </trkpt>
      <trkpt lat="47.64542" lon="6.18012">
        <ele>229</ele>
        <time>2018-10-17T11:08:23Z</time>
      </trkpt>
      <trkpt lat="47.64545" lon="6.18005">
        <ele>229</ele>
        <time>2018-10-17T11:08:25Z</time>
      </trkpt>
      <trkpt lat="47.64548" lon="6.17997">
        <ele>227</ele>
        <time>2018-10-17T11:08:27Z</time>
      </trkpt>
      <trkpt lat="47.64553" lon="6.17983">
        <ele>227</ele>
        <time>2018-10-17T11:08:29Z</time>
      </trkpt>
      <trkpt lat="47.64556" lon="6.17971">
        <ele>227</ele>
        <time>2018-10-17T11:08:31Z</time>
      </trkpt>
      <trkpt lat="47.64557" lon="6.17964">
        <ele>226</ele>
        <time>2018-10-17T11:08:32Z</time>
      </trkpt>
      <trkpt lat="47.64559" lon="6.17956">
        <ele>226</ele>
        <time>2018-10-17T11:08:33Z</time>
      </trkpt>
      <trkpt lat="47.64561" lon="6.17948">
        <ele>226</ele>
        <time>2018-10-17T11:08:34Z</time>
      </trkpt>
      <trkpt lat="47.64563" lon="6.17939">
        <ele>225</ele>
        <time>2018-10-17T11:08:35Z</time>
      </trkpt>
      <trkpt lat="47.64566" lon="6.17931">
        <ele>225</ele>
        <time>2018-10-17T11:08:36Z</time>
      </trkpt>
      <trkpt lat="47.64569" lon="6.17924">
        <ele>225</ele>
        <time>2018-10-17T11:08:37Z</time>
      </trkpt>
      <trkpt lat="47.64573" lon="6.17919">
        <ele>225</ele>
        <time>2018-10-17T11:08:38Z</time>
      </trkpt>
      <trkpt lat="47.64578" lon="6.17913">
        <ele>224</ele>
        <time>2018-10-17T11:08:39Z</time>
      </trkpt>
      <trkpt lat="47.64583" lon="6.17907">
        <ele>224</ele>
        <time>2018-10-17T11:08:40Z</time>
      </trkpt>
      <trkpt lat="47.64588" lon="6.17901">
        <ele>224</ele>
        <time>2018-10-17T11:08:41Z</time>
      </trkpt>
      <trkpt lat="47.64594" lon="6.17895">
        <ele>223</ele>
        <time>2018-10-17T11:08:42Z</time>
      </trkpt>
      <trkpt lat="47.646" lon="6.17891">
        <ele>223</ele>
        <time>2018-10-17T11:08:43Z</time>
      </trkpt>
      <trkpt lat="47.64606" lon="6.17887">
        <ele>223</ele>
        <time>2018-10-17T11:08:44Z</time>
      </trkpt>
      <trkpt lat="47.64611" lon="6.17884">
        <ele>223</ele>
        <time>2018-10-17T11:08:45Z</time>
      </trkpt>
      <trkpt lat="47.64617" lon="6.17883">
        <ele>223</ele>
        <time>2018-10-17T11:08:46Z</time>
      </trkpt>
      <trkpt lat="47.64622" lon="6.17883">
        <ele>223</ele>
        <time>2018-10-17T11:08:47Z</time>
      </trkpt>
      <trkpt lat="47.64631" lon="6.17886">
        <ele>223</ele>
        <time>2018-10-17T11:08:49Z</time>
      </trkpt>
      <trkpt lat="47.64635" lon="6.17888">
        <ele>223</ele>
        <time>2018-10-17T11:08:50Z</time>
      </trkpt>
      <trkpt lat="47.6464" lon="6.1789">
        <ele>223</ele>
        <time>2018-10-17T11:08:51Z</time>
      </trkpt>
      <trkpt lat="47.64647" lon="6.17894">
        <ele>223</ele>
        <time>2018-10-17T11:08:53Z</time>
      </trkpt>
      <trkpt lat="47.64654" lon="6.17899">
        <ele>223</ele>
        <time>2018-10-17T11:08:55Z</time>
      </trkpt>
      <trkpt lat="47.64661" lon="6.17904">
        <ele>222</ele>
        <time>2018-10-17T11:08:57Z</time>
      </trkpt>
      <trkpt lat="47.64668" lon="6.17908">
        <ele>222</ele>
        <time>2018-10-17T11:08:59Z</time>
      </trkpt>
      <trkpt lat="47.64675" lon="6.17912">
        <ele>222</ele>
        <time>2018-10-17T11:09:01Z</time>
      </trkpt>
      <trkpt lat="47.64681" lon="6.17918">
        <ele>223</ele>
        <time>2018-10-17T11:09:03Z</time>
      </trkpt>
      <trkpt lat="47.64687" lon="6.17925">
        <ele>223</ele>
        <time>2018-10-17T11:09:05Z</time>
      </trkpt>
      <trkpt lat="47.64693" lon="6.17932">
        <ele>224</ele>
        <time>2018-10-17T11:09:07Z</time>
      </trkpt>
      <trkpt lat="47.64699" lon="6.1794">
        <ele>224</ele>
        <time>2018-10-17T11:09:09Z</time>
      </trkpt>
      <trkpt lat="47.64704" lon="6.17949">
        <ele>224</ele>
        <time>2018-10-17T11:09:11Z</time>
      </trkpt>
      <trkpt lat="47.64709" lon="6.17957">
        <ele>224</ele>
        <time>2018-10-17T11:09:13Z</time>
      </trkpt>
      <trkpt lat="47.64714" lon="6.17965">
        <ele>224</ele>
        <time>2018-10-17T11:09:15Z</time>
      </trkpt>
      <trkpt lat="47.64719" lon="6.17973">
        <ele>224</ele>
        <time>2018-10-17T11:09:17Z</time>
      </trkpt>
      <trkpt lat="47.64724" lon="6.17981">
        <ele>224</ele>
        <time>2018-10-17T11:09:19Z</time>
      </trkpt>
      <trkpt lat="47.64728" lon="6.17989">
        <ele>224</ele>
        <time>2018-10-17T11:09:21Z</time>
      </trkpt>
      <trkpt lat="47.64733" lon="6.17997">
        <ele>223</ele>
        <time>2018-10-17T11:09:23Z</time>
      </trkpt>
      <trkpt lat="47.64738" lon="6.18005">
        <ele>226</ele>
        <time>2018-10-17T11:09:25Z</time>
      </trkpt>
      <trkpt lat="47.64743" lon="6.18013">
        <ele>227</ele>
        <time>2018-10-17T11:09:27Z</time>
      </trkpt>
      <trkpt lat="47.64748" lon="6.18022">
        <ele>229</ele>
        <time>2018-10-17T11:09:29Z</time>
      </trkpt>
      <trkpt lat="47.64754" lon="6.18031">
        <ele>226</ele>
        <time>2018-10-17T11:09:31Z</time>
      </trkpt>
      <trkpt lat="47.6476" lon="6.18039">
        <ele>227</ele>
        <time>2018-10-17T11:09:33Z</time>
      </trkpt>
      <trkpt lat="47.64767" lon="6.18047">
        <ele>227</ele>
        <time>2018-10-17T11:09:35Z</time>
      </trkpt>
      <trkpt lat="47.64774" lon="6.18053">
        <ele>228</ele>
        <time>2018-10-17T11:09:37Z</time>
      </trkpt>
      <trkpt lat="47.64781" lon="6.18058">
        <ele>228</ele>
        <time>2018-10-17T11:09:39Z</time>
      </trkpt>
      <trkpt lat="47.64789" lon="6.18061">
        <ele>227</ele>
        <time>2018-10-17T11:09:41Z</time>
      </trkpt>
      <trkpt lat="47.64797" lon="6.18064">
        <ele>227</ele>
        <time>2018-10-17T11:09:43Z</time>
      </trkpt>
      <trkpt lat="47.64804" lon="6.18066">
        <ele>227</ele>
        <time>2018-10-17T11:09:45Z</time>
      </trkpt>
      <trkpt lat="47.64809" lon="6.18068">
        <ele>226</ele>
        <time>2018-10-17T11:09:47Z</time>
      </trkpt>
      <trkpt lat="47.64815" lon="6.1807">
        <ele>226</ele>
        <time>2018-10-17T11:09:49Z</time>
      </trkpt>
      <trkpt lat="47.6482" lon="6.18071">
        <ele>226</ele>
        <time>2018-10-17T11:09:51Z</time>
      </trkpt>
      <trkpt lat="47.64826" lon="6.18072">
        <ele>226</ele>
        <time>2018-10-17T11:09:53Z</time>
      </trkpt>
      <trkpt lat="47.64833" lon="6.18074">
        <ele>225</ele>
        <time>2018-10-17T11:09:55Z</time>
      </trkpt>
      <trkpt lat="47.64839" lon="6.18076">
        <ele>225</ele>
        <time>2018-10-17T11:09:57Z</time>
      </trkpt>
      <trkpt lat="47.64845" lon="6.18078">
        <ele>225</ele>
        <time>2018-10-17T11:09:59Z</time>
      </trkpt>
      <trkpt lat="47.64852" lon="6.1808">
        <ele>225</ele>
        <time>2018-10-17T11:10:01Z</time>
      </trkpt>
      <trkpt lat="47.64859" lon="6.18082">
        <ele>225</ele>
        <time>2018-10-17T11:10:03Z</time>
      </trkpt>
      <trkpt lat="47.6487" lon="6.18084">
        <ele>229</ele>
        <time>2018-10-17T11:10:05Z</time>
      </trkpt>
      <trkpt lat="47.64878" lon="6.18086">
        <ele>229</ele>
        <time>2018-10-17T11:10:07Z</time>
      </trkpt>
      <trkpt lat="47.64887" lon="6.18088">
        <ele>229</ele>
        <time>2018-10-17T11:10:09Z</time>
      </trkpt>
      <trkpt lat="47.64891" lon="6.1809">
        <ele>229</ele>
        <time>2018-10-17T11:10:10Z</time>
      </trkpt>
      <trkpt lat="47.64896" lon="6.18091">
        <ele>229</ele>
        <time>2018-10-17T11:10:11Z</time>
      </trkpt>
      <trkpt lat="47.649" lon="6.18091">
        <ele>229</ele>
        <time>2018-10-17T11:10:12Z</time>
      </trkpt>
      <trkpt lat="47.64905" lon="6.18092">
        <ele>229</ele>
        <time>2018-10-17T11:10:13Z</time>
      </trkpt>
      <trkpt lat="47.64913" lon="6.18094">
        <ele>229</ele>
        <time>2018-10-17T11:10:15Z</time>
      </trkpt>
      <trkpt lat="47.64922" lon="6.18096">
        <ele>230</ele>
        <time>2018-10-17T11:10:17Z</time>
      </trkpt>
      <trkpt lat="47.64929" lon="6.18098">
        <ele>231</ele>
        <time>2018-10-17T11:10:19Z</time>
      </trkpt>
      <trkpt lat="47.64936" lon="6.18099">
        <ele>231</ele>
        <time>2018-10-17T11:10:21Z</time>
      </trkpt>
      <trkpt lat="47.64943" lon="6.181">
        <ele>232</ele>
        <time>2018-10-17T11:10:23Z</time>
      </trkpt>
      <trkpt lat="47.64948" lon="6.181">
        <ele>232</ele>
        <time>2018-10-17T11:10:25Z</time>
      </trkpt>
      <trkpt lat="47.64954" lon="6.18101">
        <ele>232</ele>
        <time>2018-10-17T11:10:27Z</time>
      </trkpt>
      <trkpt lat="47.64961" lon="6.181">
        <ele>232</ele>
        <time>2018-10-17T11:10:28Z</time>
      </trkpt>
      <trkpt lat="47.6497" lon="6.18099">
        <ele>232</ele>
        <time>2018-10-17T11:10:30Z</time>
      </trkpt>
      <trkpt lat="47.64974" lon="6.18098">
        <ele>232</ele>
        <time>2018-10-17T11:10:31Z</time>
      </trkpt>
      <trkpt lat="47.6498" lon="6.18097">
        <ele>232</ele>
        <time>2018-10-17T11:10:32Z</time>
      </trkpt>
      <trkpt lat="47.64985" lon="6.18096">
        <ele>232</ele>
        <time>2018-10-17T11:10:33Z</time>
      </trkpt>
      <trkpt lat="47.64989" lon="6.18095">
        <ele>232</ele>
        <time>2018-10-17T11:10:34Z</time>
      </trkpt>
      <trkpt lat="47.64994" lon="6.18095">
        <ele>232</ele>
        <time>2018-10-17T11:10:35Z</time>
      </trkpt>
      <trkpt lat="47.64999" lon="6.18094">
        <ele>231</ele>
        <time>2018-10-17T11:10:36Z</time>
      </trkpt>
      <trkpt lat="47.65004" lon="6.18094">
        <ele>233</ele>
        <time>2018-10-17T11:10:37Z</time>
      </trkpt>
      <trkpt lat="47.65012" lon="6.18093">
        <ele>233</ele>
        <time>2018-10-17T11:10:39Z</time>
      </trkpt>
      <trkpt lat="47.6502" lon="6.18092">
        <ele>234</ele>
        <time>2018-10-17T11:10:41Z</time>
      </trkpt>
      <trkpt lat="47.65027" lon="6.18092">
        <ele>235</ele>
        <time>2018-10-17T11:10:43Z</time>
      </trkpt>
      <trkpt lat="47.65035" lon="6.18092">
        <ele>235</ele>
        <time>2018-10-17T11:10:45Z</time>
      </trkpt>
      <trkpt lat="47.65042" lon="6.18093">
        <ele>235</ele>
        <time>2018-10-17T11:10:47Z</time>
      </trkpt>
      <trkpt lat="47.65049" lon="6.18095">
        <ele>235</ele>
        <time>2018-10-17T11:10:49Z</time>
      </trkpt>
      <trkpt lat="47.65057" lon="6.18097">
        <ele>235</ele>
        <time>2018-10-17T11:10:51Z</time>
      </trkpt>
      <trkpt lat="47.65065" lon="6.18099">
        <ele>235</ele>
        <time>2018-10-17T11:10:53Z</time>
      </trkpt>
      <trkpt lat="47.65073" lon="6.181">
        <ele>235</ele>
        <time>2018-10-17T11:10:55Z</time>
      </trkpt>
      <trkpt lat="47.65082" lon="6.18102">
        <ele>235</ele>
        <time>2018-10-17T11:10:57Z</time>
      </trkpt>
      <trkpt lat="47.65086" lon="6.18102">
        <ele>236</ele>
        <time>2018-10-17T11:10:58Z</time>
      </trkpt>
      <trkpt lat="47.65095" lon="6.18103">
        <ele>237</ele>
        <time>2018-10-17T11:11:00Z</time>
      </trkpt>
      <trkpt lat="47.65104" lon="6.18102">
        <ele>237</ele>
        <time>2018-10-17T11:11:02Z</time>
      </trkpt>
      <trkpt lat="47.65111" lon="6.181">
        <ele>238</ele>
        <time>2018-10-17T11:11:04Z</time>
      </trkpt>
      <trkpt lat="47.6512" lon="6.18097">
        <ele>238</ele>
        <time>2018-10-17T11:11:06Z</time>
      </trkpt>
      <trkpt lat="47.65128" lon="6.18093">
        <ele>238</ele>
        <time>2018-10-17T11:11:08Z</time>
      </trkpt>
      <trkpt lat="47.65136" lon="6.18087">
        <ele>237</ele>
        <time>2018-10-17T11:11:10Z</time>
      </trkpt>
      <trkpt lat="47.6514" lon="6.18084">
        <ele>237</ele>
        <time>2018-10-17T11:11:11Z</time>
      </trkpt>
      <trkpt lat="47.65144" lon="6.18081">
        <ele>232</ele>
        <time>2018-10-17T11:11:12Z</time>
      </trkpt>
      <trkpt lat="47.6515" lon="6.18073">
        <ele>232</ele>
        <time>2018-10-17T11:11:14Z</time>
      </trkpt>
      <trkpt lat="47.65154" lon="6.18068">
        <ele>232</ele>
        <time>2018-10-17T11:11:15Z</time>
      </trkpt>
      <trkpt lat="47.65157" lon="6.18064">
        <ele>231</ele>
        <time>2018-10-17T11:11:16Z</time>
      </trkpt>
      <trkpt lat="47.6516" lon="6.18059">
        <ele>231</ele>
        <time>2018-10-17T11:11:17Z</time>
      </trkpt>
      <trkpt lat="47.65165" lon="6.18051">
        <ele>231</ele>
        <time>2018-10-17T11:11:19Z</time>
      </trkpt>
      <trkpt lat="47.6517" lon="6.18042">
        <ele>231</ele>
        <time>2018-10-17T11:11:21Z</time>
      </trkpt>
      <trkpt lat="47.65175" lon="6.18033">
        <ele>230</ele>
        <time>2018-10-17T11:11:23Z</time>
      </trkpt>
      <trkpt lat="47.6518" lon="6.18027">
        <ele>230</ele>
        <time>2018-10-17T11:11:25Z</time>
      </trkpt>
      <trkpt lat="47.65183" lon="6.18021">
        <ele>229</ele>
        <time>2018-10-17T11:11:27Z</time>
      </trkpt>
      <trkpt lat="47.65188" lon="6.18015">
        <ele>229</ele>
        <time>2018-10-17T11:11:29Z</time>
      </trkpt>
      <trkpt lat="47.65193" lon="6.18007">
        <ele>229</ele>
        <time>2018-10-17T11:11:31Z</time>
      </trkpt>
      <trkpt lat="47.65202" lon="6.17997">
        <ele>226</ele>
        <time>2018-10-17T11:11:33Z</time>
      </trkpt>
      <trkpt lat="47.65208" lon="6.17991">
        <ele>226</ele>
        <time>2018-10-17T11:11:35Z</time>
      </trkpt>
      <trkpt lat="47.65214" lon="6.17986">
        <ele>226</ele>
        <time>2018-10-17T11:11:37Z</time>
      </trkpt>
      <trkpt lat="47.6522" lon="6.17981">
        <ele>226</ele>
        <time>2018-10-17T11:11:39Z</time>
      </trkpt>
      <trkpt lat="47.65228" lon="6.17977">
        <ele>227</ele>
        <time>2018-10-17T11:11:41Z</time>
      </trkpt>
      <trkpt lat="47.65236" lon="6.17974">
        <ele>227</ele>
        <time>2018-10-17T11:11:43Z</time>
      </trkpt>
      <trkpt lat="47.65244" lon="6.17974">
        <ele>227</ele>
        <time>2018-10-17T11:11:45Z</time>
      </trkpt>
      <trkpt lat="47.65253" lon="6.17976">
        <ele>227</ele>
        <time>2018-10-17T11:11:48Z</time>
      </trkpt>
      <trkpt lat="47.65257" lon="6.17979">
        <ele>227</ele>
        <time>2018-10-17T11:11:49Z</time>
      </trkpt>
      <trkpt lat="47.65261" lon="6.17982">
        <ele>227</ele>
        <time>2018-10-17T11:11:50Z</time>
      </trkpt>
      <trkpt lat="47.65268" lon="6.17988">
        <ele>227</ele>
        <time>2018-10-17T11:11:52Z</time>
      </trkpt>
      <trkpt lat="47.65273" lon="6.17998">
        <ele>227</ele>
        <time>2018-10-17T11:11:54Z</time>
      </trkpt>
      <trkpt lat="47.65278" lon="6.18009">
        <ele>230</ele>
        <time>2018-10-17T11:11:56Z</time>
      </trkpt>
      <trkpt lat="47.65282" lon="6.1802">
        <ele>230</ele>
        <time>2018-10-17T11:11:58Z</time>
      </trkpt>
      <trkpt lat="47.65284" lon="6.18027">
        <ele>230</ele>
        <time>2018-10-17T11:11:59Z</time>
      </trkpt>
      <trkpt lat="47.65287" lon="6.18033">
        <ele>230</ele>
        <time>2018-10-17T11:12:00Z</time>
      </trkpt>
      <trkpt lat="47.65289" lon="6.1804">
        <ele>230</ele>
        <time>2018-10-17T11:12:01Z</time>
      </trkpt>
      <trkpt lat="47.65291" lon="6.18047">
        <ele>231</ele>
        <time>2018-10-17T11:12:02Z</time>
      </trkpt>
      <trkpt lat="47.65293" lon="6.18055">
        <ele>231</ele>
        <time>2018-10-17T11:12:03Z</time>
      </trkpt>
      <trkpt lat="47.65294" lon="6.18063">
        <ele>231</ele>
        <time>2018-10-17T11:12:04Z</time>
      </trkpt>
      <trkpt lat="47.65295" lon="6.1807">
        <ele>231</ele>
        <time>2018-10-17T11:12:05Z</time>
      </trkpt>
      <trkpt lat="47.65296" lon="6.18076">
        <ele>231</ele>
        <time>2018-10-17T11:12:06Z</time>
      </trkpt>
      <trkpt lat="47.65297" lon="6.18083">
        <ele>231</ele>
        <time>2018-10-17T11:12:07Z</time>
      </trkpt>
      <trkpt lat="47.65298" lon="6.1809">
        <ele>235</ele>
        <time>2018-10-17T11:12:08Z</time>
      </trkpt>
      <trkpt lat="47.65299" lon="6.18097">
        <ele>235</ele>
        <time>2018-10-17T11:12:09Z</time>
      </trkpt>
      <trkpt lat="47.653" lon="6.18103">
        <ele>235</ele>
        <time>2018-10-17T11:12:10Z</time>
      </trkpt>
      <trkpt lat="47.65303" lon="6.18116">
        <ele>236</ele>
        <time>2018-10-17T11:12:12Z</time>
      </trkpt>
      <trkpt lat="47.65306" lon="6.18128">
        <ele>236</ele>
        <time>2018-10-17T11:12:14Z</time>
      </trkpt>
      <trkpt lat="47.6531" lon="6.18139">
        <ele>236</ele>
        <time>2018-10-17T11:12:16Z</time>
      </trkpt>
      <trkpt lat="47.65315" lon="6.18149">
        <ele>235</ele>
        <time>2018-10-17T11:12:18Z</time>
      </trkpt>
      <trkpt lat="47.6532" lon="6.1816">
        <ele>233</ele>
        <time>2018-10-17T11:12:20Z</time>
      </trkpt>
      <trkpt lat="47.65326" lon="6.18169">
        <ele>234</ele>
        <time>2018-10-17T11:12:22Z</time>
      </trkpt>
      <trkpt lat="47.65332" lon="6.18178">
        <ele>235</ele>
        <time>2018-10-17T11:12:24Z</time>
      </trkpt>
      <trkpt lat="47.65338" lon="6.18186">
        <ele>231</ele>
        <time>2018-10-17T11:12:26Z</time>
      </trkpt>
      <trkpt lat="47.65344" lon="6.18193">
        <ele>232</ele>
        <time>2018-10-17T11:12:28Z</time>
      </trkpt>
      <trkpt lat="47.65351" lon="6.182">
        <ele>232</ele>
        <time>2018-10-17T11:12:30Z</time>
      </trkpt>
      <trkpt lat="47.65355" lon="6.18204">
        <ele>232</ele>
        <time>2018-10-17T11:12:31Z</time>
      </trkpt>
      <trkpt lat="47.65359" lon="6.18208">
        <ele>232</ele>
        <time>2018-10-17T11:12:32Z</time>
      </trkpt>
      <trkpt lat="47.65366" lon="6.18215">
        <ele>232</ele>
        <time>2018-10-17T11:12:34Z</time>
      </trkpt>
      <trkpt lat="47.65373" lon="6.18221">
        <ele>232</ele>
        <time>2018-10-17T11:12:36Z</time>
      </trkpt>
      <trkpt lat="47.6538" lon="6.18228">
        <ele>232</ele>
        <time>2018-10-17T11:12:38Z</time>
      </trkpt>
      <trkpt lat="47.65384" lon="6.1823">
        <ele>232</ele>
        <time>2018-10-17T11:12:39Z</time>
      </trkpt>
      <trkpt lat="47.65391" lon="6.18236">
        <ele>231</ele>
        <time>2018-10-17T11:12:41Z</time>
      </trkpt>
      <trkpt lat="47.65399" lon="6.18242">
        <ele>231</ele>
        <time>2018-10-17T11:12:43Z</time>
      </trkpt>
      <trkpt lat="47.65406" lon="6.18247">
        <ele>230</ele>
        <time>2018-10-17T11:12:45Z</time>
      </trkpt>
      <trkpt lat="47.65412" lon="6.1825">
        <ele>232</ele>
        <time>2018-10-17T11:12:47Z</time>
      </trkpt>
      <trkpt lat="47.65418" lon="6.18254">
        <ele>231</ele>
        <time>2018-10-17T11:12:49Z</time>
      </trkpt>
      <trkpt lat="47.65423" lon="6.18257">
        <ele>233</ele>
        <time>2018-10-17T11:12:51Z</time>
      </trkpt>
      <trkpt lat="47.65429" lon="6.18259">
        <ele>234</ele>
        <time>2018-10-17T11:12:53Z</time>
      </trkpt>
      <trkpt lat="47.65436" lon="6.18262">
        <ele>235</ele>
        <time>2018-10-17T11:12:56Z</time>
      </trkpt>
      <trkpt lat="47.65441" lon="6.18264">
        <ele>236</ele>
        <time>2018-10-17T11:12:58Z</time>
      </trkpt>
      <trkpt lat="47.65447" lon="6.18265">
        <ele>237</ele>
        <time>2018-10-17T11:13:00Z</time>
      </trkpt>
      <trkpt lat="47.65452" lon="6.18266">
        <ele>237</ele>
        <time>2018-10-17T11:13:02Z</time>
      </trkpt>
      <trkpt lat="47.65457" lon="6.18267">
        <ele>237</ele>
        <time>2018-10-17T11:13:04Z</time>
      </trkpt>
      <trkpt lat="47.65464" lon="6.18266">
        <ele>237</ele>
        <time>2018-10-17T11:13:07Z</time>
      </trkpt>
      <trkpt lat="47.65468" lon="6.18266">
        <ele>237</ele>
        <time>2018-10-17T11:13:09Z</time>
      </trkpt>
      <trkpt lat="47.65473" lon="6.18266">
        <ele>237</ele>
        <time>2018-10-17T11:13:11Z</time>
      </trkpt>
      <trkpt lat="47.65478" lon="6.18265">
        <ele>237</ele>
        <time>2018-10-17T11:13:13Z</time>
      </trkpt>
      <trkpt lat="47.65483" lon="6.18264">
        <ele>237</ele>
        <time>2018-10-17T11:13:15Z</time>
      </trkpt>
      <trkpt lat="47.65489" lon="6.18263">
        <ele>236</ele>
        <time>2018-10-17T11:13:17Z</time>
      </trkpt>
      <trkpt lat="47.65494" lon="6.18261">
        <ele>235</ele>
        <time>2018-10-17T11:13:19Z</time>
      </trkpt>
      <trkpt lat="47.655" lon="6.18258">
        <ele>236</ele>
        <time>2018-10-17T11:13:21Z</time>
      </trkpt>
      <trkpt lat="47.65506" lon="6.18256">
        <ele>236</ele>
        <time>2018-10-17T11:13:23Z</time>
      </trkpt>
      <trkpt lat="47.65512" lon="6.18253">
        <ele>237</ele>
        <time>2018-10-17T11:13:25Z</time>
      </trkpt>
      <trkpt lat="47.65518" lon="6.18251">
        <ele>239</ele>
        <time>2018-10-17T11:13:27Z</time>
      </trkpt>
      <trkpt lat="47.65523" lon="6.18248">
        <ele>232</ele>
        <time>2018-10-17T11:13:29Z</time>
      </trkpt>
      <trkpt lat="47.65529" lon="6.18246">
        <ele>233</ele>
        <time>2018-10-17T11:13:31Z</time>
      </trkpt>
      <trkpt lat="47.65533" lon="6.18243">
        <ele>233</ele>
        <time>2018-10-17T11:13:33Z</time>
      </trkpt>
      <trkpt lat="47.65538" lon="6.18241">
        <ele>233</ele>
        <time>2018-10-17T11:13:35Z</time>
      </trkpt>
      <trkpt lat="47.65543" lon="6.18239">
        <ele>233</ele>
        <time>2018-10-17T11:13:37Z</time>
      </trkpt>
      <trkpt lat="47.65548" lon="6.18237">
        <ele>234</ele>
        <time>2018-10-17T11:13:39Z</time>
      </trkpt>
      <trkpt lat="47.65553" lon="6.18234">
        <ele>234</ele>
        <time>2018-10-17T11:13:41Z</time>
      </trkpt>
      <trkpt lat="47.65558" lon="6.18231">
        <ele>234</ele>
        <time>2018-10-17T11:13:43Z</time>
      </trkpt>
      <trkpt lat="47.65562" lon="6.18227">
        <ele>234</ele>
        <time>2018-10-17T11:13:45Z</time>
      </trkpt>
      <trkpt lat="47.65568" lon="6.18222">
        <ele>234</ele>
        <time>2018-10-17T11:13:47Z</time>
      </trkpt>
      <trkpt lat="47.65574" lon="6.18215">
        <ele>233</ele>
        <time>2018-10-17T11:13:49Z</time>
      </trkpt>
      <trkpt lat="47.6558" lon="6.18207">
        <ele>233</ele>
        <time>2018-10-17T11:13:51Z</time>
      </trkpt>
      <trkpt lat="47.65586" lon="6.18198">
        <ele>236</ele>
        <time>2018-10-17T11:13:53Z</time>
      </trkpt>
      <trkpt lat="47.65591" lon="6.18189">
        <ele>235</ele>
        <time>2018-10-17T11:13:55Z</time>
      </trkpt>
      <trkpt lat="47.656" lon="6.18176">
        <ele>234</ele>
        <time>2018-10-17T11:13:57Z</time>
      </trkpt>
      <trkpt lat="47.65604" lon="6.18172">
        <ele>234</ele>
        <time>2018-10-17T11:13:58Z</time>
      </trkpt>
      <trkpt lat="47.65608" lon="6.18168">
        <ele>235</ele>
        <time>2018-10-17T11:13:59Z</time>
      </trkpt>
      <trkpt lat="47.65613" lon="6.18166">
        <ele>230</ele>
        <time>2018-10-17T11:14:00Z</time>
      </trkpt>
      <trkpt lat="47.65618" lon="6.18165">
        <ele>230</ele>
        <time>2018-10-17T11:14:01Z</time>
      </trkpt>
      <trkpt lat="47.65622" lon="6.18166">
        <ele>231</ele>
        <time>2018-10-17T11:14:02Z</time>
      </trkpt>
      <trkpt lat="47.65629" lon="6.18167">
        <ele>237</ele>
        <time>2018-10-17T11:14:04Z</time>
      </trkpt>
      <trkpt lat="47.65634" lon="6.18168">
        <ele>237</ele>
        <time>2018-10-17T11:14:06Z</time>
      </trkpt>
      <trkpt lat="47.65638" lon="6.18165">
        <ele>232</ele>
        <time>2018-10-17T11:14:09Z</time>
      </trkpt>
      <trkpt lat="47.65643" lon="6.18162">
        <ele>233</ele>
        <time>2018-10-17T11:14:11Z</time>
      </trkpt>
      <trkpt lat="47.65648" lon="6.18159">
        <ele>233</ele>
        <time>2018-10-17T11:14:13Z</time>
      </trkpt>
      <trkpt lat="47.65653" lon="6.18155">
        <ele>233</ele>
        <time>2018-10-17T11:14:15Z</time>
      </trkpt>
      <trkpt lat="47.65659" lon="6.18151">
        <ele>233</ele>
        <time>2018-10-17T11:14:17Z</time>
      </trkpt>
      <trkpt lat="47.65663" lon="6.18147">
        <ele>233</ele>
        <time>2018-10-17T11:14:19Z</time>
      </trkpt>
      <trkpt lat="47.65668" lon="6.18142">
        <ele>238</ele>
        <time>2018-10-17T11:14:21Z</time>
      </trkpt>
      <trkpt lat="47.65673" lon="6.18138">
        <ele>238</ele>
        <time>2018-10-17T11:14:23Z</time>
      </trkpt>
      <trkpt lat="47.65679" lon="6.18132">
        <ele>238</ele>
        <time>2018-10-17T11:14:25Z</time>
      </trkpt>
      <trkpt lat="47.65683" lon="6.18124">
        <ele>237</ele>
        <time>2018-10-17T11:14:27Z</time>
      </trkpt>
      <trkpt lat="47.65688" lon="6.18114">
        <ele>237</ele>
        <time>2018-10-17T11:14:29Z</time>
      </trkpt>
      <trkpt lat="47.65693" lon="6.18104">
        <ele>237</ele>
        <time>2018-10-17T11:14:31Z</time>
      </trkpt>
      <trkpt lat="47.65697" lon="6.18096">
        <ele>237</ele>
        <time>2018-10-17T11:14:33Z</time>
      </trkpt>
      <trkpt lat="47.657" lon="6.1809">
        <ele>237</ele>
        <time>2018-10-17T11:14:35Z</time>
      </trkpt>
      <trkpt lat="47.65703" lon="6.18084">
        <ele>237</ele>
        <time>2018-10-17T11:14:37Z</time>
      </trkpt>
      <trkpt lat="47.65708" lon="6.18078">
        <ele>233</ele>
        <time>2018-10-17T11:14:39Z</time>
      </trkpt>
      <trkpt lat="47.65712" lon="6.18072">
        <ele>233</ele>
        <time>2018-10-17T11:14:41Z</time>
      </trkpt>
      <trkpt lat="47.65716" lon="6.18067">
        <ele>233</ele>
        <time>2018-10-17T11:14:43Z</time>
      </trkpt>
      <trkpt lat="47.65722" lon="6.18062">
        <ele>233</ele>
        <time>2018-10-17T11:14:45Z</time>
      </trkpt>
      <trkpt lat="47.65727" lon="6.18058">
        <ele>234</ele>
        <time>2018-10-17T11:14:47Z</time>
      </trkpt>
      <trkpt lat="47.65732" lon="6.18054">
        <ele>234</ele>
        <time>2018-10-17T11:14:49Z</time>
      </trkpt>
      <trkpt lat="47.65737" lon="6.1805">
        <ele>234</ele>
        <time>2018-10-17T11:14:51Z</time>
      </trkpt>
      <trkpt lat="47.65743" lon="6.18046">
        <ele>234</ele>
        <time>2018-10-17T11:14:53Z</time>
      </trkpt>
      <trkpt lat="47.65747" lon="6.18043">
        <ele>233</ele>
        <time>2018-10-17T11:14:55Z</time>
      </trkpt>
      <trkpt lat="47.65753" lon="6.18039">
        <ele>239</ele>
        <time>2018-10-17T11:14:58Z</time>
      </trkpt>
      <trkpt lat="47.65759" lon="6.18037">
        <ele>239</ele>
        <time>2018-10-17T11:15:01Z</time>
      </trkpt>
      <trkpt lat="47.65764" lon="6.18032">
        <ele>238</ele>
        <time>2018-10-17T11:15:04Z</time>
      </trkpt>
      <trkpt lat="47.65769" lon="6.18028">
        <ele>238</ele>
        <time>2018-10-17T11:15:07Z</time>
      </trkpt>
      <trkpt lat="47.65774" lon="6.18025">
        <ele>238</ele>
        <time>2018-10-17T11:15:10Z</time>
      </trkpt>
      <trkpt lat="47.65779" lon="6.18019">
        <ele>238</ele>
        <time>2018-10-17T11:15:13Z</time>
      </trkpt>
      <trkpt lat="47.65783" lon="6.18016">
        <ele>239</ele>
        <time>2018-10-17T11:15:15Z</time>
      </trkpt>
      <trkpt lat="47.65788" lon="6.18012">
        <ele>239</ele>
        <time>2018-10-17T11:15:17Z</time>
      </trkpt>
      <trkpt lat="47.65792" lon="6.18008">
        <ele>239</ele>
        <time>2018-10-17T11:15:19Z</time>
      </trkpt>
      <trkpt lat="47.65798" lon="6.18003">
        <ele>239</ele>
        <time>2018-10-17T11:15:21Z</time>
      </trkpt>
      <trkpt lat="47.65804" lon="6.17998">
        <ele>234</ele>
        <time>2018-10-17T11:15:23Z</time>
      </trkpt>
      <trkpt lat="47.65812" lon="6.17991">
        <ele>234</ele>
        <time>2018-10-17T11:15:25Z</time>
      </trkpt>
      <trkpt lat="47.65816" lon="6.17987">
        <ele>234</ele>
        <time>2018-10-17T11:15:26Z</time>
      </trkpt>
      <trkpt lat="47.65827" lon="6.17978">
        <ele>234</ele>
        <time>2018-10-17T11:15:27Z</time>
      </trkpt>
      <trkpt lat="47.65832" lon="6.17974">
        <ele>234</ele>
        <time>2018-10-17T11:15:28Z</time>
      </trkpt>
      <trkpt lat="47.65838" lon="6.1797">
        <ele>235</ele>
        <time>2018-10-17T11:15:29Z</time>
      </trkpt>
      <trkpt lat="47.65843" lon="6.17966">
        <ele>234</ele>
        <time>2018-10-17T11:15:30Z</time>
      </trkpt>
      <trkpt lat="47.65849" lon="6.17962">
        <ele>234</ele>
        <time>2018-10-17T11:15:31Z</time>
      </trkpt>
      <trkpt lat="47.65855" lon="6.17959">
        <ele>234</ele>
        <time>2018-10-17T11:15:32Z</time>
      </trkpt>
      <trkpt lat="47.65861" lon="6.17956">
        <ele>233</ele>
        <time>2018-10-17T11:15:33Z</time>
      </trkpt>
      <trkpt lat="47.65866" lon="6.17953">
        <ele>233</ele>
        <time>2018-10-17T11:15:34Z</time>
      </trkpt>
      <trkpt lat="47.65873" lon="6.17952">
        <ele>233</ele>
        <time>2018-10-17T11:15:35Z</time>
      </trkpt>
      <trkpt lat="47.65879" lon="6.17952">
        <ele>233</ele>
        <time>2018-10-17T11:15:36Z</time>
      </trkpt>
      <trkpt lat="47.65885" lon="6.17953">
        <ele>233</ele>
        <time>2018-10-17T11:15:37Z</time>
      </trkpt>
      <trkpt lat="47.65891" lon="6.17957">
        <ele>233</ele>
        <time>2018-10-17T11:15:38Z</time>
      </trkpt>
      <trkpt lat="47.65896" lon="6.17961">
        <ele>234</ele>
        <time>2018-10-17T11:15:39Z</time>
      </trkpt>
      <trkpt lat="47.659" lon="6.17966">
        <ele>234</ele>
        <time>2018-10-17T11:15:40Z</time>
      </trkpt>
      <trkpt lat="47.65906" lon="6.17973">
        <ele>235</ele>
        <time>2018-10-17T11:15:42Z</time>
      </trkpt>
      <trkpt lat="47.65911" lon="6.17976">
        <ele>235</ele>
        <time>2018-10-17T11:15:44Z</time>
      </trkpt>
      <trkpt lat="47.65917" lon="6.17981">
        <ele>235</ele>
        <time>2018-10-17T11:15:47Z</time>
      </trkpt>
      <trkpt lat="47.65923" lon="6.17986">
        <ele>235</ele>
        <time>2018-10-17T11:15:50Z</time>
      </trkpt>
      <trkpt lat="47.65927" lon="6.17989">
        <ele>235</ele>
        <time>2018-10-17T11:15:52Z</time>
      </trkpt>
      <trkpt lat="47.65932" lon="6.17992">
        <ele>235</ele>
        <time>2018-10-17T11:15:54Z</time>
      </trkpt>
      <trkpt lat="47.65937" lon="6.17995">
        <ele>235</ele>
        <time>2018-10-17T11:15:56Z</time>
      </trkpt>
      <trkpt lat="47.65941" lon="6.17999">
        <ele>235</ele>
        <time>2018-10-17T11:15:58Z</time>
      </trkpt>
      <trkpt lat="47.65945" lon="6.18003">
        <ele>240</ele>
        <time>2018-10-17T11:16:00Z</time>
      </trkpt>
      <trkpt lat="47.65949" lon="6.18007">
        <ele>241</ele>
        <time>2018-10-17T11:16:02Z</time>
      </trkpt>
      <trkpt lat="47.65955" lon="6.18011">
        <ele>241</ele>
        <time>2018-10-17T11:16:05Z</time>
      </trkpt>
      <trkpt lat="47.65959" lon="6.18017">
        <ele>241</ele>
        <time>2018-10-17T11:16:08Z</time>
      </trkpt>
      <trkpt lat="47.65964" lon="6.18022">
        <ele>241</ele>
        <time>2018-10-17T11:16:11Z</time>
      </trkpt>
      <trkpt lat="47.65968" lon="6.18027">
        <ele>241</ele>
        <time>2018-10-17T11:16:14Z</time>
      </trkpt>
      <trkpt lat="47.65972" lon="6.18031">
        <ele>241</ele>
        <time>2018-10-17T11:16:17Z</time>
      </trkpt>
      <trkpt lat="47.65976" lon="6.18035">
        <ele>241</ele>
        <time>2018-10-17T11:16:20Z</time>
      </trkpt>
      <trkpt lat="47.65981" lon="6.18039">
        <ele>242</ele>
        <time>2018-10-17T11:16:23Z</time>
      </trkpt>
      <trkpt lat="47.65985" lon="6.18044">
        <ele>242</ele>
        <time>2018-10-17T11:16:26Z</time>
      </trkpt>
      <trkpt lat="47.65989" lon="6.18048">
        <ele>242</ele>
        <time>2018-10-17T11:16:29Z</time>
      </trkpt>
      <trkpt lat="47.65993" lon="6.18053">
        <ele>243</ele>
        <time>2018-10-17T11:16:32Z</time>
      </trkpt>
      <trkpt lat="47.65996" lon="6.18057">
        <ele>243</ele>
        <time>2018-10-17T11:16:35Z</time>
      </trkpt>
      <trkpt lat="47.66" lon="6.18062">
        <ele>243</ele>
        <time>2018-10-17T11:16:38Z</time>
      </trkpt>
      <trkpt lat="47.66004" lon="6.18068">
        <ele>243</ele>
        <time>2018-10-17T11:16:42Z</time>
      </trkpt>
      <trkpt lat="47.66008" lon="6.18073">
        <ele>243</ele>
        <time>2018-10-17T11:16:46Z</time>
      </trkpt>
      <trkpt lat="47.66011" lon="6.18078">
        <ele>243</ele>
        <time>2018-10-17T11:16:49Z</time>
      </trkpt>
      <trkpt lat="47.66015" lon="6.18084">
        <ele>248</ele>
        <time>2018-10-17T11:16:53Z</time>
      </trkpt>
      <trkpt lat="47.66019" lon="6.18089">
        <ele>249</ele>
        <time>2018-10-17T11:16:57Z</time>
      </trkpt>
      <trkpt lat="47.66023" lon="6.18094">
        <ele>250</ele>
        <time>2018-10-17T11:17:00Z</time>
      </trkpt>
      <trkpt lat="47.66027" lon="6.18098">
        <ele>250</ele>
        <time>2018-10-17T11:17:03Z</time>
      </trkpt>
      <trkpt lat="47.66033" lon="6.18101">
        <ele>251</ele>
        <time>2018-10-17T11:17:07Z</time>
      </trkpt>
      <trkpt lat="47.66037" lon="6.18102">
        <ele>251</ele>
        <time>2018-10-17T11:17:10Z</time>
      </trkpt>
      <trkpt lat="47.66042" lon="6.18103">
        <ele>251</ele>
        <time>2018-10-17T11:17:13Z</time>
      </trkpt>
      <trkpt lat="47.66047" lon="6.18105">
        <ele>251</ele>
        <time>2018-10-17T11:17:16Z</time>
      </trkpt>
      <trkpt lat="47.66053" lon="6.18107">
        <ele>251</ele>
        <time>2018-10-17T11:17:19Z</time>
      </trkpt>
      <trkpt lat="47.66058" lon="6.1811">
        <ele>251</ele>
        <time>2018-10-17T11:17:22Z</time>
      </trkpt>
      <trkpt lat="47.66064" lon="6.18112">
        <ele>251</ele>
        <time>2018-10-17T11:17:25Z</time>
      </trkpt>
      <trkpt lat="47.66069" lon="6.18114">
        <ele>252</ele>
        <time>2018-10-17T11:17:28Z</time>
      </trkpt>
      <trkpt lat="47.66074" lon="6.18116">
        <ele>252</ele>
        <time>2018-10-17T11:17:31Z</time>
      </trkpt>
      <trkpt lat="47.6608" lon="6.18117">
        <ele>252</ele>
        <time>2018-10-17T11:17:34Z</time>
      </trkpt>
      <trkpt lat="47.66085" lon="6.18119">
        <ele>251</ele>
        <time>2018-10-17T11:17:37Z</time>
      </trkpt>
      <trkpt lat="47.66091" lon="6.18121">
        <ele>251</ele>
        <time>2018-10-17T11:17:40Z</time>
      </trkpt>
      <trkpt lat="47.66096" lon="6.18123">
        <ele>251</ele>
        <time>2018-10-17T11:17:43Z</time>
      </trkpt>
      <trkpt lat="47.66101" lon="6.18125">
        <ele>251</ele>
        <time>2018-10-17T11:17:46Z</time>
      </trkpt>
      <trkpt lat="47.66106" lon="6.18128">
        <ele>251</ele>
        <time>2018-10-17T11:17:49Z</time>
      </trkpt>
      <trkpt lat="47.66111" lon="6.18131">
        <ele>251</ele>
        <time>2018-10-17T11:17:52Z</time>
      </trkpt>
      <trkpt lat="47.66116" lon="6.18134">
        <ele>251</ele>
        <time>2018-10-17T11:17:55Z</time>
      </trkpt>
      <trkpt lat="47.66121" lon="6.18136">
        <ele>251</ele>
        <time>2018-10-17T11:17:59Z</time>
      </trkpt>
      <trkpt lat="47.66125" lon="6.18139">
        <ele>251</ele>
        <time>2018-10-17T11:18:02Z</time>
      </trkpt>
      <trkpt lat="47.6613" lon="6.18142">
        <ele>251</ele>
        <time>2018-10-17T11:18:05Z</time>
      </trkpt>
      <trkpt lat="47.66135" lon="6.18144">
        <ele>251</ele>
        <time>2018-10-17T11:18:08Z</time>
      </trkpt>
      <trkpt lat="47.66141" lon="6.18147">
        <ele>251</ele>
        <time>2018-10-17T11:18:11Z</time>
      </trkpt>
      <trkpt lat="47.66147" lon="6.1815">
        <ele>251</ele>
        <time>2018-10-17T11:18:14Z</time>
      </trkpt>
      <trkpt lat="47.66153" lon="6.18154">
        <ele>251</ele>
        <time>2018-10-17T11:18:17Z</time>
      </trkpt>
      <trkpt lat="47.66158" lon="6.18159">
        <ele>251</ele>
        <time>2018-10-17T11:18:20Z</time>
      </trkpt>
      <trkpt lat="47.66163" lon="6.18163">
        <ele>252</ele>
        <time>2018-10-17T11:18:23Z</time>
      </trkpt>
      <trkpt lat="47.66167" lon="6.18168">
        <ele>252</ele>
        <time>2018-10-17T11:18:26Z</time>
      </trkpt>
      <trkpt lat="47.66171" lon="6.18173">
        <ele>253</ele>
        <time>2018-10-17T11:18:29Z</time>
      </trkpt>
      <trkpt lat="47.66176" lon="6.18177">
        <ele>253</ele>
        <time>2018-10-17T11:18:32Z</time>
      </trkpt>
      <trkpt lat="47.6618" lon="6.18182">
        <ele>253</ele>
        <time>2018-10-17T11:18:35Z</time>
      </trkpt>
      <trkpt lat="47.66184" lon="6.18188">
        <ele>254</ele>
        <time>2018-10-17T11:18:38Z</time>
      </trkpt>
      <trkpt lat="47.66188" lon="6.18193">
        <ele>254</ele>
        <time>2018-10-17T11:18:41Z</time>
      </trkpt>
      <trkpt lat="47.66192" lon="6.18198">
        <ele>254</ele>
        <time>2018-10-17T11:18:44Z</time>
      </trkpt>
      <trkpt lat="47.66196" lon="6.18203">
        <ele>255</ele>
        <time>2018-10-17T11:18:47Z</time>
      </trkpt>
      <trkpt lat="47.662" lon="6.18208">
        <ele>255</ele>
        <time>2018-10-17T11:18:50Z</time>
      </trkpt>
      <trkpt lat="47.66203" lon="6.18214">
        <ele>255</ele>
        <time>2018-10-17T11:18:53Z</time>
      </trkpt>
      <trkpt lat="47.66206" lon="6.18219">
        <ele>255</ele>
        <time>2018-10-17T11:18:56Z</time>
      </trkpt>
      <trkpt lat="47.6621" lon="6.18224">
        <ele>255</ele>
        <time>2018-10-17T11:18:59Z</time>
      </trkpt>
      <trkpt lat="47.66213" lon="6.18231">
        <ele>256</ele>
        <time>2018-10-17T11:19:03Z</time>
      </trkpt>
      <trkpt lat="47.66217" lon="6.18238">
        <ele>256</ele>
        <time>2018-10-17T11:19:07Z</time>
      </trkpt>
      <trkpt lat="47.6622" lon="6.18244">
        <ele>256</ele>
        <time>2018-10-17T11:19:10Z</time>
      </trkpt>
      <trkpt lat="47.66222" lon="6.1825">
        <ele>256</ele>
        <time>2018-10-17T11:19:13Z</time>
      </trkpt>
      <trkpt lat="47.66224" lon="6.18256">
        <ele>261</ele>
        <time>2018-10-17T11:19:16Z</time>
      </trkpt>
      <trkpt lat="47.66226" lon="6.18263">
        <ele>261</ele>
        <time>2018-10-17T11:19:20Z</time>
      </trkpt>
      <trkpt lat="47.66227" lon="6.18271">
        <ele>262</ele>
        <time>2018-10-17T11:19:24Z</time>
      </trkpt>
      <trkpt lat="47.66228" lon="6.18279">
        <ele>262</ele>
        <time>2018-10-17T11:19:28Z</time>
      </trkpt>
      <trkpt lat="47.66229" lon="6.18286">
        <ele>262</ele>
        <time>2018-10-17T11:19:32Z</time>
      </trkpt>
      <trkpt lat="47.66228" lon="6.18293">
        <ele>263</ele>
        <time>2018-10-17T11:19:36Z</time>
      </trkpt>
      <trkpt lat="47.66224" lon="6.183">
        <ele>263</ele>
        <time>2018-10-17T11:19:40Z</time>
      </trkpt>
      <trkpt lat="47.6622" lon="6.18303">
        <ele>263</ele>
        <time>2018-10-17T11:19:43Z</time>
      </trkpt>
      <trkpt lat="47.66214" lon="6.18304">
        <ele>264</ele>
        <time>2018-10-17T11:19:47Z</time>
      </trkpt>
      <trkpt lat="47.66209" lon="6.18302">
        <ele>264</ele>
        <time>2018-10-17T11:19:51Z</time>
      </trkpt>
      <trkpt lat="47.66204" lon="6.183">
        <ele>264</ele>
        <time>2018-10-17T11:19:54Z</time>
      </trkpt>
      <trkpt lat="47.662" lon="6.18297">
        <ele>264</ele>
        <time>2018-10-17T11:19:57Z</time>
      </trkpt>
      <trkpt lat="47.66194" lon="6.18295">
        <ele>264</ele>
        <time>2018-10-17T11:20:01Z</time>
      </trkpt>
      <trkpt lat="47.66189" lon="6.18292">
        <ele>264</ele>
        <time>2018-10-17T11:20:05Z</time>
      </trkpt>
      <trkpt lat="47.66183" lon="6.18289">
        <ele>264</ele>
        <time>2018-10-17T11:20:09Z</time>
      </trkpt>
      <trkpt lat="47.66179" lon="6.18286">
        <ele>264</ele>
        <time>2018-10-17T11:20:12Z</time>
      </trkpt>
      <trkpt lat="47.66173" lon="6.18282">
        <ele>264</ele>
        <time>2018-10-17T11:20:15Z</time>
      </trkpt>
      <trkpt lat="47.66168" lon="6.18279">
        <ele>264</ele>
        <time>2018-10-17T11:20:17Z</time>
      </trkpt>
      <trkpt lat="47.66163" lon="6.18277">
        <ele>268</ele>
        <time>2018-10-17T11:20:19Z</time>
      </trkpt>
      <trkpt lat="47.66158" lon="6.18275">
        <ele>268</ele>
        <time>2018-10-17T11:20:21Z</time>
      </trkpt>
      <trkpt lat="47.66153" lon="6.18273">
        <ele>268</ele>
        <time>2018-10-17T11:20:23Z</time>
      </trkpt>
      <trkpt lat="47.66147" lon="6.1827">
        <ele>268</ele>
        <time>2018-10-17T11:20:25Z</time>
      </trkpt>
      <trkpt lat="47.66142" lon="6.18268">
        <ele>268</ele>
        <time>2018-10-17T11:20:27Z</time>
      </trkpt>
      <trkpt lat="47.66137" lon="6.18265">
        <ele>268</ele>
        <time>2018-10-17T11:20:29Z</time>
      </trkpt>
      <trkpt lat="47.66132" lon="6.18263">
        <ele>268</ele>
        <time>2018-10-17T11:20:31Z</time>
      </trkpt>
      <trkpt lat="47.66125" lon="6.1826">
        <ele>269</ele>
        <time>2018-10-17T11:20:33Z</time>
      </trkpt>
      <trkpt lat="47.66118" lon="6.18257">
        <ele>269</ele>
        <time>2018-10-17T11:20:34Z</time>
      </trkpt>
      <trkpt lat="47.6611" lon="6.18254">
        <ele>269</ele>
        <time>2018-10-17T11:20:36Z</time>
      </trkpt>
      <trkpt lat="47.66103" lon="6.18252">
        <ele>270</ele>
        <time>2018-10-17T11:20:38Z</time>
      </trkpt>
      <trkpt lat="47.66096" lon="6.18251">
        <ele>270</ele>
        <time>2018-10-17T11:20:40Z</time>
      </trkpt>
      <trkpt lat="47.66089" lon="6.18249">
        <ele>268</ele>
        <time>2018-10-17T11:20:42Z</time>
      </trkpt>
      <trkpt lat="47.66082" lon="6.18248">
        <ele>269</ele>
        <time>2018-10-17T11:20:44Z</time>
      </trkpt>
      <trkpt lat="47.66075" lon="6.18247">
        <ele>268</ele>
        <time>2018-10-17T11:20:46Z</time>
      </trkpt>
      <trkpt lat="47.66067" lon="6.18246">
        <ele>267</ele>
        <time>2018-10-17T11:20:48Z</time>
      </trkpt>
      <trkpt lat="47.66059" lon="6.18246">
        <ele>267</ele>
        <time>2018-10-17T11:20:50Z</time>
      </trkpt>
      <trkpt lat="47.66051" lon="6.18247">
        <ele>267</ele>
        <time>2018-10-17T11:20:52Z</time>
      </trkpt>
      <trkpt lat="47.66043" lon="6.18246">
        <ele>267</ele>
        <time>2018-10-17T11:20:54Z</time>
      </trkpt>
      <trkpt lat="47.66036" lon="6.18246">
        <ele>267</ele>
        <time>2018-10-17T11:20:56Z</time>
      </trkpt>
      <trkpt lat="47.66028" lon="6.18248">
        <ele>267</ele>
        <time>2018-10-17T11:20:58Z</time>
      </trkpt>
      <trkpt lat="47.66021" lon="6.18249">
        <ele>267</ele>
        <time>2018-10-17T11:21:00Z</time>
      </trkpt>
      <trkpt lat="47.66013" lon="6.18245">
        <ele>268</ele>
        <time>2018-10-17T11:21:02Z</time>
      </trkpt>
      <trkpt lat="47.66006" lon="6.18236">
        <ele>267</ele>
        <time>2018-10-17T11:21:04Z</time>
      </trkpt>
      <trkpt lat="47.66001" lon="6.18233">
        <ele>267</ele>
        <time>2018-10-17T11:21:05Z</time>
      </trkpt>
      <trkpt lat="47.65996" lon="6.1823">
        <ele>267</ele>
        <time>2018-10-17T11:21:06Z</time>
      </trkpt>
      <trkpt lat="47.6599" lon="6.18229">
        <ele>266</ele>
        <time>2018-10-17T11:21:07Z</time>
      </trkpt>
      <trkpt lat="47.65983" lon="6.18228">
        <ele>266</ele>
        <time>2018-10-17T11:21:08Z</time>
      </trkpt>
      <trkpt lat="47.65977" lon="6.18227">
        <ele>266</ele>
        <time>2018-10-17T11:21:09Z</time>
      </trkpt>
      <trkpt lat="47.6597" lon="6.18225">
        <ele>265</ele>
        <time>2018-10-17T11:21:10Z</time>
      </trkpt>
      <trkpt lat="47.65963" lon="6.18223">
        <ele>265</ele>
        <time>2018-10-17T11:21:11Z</time>
      </trkpt>
      <trkpt lat="47.65956" lon="6.18219">
        <ele>265</ele>
        <time>2018-10-17T11:21:12Z</time>
      </trkpt>
      <trkpt lat="47.65949" lon="6.18214">
        <ele>265</ele>
        <time>2018-10-17T11:21:13Z</time>
      </trkpt>
      <trkpt lat="47.65944" lon="6.18207">
        <ele>264</ele>
        <time>2018-10-17T11:21:14Z</time>
      </trkpt>
      <trkpt lat="47.65938" lon="6.18201">
        <ele>264</ele>
        <time>2018-10-17T11:21:15Z</time>
      </trkpt>
      <trkpt lat="47.65931" lon="6.18196">
        <ele>264</ele>
        <time>2018-10-17T11:21:16Z</time>
      </trkpt>
      <trkpt lat="47.65924" lon="6.18194">
        <ele>263</ele>
        <time>2018-10-17T11:21:17Z</time>
      </trkpt>
      <trkpt lat="47.65916" lon="6.18193">
        <ele>263</ele>
        <time>2018-10-17T11:21:18Z</time>
      </trkpt>
      <trkpt lat="47.65908" lon="6.18192">
        <ele>263</ele>
        <time>2018-10-17T11:21:19Z</time>
      </trkpt>
      <trkpt lat="47.659" lon="6.1819">
        <ele>263</ele>
        <time>2018-10-17T11:21:20Z</time>
      </trkpt>
      <trkpt lat="47.65892" lon="6.18188">
        <ele>263</ele>
        <time>2018-10-17T11:21:21Z</time>
      </trkpt>
      <trkpt lat="47.65885" lon="6.18187">
        <ele>263</ele>
        <time>2018-10-17T11:21:22Z</time>
      </trkpt>
      <trkpt lat="47.65879" lon="6.18184">
        <ele>263</ele>
        <time>2018-10-17T11:21:23Z</time>
      </trkpt>
      <trkpt lat="47.65873" lon="6.18181">
        <ele>263</ele>
        <time>2018-10-17T11:21:24Z</time>
      </trkpt>
      <trkpt lat="47.65867" lon="6.18179">
        <ele>263</ele>
        <time>2018-10-17T11:21:25Z</time>
      </trkpt>
      <trkpt lat="47.65861" lon="6.18177">
        <ele>263</ele>
        <time>2018-10-17T11:21:26Z</time>
      </trkpt>
      <trkpt lat="47.65857" lon="6.18178">
        <ele>262</ele>
        <time>2018-10-17T11:21:27Z</time>
      </trkpt>
      <trkpt lat="47.65851" lon="6.18186">
        <ele>263</ele>
        <time>2018-10-17T11:21:29Z</time>
      </trkpt>
      <trkpt lat="47.65849" lon="6.18196">
        <ele>263</ele>
        <time>2018-10-17T11:21:32Z</time>
      </trkpt>
      <trkpt lat="47.6585" lon="6.18203">
        <ele>263</ele>
        <time>2018-10-17T11:21:34Z</time>
      </trkpt>
      <trkpt lat="47.65852" lon="6.18211">
        <ele>263</ele>
        <time>2018-10-17T11:21:36Z</time>
      </trkpt>
      <trkpt lat="47.65852" lon="6.1822">
        <ele>264</ele>
        <time>2018-10-17T11:21:39Z</time>
      </trkpt>
      <trkpt lat="47.65851" lon="6.18228">
        <ele>264</ele>
        <time>2018-10-17T11:21:42Z</time>
      </trkpt>
      <trkpt lat="47.65847" lon="6.18232">
        <ele>264</ele>
        <time>2018-10-17T11:21:45Z</time>
      </trkpt>
      <trkpt lat="47.65841" lon="6.18235">
        <ele>264</ele>
        <time>2018-10-17T11:21:48Z</time>
      </trkpt>
      <trkpt lat="47.65835" lon="6.1824">
        <ele>265</ele>
        <time>2018-10-17T11:21:51Z</time>
      </trkpt>
      <trkpt lat="47.65829" lon="6.18244">
        <ele>264</ele>
        <time>2018-10-17T11:21:54Z</time>
      </trkpt>
      <trkpt lat="47.65823" lon="6.18249">
        <ele>263</ele>
        <time>2018-10-17T11:21:57Z</time>
      </trkpt>
      <trkpt lat="47.65819" lon="6.18252">
        <ele>266</ele>
        <time>2018-10-17T11:21:59Z</time>
      </trkpt>
      <trkpt lat="47.65813" lon="6.18254">
        <ele>266</ele>
        <time>2018-10-17T11:22:00Z</time>
      </trkpt>
      <trkpt lat="47.65808" lon="6.18258">
        <ele>266</ele>
        <time>2018-10-17T11:22:02Z</time>
      </trkpt>
      <trkpt lat="47.65799" lon="6.18264">
        <ele>266</ele>
        <time>2018-10-17T11:22:03Z</time>
      </trkpt>
      <trkpt lat="47.65791" lon="6.1827">
        <ele>266</ele>
        <time>2018-10-17T11:22:05Z</time>
      </trkpt>
      <trkpt lat="47.65783" lon="6.18275">
        <ele>266</ele>
        <time>2018-10-17T11:22:07Z</time>
      </trkpt>
      <trkpt lat="47.65779" lon="6.18278">
        <ele>266</ele>
        <time>2018-10-17T11:22:08Z</time>
      </trkpt>
      <trkpt lat="47.65772" lon="6.18283">
        <ele>266</ele>
        <time>2018-10-17T11:22:10Z</time>
      </trkpt>
      <trkpt lat="47.65765" lon="6.18289">
        <ele>267</ele>
        <time>2018-10-17T11:22:12Z</time>
      </trkpt>
      <trkpt lat="47.65758" lon="6.18296">
        <ele>267</ele>
        <time>2018-10-17T11:22:14Z</time>
      </trkpt>
      <trkpt lat="47.65754" lon="6.18299">
        <ele>267</ele>
        <time>2018-10-17T11:22:15Z</time>
      </trkpt>
      <trkpt lat="47.65747" lon="6.18306">
        <ele>265</ele>
        <time>2018-10-17T11:22:17Z</time>
      </trkpt>
      <trkpt lat="47.6574" lon="6.18314">
        <ele>266</ele>
        <time>2018-10-17T11:22:19Z</time>
      </trkpt>
      <trkpt lat="47.65736" lon="6.18318">
        <ele>266</ele>
        <time>2018-10-17T11:22:20Z</time>
      </trkpt>
      <trkpt lat="47.65732" lon="6.18322">
        <ele>266</ele>
        <time>2018-10-17T11:22:21Z</time>
      </trkpt>
      <trkpt lat="47.65726" lon="6.1833">
        <ele>266</ele>
        <time>2018-10-17T11:22:23Z</time>
      </trkpt>
      <trkpt lat="47.65721" lon="6.18336">
        <ele>272</ele>
        <time>2018-10-17T11:22:25Z</time>
      </trkpt>
      <trkpt lat="47.65717" lon="6.18341">
        <ele>272</ele>
        <time>2018-10-17T11:22:28Z</time>
      </trkpt>
      <trkpt lat="47.65712" lon="6.18346">
        <ele>272</ele>
        <time>2018-10-17T11:22:31Z</time>
      </trkpt>
      <trkpt lat="47.65709" lon="6.18352">
        <ele>272</ele>
        <time>2018-10-17T11:22:35Z</time>
      </trkpt>
      <trkpt lat="47.65707" lon="6.18359">
        <ele>273</ele>
        <time>2018-10-17T11:22:39Z</time>
      </trkpt>
      <trkpt lat="47.65703" lon="6.18365">
        <ele>273</ele>
        <time>2018-10-17T11:22:42Z</time>
      </trkpt>
      <trkpt lat="47.65699" lon="6.18369">
        <ele>273</ele>
        <time>2018-10-17T11:22:45Z</time>
      </trkpt>
      <trkpt lat="47.65694" lon="6.18372">
        <ele>273</ele>
        <time>2018-10-17T11:22:48Z</time>
      </trkpt>
      <trkpt lat="47.65689" lon="6.18375">
        <ele>273</ele>
        <time>2018-10-17T11:22:51Z</time>
      </trkpt>
      <trkpt lat="47.65683" lon="6.18377">
        <ele>274</ele>
        <time>2018-10-17T11:22:54Z</time>
      </trkpt>
      <trkpt lat="47.65678" lon="6.18378">
        <ele>274</ele>
        <time>2018-10-17T11:22:56Z</time>
      </trkpt>
      <trkpt lat="47.65671" lon="6.1838">
        <ele>274</ele>
        <time>2018-10-17T11:22:57Z</time>
      </trkpt>
      <trkpt lat="47.65664" lon="6.18382">
        <ele>272</ele>
        <time>2018-10-17T11:22:59Z</time>
      </trkpt>
      <trkpt lat="47.65656" lon="6.18384">
        <ele>272</ele>
        <time>2018-10-17T11:23:01Z</time>
      </trkpt>
      <trkpt lat="47.65649" lon="6.18385">
        <ele>272</ele>
        <time>2018-10-17T11:23:03Z</time>
      </trkpt>
      <trkpt lat="47.65641" lon="6.18386">
        <ele>272</ele>
        <time>2018-10-17T11:23:05Z</time>
      </trkpt>
      <trkpt lat="47.65635" lon="6.18388">
        <ele>272</ele>
        <time>2018-10-17T11:23:07Z</time>
      </trkpt>
      <trkpt lat="47.65629" lon="6.18391">
        <ele>272</ele>
        <time>2018-10-17T11:23:09Z</time>
      </trkpt>
      <trkpt lat="47.65623" lon="6.18394">
        <ele>272</ele>
        <time>2018-10-17T11:23:11Z</time>
      </trkpt>
      <trkpt lat="47.65616" lon="6.18397">
        <ele>271</ele>
        <time>2018-10-17T11:23:13Z</time>
      </trkpt>
      <trkpt lat="47.65609" lon="6.184">
        <ele>272</ele>
        <time>2018-10-17T11:23:15Z</time>
      </trkpt>
      <trkpt lat="47.65604" lon="6.18402">
        <ele>272</ele>
        <time>2018-10-17T11:23:16Z</time>
      </trkpt>
      <trkpt lat="47.65596" lon="6.18405">
        <ele>272</ele>
        <time>2018-10-17T11:23:18Z</time>
      </trkpt>
      <trkpt lat="47.65588" lon="6.18408">
        <ele>273</ele>
        <time>2018-10-17T11:23:20Z</time>
      </trkpt>
      <trkpt lat="47.6558" lon="6.18412">
        <ele>272</ele>
        <time>2018-10-17T11:23:22Z</time>
      </trkpt>
      <trkpt lat="47.65576" lon="6.18414">
        <ele>271</ele>
        <time>2018-10-17T11:23:23Z</time>
      </trkpt>
      <trkpt lat="47.65568" lon="6.18417">
        <ele>274</ele>
        <time>2018-10-17T11:23:24Z</time>
      </trkpt>
      <trkpt lat="47.65563" lon="6.1842">
        <ele>273</ele>
        <time>2018-10-17T11:23:25Z</time>
      </trkpt>
      <trkpt lat="47.65558" lon="6.18421">
        <ele>273</ele>
        <time>2018-10-17T11:23:26Z</time>
      </trkpt>
      <trkpt lat="47.65554" lon="6.18423">
        <ele>273</ele>
        <time>2018-10-17T11:23:27Z</time>
      </trkpt>
      <trkpt lat="47.65549" lon="6.18424">
        <ele>273</ele>
        <time>2018-10-17T11:23:28Z</time>
      </trkpt>
      <trkpt lat="47.65544" lon="6.18424">
        <ele>273</ele>
        <time>2018-10-17T11:23:29Z</time>
      </trkpt>
      <trkpt lat="47.65536" lon="6.18429">
        <ele>272</ele>
        <time>2018-10-17T11:23:31Z</time>
      </trkpt>
      <trkpt lat="47.65532" lon="6.18432">
        <ele>272</ele>
        <time>2018-10-17T11:23:32Z</time>
      </trkpt>
      <trkpt lat="47.65528" lon="6.18434">
        <ele>272</ele>
        <time>2018-10-17T11:23:33Z</time>
      </trkpt>
      <trkpt lat="47.65524" lon="6.18437">
        <ele>272</ele>
        <time>2018-10-17T11:23:34Z</time>
      </trkpt>
      <trkpt lat="47.65519" lon="6.18441">
        <ele>272</ele>
        <time>2018-10-17T11:23:35Z</time>
      </trkpt>
      <trkpt lat="47.65514" lon="6.18445">
        <ele>272</ele>
        <time>2018-10-17T11:23:36Z</time>
      </trkpt>
      <trkpt lat="47.65509" lon="6.18449">
        <ele>272</ele>
        <time>2018-10-17T11:23:37Z</time>
      </trkpt>
      <trkpt lat="47.65505" lon="6.18453">
        <ele>272</ele>
        <time>2018-10-17T11:23:38Z</time>
      </trkpt>
      <trkpt lat="47.65499" lon="6.18457">
        <ele>269</ele>
        <time>2018-10-17T11:23:39Z</time>
      </trkpt>
      <trkpt lat="47.65493" lon="6.1846">
        <ele>269</ele>
        <time>2018-10-17T11:23:40Z</time>
      </trkpt>
      <trkpt lat="47.65488" lon="6.18464">
        <ele>269</ele>
        <time>2018-10-17T11:23:41Z</time>
      </trkpt>
      <trkpt lat="47.65483" lon="6.18468">
        <ele>269</ele>
        <time>2018-10-17T11:23:42Z</time>
      </trkpt>
      <trkpt lat="47.65478" lon="6.18472">
        <ele>269</ele>
        <time>2018-10-17T11:23:43Z</time>
      </trkpt>
      <trkpt lat="47.65473" lon="6.18475">
        <ele>269</ele>
        <time>2018-10-17T11:23:44Z</time>
      </trkpt>
      <trkpt lat="47.65468" lon="6.18478">
        <ele>269</ele>
        <time>2018-10-17T11:23:45Z</time>
      </trkpt>
      <trkpt lat="47.65463" lon="6.18482">
        <ele>269</ele>
        <time>2018-10-17T11:23:46Z</time>
      </trkpt>
      <trkpt lat="47.65458" lon="6.18486">
        <ele>268</ele>
        <time>2018-10-17T11:23:47Z</time>
      </trkpt>
      <trkpt lat="47.65454" lon="6.18489">
        <ele>268</ele>
        <time>2018-10-17T11:23:48Z</time>
      </trkpt>
      <trkpt lat="47.6545" lon="6.18493">
        <ele>268</ele>
        <time>2018-10-17T11:23:49Z</time>
      </trkpt>
      <trkpt lat="47.65446" lon="6.18496">
        <ele>268</ele>
        <time>2018-10-17T11:23:50Z</time>
      </trkpt>
      <trkpt lat="47.65439" lon="6.18504">
        <ele>270</ele>
        <time>2018-10-17T11:23:52Z</time>
      </trkpt>
      <trkpt lat="47.65432" lon="6.18512">
        <ele>270</ele>
        <time>2018-10-17T11:23:54Z</time>
      </trkpt>
      <trkpt lat="47.65426" lon="6.18519">
        <ele>270</ele>
        <time>2018-10-17T11:23:56Z</time>
      </trkpt>
      <trkpt lat="47.65421" lon="6.18526">
        <ele>270</ele>
        <time>2018-10-17T11:23:58Z</time>
      </trkpt>
      <trkpt lat="47.65416" lon="6.18533">
        <ele>268</ele>
        <time>2018-10-17T11:24:00Z</time>
      </trkpt>
      <trkpt lat="47.65411" lon="6.18541">
        <ele>268</ele>
        <time>2018-10-17T11:24:02Z</time>
      </trkpt>
      <trkpt lat="47.65406" lon="6.18548">
        <ele>269</ele>
        <time>2018-10-17T11:24:04Z</time>
      </trkpt>
      <trkpt lat="47.654" lon="6.18557">
        <ele>269</ele>
        <time>2018-10-17T11:24:06Z</time>
      </trkpt>
      <trkpt lat="47.65395" lon="6.18565">
        <ele>269</ele>
        <time>2018-10-17T11:24:08Z</time>
      </trkpt>
      <trkpt lat="47.6539" lon="6.18574">
        <ele>269</ele>
        <time>2018-10-17T11:24:10Z</time>
      </trkpt>
      <trkpt lat="47.65385" lon="6.18583">
        <ele>269</ele>
        <time>2018-10-17T11:24:12Z</time>
      </trkpt>
      <trkpt lat="47.65379" lon="6.18591">
        <ele>271</ele>
        <time>2018-10-17T11:24:14Z</time>
      </trkpt>
      <trkpt lat="47.65374" lon="6.18599">
        <ele>271</ele>
        <time>2018-10-17T11:24:16Z</time>
      </trkpt>
      <trkpt lat="47.65369" lon="6.18606">
        <ele>270</ele>
        <time>2018-10-17T11:24:18Z</time>
      </trkpt>
      <trkpt lat="47.65364" lon="6.18613">
        <ele>270</ele>
        <time>2018-10-17T11:24:20Z</time>
      </trkpt>
      <trkpt lat="47.65361" lon="6.18618">
        <ele>270</ele>
        <time>2018-10-17T11:24:22Z</time>
      </trkpt>
      <trkpt lat="47.65356" lon="6.18625">
        <ele>270</ele>
        <time>2018-10-17T11:24:25Z</time>
      </trkpt>
      <trkpt lat="47.65352" lon="6.1863">
        <ele>270</ele>
        <time>2018-10-17T11:24:27Z</time>
      </trkpt>
      <trkpt lat="47.65347" lon="6.18636">
        <ele>270</ele>
        <time>2018-10-17T11:24:30Z</time>
      </trkpt>
      <trkpt lat="47.65343" lon="6.18641">
        <ele>270</ele>
        <time>2018-10-17T11:24:33Z</time>
      </trkpt>
      <trkpt lat="47.65339" lon="6.18648">
        <ele>270</ele>
        <time>2018-10-17T11:24:36Z</time>
      </trkpt>
      <trkpt lat="47.65335" lon="6.18654">
        <ele>270</ele>
        <time>2018-10-17T11:24:39Z</time>
      </trkpt>
      <trkpt lat="47.6533" lon="6.18661">
        <ele>269</ele>
        <time>2018-10-17T11:24:42Z</time>
      </trkpt>
      <trkpt lat="47.65327" lon="6.18666">
        <ele>269</ele>
        <time>2018-10-17T11:24:44Z</time>
      </trkpt>
      <trkpt lat="47.65324" lon="6.18672">
        <ele>269</ele>
        <time>2018-10-17T11:24:46Z</time>
      </trkpt>
      <trkpt lat="47.6532" lon="6.18678">
        <ele>269</ele>
        <time>2018-10-17T11:24:48Z</time>
      </trkpt>
      <trkpt lat="47.65316" lon="6.18683">
        <ele>269</ele>
        <time>2018-10-17T11:24:50Z</time>
      </trkpt>
      <trkpt lat="47.65313" lon="6.18688">
        <ele>269</ele>
        <time>2018-10-17T11:24:52Z</time>
      </trkpt>
      <trkpt lat="47.65309" lon="6.18693">
        <ele>269</ele>
        <time>2018-10-17T11:24:54Z</time>
      </trkpt>
      <trkpt lat="47.65305" lon="6.18697">
        <ele>269</ele>
        <time>2018-10-17T11:24:56Z</time>
      </trkpt>
      <trkpt lat="47.65299" lon="6.18702">
        <ele>268</ele>
        <time>2018-10-17T11:24:58Z</time>
      </trkpt>
      <trkpt lat="47.65294" lon="6.18708">
        <ele>268</ele>
        <time>2018-10-17T11:25:00Z</time>
      </trkpt>
      <trkpt lat="47.6529" lon="6.18714">
        <ele>268</ele>
        <time>2018-10-17T11:25:02Z</time>
      </trkpt>
      <trkpt lat="47.65284" lon="6.18722">
        <ele>268</ele>
        <time>2018-10-17T11:25:04Z</time>
      </trkpt>
      <trkpt lat="47.65278" lon="6.1873">
        <ele>268</ele>
        <time>2018-10-17T11:25:06Z</time>
      </trkpt>
      <trkpt lat="47.65271" lon="6.18739">
        <ele>268</ele>
        <time>2018-10-17T11:25:08Z</time>
      </trkpt>
      <trkpt lat="47.65264" lon="6.18748">
        <ele>268</ele>
        <time>2018-10-17T11:25:09Z</time>
      </trkpt>
      <trkpt lat="47.6526" lon="6.18752">
        <ele>268</ele>
        <time>2018-10-17T11:25:10Z</time>
      </trkpt>
      <trkpt lat="47.65257" lon="6.18756">
        <ele>268</ele>
        <time>2018-10-17T11:25:11Z</time>
      </trkpt>
      <trkpt lat="47.65253" lon="6.1876">
        <ele>268</ele>
        <time>2018-10-17T11:25:12Z</time>
      </trkpt>
      <trkpt lat="47.65249" lon="6.18765">
        <ele>267</ele>
        <time>2018-10-17T11:25:13Z</time>
      </trkpt>
      <trkpt lat="47.65245" lon="6.18769">
        <ele>267</ele>
        <time>2018-10-17T11:25:14Z</time>
      </trkpt>
      <trkpt lat="47.65241" lon="6.18774">
        <ele>267</ele>
        <time>2018-10-17T11:25:15Z</time>
      </trkpt>
      <trkpt lat="47.65237" lon="6.18779">
        <ele>267</ele>
        <time>2018-10-17T11:25:16Z</time>
      </trkpt>
      <trkpt lat="47.65233" lon="6.18784">
        <ele>268</ele>
        <time>2018-10-17T11:25:17Z</time>
      </trkpt>
      <trkpt lat="47.65229" lon="6.18788">
        <ele>268</ele>
        <time>2018-10-17T11:25:18Z</time>
      </trkpt>
      <trkpt lat="47.65225" lon="6.18792">
        <ele>268</ele>
        <time>2018-10-17T11:25:19Z</time>
      </trkpt>
      <trkpt lat="47.65221" lon="6.18796">
        <ele>268</ele>
        <time>2018-10-17T11:25:20Z</time>
      </trkpt>
      <trkpt lat="47.65214" lon="6.18803">
        <ele>268</ele>
        <time>2018-10-17T11:25:22Z</time>
      </trkpt>
      <trkpt lat="47.65211" lon="6.18808">
        <ele>268</ele>
        <time>2018-10-17T11:25:23Z</time>
      </trkpt>
      <trkpt lat="47.65208" lon="6.18813">
        <ele>268</ele>
        <time>2018-10-17T11:25:24Z</time>
      </trkpt>
      <trkpt lat="47.65203" lon="6.18822">
        <ele>268</ele>
        <time>2018-10-17T11:25:26Z</time>
      </trkpt>
      <trkpt lat="47.65197" lon="6.18831">
        <ele>268</ele>
        <time>2018-10-17T11:25:28Z</time>
      </trkpt>
      <trkpt lat="47.65194" lon="6.18836">
        <ele>269</ele>
        <time>2018-10-17T11:25:29Z</time>
      </trkpt>
      <trkpt lat="47.6519" lon="6.1884">
        <ele>269</ele>
        <time>2018-10-17T11:25:30Z</time>
      </trkpt>
      <trkpt lat="47.65183" lon="6.18846">
        <ele>269</ele>
        <time>2018-10-17T11:25:32Z</time>
      </trkpt>
      <trkpt lat="47.65176" lon="6.18851">
        <ele>269</ele>
        <time>2018-10-17T11:25:34Z</time>
      </trkpt>
      <trkpt lat="47.65171" lon="6.18857">
        <ele>269</ele>
        <time>2018-10-17T11:25:36Z</time>
      </trkpt>
      <trkpt lat="47.65166" lon="6.18861">
        <ele>269</ele>
        <time>2018-10-17T11:25:38Z</time>
      </trkpt>
      <trkpt lat="47.65161" lon="6.18866">
        <ele>269</ele>
        <time>2018-10-17T11:25:40Z</time>
      </trkpt>
      <trkpt lat="47.65156" lon="6.18872">
        <ele>269</ele>
        <time>2018-10-17T11:25:42Z</time>
      </trkpt>
      <trkpt lat="47.65151" lon="6.18877">
        <ele>269</ele>
        <time>2018-10-17T11:25:44Z</time>
      </trkpt>
      <trkpt lat="47.65147" lon="6.18881">
        <ele>269</ele>
        <time>2018-10-17T11:25:45Z</time>
      </trkpt>
      <trkpt lat="47.65141" lon="6.18889">
        <ele>269</ele>
        <time>2018-10-17T11:25:47Z</time>
      </trkpt>
      <trkpt lat="47.65137" lon="6.18893">
        <ele>269</ele>
        <time>2018-10-17T11:25:48Z</time>
      </trkpt>
      <trkpt lat="47.65133" lon="6.18898">
        <ele>269</ele>
        <time>2018-10-17T11:25:49Z</time>
      </trkpt>
      <trkpt lat="47.65129" lon="6.18902">
        <ele>269</ele>
        <time>2018-10-17T11:25:50Z</time>
      </trkpt>
      <trkpt lat="47.65124" lon="6.18907">
        <ele>269</ele>
        <time>2018-10-17T11:25:51Z</time>
      </trkpt>
      <trkpt lat="47.6512" lon="6.18912">
        <ele>269</ele>
        <time>2018-10-17T11:25:52Z</time>
      </trkpt>
      <trkpt lat="47.65116" lon="6.18916">
        <ele>269</ele>
        <time>2018-10-17T11:25:53Z</time>
      </trkpt>
      <trkpt lat="47.65113" lon="6.1892">
        <ele>270</ele>
        <time>2018-10-17T11:25:54Z</time>
      </trkpt>
      <trkpt lat="47.65106" lon="6.18928">
        <ele>270</ele>
        <time>2018-10-17T11:25:56Z</time>
      </trkpt>
      <trkpt lat="47.65099" lon="6.18935">
        <ele>270</ele>
        <time>2018-10-17T11:25:58Z</time>
      </trkpt>
      <trkpt lat="47.65094" lon="6.1894">
        <ele>270</ele>
        <time>2018-10-17T11:26:00Z</time>
      </trkpt>
      <trkpt lat="47.6509" lon="6.18944">
        <ele>270</ele>
        <time>2018-10-17T11:26:02Z</time>
      </trkpt>
      <trkpt lat="47.65086" lon="6.18949">
        <ele>270</ele>
        <time>2018-10-17T11:26:05Z</time>
      </trkpt>
      <trkpt lat="47.65082" lon="6.18955">
        <ele>268</ele>
        <time>2018-10-17T11:26:08Z</time>
      </trkpt>
      <trkpt lat="47.65077" lon="6.1896">
        <ele>268</ele>
        <time>2018-10-17T11:26:10Z</time>
      </trkpt>
      <trkpt lat="47.65072" lon="6.18967">
        <ele>268</ele>
        <time>2018-10-17T11:26:12Z</time>
      </trkpt>
      <trkpt lat="47.65067" lon="6.18974">
        <ele>268</ele>
        <time>2018-10-17T11:26:14Z</time>
      </trkpt>
      <trkpt lat="47.65062" lon="6.18982">
        <ele>268</ele>
        <time>2018-10-17T11:26:16Z</time>
      </trkpt>
      <trkpt lat="47.65056" lon="6.18989">
        <ele>268</ele>
        <time>2018-10-17T11:26:18Z</time>
      </trkpt>
      <trkpt lat="47.6505" lon="6.18997">
        <ele>267</ele>
        <time>2018-10-17T11:26:20Z</time>
      </trkpt>
      <trkpt lat="47.65044" lon="6.19004">
        <ele>267</ele>
        <time>2018-10-17T11:26:21Z</time>
      </trkpt>
      <trkpt lat="47.6504" lon="6.19007">
        <ele>267</ele>
        <time>2018-10-17T11:26:22Z</time>
      </trkpt>
      <trkpt lat="47.65036" lon="6.19011">
        <ele>266</ele>
        <time>2018-10-17T11:26:23Z</time>
      </trkpt>
      <trkpt lat="47.65032" lon="6.19015">
        <ele>266</ele>
        <time>2018-10-17T11:26:24Z</time>
      </trkpt>
      <trkpt lat="47.65027" lon="6.19019">
        <ele>266</ele>
        <time>2018-10-17T11:26:25Z</time>
      </trkpt>
      <trkpt lat="47.65022" lon="6.19024">
        <ele>266</ele>
        <time>2018-10-17T11:26:26Z</time>
      </trkpt>
      <trkpt lat="47.65018" lon="6.1903">
        <ele>266</ele>
        <time>2018-10-17T11:26:27Z</time>
      </trkpt>
      <trkpt lat="47.65013" lon="6.19035">
        <ele>266</ele>
        <time>2018-10-17T11:26:28Z</time>
      </trkpt>
      <trkpt lat="47.65008" lon="6.19041">
        <ele>266</ele>
        <time>2018-10-17T11:26:29Z</time>
      </trkpt>
      <trkpt lat="47.65004" lon="6.19046">
        <ele>266</ele>
        <time>2018-10-17T11:26:30Z</time>
      </trkpt>
      <trkpt lat="47.65" lon="6.19052">
        <ele>263</ele>
        <time>2018-10-17T11:26:31Z</time>
      </trkpt>
      <trkpt lat="47.64997" lon="6.19059">
        <ele>263</ele>
        <time>2018-10-17T11:26:32Z</time>
      </trkpt>
      <trkpt lat="47.64995" lon="6.19065">
        <ele>263</ele>
        <time>2018-10-17T11:26:33Z</time>
      </trkpt>
      <trkpt lat="47.64996" lon="6.19076">
        <ele>263</ele>
        <time>2018-10-17T11:26:35Z</time>
      </trkpt>
      <trkpt lat="47.65" lon="6.19084">
        <ele>264</ele>
        <time>2018-10-17T11:26:37Z</time>
      </trkpt>
      <trkpt lat="47.65006" lon="6.1909">
        <ele>264</ele>
        <time>2018-10-17T11:26:39Z</time>
      </trkpt>
      <trkpt lat="47.65011" lon="6.19095">
        <ele>265</ele>
        <time>2018-10-17T11:26:41Z</time>
      </trkpt>
      <trkpt lat="47.65015" lon="6.19101">
        <ele>265</ele>
        <time>2018-10-17T11:26:43Z</time>
      </trkpt>
      <trkpt lat="47.6502" lon="6.19108">
        <ele>265</ele>
        <time>2018-10-17T11:26:45Z</time>
      </trkpt>
      <trkpt lat="47.65024" lon="6.19114">
        <ele>265</ele>
        <time>2018-10-17T11:26:47Z</time>
      </trkpt>
      <trkpt lat="47.65027" lon="6.19119">
        <ele>265</ele>
        <time>2018-10-17T11:26:49Z</time>
      </trkpt>
      <trkpt lat="47.65031" lon="6.19125">
        <ele>265</ele>
        <time>2018-10-17T11:26:51Z</time>
      </trkpt>
      <trkpt lat="47.65035" lon="6.19131">
        <ele>265</ele>
        <time>2018-10-17T11:26:53Z</time>
      </trkpt>
      <trkpt lat="47.65039" lon="6.19137">
        <ele>265</ele>
        <time>2018-10-17T11:26:55Z</time>
      </trkpt>
      <trkpt lat="47.65043" lon="6.19144">
        <ele>265</ele>
        <time>2018-10-17T11:26:57Z</time>
      </trkpt>
      <trkpt lat="47.65047" lon="6.19151">
        <ele>266</ele>
        <time>2018-10-17T11:26:59Z</time>
      </trkpt>
      <trkpt lat="47.65051" lon="6.19157">
        <ele>266</ele>
        <time>2018-10-17T11:27:01Z</time>
      </trkpt>
      <trkpt lat="47.65055" lon="6.19164">
        <ele>266</ele>
        <time>2018-10-17T11:27:03Z</time>
      </trkpt>
      <trkpt lat="47.6506" lon="6.1917">
        <ele>266</ele>
        <time>2018-10-17T11:27:05Z</time>
      </trkpt>
      <trkpt lat="47.65064" lon="6.19177">
        <ele>266</ele>
        <time>2018-10-17T11:27:07Z</time>
      </trkpt>
      <trkpt lat="47.65068" lon="6.19184">
        <ele>266</ele>
        <time>2018-10-17T11:27:09Z</time>
      </trkpt>
      <trkpt lat="47.65072" lon="6.1919">
        <ele>266</ele>
        <time>2018-10-17T11:27:11Z</time>
      </trkpt>
      <trkpt lat="47.65076" lon="6.19197">
        <ele>266</ele>
        <time>2018-10-17T11:27:13Z</time>
      </trkpt>
      <trkpt lat="47.65081" lon="6.19203">
        <ele>266</ele>
        <time>2018-10-17T11:27:15Z</time>
      </trkpt>
      <trkpt lat="47.65085" lon="6.1921">
        <ele>268</ele>
        <time>2018-10-17T11:27:17Z</time>
      </trkpt>
      <trkpt lat="47.65089" lon="6.19216">
        <ele>268</ele>
        <time>2018-10-17T11:27:19Z</time>
      </trkpt>
      <trkpt lat="47.65093" lon="6.19222">
        <ele>268</ele>
        <time>2018-10-17T11:27:21Z</time>
      </trkpt>
      <trkpt lat="47.65097" lon="6.19228">
        <ele>268</ele>
        <time>2018-10-17T11:27:23Z</time>
      </trkpt>
      <trkpt lat="47.65101" lon="6.19233">
        <ele>268</ele>
        <time>2018-10-17T11:27:25Z</time>
      </trkpt>
      <trkpt lat="47.65105" lon="6.19239">
        <ele>268</ele>
        <time>2018-10-17T11:27:27Z</time>
      </trkpt>
      <trkpt lat="47.65109" lon="6.19245">
        <ele>268</ele>
        <time>2018-10-17T11:27:29Z</time>
      </trkpt>
      <trkpt lat="47.65113" lon="6.19251">
        <ele>268</ele>
        <time>2018-10-17T11:27:31Z</time>
      </trkpt>
      <trkpt lat="47.65116" lon="6.19256">
        <ele>268</ele>
        <time>2018-10-17T11:27:33Z</time>
      </trkpt>
      <trkpt lat="47.6512" lon="6.19261">
        <ele>268</ele>
        <time>2018-10-17T11:27:35Z</time>
      </trkpt>
      <trkpt lat="47.65124" lon="6.19267">
        <ele>268</ele>
        <time>2018-10-17T11:27:37Z</time>
      </trkpt>
      <trkpt lat="47.65128" lon="6.19272">
        <ele>268</ele>
        <time>2018-10-17T11:27:39Z</time>
      </trkpt>
      <trkpt lat="47.65133" lon="6.19278">
        <ele>268</ele>
        <time>2018-10-17T11:27:41Z</time>
      </trkpt>
      <trkpt lat="47.65137" lon="6.19283">
        <ele>268</ele>
        <time>2018-10-17T11:27:43Z</time>
      </trkpt>
      <trkpt lat="47.65141" lon="6.19288">
        <ele>268</ele>
        <time>2018-10-17T11:27:45Z</time>
      </trkpt>
      <trkpt lat="47.65146" lon="6.19293">
        <ele>268</ele>
        <time>2018-10-17T11:27:47Z</time>
      </trkpt>
      <trkpt lat="47.65151" lon="6.19298">
        <ele>268</ele>
        <time>2018-10-17T11:27:49Z</time>
      </trkpt>
      <trkpt lat="47.65156" lon="6.19303">
        <ele>268</ele>
        <time>2018-10-17T11:27:51Z</time>
      </trkpt>
      <trkpt lat="47.65161" lon="6.19308">
        <ele>268</ele>
        <time>2018-10-17T11:27:53Z</time>
      </trkpt>
      <trkpt lat="47.65167" lon="6.19314">
        <ele>270</ele>
        <time>2018-10-17T11:27:55Z</time>
      </trkpt>
      <trkpt lat="47.65172" lon="6.19319">
        <ele>269</ele>
        <time>2018-10-17T11:27:57Z</time>
      </trkpt>
      <trkpt lat="47.65177" lon="6.19325">
        <ele>269</ele>
        <time>2018-10-17T11:27:59Z</time>
      </trkpt>
      <trkpt lat="47.65181" lon="6.19332">
        <ele>269</ele>
        <time>2018-10-17T11:28:01Z</time>
      </trkpt>
      <trkpt lat="47.65186" lon="6.19338">
        <ele>268</ele>
        <time>2018-10-17T11:28:03Z</time>
      </trkpt>
      <trkpt lat="47.6519" lon="6.19346">
        <ele>268</ele>
        <time>2018-10-17T11:28:05Z</time>
      </trkpt>
      <trkpt lat="47.65194" lon="6.19353">
        <ele>268</ele>
        <time>2018-10-17T11:28:07Z</time>
      </trkpt>
      <trkpt lat="47.65199" lon="6.19362">
        <ele>268</ele>
        <time>2018-10-17T11:28:09Z</time>
      </trkpt>
      <trkpt lat="47.65204" lon="6.1937">
        <ele>268</ele>
        <time>2018-10-17T11:28:11Z</time>
      </trkpt>
      <trkpt lat="47.65209" lon="6.19378">
        <ele>268</ele>
        <time>2018-10-17T11:28:13Z</time>
      </trkpt>
      <trkpt lat="47.65214" lon="6.19387">
        <ele>268</ele>
        <time>2018-10-17T11:28:15Z</time>
      </trkpt>
      <trkpt lat="47.65218" lon="6.19395">
        <ele>268</ele>
        <time>2018-10-17T11:28:17Z</time>
      </trkpt>
      <trkpt lat="47.65223" lon="6.19404">
        <ele>268</ele>
        <time>2018-10-17T11:28:19Z</time>
      </trkpt>
      <trkpt lat="47.65228" lon="6.19413">
        <ele>268</ele>
        <time>2018-10-17T11:28:21Z</time>
      </trkpt>
      <trkpt lat="47.65233" lon="6.19421">
        <ele>267</ele>
        <time>2018-10-17T11:28:23Z</time>
      </trkpt>
      <trkpt lat="47.65237" lon="6.19428">
        <ele>267</ele>
        <time>2018-10-17T11:28:25Z</time>
      </trkpt>
      <trkpt lat="47.65241" lon="6.19435">
        <ele>267</ele>
        <time>2018-10-17T11:28:27Z</time>
      </trkpt>
      <trkpt lat="47.65245" lon="6.1944">
        <ele>267</ele>
        <time>2018-10-17T11:28:29Z</time>
      </trkpt>
      <trkpt lat="47.65249" lon="6.19445">
        <ele>267</ele>
        <time>2018-10-17T11:28:31Z</time>
      </trkpt>
      <trkpt lat="47.65253" lon="6.1945">
        <ele>270</ele>
        <time>2018-10-17T11:28:33Z</time>
      </trkpt>
      <trkpt lat="47.65258" lon="6.19455">
        <ele>270</ele>
        <time>2018-10-17T11:28:35Z</time>
      </trkpt>
      <trkpt lat="47.65263" lon="6.1946">
        <ele>270</ele>
        <time>2018-10-17T11:28:37Z</time>
      </trkpt>
      <trkpt lat="47.65267" lon="6.19467">
        <ele>270</ele>
        <time>2018-10-17T11:28:39Z</time>
      </trkpt>
      <trkpt lat="47.65271" lon="6.19474">
        <ele>270</ele>
        <time>2018-10-17T11:28:41Z</time>
      </trkpt>
      <trkpt lat="47.65274" lon="6.19481">
        <ele>270</ele>
        <time>2018-10-17T11:28:43Z</time>
      </trkpt>
      <trkpt lat="47.65277" lon="6.19488">
        <ele>270</ele>
        <time>2018-10-17T11:28:45Z</time>
      </trkpt>
      <trkpt lat="47.6528" lon="6.19497">
        <ele>271</ele>
        <time>2018-10-17T11:28:47Z</time>
      </trkpt>
      <trkpt lat="47.65282" lon="6.19505">
        <ele>270</ele>
        <time>2018-10-17T11:28:49Z</time>
      </trkpt>
      <trkpt lat="47.65284" lon="6.19513">
        <ele>271</ele>
        <time>2018-10-17T11:28:51Z</time>
      </trkpt>
      <trkpt lat="47.65284" lon="6.1952">
        <ele>271</ele>
        <time>2018-10-17T11:28:53Z</time>
      </trkpt>
      <trkpt lat="47.65284" lon="6.1953">
        <ele>271</ele>
        <time>2018-10-17T11:28:56Z</time>
      </trkpt>
      <trkpt lat="47.65286" lon="6.19537">
        <ele>271</ele>
        <time>2018-10-17T11:28:58Z</time>
      </trkpt>
      <trkpt lat="47.65291" lon="6.19545">
        <ele>271</ele>
        <time>2018-10-17T11:29:00Z</time>
      </trkpt>
      <trkpt lat="47.65297" lon="6.19555">
        <ele>271</ele>
        <time>2018-10-17T11:29:02Z</time>
      </trkpt>
      <trkpt lat="47.653" lon="6.19562">
        <ele>271</ele>
        <time>2018-10-17T11:29:03Z</time>
      </trkpt>
      <trkpt lat="47.65303" lon="6.19571">
        <ele>271</ele>
        <time>2018-10-17T11:29:04Z</time>
      </trkpt>
      <trkpt lat="47.65307" lon="6.1958">
        <ele>271</ele>
        <time>2018-10-17T11:29:05Z</time>
      </trkpt>
      <trkpt lat="47.6531" lon="6.19589">
        <ele>271</ele>
        <time>2018-10-17T11:29:06Z</time>
      </trkpt>
      <trkpt lat="47.65313" lon="6.19597">
        <ele>271</ele>
        <time>2018-10-17T11:29:07Z</time>
      </trkpt>
      <trkpt lat="47.65318" lon="6.19615">
        <ele>270</ele>
        <time>2018-10-17T11:29:08Z</time>
      </trkpt>
      <trkpt lat="47.6532" lon="6.19622">
        <ele>270</ele>
        <time>2018-10-17T11:29:09Z</time>
      </trkpt>
      <trkpt lat="47.65325" lon="6.19631">
        <ele>270</ele>
        <time>2018-10-17T11:29:11Z</time>
      </trkpt>
      <trkpt lat="47.65328" lon="6.1964">
        <ele>270</ele>
        <time>2018-10-17T11:29:13Z</time>
      </trkpt>
      <trkpt lat="47.6533" lon="6.19646">
        <ele>270</ele>
        <time>2018-10-17T11:29:15Z</time>
      </trkpt>
      <trkpt lat="47.65333" lon="6.19653">
        <ele>270</ele>
        <time>2018-10-17T11:29:17Z</time>
      </trkpt>
      <trkpt lat="47.65335" lon="6.19661">
        <ele>271</ele>
        <time>2018-10-17T11:29:19Z</time>
      </trkpt>
      <trkpt lat="47.65338" lon="6.1967">
        <ele>270</ele>
        <time>2018-10-17T11:29:21Z</time>
      </trkpt>
      <trkpt lat="47.65341" lon="6.19679">
        <ele>271</ele>
        <time>2018-10-17T11:29:23Z</time>
      </trkpt>
      <trkpt lat="47.65344" lon="6.19687">
        <ele>271</ele>
        <time>2018-10-17T11:29:25Z</time>
      </trkpt>
      <trkpt lat="47.65348" lon="6.19696">
        <ele>271</ele>
        <time>2018-10-17T11:29:27Z</time>
      </trkpt>
      <trkpt lat="47.65353" lon="6.19704">
        <ele>272</ele>
        <time>2018-10-17T11:29:29Z</time>
      </trkpt>
      <trkpt lat="47.65357" lon="6.19713">
        <ele>271</ele>
        <time>2018-10-17T11:29:31Z</time>
      </trkpt>
      <trkpt lat="47.6536" lon="6.19721">
        <ele>271</ele>
        <time>2018-10-17T11:29:33Z</time>
      </trkpt>
      <trkpt lat="47.65364" lon="6.19729">
        <ele>271</ele>
        <time>2018-10-17T11:29:35Z</time>
      </trkpt>
      <trkpt lat="47.65367" lon="6.19736">
        <ele>271</ele>
        <time>2018-10-17T11:29:37Z</time>
      </trkpt>
      <trkpt lat="47.65372" lon="6.19743">
        <ele>272</ele>
        <time>2018-10-17T11:29:39Z</time>
      </trkpt>
      <trkpt lat="47.65376" lon="6.19751">
        <ele>269</ele>
        <time>2018-10-17T11:29:41Z</time>
      </trkpt>
      <trkpt lat="47.6538" lon="6.19758">
        <ele>269</ele>
        <time>2018-10-17T11:29:43Z</time>
      </trkpt>
      <trkpt lat="47.65384" lon="6.19766">
        <ele>270</ele>
        <time>2018-10-17T11:29:45Z</time>
      </trkpt>
      <trkpt lat="47.65388" lon="6.19773">
        <ele>270</ele>
        <time>2018-10-17T11:29:47Z</time>
      </trkpt>
      <trkpt lat="47.65393" lon="6.1978">
        <ele>270</ele>
        <time>2018-10-17T11:29:49Z</time>
      </trkpt>
      <trkpt lat="47.65397" lon="6.19788">
        <ele>270</ele>
        <time>2018-10-17T11:29:51Z</time>
      </trkpt>
      <trkpt lat="47.654" lon="6.19795">
        <ele>270</ele>
        <time>2018-10-17T11:29:53Z</time>
      </trkpt>
      <trkpt lat="47.65404" lon="6.19802">
        <ele>270</ele>
        <time>2018-10-17T11:29:55Z</time>
      </trkpt>
      <trkpt lat="47.65408" lon="6.19811">
        <ele>270</ele>
        <time>2018-10-17T11:29:57Z</time>
      </trkpt>
      <trkpt lat="47.65411" lon="6.19818">
        <ele>270</ele>
        <time>2018-10-17T11:29:59Z</time>
      </trkpt>
      <trkpt lat="47.65415" lon="6.19825">
        <ele>271</ele>
        <time>2018-10-17T11:30:01Z</time>
      </trkpt>
      <trkpt lat="47.65418" lon="6.19832">
        <ele>272</ele>
        <time>2018-10-17T11:30:03Z</time>
      </trkpt>
      <trkpt lat="47.65423" lon="6.19839">
        <ele>272</ele>
        <time>2018-10-17T11:30:05Z</time>
      </trkpt>
      <trkpt lat="47.65426" lon="6.19846">
        <ele>272</ele>
        <time>2018-10-17T11:30:07Z</time>
      </trkpt>
      <trkpt lat="47.65429" lon="6.19853">
        <ele>271</ele>
        <time>2018-10-17T11:30:09Z</time>
      </trkpt>
      <trkpt lat="47.65433" lon="6.19862">
        <ele>271</ele>
        <time>2018-10-17T11:30:11Z</time>
      </trkpt>
      <trkpt lat="47.65437" lon="6.19873">
        <ele>271</ele>
        <time>2018-10-17T11:30:13Z</time>
      </trkpt>
      <trkpt lat="47.65439" lon="6.19882">
        <ele>270</ele>
        <time>2018-10-17T11:30:15Z</time>
      </trkpt>
      <trkpt lat="47.65442" lon="6.19894">
        <ele>270</ele>
        <time>2018-10-17T11:30:17Z</time>
      </trkpt>
      <trkpt lat="47.65446" lon="6.19903">
        <ele>269</ele>
        <time>2018-10-17T11:30:19Z</time>
      </trkpt>
      <trkpt lat="47.6545" lon="6.19912">
        <ele>269</ele>
        <time>2018-10-17T11:30:21Z</time>
      </trkpt>
      <trkpt lat="47.65454" lon="6.19921">
        <ele>265</ele>
        <time>2018-10-17T11:30:23Z</time>
      </trkpt>
      <trkpt lat="47.65457" lon="6.1993">
        <ele>266</ele>
        <time>2018-10-17T11:30:25Z</time>
      </trkpt>
      <trkpt lat="47.65461" lon="6.19938">
        <ele>266</ele>
        <time>2018-10-17T11:30:27Z</time>
      </trkpt>
      <trkpt lat="47.65465" lon="6.19946">
        <ele>266</ele>
        <time>2018-10-17T11:30:29Z</time>
      </trkpt>
      <trkpt lat="47.6547" lon="6.19955">
        <ele>266</ele>
        <time>2018-10-17T11:30:31Z</time>
      </trkpt>
      <trkpt lat="47.65475" lon="6.19963">
        <ele>266</ele>
        <time>2018-10-17T11:30:33Z</time>
      </trkpt>
      <trkpt lat="47.6548" lon="6.19971">
        <ele>266</ele>
        <time>2018-10-17T11:30:35Z</time>
      </trkpt>
      <trkpt lat="47.65485" lon="6.19978">
        <ele>266</ele>
        <time>2018-10-17T11:30:37Z</time>
      </trkpt>
      <trkpt lat="47.65489" lon="6.19984">
        <ele>267</ele>
        <time>2018-10-17T11:30:39Z</time>
      </trkpt>
      <trkpt lat="47.65493" lon="6.1999">
        <ele>267</ele>
        <time>2018-10-17T11:30:41Z</time>
      </trkpt>
      <trkpt lat="47.65497" lon="6.19995">
        <ele>268</ele>
        <time>2018-10-17T11:30:43Z</time>
      </trkpt>
      <trkpt lat="47.65501" lon="6.2">
        <ele>269</ele>
        <time>2018-10-17T11:30:45Z</time>
      </trkpt>
      <trkpt lat="47.65504" lon="6.20006">
        <ele>269</ele>
        <time>2018-10-17T11:30:47Z</time>
      </trkpt>
      <trkpt lat="47.65509" lon="6.20011">
        <ele>270</ele>
        <time>2018-10-17T11:30:49Z</time>
      </trkpt>
      <trkpt lat="47.65513" lon="6.20017">
        <ele>270</ele>
        <time>2018-10-17T11:30:51Z</time>
      </trkpt>
      <trkpt lat="47.65518" lon="6.20023">
        <ele>270</ele>
        <time>2018-10-17T11:30:53Z</time>
      </trkpt>
      <trkpt lat="47.65522" lon="6.20029">
        <ele>270</ele>
        <time>2018-10-17T11:30:55Z</time>
      </trkpt>
      <trkpt lat="47.65526" lon="6.20036">
        <ele>270</ele>
        <time>2018-10-17T11:30:57Z</time>
      </trkpt>
      <trkpt lat="47.65529" lon="6.20041">
        <ele>270</ele>
        <time>2018-10-17T11:30:59Z</time>
      </trkpt>
      <trkpt lat="47.65533" lon="6.20046">
        <ele>270</ele>
        <time>2018-10-17T11:31:01Z</time>
      </trkpt>
      <trkpt lat="47.65536" lon="6.20051">
        <ele>270</ele>
        <time>2018-10-17T11:31:03Z</time>
      </trkpt>
      <trkpt lat="47.6554" lon="6.20055">
        <ele>270</ele>
        <time>2018-10-17T11:31:05Z</time>
      </trkpt>
      <trkpt lat="47.65544" lon="6.20059">
        <ele>270</ele>
        <time>2018-10-17T11:31:07Z</time>
      </trkpt>
      <trkpt lat="47.65548" lon="6.20063">
        <ele>270</ele>
        <time>2018-10-17T11:31:09Z</time>
      </trkpt>
      <trkpt lat="47.65552" lon="6.20067">
        <ele>270</ele>
        <time>2018-10-17T11:31:11Z</time>
      </trkpt>
      <trkpt lat="47.65556" lon="6.20072">
        <ele>271</ele>
        <time>2018-10-17T11:31:13Z</time>
      </trkpt>
      <trkpt lat="47.6556" lon="6.20076">
        <ele>271</ele>
        <time>2018-10-17T11:31:15Z</time>
      </trkpt>
      <trkpt lat="47.65564" lon="6.2008">
        <ele>271</ele>
        <time>2018-10-17T11:31:17Z</time>
      </trkpt>
      <trkpt lat="47.65568" lon="6.20085">
        <ele>269</ele>
        <time>2018-10-17T11:31:19Z</time>
      </trkpt>
      <trkpt lat="47.65572" lon="6.20089">
        <ele>270</ele>
        <time>2018-10-17T11:31:21Z</time>
      </trkpt>
      <trkpt lat="47.65576" lon="6.20093">
        <ele>270</ele>
        <time>2018-10-17T11:31:23Z</time>
      </trkpt>
      <trkpt lat="47.6558" lon="6.20097">
        <ele>270</ele>
        <time>2018-10-17T11:31:25Z</time>
      </trkpt>
      <trkpt lat="47.65586" lon="6.20102">
        <ele>273</ele>
        <time>2018-10-17T11:31:28Z</time>
      </trkpt>
      <trkpt lat="47.65591" lon="6.20107">
        <ele>273</ele>
        <time>2018-10-17T11:31:31Z</time>
      </trkpt>
      <trkpt lat="47.65595" lon="6.20111">
        <ele>273</ele>
        <time>2018-10-17T11:31:33Z</time>
      </trkpt>
      <trkpt lat="47.65599" lon="6.20115">
        <ele>273</ele>
        <time>2018-10-17T11:31:35Z</time>
      </trkpt>
      <trkpt lat="47.65605" lon="6.2012">
        <ele>273</ele>
        <time>2018-10-17T11:31:38Z</time>
      </trkpt>
      <trkpt lat="47.65609" lon="6.20124">
        <ele>273</ele>
        <time>2018-10-17T11:31:40Z</time>
      </trkpt>
      <trkpt lat="47.65613" lon="6.20129">
        <ele>273</ele>
        <time>2018-10-17T11:31:42Z</time>
      </trkpt>
      <trkpt lat="47.65618" lon="6.20133">
        <ele>273</ele>
        <time>2018-10-17T11:31:44Z</time>
      </trkpt>
      <trkpt lat="47.65622" lon="6.20137">
        <ele>273</ele>
        <time>2018-10-17T11:31:46Z</time>
      </trkpt>
      <trkpt lat="47.65626" lon="6.20139">
        <ele>273</ele>
        <time>2018-10-17T11:31:48Z</time>
      </trkpt>
      <trkpt lat="47.65631" lon="6.20141">
        <ele>273</ele>
        <time>2018-10-17T11:32:10Z</time>
      </trkpt>
      <trkpt lat="47.65636" lon="6.2014">
        <ele>274</ele>
        <time>2018-10-17T11:32:35Z</time>
      </trkpt>
      <trkpt lat="47.65641" lon="6.20136">
        <ele>274</ele>
        <time>2018-10-17T11:32:47Z</time>
      </trkpt>
      <trkpt lat="47.65644" lon="6.20129">
        <ele>274</ele>
        <time>2018-10-17T11:32:50Z</time>
      </trkpt>
      <trkpt lat="47.65646" lon="6.20123">
        <ele>274</ele>
        <time>2018-10-17T11:32:53Z</time>
      </trkpt>
      <trkpt lat="47.65649" lon="6.20116">
        <ele>275</ele>
        <time>2018-10-17T11:32:57Z</time>
      </trkpt>
      <trkpt lat="47.65652" lon="6.20109">
        <ele>275</ele>
        <time>2018-10-17T11:33:01Z</time>
      </trkpt>
      <trkpt lat="47.65655" lon="6.20103">
        <ele>276</ele>
        <time>2018-10-17T11:33:05Z</time>
      </trkpt>
      <trkpt lat="47.65658" lon="6.20097">
        <ele>276</ele>
        <time>2018-10-17T11:33:09Z</time>
      </trkpt>
      <trkpt lat="47.65662" lon="6.20091">
        <ele>277</ele>
        <time>2018-10-17T11:33:14Z</time>
      </trkpt>
      <trkpt lat="47.65666" lon="6.20087">
        <ele>278</ele>
        <time>2018-10-17T11:33:18Z</time>
      </trkpt>
      <trkpt lat="47.6567" lon="6.20082">
        <ele>280</ele>
        <time>2018-10-17T11:33:22Z</time>
      </trkpt>
      <trkpt lat="47.65673" lon="6.20076">
        <ele>281</ele>
        <time>2018-10-17T11:33:26Z</time>
      </trkpt>
      <trkpt lat="47.65676" lon="6.20071">
        <ele>282</ele>
        <time>2018-10-17T11:33:30Z</time>
      </trkpt>
      <trkpt lat="47.6568" lon="6.20067">
        <ele>282</ele>
        <time>2018-10-17T11:33:34Z</time>
      </trkpt>
      <trkpt lat="47.65683" lon="6.20061">
        <ele>283</ele>
        <time>2018-10-17T11:33:38Z</time>
      </trkpt>
      <trkpt lat="47.65687" lon="6.20055">
        <ele>284</ele>
        <time>2018-10-17T11:33:42Z</time>
      </trkpt>
      <trkpt lat="47.65692" lon="6.2005">
        <ele>284</ele>
        <time>2018-10-17T11:33:46Z</time>
      </trkpt>
      <trkpt lat="47.65695" lon="6.20044">
        <ele>284</ele>
        <time>2018-10-17T11:33:50Z</time>
      </trkpt>
      <trkpt lat="47.65698" lon="6.20039">
        <ele>285</ele>
        <time>2018-10-17T11:33:54Z</time>
      </trkpt>
      <trkpt lat="47.65702" lon="6.20034">
        <ele>285</ele>
        <time>2018-10-17T11:33:58Z</time>
      </trkpt>
      <trkpt lat="47.65705" lon="6.20029">
        <ele>285</ele>
        <time>2018-10-17T11:34:02Z</time>
      </trkpt>
      <trkpt lat="47.65708" lon="6.20023">
        <ele>286</ele>
        <time>2018-10-17T11:34:06Z</time>
      </trkpt>
      <trkpt lat="47.65712" lon="6.20019">
        <ele>286</ele>
        <time>2018-10-17T11:34:10Z</time>
      </trkpt>
      <trkpt lat="47.65716" lon="6.20014">
        <ele>286</ele>
        <time>2018-10-17T11:34:14Z</time>
      </trkpt>
      <trkpt lat="47.65719" lon="6.20009">
        <ele>287</ele>
        <time>2018-10-17T11:34:18Z</time>
      </trkpt>
      <trkpt lat="47.65722" lon="6.20003">
        <ele>287</ele>
        <time>2018-10-17T11:34:22Z</time>
      </trkpt>
      <trkpt lat="47.65725" lon="6.19997">
        <ele>289</ele>
        <time>2018-10-17T11:34:26Z</time>
      </trkpt>
      <trkpt lat="47.65728" lon="6.19991">
        <ele>290</ele>
        <time>2018-10-17T11:34:31Z</time>
      </trkpt>
      <trkpt lat="47.65731" lon="6.19985">
        <ele>290</ele>
        <time>2018-10-17T11:34:36Z</time>
      </trkpt>
      <trkpt lat="47.65733" lon="6.19978">
        <ele>290</ele>
        <time>2018-10-17T11:34:40Z</time>
      </trkpt>
      <trkpt lat="47.65736" lon="6.19972">
        <ele>290</ele>
        <time>2018-10-17T11:34:44Z</time>
      </trkpt>
      <trkpt lat="47.65739" lon="6.19965">
        <ele>290</ele>
        <time>2018-10-17T11:34:49Z</time>
      </trkpt>
      <trkpt lat="47.65742" lon="6.19959">
        <ele>290</ele>
        <time>2018-10-17T11:34:54Z</time>
      </trkpt>
      <trkpt lat="47.65745" lon="6.19951">
        <ele>290</ele>
        <time>2018-10-17T11:34:59Z</time>
      </trkpt>
      <trkpt lat="47.65748" lon="6.19945">
        <ele>291</ele>
        <time>2018-10-17T11:35:03Z</time>
      </trkpt>
      <trkpt lat="47.65751" lon="6.19939">
        <ele>296</ele>
        <time>2018-10-17T11:35:07Z</time>
      </trkpt>
      <trkpt lat="47.65754" lon="6.19933">
        <ele>295</ele>
        <time>2018-10-17T11:35:11Z</time>
      </trkpt>
      <trkpt lat="47.65757" lon="6.19927">
        <ele>295</ele>
        <time>2018-10-17T11:35:15Z</time>
      </trkpt>
      <trkpt lat="47.6576" lon="6.19922">
        <ele>295</ele>
        <time>2018-10-17T11:35:19Z</time>
      </trkpt>
      <trkpt lat="47.65763" lon="6.19916">
        <ele>296</ele>
        <time>2018-10-17T11:35:23Z</time>
      </trkpt>
      <trkpt lat="47.65767" lon="6.19912">
        <ele>297</ele>
        <time>2018-10-17T11:35:27Z</time>
      </trkpt>
      <trkpt lat="47.65772" lon="6.19907">
        <ele>297</ele>
        <time>2018-10-17T11:35:31Z</time>
      </trkpt>
      <trkpt lat="47.65775" lon="6.19902">
        <ele>298</ele>
        <time>2018-10-17T11:35:35Z</time>
      </trkpt>
      <trkpt lat="47.65778" lon="6.19895">
        <ele>298</ele>
        <time>2018-10-17T11:35:39Z</time>
      </trkpt>
      <trkpt lat="47.65781" lon="6.19889">
        <ele>298</ele>
        <time>2018-10-17T11:35:43Z</time>
      </trkpt>
      <trkpt lat="47.65784" lon="6.19884">
        <ele>299</ele>
        <time>2018-10-17T11:35:47Z</time>
      </trkpt>
      <trkpt lat="47.65788" lon="6.19878">
        <ele>299</ele>
        <time>2018-10-17T11:35:51Z</time>
      </trkpt>
      <trkpt lat="47.65792" lon="6.19872">
        <ele>299</ele>
        <time>2018-10-17T11:35:55Z</time>
      </trkpt>
      <trkpt lat="47.65795" lon="6.19868">
        <ele>299</ele>
        <time>2018-10-17T11:36:00Z</time>
      </trkpt>
      <trkpt lat="47.65799" lon="6.19863">
        <ele>300</ele>
        <time>2018-10-17T11:36:04Z</time>
      </trkpt>
      <trkpt lat="47.65803" lon="6.19859">
        <ele>300</ele>
        <time>2018-10-17T11:36:08Z</time>
      </trkpt>
      <trkpt lat="47.65807" lon="6.19854">
        <ele>300</ele>
        <time>2018-10-17T11:36:12Z</time>
      </trkpt>
      <trkpt lat="47.65811" lon="6.1985">
        <ele>301</ele>
        <time>2018-10-17T11:36:16Z</time>
      </trkpt>
      <trkpt lat="47.65816" lon="6.19844">
        <ele>301</ele>
        <time>2018-10-17T11:36:20Z</time>
      </trkpt>
      <trkpt lat="47.6582" lon="6.19838">
        <ele>302</ele>
        <time>2018-10-17T11:36:24Z</time>
      </trkpt>
      <trkpt lat="47.65823" lon="6.19832">
        <ele>303</ele>
        <time>2018-10-17T11:36:28Z</time>
      </trkpt>
      <trkpt lat="47.65827" lon="6.19825">
        <ele>303</ele>
        <time>2018-10-17T11:36:32Z</time>
      </trkpt>
      <trkpt lat="47.65831" lon="6.19819">
        <ele>302</ele>
        <time>2018-10-17T11:36:36Z</time>
      </trkpt>
      <trkpt lat="47.65834" lon="6.19813">
        <ele>306</ele>
        <time>2018-10-17T11:36:40Z</time>
      </trkpt>
      <trkpt lat="47.65836" lon="6.19806">
        <ele>306</ele>
        <time>2018-10-17T11:36:44Z</time>
      </trkpt>
      <trkpt lat="47.65839" lon="6.198">
        <ele>306</ele>
        <time>2018-10-17T11:36:48Z</time>
      </trkpt>
      <trkpt lat="47.65842" lon="6.19795">
        <ele>307</ele>
        <time>2018-10-17T11:36:52Z</time>
      </trkpt>
      <trkpt lat="47.65846" lon="6.19789">
        <ele>307</ele>
        <time>2018-10-17T11:36:56Z</time>
      </trkpt>
      <trkpt lat="47.65849" lon="6.19782">
        <ele>307</ele>
        <time>2018-10-17T11:37:00Z</time>
      </trkpt>
      <trkpt lat="47.65853" lon="6.19776">
        <ele>307</ele>
        <time>2018-10-17T11:37:04Z</time>
      </trkpt>
      <trkpt lat="47.65856" lon="6.19769">
        <ele>307</ele>
        <time>2018-10-17T11:37:08Z</time>
      </trkpt>
      <trkpt lat="47.65859" lon="6.19764">
        <ele>307</ele>
        <time>2018-10-17T11:37:11Z</time>
      </trkpt>
      <trkpt lat="47.65863" lon="6.19758">
        <ele>307</ele>
        <time>2018-10-17T11:37:15Z</time>
      </trkpt>
      <trkpt lat="47.65867" lon="6.19751">
        <ele>308</ele>
        <time>2018-10-17T11:37:19Z</time>
      </trkpt>
      <trkpt lat="47.6587" lon="6.19746">
        <ele>308</ele>
        <time>2018-10-17T11:37:22Z</time>
      </trkpt>
      <trkpt lat="47.65873" lon="6.19739">
        <ele>308</ele>
        <time>2018-10-17T11:37:26Z</time>
      </trkpt>
      <trkpt lat="47.65876" lon="6.19733">
        <ele>308</ele>
        <time>2018-10-17T11:37:29Z</time>
      </trkpt>
      <trkpt lat="47.6588" lon="6.19729">
        <ele>308</ele>
        <time>2018-10-17T11:37:33Z</time>
      </trkpt>
      <trkpt lat="47.65885" lon="6.19727">
        <ele>309</ele>
        <time>2018-10-17T11:37:37Z</time>
      </trkpt>
      <trkpt lat="47.6589" lon="6.19726">
        <ele>309</ele>
        <time>2018-10-17T11:37:41Z</time>
      </trkpt>
      <trkpt lat="47.65896" lon="6.19724">
        <ele>309</ele>
        <time>2018-10-17T11:37:45Z</time>
      </trkpt>
      <trkpt lat="47.65901" lon="6.19722">
        <ele>310</ele>
        <time>2018-10-17T11:37:49Z</time>
      </trkpt>
      <trkpt lat="47.65906" lon="6.19721">
        <ele>310</ele>
        <time>2018-10-17T11:37:53Z</time>
      </trkpt>
      <trkpt lat="47.65911" lon="6.19719">
        <ele>310</ele>
        <time>2018-10-17T11:37:58Z</time>
      </trkpt>
      <trkpt lat="47.65916" lon="6.19717">
        <ele>310</ele>
        <time>2018-10-17T11:38:02Z</time>
      </trkpt>
      <trkpt lat="47.65921" lon="6.19712">
        <ele>315</ele>
        <time>2018-10-17T11:38:06Z</time>
      </trkpt>
      <trkpt lat="47.65925" lon="6.19709">
        <ele>315</ele>
        <time>2018-10-17T11:38:10Z</time>
      </trkpt>
      <trkpt lat="47.6593" lon="6.19708">
        <ele>315</ele>
        <time>2018-10-17T11:38:14Z</time>
      </trkpt>
      <trkpt lat="47.65935" lon="6.19709">
        <ele>316</ele>
        <time>2018-10-17T11:38:19Z</time>
      </trkpt>
      <trkpt lat="47.65941" lon="6.19709">
        <ele>316</ele>
        <time>2018-10-17T11:38:24Z</time>
      </trkpt>
      <trkpt lat="47.65943" lon="6.19702">
        <ele>316</ele>
        <time>2018-10-17T11:38:29Z</time>
      </trkpt>
      <trkpt lat="47.65946" lon="6.19694">
        <ele>316</ele>
        <time>2018-10-17T11:38:33Z</time>
      </trkpt>
      <trkpt lat="47.65947" lon="6.19688">
        <ele>316</ele>
        <time>2018-10-17T11:38:37Z</time>
      </trkpt>
      <trkpt lat="47.65948" lon="6.1968">
        <ele>316</ele>
        <time>2018-10-17T11:38:40Z</time>
      </trkpt>
      <trkpt lat="47.6595" lon="6.19674">
        <ele>316</ele>
        <time>2018-10-17T11:38:45Z</time>
      </trkpt>
      <trkpt lat="47.65954" lon="6.19671">
        <ele>316</ele>
        <time>2018-10-17T11:40:49Z</time>
      </trkpt>
      <trkpt lat="47.65956" lon="6.19665">
        <ele>316</ele>
        <time>2018-10-17T11:40:52Z</time>
      </trkpt>
      <trkpt lat="47.65959" lon="6.19656">
        <ele>317</ele>
        <time>2018-10-17T11:40:55Z</time>
      </trkpt>
      <trkpt lat="47.65962" lon="6.19648">
        <ele>317</ele>
        <time>2018-10-17T11:40:57Z</time>
      </trkpt>
      <trkpt lat="47.65965" lon="6.19643">
        <ele>317</ele>
        <time>2018-10-17T11:40:59Z</time>
      </trkpt>
      <trkpt lat="47.65969" lon="6.19637">
        <ele>317</ele>
        <time>2018-10-17T11:41:02Z</time>
      </trkpt>
      <trkpt lat="47.65973" lon="6.19632">
        <ele>317</ele>
        <time>2018-10-17T11:41:06Z</time>
      </trkpt>
      <trkpt lat="47.65978" lon="6.19629">
        <ele>317</ele>
        <time>2018-10-17T11:41:10Z</time>
      </trkpt>
      <trkpt lat="47.65983" lon="6.19627">
        <ele>318</ele>
        <time>2018-10-17T11:41:14Z</time>
      </trkpt>
      <trkpt lat="47.65988" lon="6.19627">
        <ele>318</ele>
        <time>2018-10-17T11:41:18Z</time>
      </trkpt>
      <trkpt lat="47.65993" lon="6.19628">
        <ele>318</ele>
        <time>2018-10-17T11:41:22Z</time>
      </trkpt>
      <trkpt lat="47.65998" lon="6.19629">
        <ele>318</ele>
        <time>2018-10-17T11:41:25Z</time>
      </trkpt>
      <trkpt lat="47.66003" lon="6.19627">
        <ele>324</ele>
        <time>2018-10-17T11:41:28Z</time>
      </trkpt>
      <trkpt lat="47.66008" lon="6.19626">
        <ele>325</ele>
        <time>2018-10-17T11:41:32Z</time>
      </trkpt>
      <trkpt lat="47.66013" lon="6.19624">
        <ele>325</ele>
        <time>2018-10-17T11:41:35Z</time>
      </trkpt>
      <trkpt lat="47.66018" lon="6.19624">
        <ele>325</ele>
        <time>2018-10-17T11:41:40Z</time>
      </trkpt>
      <trkpt lat="47.66023" lon="6.19622">
        <ele>325</ele>
        <time>2018-10-17T11:41:44Z</time>
      </trkpt>
      <trkpt lat="47.66027" lon="6.19619">
        <ele>326</ele>
        <time>2018-10-17T11:41:48Z</time>
      </trkpt>
      <trkpt lat="47.66031" lon="6.19615">
        <ele>326</ele>
        <time>2018-10-17T11:41:53Z</time>
      </trkpt>
      <trkpt lat="47.66035" lon="6.19612">
        <ele>326</ele>
        <time>2018-10-17T11:41:57Z</time>
      </trkpt>
      <trkpt lat="47.66039" lon="6.19609">
        <ele>326</ele>
        <time>2018-10-17T11:42:02Z</time>
      </trkpt>
      <trkpt lat="47.66044" lon="6.19606">
        <ele>327</ele>
        <time>2018-10-17T11:42:07Z</time>
      </trkpt>
      <trkpt lat="47.66048" lon="6.19603">
        <ele>327</ele>
        <time>2018-10-17T11:42:11Z</time>
      </trkpt>
      <trkpt lat="47.66053" lon="6.196">
        <ele>328</ele>
        <time>2018-10-17T11:42:15Z</time>
      </trkpt>
      <trkpt lat="47.66058" lon="6.19598">
        <ele>328</ele>
        <time>2018-10-17T11:42:19Z</time>
      </trkpt>
      <trkpt lat="47.66063" lon="6.19595">
        <ele>329</ele>
        <time>2018-10-17T11:42:23Z</time>
      </trkpt>
      <trkpt lat="47.66068" lon="6.19593">
        <ele>329</ele>
        <time>2018-10-17T11:42:27Z</time>
      </trkpt>
      <trkpt lat="47.66072" lon="6.19589">
        <ele>330</ele>
        <time>2018-10-17T11:42:32Z</time>
      </trkpt>
      <trkpt lat="47.66077" lon="6.19586">
        <ele>331</ele>
        <time>2018-10-17T11:42:36Z</time>
      </trkpt>
      <trkpt lat="47.66082" lon="6.19582">
        <ele>332</ele>
        <time>2018-10-17T11:42:41Z</time>
      </trkpt>
      <trkpt lat="47.66085" lon="6.19578">
        <ele>333</ele>
        <time>2018-10-17T11:42:45Z</time>
      </trkpt>
      <trkpt lat="47.66091" lon="6.19573">
        <ele>334</ele>
        <time>2018-10-17T11:42:48Z</time>
      </trkpt>
      <trkpt lat="47.66095" lon="6.19568">
        <ele>334</ele>
        <time>2018-10-17T11:42:51Z</time>
      </trkpt>
      <trkpt lat="47.66098" lon="6.19562">
        <ele>335</ele>
        <time>2018-10-17T11:42:54Z</time>
      </trkpt>
      <trkpt lat="47.66101" lon="6.19556">
        <ele>335</ele>
        <time>2018-10-17T11:42:57Z</time>
      </trkpt>
      <trkpt lat="47.66103" lon="6.19549">
        <ele>335</ele>
        <time>2018-10-17T11:43:00Z</time>
      </trkpt>
      <trkpt lat="47.66106" lon="6.19542">
        <ele>335</ele>
        <time>2018-10-17T11:43:03Z</time>
      </trkpt>
      <trkpt lat="47.66107" lon="6.19535">
        <ele>336</ele>
        <time>2018-10-17T11:43:06Z</time>
      </trkpt>
      <trkpt lat="47.6611" lon="6.19526">
        <ele>336</ele>
        <time>2018-10-17T11:43:09Z</time>
      </trkpt>
      <trkpt lat="47.66112" lon="6.19517">
        <ele>336</ele>
        <time>2018-10-17T11:43:12Z</time>
      </trkpt>
      <trkpt lat="47.66116" lon="6.1951">
        <ele>336</ele>
        <time>2018-10-17T11:43:15Z</time>
      </trkpt>
      <trkpt lat="47.66121" lon="6.19504">
        <ele>336</ele>
        <time>2018-10-17T11:43:18Z</time>
      </trkpt>
      <trkpt lat="47.66125" lon="6.19499">
        <ele>336</ele>
        <time>2018-10-17T11:43:21Z</time>
      </trkpt>
      <trkpt lat="47.66129" lon="6.19495">
        <ele>336</ele>
        <time>2018-10-17T11:43:24Z</time>
      </trkpt>
      <trkpt lat="47.66134" lon="6.19491">
        <ele>336</ele>
        <time>2018-10-17T11:43:27Z</time>
      </trkpt>
      <trkpt lat="47.66139" lon="6.19487">
        <ele>336</ele>
        <time>2018-10-17T11:43:30Z</time>
      </trkpt>
      <trkpt lat="47.66144" lon="6.19483">
        <ele>337</ele>
        <time>2018-10-17T11:43:33Z</time>
      </trkpt>
      <trkpt lat="47.66149" lon="6.19482">
        <ele>337</ele>
        <time>2018-10-17T11:43:37Z</time>
      </trkpt>
      <trkpt lat="47.66154" lon="6.19483">
        <ele>337</ele>
        <time>2018-10-17T11:43:41Z</time>
      </trkpt>
      <trkpt lat="47.66159" lon="6.19482">
        <ele>337</ele>
        <time>2018-10-17T11:43:44Z</time>
      </trkpt>
      <trkpt lat="47.66165" lon="6.19481">
        <ele>338</ele>
        <time>2018-10-17T11:43:47Z</time>
      </trkpt>
      <trkpt lat="47.6617" lon="6.1948">
        <ele>339</ele>
        <time>2018-10-17T11:43:49Z</time>
      </trkpt>
      <trkpt lat="47.66175" lon="6.19479">
        <ele>339</ele>
        <time>2018-10-17T11:43:51Z</time>
      </trkpt>
      <trkpt lat="47.66179" lon="6.1948">
        <ele>339</ele>
        <time>2018-10-17T11:43:53Z</time>
      </trkpt>
      <trkpt lat="47.66186" lon="6.19481">
        <ele>339</ele>
        <time>2018-10-17T11:43:56Z</time>
      </trkpt>
      <trkpt lat="47.6619" lon="6.19483">
        <ele>339</ele>
        <time>2018-10-17T11:43:58Z</time>
      </trkpt>
      <trkpt lat="47.66195" lon="6.19485">
        <ele>339</ele>
        <time>2018-10-17T11:44:00Z</time>
      </trkpt>
      <trkpt lat="47.66201" lon="6.19486">
        <ele>339</ele>
        <time>2018-10-17T11:44:03Z</time>
      </trkpt>
      <trkpt lat="47.66206" lon="6.19487">
        <ele>339</ele>
        <time>2018-10-17T11:44:05Z</time>
      </trkpt>
      <trkpt lat="47.66212" lon="6.19488">
        <ele>339</ele>
        <time>2018-10-17T11:44:08Z</time>
      </trkpt>
      <trkpt lat="47.66219" lon="6.19487">
        <ele>339</ele>
        <time>2018-10-17T11:44:10Z</time>
      </trkpt>
      <trkpt lat="47.66225" lon="6.19485">
        <ele>339</ele>
        <time>2018-10-17T11:44:12Z</time>
      </trkpt>
      <trkpt lat="47.66231" lon="6.19486">
        <ele>339</ele>
        <time>2018-10-17T11:44:14Z</time>
      </trkpt>
      <trkpt lat="47.66235" lon="6.19487">
        <ele>340</ele>
        <time>2018-10-17T11:44:16Z</time>
      </trkpt>
      <trkpt lat="47.66242" lon="6.19489">
        <ele>340</ele>
        <time>2018-10-17T11:44:19Z</time>
      </trkpt>
      <trkpt lat="47.66248" lon="6.19491">
        <ele>341</ele>
        <time>2018-10-17T11:44:22Z</time>
      </trkpt>
      <trkpt lat="47.66254" lon="6.19494">
        <ele>341</ele>
        <time>2018-10-17T11:44:25Z</time>
      </trkpt>
      <trkpt lat="47.66259" lon="6.19495">
        <ele>340</ele>
        <time>2018-10-17T11:44:27Z</time>
      </trkpt>
      <trkpt lat="47.66265" lon="6.19498">
        <ele>340</ele>
        <time>2018-10-17T11:44:30Z</time>
      </trkpt>
      <trkpt lat="47.66271" lon="6.19501">
        <ele>342</ele>
        <time>2018-10-17T11:44:33Z</time>
      </trkpt>
      <trkpt lat="47.66276" lon="6.19504">
        <ele>342</ele>
        <time>2018-10-17T11:44:36Z</time>
      </trkpt>
      <trkpt lat="47.66282" lon="6.19505">
        <ele>341</ele>
        <time>2018-10-17T11:44:39Z</time>
      </trkpt>
      <trkpt lat="47.66289" lon="6.19506">
        <ele>341</ele>
        <time>2018-10-17T11:44:42Z</time>
      </trkpt>
      <trkpt lat="47.66294" lon="6.19508">
        <ele>341</ele>
        <time>2018-10-17T11:44:44Z</time>
      </trkpt>
      <trkpt lat="47.66299" lon="6.19509">
        <ele>341</ele>
        <time>2018-10-17T11:44:46Z</time>
      </trkpt>
      <trkpt lat="47.66305" lon="6.1951">
        <ele>341</ele>
        <time>2018-10-17T11:44:49Z</time>
      </trkpt>
      <trkpt lat="47.6631" lon="6.19512">
        <ele>341</ele>
        <time>2018-10-17T11:44:58Z</time>
      </trkpt>
      <trkpt lat="47.66315" lon="6.19513">
        <ele>341</ele>
        <time>2018-10-17T11:45:05Z</time>
      </trkpt>
      <trkpt lat="47.66321" lon="6.19515">
        <ele>341</ele>
        <time>2018-10-17T11:45:08Z</time>
      </trkpt>
      <trkpt lat="47.66328" lon="6.19517">
        <ele>341</ele>
        <time>2018-10-17T11:45:11Z</time>
      </trkpt>
      <trkpt lat="47.66332" lon="6.19518">
        <ele>341</ele>
        <time>2018-10-17T11:45:13Z</time>
      </trkpt>
      <trkpt lat="47.66339" lon="6.19519">
        <ele>340</ele>
        <time>2018-10-17T11:45:15Z</time>
      </trkpt>
      <trkpt lat="47.66346" lon="6.19519">
        <ele>340</ele>
        <time>2018-10-17T11:45:17Z</time>
      </trkpt>
      <trkpt lat="47.66353" lon="6.1952">
        <ele>340</ele>
        <time>2018-10-17T11:45:19Z</time>
      </trkpt>
      <trkpt lat="47.66359" lon="6.19521">
        <ele>340</ele>
        <time>2018-10-17T11:45:21Z</time>
      </trkpt>
      <trkpt lat="47.66367" lon="6.19522">
        <ele>339</ele>
        <time>2018-10-17T11:45:23Z</time>
      </trkpt>
      <trkpt lat="47.66374" lon="6.19524">
        <ele>339</ele>
        <time>2018-10-17T11:45:25Z</time>
      </trkpt>
      <trkpt lat="47.66381" lon="6.19527">
        <ele>339</ele>
        <time>2018-10-17T11:45:27Z</time>
      </trkpt>
      <trkpt lat="47.66389" lon="6.1953">
        <ele>339</ele>
        <time>2018-10-17T11:45:29Z</time>
      </trkpt>
      <trkpt lat="47.66393" lon="6.19531">
        <ele>339</ele>
        <time>2018-10-17T11:45:30Z</time>
      </trkpt>
      <trkpt lat="47.66398" lon="6.19532">
        <ele>339</ele>
        <time>2018-10-17T11:45:31Z</time>
      </trkpt>
      <trkpt lat="47.66409" lon="6.19534">
        <ele>339</ele>
        <time>2018-10-17T11:45:32Z</time>
      </trkpt>
      <trkpt lat="47.66417" lon="6.19536">
        <ele>339</ele>
        <time>2018-10-17T11:45:34Z</time>
      </trkpt>
      <trkpt lat="47.66422" lon="6.19538">
        <ele>339</ele>
        <time>2018-10-17T11:45:35Z</time>
      </trkpt>
      <trkpt lat="47.66427" lon="6.1954">
        <ele>339</ele>
        <time>2018-10-17T11:45:36Z</time>
      </trkpt>
      <trkpt lat="47.66432" lon="6.19541">
        <ele>339</ele>
        <time>2018-10-17T11:45:37Z</time>
      </trkpt>
      <trkpt lat="47.66438" lon="6.19543">
        <ele>339</ele>
        <time>2018-10-17T11:45:38Z</time>
      </trkpt>
      <trkpt lat="47.66443" lon="6.19545">
        <ele>339</ele>
        <time>2018-10-17T11:45:39Z</time>
      </trkpt>
      <trkpt lat="47.66449" lon="6.19547">
        <ele>339</ele>
        <time>2018-10-17T11:45:40Z</time>
      </trkpt>
      <trkpt lat="47.66454" lon="6.19549">
        <ele>339</ele>
        <time>2018-10-17T11:45:41Z</time>
      </trkpt>
      <trkpt lat="47.66459" lon="6.19552">
        <ele>339</ele>
        <time>2018-10-17T11:45:42Z</time>
      </trkpt>
      <trkpt lat="47.66465" lon="6.19555">
        <ele>339</ele>
        <time>2018-10-17T11:45:43Z</time>
      </trkpt>
      <trkpt lat="47.6647" lon="6.19559">
        <ele>339</ele>
        <time>2018-10-17T11:45:44Z</time>
      </trkpt>
      <trkpt lat="47.66475" lon="6.19563">
        <ele>339</ele>
        <time>2018-10-17T11:45:45Z</time>
      </trkpt>
      <trkpt lat="47.66479" lon="6.19567">
        <ele>339</ele>
        <time>2018-10-17T11:45:46Z</time>
      </trkpt>
      <trkpt lat="47.66483" lon="6.19572">
        <ele>338</ele>
        <time>2018-10-17T11:45:47Z</time>
      </trkpt>
      <trkpt lat="47.66488" lon="6.19576">
        <ele>338</ele>
        <time>2018-10-17T11:45:48Z</time>
      </trkpt>
      <trkpt lat="47.66493" lon="6.1958">
        <ele>338</ele>
        <time>2018-10-17T11:45:49Z</time>
      </trkpt>
      <trkpt lat="47.66498" lon="6.19584">
        <ele>338</ele>
        <time>2018-10-17T11:45:50Z</time>
      </trkpt>
      <trkpt lat="47.66503" lon="6.19589">
        <ele>337</ele>
        <time>2018-10-17T11:45:51Z</time>
      </trkpt>
      <trkpt lat="47.66508" lon="6.19593">
        <ele>336</ele>
        <time>2018-10-17T11:45:52Z</time>
      </trkpt>
      <trkpt lat="47.66513" lon="6.19598">
        <ele>335</ele>
        <time>2018-10-17T11:45:53Z</time>
      </trkpt>
      <trkpt lat="47.66518" lon="6.19603">
        <ele>335</ele>
        <time>2018-10-17T11:45:54Z</time>
      </trkpt>
      <trkpt lat="47.66523" lon="6.19607">
        <ele>334</ele>
        <time>2018-10-17T11:45:55Z</time>
      </trkpt>
      <trkpt lat="47.66529" lon="6.19611">
        <ele>334</ele>
        <time>2018-10-17T11:45:56Z</time>
      </trkpt>
      <trkpt lat="47.66536" lon="6.19615">
        <ele>334</ele>
        <time>2018-10-17T11:45:57Z</time>
      </trkpt>
      <trkpt lat="47.66542" lon="6.19619">
        <ele>333</ele>
        <time>2018-10-17T11:45:58Z</time>
      </trkpt>
      <trkpt lat="47.66549" lon="6.19623">
        <ele>333</ele>
        <time>2018-10-17T11:45:59Z</time>
      </trkpt>
      <trkpt lat="47.66555" lon="6.19628">
        <ele>332</ele>
        <time>2018-10-17T11:46:00Z</time>
      </trkpt>
      <trkpt lat="47.66561" lon="6.19632">
        <ele>332</ele>
        <time>2018-10-17T11:46:01Z</time>
      </trkpt>
      <trkpt lat="47.66567" lon="6.19636">
        <ele>331</ele>
        <time>2018-10-17T11:46:02Z</time>
      </trkpt>
      <trkpt lat="47.66573" lon="6.19639">
        <ele>331</ele>
        <time>2018-10-17T11:46:03Z</time>
      </trkpt>
      <trkpt lat="47.6658" lon="6.19642">
        <ele>330</ele>
        <time>2018-10-17T11:46:04Z</time>
      </trkpt>
      <trkpt lat="47.66586" lon="6.19645">
        <ele>325</ele>
        <time>2018-10-17T11:46:05Z</time>
      </trkpt>
      <trkpt lat="47.66591" lon="6.1965">
        <ele>325</ele>
        <time>2018-10-17T11:46:06Z</time>
      </trkpt>
      <trkpt lat="47.66597" lon="6.19655">
        <ele>325</ele>
        <time>2018-10-17T11:46:07Z</time>
      </trkpt>
      <trkpt lat="47.66603" lon="6.1966">
        <ele>324</ele>
        <time>2018-10-17T11:46:08Z</time>
      </trkpt>
      <trkpt lat="47.66608" lon="6.19666">
        <ele>324</ele>
        <time>2018-10-17T11:46:09Z</time>
      </trkpt>
      <trkpt lat="47.66614" lon="6.19673">
        <ele>322</ele>
        <time>2018-10-17T11:46:10Z</time>
      </trkpt>
      <trkpt lat="47.6662" lon="6.19681">
        <ele>322</ele>
        <time>2018-10-17T11:46:11Z</time>
      </trkpt>
      <trkpt lat="47.66625" lon="6.19689">
        <ele>322</ele>
        <time>2018-10-17T11:46:12Z</time>
      </trkpt>
      <trkpt lat="47.6663" lon="6.19697">
        <ele>322</ele>
        <time>2018-10-17T11:46:13Z</time>
      </trkpt>
      <trkpt lat="47.66634" lon="6.19704">
        <ele>321</ele>
        <time>2018-10-17T11:46:14Z</time>
      </trkpt>
      <trkpt lat="47.66639" lon="6.19712">
        <ele>321</ele>
        <time>2018-10-17T11:46:15Z</time>
      </trkpt>
      <trkpt lat="47.66643" lon="6.1972">
        <ele>321</ele>
        <time>2018-10-17T11:46:16Z</time>
      </trkpt>
      <trkpt lat="47.66647" lon="6.19729">
        <ele>321</ele>
        <time>2018-10-17T11:46:17Z</time>
      </trkpt>
      <trkpt lat="47.66651" lon="6.19737">
        <ele>321</ele>
        <time>2018-10-17T11:46:18Z</time>
      </trkpt>
      <trkpt lat="47.66656" lon="6.19745">
        <ele>321</ele>
        <time>2018-10-17T11:46:19Z</time>
      </trkpt>
      <trkpt lat="47.6666" lon="6.19754">
        <ele>321</ele>
        <time>2018-10-17T11:46:20Z</time>
      </trkpt>
      <trkpt lat="47.66665" lon="6.19762">
        <ele>321</ele>
        <time>2018-10-17T11:46:21Z</time>
      </trkpt>
      <trkpt lat="47.6667" lon="6.1977">
        <ele>318</ele>
        <time>2018-10-17T11:46:22Z</time>
      </trkpt>
      <trkpt lat="47.66675" lon="6.19778">
        <ele>318</ele>
        <time>2018-10-17T11:46:23Z</time>
      </trkpt>
      <trkpt lat="47.6668" lon="6.19786">
        <ele>317</ele>
        <time>2018-10-17T11:46:24Z</time>
      </trkpt>
      <trkpt lat="47.66686" lon="6.19793">
        <ele>317</ele>
        <time>2018-10-17T11:46:25Z</time>
      </trkpt>
      <trkpt lat="47.66691" lon="6.198">
        <ele>317</ele>
        <time>2018-10-17T11:46:26Z</time>
      </trkpt>
      <trkpt lat="47.66696" lon="6.19808">
        <ele>317</ele>
        <time>2018-10-17T11:46:27Z</time>
      </trkpt>
      <trkpt lat="47.66702" lon="6.19814">
        <ele>317</ele>
        <time>2018-10-17T11:46:28Z</time>
      </trkpt>
      <trkpt lat="47.66707" lon="6.19821">
        <ele>316</ele>
        <time>2018-10-17T11:46:29Z</time>
      </trkpt>
      <trkpt lat="47.66712" lon="6.19827">
        <ele>316</ele>
        <time>2018-10-17T11:46:30Z</time>
      </trkpt>
      <trkpt lat="47.66717" lon="6.19834">
        <ele>316</ele>
        <time>2018-10-17T11:46:31Z</time>
      </trkpt>
      <trkpt lat="47.66723" lon="6.1984">
        <ele>316</ele>
        <time>2018-10-17T11:46:32Z</time>
      </trkpt>
      <trkpt lat="47.66728" lon="6.19847">
        <ele>316</ele>
        <time>2018-10-17T11:46:33Z</time>
      </trkpt>
      <trkpt lat="47.66732" lon="6.19853">
        <ele>316</ele>
        <time>2018-10-17T11:46:34Z</time>
      </trkpt>
      <trkpt lat="47.66737" lon="6.19859">
        <ele>316</ele>
        <time>2018-10-17T11:46:35Z</time>
      </trkpt>
      <trkpt lat="47.66743" lon="6.19865">
        <ele>316</ele>
        <time>2018-10-17T11:46:36Z</time>
      </trkpt>
      <trkpt lat="47.66748" lon="6.19871">
        <ele>316</ele>
        <time>2018-10-17T11:46:37Z</time>
      </trkpt>
      <trkpt lat="47.66753" lon="6.19876">
        <ele>314</ele>
        <time>2018-10-17T11:46:38Z</time>
      </trkpt>
      <trkpt lat="47.66758" lon="6.19882">
        <ele>314</ele>
        <time>2018-10-17T11:46:39Z</time>
      </trkpt>
      <trkpt lat="47.66764" lon="6.19888">
        <ele>314</ele>
        <time>2018-10-17T11:46:40Z</time>
      </trkpt>
      <trkpt lat="47.66769" lon="6.19893">
        <ele>314</ele>
        <time>2018-10-17T11:46:41Z</time>
      </trkpt>
      <trkpt lat="47.66774" lon="6.19898">
        <ele>314</ele>
        <time>2018-10-17T11:46:42Z</time>
      </trkpt>
      <trkpt lat="47.66779" lon="6.19903">
        <ele>314</ele>
        <time>2018-10-17T11:46:43Z</time>
      </trkpt>
      <trkpt lat="47.66785" lon="6.19907">
        <ele>314</ele>
        <time>2018-10-17T11:46:44Z</time>
      </trkpt>
      <trkpt lat="47.6679" lon="6.19912">
        <ele>314</ele>
        <time>2018-10-17T11:46:45Z</time>
      </trkpt>
      <trkpt lat="47.66794" lon="6.19916">
        <ele>314</ele>
        <time>2018-10-17T11:46:46Z</time>
      </trkpt>
      <trkpt lat="47.66799" lon="6.19918">
        <ele>314</ele>
        <time>2018-10-17T11:46:48Z</time>
      </trkpt>
      <trkpt lat="47.66804" lon="6.1992">
        <ele>314</ele>
        <time>2018-10-17T11:46:51Z</time>
      </trkpt>
      <trkpt lat="47.66809" lon="6.19923">
        <ele>314</ele>
        <time>2018-10-17T11:46:54Z</time>
      </trkpt>
      <trkpt lat="47.66815" lon="6.19925">
        <ele>314</ele>
        <time>2018-10-17T11:46:56Z</time>
      </trkpt>
      <trkpt lat="47.66821" lon="6.19929">
        <ele>314</ele>
        <time>2018-10-17T11:46:59Z</time>
      </trkpt>
      <trkpt lat="47.66827" lon="6.19933">
        <ele>314</ele>
        <time>2018-10-17T11:47:01Z</time>
      </trkpt>
      <trkpt lat="47.66833" lon="6.19937">
        <ele>313</ele>
        <time>2018-10-17T11:47:03Z</time>
      </trkpt>
      <trkpt lat="47.66843" lon="6.19943">
        <ele>312</ele>
        <time>2018-10-17T11:47:04Z</time>
      </trkpt>
      <trkpt lat="47.66848" lon="6.19945">
        <ele>312</ele>
        <time>2018-10-17T11:47:05Z</time>
      </trkpt>
      <trkpt lat="47.66853" lon="6.19947">
        <ele>312</ele>
        <time>2018-10-17T11:47:06Z</time>
      </trkpt>
      <trkpt lat="47.66857" lon="6.19949">
        <ele>311</ele>
        <time>2018-10-17T11:47:07Z</time>
      </trkpt>
      <trkpt lat="47.66862" lon="6.19953">
        <ele>311</ele>
        <time>2018-10-17T11:47:09Z</time>
      </trkpt>
      <trkpt lat="47.66868" lon="6.19957">
        <ele>311</ele>
        <time>2018-10-17T11:47:11Z</time>
      </trkpt>
      <trkpt lat="47.66874" lon="6.19963">
        <ele>311</ele>
        <time>2018-10-17T11:47:13Z</time>
      </trkpt>
      <trkpt lat="47.6688" lon="6.1997">
        <ele>310</ele>
        <time>2018-10-17T11:47:15Z</time>
      </trkpt>
      <trkpt lat="47.66886" lon="6.19975">
        <ele>310</ele>
        <time>2018-10-17T11:47:16Z</time>
      </trkpt>
      <trkpt lat="47.66893" lon="6.19982">
        <ele>310</ele>
        <time>2018-10-17T11:47:18Z</time>
      </trkpt>
      <trkpt lat="47.66899" lon="6.19989">
        <ele>310</ele>
        <time>2018-10-17T11:47:20Z</time>
      </trkpt>
      <trkpt lat="47.66904" lon="6.19996">
        <ele>310</ele>
        <time>2018-10-17T11:47:22Z</time>
      </trkpt>
      <trkpt lat="47.6691" lon="6.20003">
        <ele>311</ele>
        <time>2018-10-17T11:47:24Z</time>
      </trkpt>
      <trkpt lat="47.66915" lon="6.20008">
        <ele>311</ele>
        <time>2018-10-17T11:47:26Z</time>
      </trkpt>
      <trkpt lat="47.66919" lon="6.20013">
        <ele>310</ele>
        <time>2018-10-17T11:47:28Z</time>
      </trkpt>
      <trkpt lat="47.66924" lon="6.20019">
        <ele>310</ele>
        <time>2018-10-17T11:47:31Z</time>
      </trkpt>
      <trkpt lat="47.66929" lon="6.20023">
        <ele>310</ele>
        <time>2018-10-17T11:47:35Z</time>
      </trkpt>
      <trkpt lat="47.66933" lon="6.20027">
        <ele>310</ele>
        <time>2018-10-17T11:47:37Z</time>
      </trkpt>
      <trkpt lat="47.66938" lon="6.20032">
        <ele>310</ele>
        <time>2018-10-17T11:47:39Z</time>
      </trkpt>
      <trkpt lat="47.66943" lon="6.20035">
        <ele>310</ele>
        <time>2018-10-17T11:47:41Z</time>
      </trkpt>
      <trkpt lat="47.66949" lon="6.20039">
        <ele>310</ele>
        <time>2018-10-17T11:47:43Z</time>
      </trkpt>
      <trkpt lat="47.66955" lon="6.20044">
        <ele>310</ele>
        <time>2018-10-17T11:47:45Z</time>
      </trkpt>
      <trkpt lat="47.66962" lon="6.20048">
        <ele>310</ele>
        <time>2018-10-17T11:47:47Z</time>
      </trkpt>
      <trkpt lat="47.66968" lon="6.20054">
        <ele>310</ele>
        <time>2018-10-17T11:47:49Z</time>
      </trkpt>
      <trkpt lat="47.66974" lon="6.2006">
        <ele>309</ele>
        <time>2018-10-17T11:47:51Z</time>
      </trkpt>
      <trkpt lat="47.66981" lon="6.20066">
        <ele>309</ele>
        <time>2018-10-17T11:47:53Z</time>
      </trkpt>
      <trkpt lat="47.66987" lon="6.20073">
        <ele>309</ele>
        <time>2018-10-17T11:47:55Z</time>
      </trkpt>
      <trkpt lat="47.66995" lon="6.20081">
        <ele>309</ele>
        <time>2018-10-17T11:47:57Z</time>
      </trkpt>
      <trkpt lat="47.66998" lon="6.20085">
        <ele>309</ele>
        <time>2018-10-17T11:47:58Z</time>
      </trkpt>
      <trkpt lat="47.67006" lon="6.20094">
        <ele>308</ele>
        <time>2018-10-17T11:47:59Z</time>
      </trkpt>
      <trkpt lat="47.6701" lon="6.20099">
        <ele>308</ele>
        <time>2018-10-17T11:48:00Z</time>
      </trkpt>
      <trkpt lat="47.67014" lon="6.20105">
        <ele>307</ele>
        <time>2018-10-17T11:48:01Z</time>
      </trkpt>
      <trkpt lat="47.67017" lon="6.2011">
        <ele>307</ele>
        <time>2018-10-17T11:48:02Z</time>
      </trkpt>
      <trkpt lat="47.67021" lon="6.20116">
        <ele>307</ele>
        <time>2018-10-17T11:48:03Z</time>
      </trkpt>
      <trkpt lat="47.67025" lon="6.20122">
        <ele>307</ele>
        <time>2018-10-17T11:48:04Z</time>
      </trkpt>
      <trkpt lat="47.67029" lon="6.20127">
        <ele>307</ele>
        <time>2018-10-17T11:48:05Z</time>
      </trkpt>
      <trkpt lat="47.67032" lon="6.20133">
        <ele>307</ele>
        <time>2018-10-17T11:48:06Z</time>
      </trkpt>
      <trkpt lat="47.67036" lon="6.20138">
        <ele>307</ele>
        <time>2018-10-17T11:48:07Z</time>
      </trkpt>
      <trkpt lat="47.67039" lon="6.20144">
        <ele>307</ele>
        <time>2018-10-17T11:48:08Z</time>
      </trkpt>
      <trkpt lat="47.67042" lon="6.20149">
        <ele>307</ele>
        <time>2018-10-17T11:48:09Z</time>
      </trkpt>
      <trkpt lat="47.67049" lon="6.20158">
        <ele>306</ele>
        <time>2018-10-17T11:48:11Z</time>
      </trkpt>
      <trkpt lat="47.67056" lon="6.20165">
        <ele>306</ele>
        <time>2018-10-17T11:48:13Z</time>
      </trkpt>
      <trkpt lat="47.67063" lon="6.20172">
        <ele>306</ele>
        <time>2018-10-17T11:48:15Z</time>
      </trkpt>
      <trkpt lat="47.67069" lon="6.20178">
        <ele>305</ele>
        <time>2018-10-17T11:48:17Z</time>
      </trkpt>
      <trkpt lat="47.67075" lon="6.20183">
        <ele>305</ele>
        <time>2018-10-17T11:48:19Z</time>
      </trkpt>
      <trkpt lat="47.67081" lon="6.20188">
        <ele>305</ele>
        <time>2018-10-17T11:48:21Z</time>
      </trkpt>
      <trkpt lat="47.67086" lon="6.20194">
        <ele>303</ele>
        <time>2018-10-17T11:48:23Z</time>
      </trkpt>
      <trkpt lat="47.67092" lon="6.20199">
        <ele>303</ele>
        <time>2018-10-17T11:48:25Z</time>
      </trkpt>
      <trkpt lat="47.67098" lon="6.20205">
        <ele>303</ele>
        <time>2018-10-17T11:48:27Z</time>
      </trkpt>
      <trkpt lat="47.67104" lon="6.20211">
        <ele>303</ele>
        <time>2018-10-17T11:48:29Z</time>
      </trkpt>
      <trkpt lat="47.67111" lon="6.20218">
        <ele>303</ele>
        <time>2018-10-17T11:48:31Z</time>
      </trkpt>
      <trkpt lat="47.67117" lon="6.20225">
        <ele>303</ele>
        <time>2018-10-17T11:48:33Z</time>
      </trkpt>
      <trkpt lat="47.67124" lon="6.20232">
        <ele>303</ele>
        <time>2018-10-17T11:48:35Z</time>
      </trkpt>
      <trkpt lat="47.6713" lon="6.20238">
        <ele>303</ele>
        <time>2018-10-17T11:48:37Z</time>
      </trkpt>
      <trkpt lat="47.67136" lon="6.20243">
        <ele>303</ele>
        <time>2018-10-17T11:48:39Z</time>
      </trkpt>
      <trkpt lat="47.67142" lon="6.20249">
        <ele>303</ele>
        <time>2018-10-17T11:48:41Z</time>
      </trkpt>
      <trkpt lat="47.67148" lon="6.20255">
        <ele>303</ele>
        <time>2018-10-17T11:48:43Z</time>
      </trkpt>
      <trkpt lat="47.67154" lon="6.20261">
        <ele>303</ele>
        <time>2018-10-17T11:48:45Z</time>
      </trkpt>
      <trkpt lat="47.6716" lon="6.20267">
        <ele>303</ele>
        <time>2018-10-17T11:48:47Z</time>
      </trkpt>
      <trkpt lat="47.67166" lon="6.20273">
        <ele>303</ele>
        <time>2018-10-17T11:48:49Z</time>
      </trkpt>
      <trkpt lat="47.67172" lon="6.20279">
        <ele>304</ele>
        <time>2018-10-17T11:48:51Z</time>
      </trkpt>
      <trkpt lat="47.67176" lon="6.20283">
        <ele>304</ele>
        <time>2018-10-17T11:48:53Z</time>
      </trkpt>
      <trkpt lat="47.67181" lon="6.20288">
        <ele>304</ele>
        <time>2018-10-17T11:48:55Z</time>
      </trkpt>
      <trkpt lat="47.67186" lon="6.20293">
        <ele>304</ele>
        <time>2018-10-17T11:48:57Z</time>
      </trkpt>
      <trkpt lat="47.67191" lon="6.20298">
        <ele>304</ele>
        <time>2018-10-17T11:48:59Z</time>
      </trkpt>
      <trkpt lat="47.67196" lon="6.20302">
        <ele>304</ele>
        <time>2018-10-17T11:49:01Z</time>
      </trkpt>
      <trkpt lat="47.67202" lon="6.20306">
        <ele>305</ele>
        <time>2018-10-17T11:49:03Z</time>
      </trkpt>
      <trkpt lat="47.67208" lon="6.2031">
        <ele>305</ele>
        <time>2018-10-17T11:49:05Z</time>
      </trkpt>
      <trkpt lat="47.67214" lon="6.20307">
        <ele>305</ele>
        <time>2018-10-17T11:49:07Z</time>
      </trkpt>
      <trkpt lat="47.67219" lon="6.20303">
        <ele>305</ele>
        <time>2018-10-17T11:49:09Z</time>
      </trkpt>
      <trkpt lat="47.67225" lon="6.20297">
        <ele>305</ele>
        <time>2018-10-17T11:49:11Z</time>
      </trkpt>
      <trkpt lat="47.67232" lon="6.2029">
        <ele>305</ele>
        <time>2018-10-17T11:49:13Z</time>
      </trkpt>
      <trkpt lat="47.6724" lon="6.20283">
        <ele>305</ele>
        <time>2018-10-17T11:49:15Z</time>
      </trkpt>
      <trkpt lat="47.67247" lon="6.20277">
        <ele>304</ele>
        <time>2018-10-17T11:49:16Z</time>
      </trkpt>
      <trkpt lat="47.67254" lon="6.20272">
        <ele>307</ele>
        <time>2018-10-17T11:49:18Z</time>
      </trkpt>
      <trkpt lat="47.67262" lon="6.20268">
        <ele>307</ele>
        <time>2018-10-17T11:49:20Z</time>
      </trkpt>
      <trkpt lat="47.67269" lon="6.20265">
        <ele>307</ele>
        <time>2018-10-17T11:49:22Z</time>
      </trkpt>
      <trkpt lat="47.67276" lon="6.20261">
        <ele>308</ele>
        <time>2018-10-17T11:49:24Z</time>
      </trkpt>
      <trkpt lat="47.67282" lon="6.20256">
        <ele>308</ele>
        <time>2018-10-17T11:49:26Z</time>
      </trkpt>
      <trkpt lat="47.67289" lon="6.20249">
        <ele>305</ele>
        <time>2018-10-17T11:49:28Z</time>
      </trkpt>
      <trkpt lat="47.67295" lon="6.20243">
        <ele>305</ele>
        <time>2018-10-17T11:49:30Z</time>
      </trkpt>
      <trkpt lat="47.67301" lon="6.20238">
        <ele>306</ele>
        <time>2018-10-17T11:49:32Z</time>
      </trkpt>
      <trkpt lat="47.67306" lon="6.20233">
        <ele>306</ele>
        <time>2018-10-17T11:49:34Z</time>
      </trkpt>
      <trkpt lat="47.6731" lon="6.20229">
        <ele>306</ele>
        <time>2018-10-17T11:49:36Z</time>
      </trkpt>
      <trkpt lat="47.67315" lon="6.20223">
        <ele>306</ele>
        <time>2018-10-17T11:49:38Z</time>
      </trkpt>
      <trkpt lat="47.67319" lon="6.20219">
        <ele>306</ele>
        <time>2018-10-17T11:49:40Z</time>
      </trkpt>
      <trkpt lat="47.67324" lon="6.20215">
        <ele>305</ele>
        <time>2018-10-17T11:49:42Z</time>
      </trkpt>
      <trkpt lat="47.67329" lon="6.2021">
        <ele>305</ele>
        <time>2018-10-17T11:49:44Z</time>
      </trkpt>
      <trkpt lat="47.67334" lon="6.20207">
        <ele>310</ele>
        <time>2018-10-17T11:49:46Z</time>
      </trkpt>
      <trkpt lat="47.67338" lon="6.20204">
        <ele>310</ele>
        <time>2018-10-17T11:49:48Z</time>
      </trkpt>
      <trkpt lat="47.67343" lon="6.202">
        <ele>309</ele>
        <time>2018-10-17T11:49:50Z</time>
      </trkpt>
      <trkpt lat="47.67348" lon="6.20197">
        <ele>309</ele>
        <time>2018-10-17T11:49:52Z</time>
      </trkpt>
      <trkpt lat="47.67353" lon="6.20194">
        <ele>309</ele>
        <time>2018-10-17T11:49:54Z</time>
      </trkpt>
      <trkpt lat="47.67358" lon="6.2019">
        <ele>310</ele>
        <time>2018-10-17T11:49:56Z</time>
      </trkpt>
      <trkpt lat="47.67363" lon="6.20187">
        <ele>310</ele>
        <time>2018-10-17T11:49:58Z</time>
      </trkpt>
      <trkpt lat="47.67367" lon="6.20185">
        <ele>310</ele>
        <time>2018-10-17T11:50:00Z</time>
      </trkpt>
      <trkpt lat="47.67372" lon="6.20182">
        <ele>310</ele>
        <time>2018-10-17T11:50:02Z</time>
      </trkpt>
      <trkpt lat="47.67377" lon="6.2018">
        <ele>311</ele>
        <time>2018-10-17T11:50:04Z</time>
      </trkpt>
      <trkpt lat="47.67382" lon="6.20177">
        <ele>311</ele>
        <time>2018-10-17T11:50:06Z</time>
      </trkpt>
      <trkpt lat="47.67386" lon="6.20174">
        <ele>311</ele>
        <time>2018-10-17T11:50:08Z</time>
      </trkpt>
      <trkpt lat="47.67391" lon="6.20171">
        <ele>312</ele>
        <time>2018-10-17T11:50:10Z</time>
      </trkpt>
      <trkpt lat="47.67397" lon="6.20167">
        <ele>312</ele>
        <time>2018-10-17T11:50:12Z</time>
      </trkpt>
      <trkpt lat="47.67403" lon="6.20163">
        <ele>310</ele>
        <time>2018-10-17T11:50:14Z</time>
      </trkpt>
      <trkpt lat="47.6741" lon="6.20161">
        <ele>311</ele>
        <time>2018-10-17T11:50:16Z</time>
      </trkpt>
      <trkpt lat="47.67415" lon="6.20159">
        <ele>311</ele>
        <time>2018-10-17T11:50:18Z</time>
      </trkpt>
      <trkpt lat="47.6742" lon="6.20157">
        <ele>314</ele>
        <time>2018-10-17T11:50:21Z</time>
      </trkpt>
      <trkpt lat="47.67425" lon="6.20157">
        <ele>314</ele>
        <time>2018-10-17T11:50:24Z</time>
      </trkpt>
      <trkpt lat="47.67431" lon="6.20155">
        <ele>315</ele>
        <time>2018-10-17T11:50:28Z</time>
      </trkpt>
      <trkpt lat="47.67438" lon="6.20151">
        <ele>315</ele>
        <time>2018-10-17T11:50:31Z</time>
      </trkpt>
      <trkpt lat="47.67443" lon="6.2015">
        <ele>315</ele>
        <time>2018-10-17T11:50:32Z</time>
      </trkpt>
      <trkpt lat="47.67448" lon="6.2015">
        <ele>315</ele>
        <time>2018-10-17T11:50:34Z</time>
      </trkpt>
      <trkpt lat="47.67455" lon="6.20151">
        <ele>316</ele>
        <time>2018-10-17T11:50:37Z</time>
      </trkpt>
      <trkpt lat="47.67463" lon="6.2015">
        <ele>316</ele>
        <time>2018-10-17T11:50:40Z</time>
      </trkpt>
      <trkpt lat="47.67468" lon="6.20151">
        <ele>317</ele>
        <time>2018-10-17T11:50:42Z</time>
      </trkpt>
      <trkpt lat="47.67473" lon="6.20154">
        <ele>317</ele>
        <time>2018-10-17T11:50:45Z</time>
      </trkpt>
      <trkpt lat="47.67478" lon="6.20156">
        <ele>317</ele>
        <time>2018-10-17T11:50:48Z</time>
      </trkpt>
      <trkpt lat="47.67482" lon="6.20157">
        <ele>318</ele>
        <time>2018-10-17T11:50:50Z</time>
      </trkpt>
      <trkpt lat="47.67489" lon="6.20157">
        <ele>319</ele>
        <time>2018-10-17T11:50:53Z</time>
      </trkpt>
      <trkpt lat="47.67496" lon="6.20157">
        <ele>319</ele>
        <time>2018-10-17T11:50:56Z</time>
      </trkpt>
      <trkpt lat="47.67504" lon="6.20157">
        <ele>322</ele>
        <time>2018-10-17T11:50:58Z</time>
      </trkpt>
      <trkpt lat="47.67508" lon="6.20156">
        <ele>322</ele>
        <time>2018-10-17T11:50:59Z</time>
      </trkpt>
      <trkpt lat="47.67516" lon="6.20157">
        <ele>322</ele>
        <time>2018-10-17T11:51:01Z</time>
      </trkpt>
      <trkpt lat="47.67522" lon="6.20157">
        <ele>322</ele>
        <time>2018-10-17T11:51:03Z</time>
      </trkpt>
      <trkpt lat="47.67528" lon="6.20157">
        <ele>322</ele>
        <time>2018-10-17T11:51:05Z</time>
      </trkpt>
      <trkpt lat="47.67533" lon="6.20159">
        <ele>323</ele>
        <time>2018-10-17T11:51:08Z</time>
      </trkpt>
      <trkpt lat="47.67539" lon="6.2016">
        <ele>323</ele>
        <time>2018-10-17T11:51:11Z</time>
      </trkpt>
      <trkpt lat="47.67544" lon="6.2016">
        <ele>323</ele>
        <time>2018-10-17T11:51:13Z</time>
      </trkpt>
      <trkpt lat="47.67549" lon="6.20161">
        <ele>323</ele>
        <time>2018-10-17T11:51:15Z</time>
      </trkpt>
      <trkpt lat="47.67553" lon="6.20161">
        <ele>323</ele>
        <time>2018-10-17T11:51:17Z</time>
      </trkpt>
      <trkpt lat="47.67558" lon="6.20161">
        <ele>323</ele>
        <time>2018-10-17T11:51:19Z</time>
      </trkpt>
      <trkpt lat="47.67565" lon="6.20161">
        <ele>323</ele>
        <time>2018-10-17T11:51:22Z</time>
      </trkpt>
      <trkpt lat="47.67569" lon="6.20163">
        <ele>323</ele>
        <time>2018-10-17T11:51:24Z</time>
      </trkpt>
      <trkpt lat="47.67575" lon="6.20165">
        <ele>323</ele>
        <time>2018-10-17T11:51:27Z</time>
      </trkpt>
      <trkpt lat="47.6758" lon="6.20167">
        <ele>322</ele>
        <time>2018-10-17T11:51:29Z</time>
      </trkpt>
      <trkpt lat="47.67585" lon="6.2017">
        <ele>323</ele>
        <time>2018-10-17T11:51:31Z</time>
      </trkpt>
      <trkpt lat="47.67589" lon="6.20172">
        <ele>322</ele>
        <time>2018-10-17T11:51:33Z</time>
      </trkpt>
      <trkpt lat="47.67595" lon="6.20177">
        <ele>322</ele>
        <time>2018-10-17T11:51:36Z</time>
      </trkpt>
      <trkpt lat="47.676" lon="6.20181">
        <ele>321</ele>
        <time>2018-10-17T11:51:38Z</time>
      </trkpt>
      <trkpt lat="47.67606" lon="6.20184">
        <ele>321</ele>
        <time>2018-10-17T11:51:41Z</time>
      </trkpt>
      <trkpt lat="47.67612" lon="6.20188">
        <ele>321</ele>
        <time>2018-10-17T11:51:43Z</time>
      </trkpt>
      <trkpt lat="47.67619" lon="6.20192">
        <ele>321</ele>
        <time>2018-10-17T11:51:45Z</time>
      </trkpt>
      <trkpt lat="47.67623" lon="6.20196">
        <ele>321</ele>
        <time>2018-10-17T11:51:46Z</time>
      </trkpt>
      <trkpt lat="47.67628" lon="6.20203">
        <ele>321</ele>
        <time>2018-10-17T11:51:49Z</time>
      </trkpt>
      <trkpt lat="47.67634" lon="6.20202">
        <ele>321</ele>
        <time>2018-10-17T11:51:50Z</time>
      </trkpt>
      <trkpt lat="47.67641" lon="6.20201">
        <ele>321</ele>
        <time>2018-10-17T11:51:51Z</time>
      </trkpt>
      <trkpt lat="47.67649" lon="6.20202">
        <ele>321</ele>
        <time>2018-10-17T11:51:53Z</time>
      </trkpt>
      <trkpt lat="47.67655" lon="6.20204">
        <ele>321</ele>
        <time>2018-10-17T11:51:55Z</time>
      </trkpt>
      <trkpt lat="47.67659" lon="6.20205">
        <ele>321</ele>
        <time>2018-10-17T11:51:57Z</time>
      </trkpt>
      <trkpt lat="47.67664" lon="6.20207">
        <ele>321</ele>
        <time>2018-10-17T11:51:59Z</time>
      </trkpt>
      <trkpt lat="47.67669" lon="6.2021">
        <ele>323</ele>
        <time>2018-10-17T11:52:02Z</time>
      </trkpt>
      <trkpt lat="47.67675" lon="6.20213">
        <ele>323</ele>
        <time>2018-10-17T11:52:05Z</time>
      </trkpt>
      <trkpt lat="47.6768" lon="6.20216">
        <ele>323</ele>
        <time>2018-10-17T11:52:08Z</time>
      </trkpt>
      <trkpt lat="47.67686" lon="6.20219">
        <ele>323</ele>
        <time>2018-10-17T11:52:11Z</time>
      </trkpt>
      <trkpt lat="47.67691" lon="6.20223">
        <ele>323</ele>
        <time>2018-10-17T11:52:14Z</time>
      </trkpt>
      <trkpt lat="47.67697" lon="6.20227">
        <ele>323</ele>
        <time>2018-10-17T11:52:17Z</time>
      </trkpt>
      <trkpt lat="47.67701" lon="6.20229">
        <ele>323</ele>
        <time>2018-10-17T11:52:19Z</time>
      </trkpt>
      <trkpt lat="47.67705" lon="6.20232">
        <ele>323</ele>
        <time>2018-10-17T11:52:21Z</time>
      </trkpt>
      <trkpt lat="47.6771" lon="6.20234">
        <ele>323</ele>
        <time>2018-10-17T11:52:23Z</time>
      </trkpt>
      <trkpt lat="47.67715" lon="6.20235">
        <ele>323</ele>
        <time>2018-10-17T11:52:25Z</time>
      </trkpt>
      <trkpt lat="47.6772" lon="6.20235">
        <ele>323</ele>
        <time>2018-10-17T11:52:27Z</time>
      </trkpt>
      <trkpt lat="47.67725" lon="6.20235">
        <ele>323</ele>
        <time>2018-10-17T11:52:29Z</time>
      </trkpt>
      <trkpt lat="47.6773" lon="6.20234">
        <ele>323</ele>
        <time>2018-10-17T11:52:32Z</time>
      </trkpt>
      <trkpt lat="47.67736" lon="6.20233">
        <ele>323</ele>
        <time>2018-10-17T11:52:35Z</time>
      </trkpt>
      <trkpt lat="47.67741" lon="6.20233">
        <ele>323</ele>
        <time>2018-10-17T11:52:38Z</time>
      </trkpt>
      <trkpt lat="47.67745" lon="6.20233">
        <ele>323</ele>
        <time>2018-10-17T11:52:41Z</time>
      </trkpt>
      <trkpt lat="47.67751" lon="6.20233">
        <ele>323</ele>
        <time>2018-10-17T11:52:45Z</time>
      </trkpt>
      <trkpt lat="47.67757" lon="6.20233">
        <ele>323</ele>
        <time>2018-10-17T11:52:48Z</time>
      </trkpt>
      <trkpt lat="47.67762" lon="6.20233">
        <ele>323</ele>
        <time>2018-10-17T11:52:51Z</time>
      </trkpt>
      <trkpt lat="47.67768" lon="6.20232">
        <ele>324</ele>
        <time>2018-10-17T11:52:54Z</time>
      </trkpt>
      <trkpt lat="47.67773" lon="6.20231">
        <ele>324</ele>
        <time>2018-10-17T11:52:57Z</time>
      </trkpt>
      <trkpt lat="47.67777" lon="6.20229">
        <ele>324</ele>
        <time>2018-10-17T11:53:00Z</time>
      </trkpt>
      <trkpt lat="47.67783" lon="6.20227">
        <ele>324</ele>
        <time>2018-10-17T11:53:03Z</time>
      </trkpt>
      <trkpt lat="47.67787" lon="6.20225">
        <ele>324</ele>
        <time>2018-10-17T11:53:06Z</time>
      </trkpt>
      <trkpt lat="47.67791" lon="6.20221">
        <ele>324</ele>
        <time>2018-10-17T11:53:10Z</time>
      </trkpt>
      <trkpt lat="47.67794" lon="6.20215">
        <ele>324</ele>
        <time>2018-10-17T11:53:14Z</time>
      </trkpt>
      <trkpt lat="47.67797" lon="6.20209">
        <ele>325</ele>
        <time>2018-10-17T11:53:17Z</time>
      </trkpt>
      <trkpt lat="47.67802" lon="6.20204">
        <ele>325</ele>
        <time>2018-10-17T11:53:20Z</time>
      </trkpt>
      <trkpt lat="47.67806" lon="6.20198">
        <ele>325</ele>
        <time>2018-10-17T11:53:23Z</time>
      </trkpt>
      <trkpt lat="47.67811" lon="6.20193">
        <ele>325</ele>
        <time>2018-10-17T11:53:26Z</time>
      </trkpt>
      <trkpt lat="47.67817" lon="6.2019">
        <ele>325</ele>
        <time>2018-10-17T11:53:29Z</time>
      </trkpt>
      <trkpt lat="47.67824" lon="6.20188">
        <ele>325</ele>
        <time>2018-10-17T11:53:32Z</time>
      </trkpt>
      <trkpt lat="47.6783" lon="6.20188">
        <ele>325</ele>
        <time>2018-10-17T11:53:35Z</time>
      </trkpt>
      <trkpt lat="47.67836" lon="6.20189">
        <ele>325</ele>
        <time>2018-10-17T11:53:38Z</time>
      </trkpt>
      <trkpt lat="47.67841" lon="6.20191">
        <ele>325</ele>
        <time>2018-10-17T11:53:40Z</time>
      </trkpt>
      <trkpt lat="47.67845" lon="6.20193">
        <ele>325</ele>
        <time>2018-10-17T11:53:42Z</time>
      </trkpt>
      <trkpt lat="47.6785" lon="6.20195">
        <ele>325</ele>
        <time>2018-10-17T11:53:44Z</time>
      </trkpt>
      <trkpt lat="47.67855" lon="6.20198">
        <ele>325</ele>
        <time>2018-10-17T11:53:47Z</time>
      </trkpt>
      <trkpt lat="47.6786" lon="6.20201">
        <ele>325</ele>
        <time>2018-10-17T11:53:50Z</time>
      </trkpt>
      <trkpt lat="47.67865" lon="6.20204">
        <ele>325</ele>
        <time>2018-10-17T11:53:53Z</time>
      </trkpt>
      <trkpt lat="47.67869" lon="6.20208">
        <ele>325</ele>
        <time>2018-10-17T11:53:56Z</time>
      </trkpt>
      <trkpt lat="47.67873" lon="6.20211">
        <ele>325</ele>
        <time>2018-10-17T11:53:59Z</time>
      </trkpt>
      <trkpt lat="47.67878" lon="6.20215">
        <ele>326</ele>
        <time>2018-10-17T11:54:02Z</time>
      </trkpt>
      <trkpt lat="47.67881" lon="6.20218">
        <ele>326</ele>
        <time>2018-10-17T11:54:05Z</time>
      </trkpt>
      <trkpt lat="47.67885" lon="6.20222">
        <ele>326</ele>
        <time>2018-10-17T11:54:08Z</time>
      </trkpt>
      <trkpt lat="47.67889" lon="6.20225">
        <ele>326</ele>
        <time>2018-10-17T11:54:11Z</time>
      </trkpt>
      <trkpt lat="47.67894" lon="6.2023">
        <ele>326</ele>
        <time>2018-10-17T11:54:15Z</time>
      </trkpt>
      <trkpt lat="47.67898" lon="6.20233">
        <ele>326</ele>
        <time>2018-10-17T11:54:18Z</time>
      </trkpt>
      <trkpt lat="47.67902" lon="6.20237">
        <ele>327</ele>
        <time>2018-10-17T11:54:21Z</time>
      </trkpt>
      <trkpt lat="47.67907" lon="6.20242">
        <ele>327</ele>
        <time>2018-10-17T11:54:25Z</time>
      </trkpt>
      <trkpt lat="47.67911" lon="6.20246">
        <ele>327</ele>
        <time>2018-10-17T11:54:28Z</time>
      </trkpt>
      <trkpt lat="47.67915" lon="6.20249">
        <ele>328</ele>
        <time>2018-10-17T11:54:31Z</time>
      </trkpt>
      <trkpt lat="47.67919" lon="6.20254">
        <ele>328</ele>
        <time>2018-10-17T11:54:34Z</time>
      </trkpt>
      <trkpt lat="47.67924" lon="6.20258">
        <ele>328</ele>
        <time>2018-10-17T11:54:37Z</time>
      </trkpt>
      <trkpt lat="47.67929" lon="6.20261">
        <ele>328</ele>
        <time>2018-10-17T11:54:40Z</time>
      </trkpt>
      <trkpt lat="47.67933" lon="6.20264">
        <ele>328</ele>
        <time>2018-10-17T11:54:43Z</time>
      </trkpt>
      <trkpt lat="47.67937" lon="6.20268">
        <ele>328</ele>
        <time>2018-10-17T11:54:46Z</time>
      </trkpt>
      <trkpt lat="47.67941" lon="6.20272">
        <ele>328</ele>
        <time>2018-10-17T11:54:49Z</time>
      </trkpt>
      <trkpt lat="47.67946" lon="6.20275">
        <ele>328</ele>
        <time>2018-10-17T11:54:53Z</time>
      </trkpt>
      <trkpt lat="47.67951" lon="6.20278">
        <ele>328</ele>
        <time>2018-10-17T11:54:56Z</time>
      </trkpt>
      <trkpt lat="47.67955" lon="6.2028">
        <ele>329</ele>
        <time>2018-10-17T11:54:59Z</time>
      </trkpt>
      <trkpt lat="47.6796" lon="6.20283">
        <ele>329</ele>
        <time>2018-10-17T11:55:02Z</time>
      </trkpt>
      <trkpt lat="47.67964" lon="6.20286">
        <ele>329</ele>
        <time>2018-10-17T11:55:05Z</time>
      </trkpt>
      <trkpt lat="47.67969" lon="6.20289">
        <ele>329</ele>
        <time>2018-10-17T11:55:08Z</time>
      </trkpt>
      <trkpt lat="47.67974" lon="6.20291">
        <ele>329</ele>
        <time>2018-10-17T11:55:11Z</time>
      </trkpt>
      <trkpt lat="47.6798" lon="6.20293">
        <ele>329</ele>
        <time>2018-10-17T11:55:14Z</time>
      </trkpt>
      <trkpt lat="47.67985" lon="6.20296">
        <ele>329</ele>
        <time>2018-10-17T11:55:17Z</time>
      </trkpt>
      <trkpt lat="47.67991" lon="6.20298">
        <ele>329</ele>
        <time>2018-10-17T11:55:20Z</time>
      </trkpt>
      <trkpt lat="47.67997" lon="6.20301">
        <ele>329</ele>
        <time>2018-10-17T11:55:23Z</time>
      </trkpt>
      <trkpt lat="47.68002" lon="6.20303">
        <ele>328</ele>
        <time>2018-10-17T11:55:25Z</time>
      </trkpt>
      <trkpt lat="47.68007" lon="6.20306">
        <ele>328</ele>
        <time>2018-10-17T11:55:27Z</time>
      </trkpt>
      <trkpt lat="47.68013" lon="6.20308">
        <ele>328</ele>
        <time>2018-10-17T11:55:29Z</time>
      </trkpt>
      <trkpt lat="47.6802" lon="6.20311">
        <ele>328</ele>
        <time>2018-10-17T11:55:31Z</time>
      </trkpt>
      <trkpt lat="47.68026" lon="6.20314">
        <ele>328</ele>
        <time>2018-10-17T11:55:33Z</time>
      </trkpt>
      <trkpt lat="47.68034" lon="6.20317">
        <ele>328</ele>
        <time>2018-10-17T11:55:35Z</time>
      </trkpt>
      <trkpt lat="47.68039" lon="6.20319">
        <ele>328</ele>
        <time>2018-10-17T11:55:36Z</time>
      </trkpt>
      <trkpt lat="47.68046" lon="6.20322">
        <ele>328</ele>
        <time>2018-10-17T11:55:38Z</time>
      </trkpt>
      <trkpt lat="47.68053" lon="6.20325">
        <ele>328</ele>
        <time>2018-10-17T11:55:40Z</time>
      </trkpt>
      <trkpt lat="47.68059" lon="6.20328">
        <ele>328</ele>
        <time>2018-10-17T11:55:42Z</time>
      </trkpt>
      <trkpt lat="47.68065" lon="6.20331">
        <ele>328</ele>
        <time>2018-10-17T11:55:44Z</time>
      </trkpt>
      <trkpt lat="47.68072" lon="6.20334">
        <ele>330</ele>
        <time>2018-10-17T11:55:46Z</time>
      </trkpt>
      <trkpt lat="47.68078" lon="6.20336">
        <ele>330</ele>
        <time>2018-10-17T11:55:48Z</time>
      </trkpt>
      <trkpt lat="47.68084" lon="6.20339">
        <ele>329</ele>
        <time>2018-10-17T11:55:50Z</time>
      </trkpt>
      <trkpt lat="47.6809" lon="6.20341">
        <ele>329</ele>
        <time>2018-10-17T11:55:52Z</time>
      </trkpt>
      <trkpt lat="47.68097" lon="6.20343">
        <ele>330</ele>
        <time>2018-10-17T11:55:54Z</time>
      </trkpt>
      <trkpt lat="47.68102" lon="6.20346">
        <ele>330</ele>
        <time>2018-10-17T11:55:56Z</time>
      </trkpt>
      <trkpt lat="47.68108" lon="6.20348">
        <ele>330</ele>
        <time>2018-10-17T11:55:58Z</time>
      </trkpt>
      <trkpt lat="47.68114" lon="6.20351">
        <ele>330</ele>
        <time>2018-10-17T11:56:00Z</time>
      </trkpt>
      <trkpt lat="47.6812" lon="6.20353">
        <ele>330</ele>
        <time>2018-10-17T11:56:02Z</time>
      </trkpt>
      <trkpt lat="47.68126" lon="6.20355">
        <ele>329</ele>
        <time>2018-10-17T11:56:04Z</time>
      </trkpt>
      <trkpt lat="47.68133" lon="6.20357">
        <ele>329</ele>
        <time>2018-10-17T11:56:06Z</time>
      </trkpt>
      <trkpt lat="47.68141" lon="6.2036">
        <ele>329</ele>
        <time>2018-10-17T11:56:08Z</time>
      </trkpt>
      <trkpt lat="47.68151" lon="6.20364">
        <ele>329</ele>
        <time>2018-10-17T11:56:09Z</time>
      </trkpt>
      <trkpt lat="47.68156" lon="6.20366">
        <ele>329</ele>
        <time>2018-10-17T11:56:10Z</time>
      </trkpt>
      <trkpt lat="47.68162" lon="6.20368">
        <ele>329</ele>
        <time>2018-10-17T11:56:11Z</time>
      </trkpt>
      <trkpt lat="47.68168" lon="6.20371">
        <ele>328</ele>
        <time>2018-10-17T11:56:12Z</time>
      </trkpt>
      <trkpt lat="47.68174" lon="6.20374">
        <ele>328</ele>
        <time>2018-10-17T11:56:13Z</time>
      </trkpt>
      <trkpt lat="47.6818" lon="6.20377">
        <ele>328</ele>
        <time>2018-10-17T11:56:14Z</time>
      </trkpt>
      <trkpt lat="47.68187" lon="6.2038">
        <ele>328</ele>
        <time>2018-10-17T11:56:15Z</time>
      </trkpt>
      <trkpt lat="47.68194" lon="6.20385">
        <ele>329</ele>
        <time>2018-10-17T11:56:16Z</time>
      </trkpt>
      <trkpt lat="47.682" lon="6.20389">
        <ele>329</ele>
        <time>2018-10-17T11:56:17Z</time>
      </trkpt>
      <trkpt lat="47.68206" lon="6.20394">
        <ele>329</ele>
        <time>2018-10-17T11:56:18Z</time>
      </trkpt>
      <trkpt lat="47.68212" lon="6.20399">
        <ele>329</ele>
        <time>2018-10-17T11:56:19Z</time>
      </trkpt>
      <trkpt lat="47.68218" lon="6.20403">
        <ele>329</ele>
        <time>2018-10-17T11:56:20Z</time>
      </trkpt>
      <trkpt lat="47.68223" lon="6.20407">
        <ele>330</ele>
        <time>2018-10-17T11:56:21Z</time>
      </trkpt>
      <trkpt lat="47.68229" lon="6.20411">
        <ele>330</ele>
        <time>2018-10-17T11:56:22Z</time>
      </trkpt>
      <trkpt lat="47.68234" lon="6.20415">
        <ele>331</ele>
        <time>2018-10-17T11:56:23Z</time>
      </trkpt>
      <trkpt lat="47.68239" lon="6.20419">
        <ele>334</ele>
        <time>2018-10-17T11:56:24Z</time>
      </trkpt>
      <trkpt lat="47.68244" lon="6.20422">
        <ele>334</ele>
        <time>2018-10-17T11:56:25Z</time>
      </trkpt>
      <trkpt lat="47.68248" lon="6.20425">
        <ele>334</ele>
        <time>2018-10-17T11:56:26Z</time>
      </trkpt>
      <trkpt lat="47.68253" lon="6.20428">
        <ele>334</ele>
        <time>2018-10-17T11:56:27Z</time>
      </trkpt>
      <trkpt lat="47.6826" lon="6.20434">
        <ele>334</ele>
        <time>2018-10-17T11:56:29Z</time>
      </trkpt>
      <trkpt lat="47.68268" lon="6.20439">
        <ele>334</ele>
        <time>2018-10-17T11:56:31Z</time>
      </trkpt>
      <trkpt lat="47.68273" lon="6.20441">
        <ele>334</ele>
        <time>2018-10-17T11:56:33Z</time>
      </trkpt>
      <trkpt lat="47.68279" lon="6.20446">
        <ele>334</ele>
        <time>2018-10-17T11:56:37Z</time>
      </trkpt>
      <trkpt lat="47.68289" lon="6.20455">
        <ele>334</ele>
        <time>2018-10-17T11:56:38Z</time>
      </trkpt>
      <trkpt lat="47.68294" lon="6.20458">
        <ele>334</ele>
        <time>2018-10-17T11:56:39Z</time>
      </trkpt>
      <trkpt lat="47.68299" lon="6.20462">
        <ele>334</ele>
        <time>2018-10-17T11:56:40Z</time>
      </trkpt>
      <trkpt lat="47.68304" lon="6.20465">
        <ele>334</ele>
        <time>2018-10-17T11:56:41Z</time>
      </trkpt>
      <trkpt lat="47.68309" lon="6.20468">
        <ele>334</ele>
        <time>2018-10-17T11:56:42Z</time>
      </trkpt>
      <trkpt lat="47.68315" lon="6.20471">
        <ele>334</ele>
        <time>2018-10-17T11:56:43Z</time>
      </trkpt>
      <trkpt lat="47.68321" lon="6.20475">
        <ele>334</ele>
        <time>2018-10-17T11:56:44Z</time>
      </trkpt>
      <trkpt lat="47.68326" lon="6.20478">
        <ele>334</ele>
        <time>2018-10-17T11:56:45Z</time>
      </trkpt>
      <trkpt lat="47.68333" lon="6.20481">
        <ele>334</ele>
        <time>2018-10-17T11:56:46Z</time>
      </trkpt>
      <trkpt lat="47.68339" lon="6.20484">
        <ele>333</ele>
        <time>2018-10-17T11:56:47Z</time>
      </trkpt>
      <trkpt lat="47.68345" lon="6.20486">
        <ele>333</ele>
        <time>2018-10-17T11:56:48Z</time>
      </trkpt>
      <trkpt lat="47.68352" lon="6.20489">
        <ele>332</ele>
        <time>2018-10-17T11:56:49Z</time>
      </trkpt>
      <trkpt lat="47.68358" lon="6.20492">
        <ele>332</ele>
        <time>2018-10-17T11:56:50Z</time>
      </trkpt>
      <trkpt lat="47.68364" lon="6.20495">
        <ele>332</ele>
        <time>2018-10-17T11:56:51Z</time>
      </trkpt>
      <trkpt lat="47.68369" lon="6.20498">
        <ele>332</ele>
        <time>2018-10-17T11:56:52Z</time>
      </trkpt>
      <trkpt lat="47.68374" lon="6.20501">
        <ele>330</ele>
        <time>2018-10-17T11:56:53Z</time>
      </trkpt>
      <trkpt lat="47.68379" lon="6.20504">
        <ele>330</ele>
        <time>2018-10-17T11:56:54Z</time>
      </trkpt>
      <trkpt lat="47.68385" lon="6.20507">
        <ele>330</ele>
        <time>2018-10-17T11:56:55Z</time>
      </trkpt>
      <trkpt lat="47.6839" lon="6.2051">
        <ele>330</ele>
        <time>2018-10-17T11:56:56Z</time>
      </trkpt>
      <trkpt lat="47.68395" lon="6.20513">
        <ele>330</ele>
        <time>2018-10-17T11:56:57Z</time>
      </trkpt>
      <trkpt lat="47.68401" lon="6.20516">
        <ele>330</ele>
        <time>2018-10-17T11:56:58Z</time>
      </trkpt>
      <trkpt lat="47.68406" lon="6.20519">
        <ele>330</ele>
        <time>2018-10-17T11:56:59Z</time>
      </trkpt>
      <trkpt lat="47.68411" lon="6.20522">
        <ele>330</ele>
        <time>2018-10-17T11:57:00Z</time>
      </trkpt>
      <trkpt lat="47.68416" lon="6.20525">
        <ele>330</ele>
        <time>2018-10-17T11:57:01Z</time>
      </trkpt>
      <trkpt lat="47.6842" lon="6.20528">
        <ele>331</ele>
        <time>2018-10-17T11:57:02Z</time>
      </trkpt>
      <trkpt lat="47.68428" lon="6.20535">
        <ele>331</ele>
        <time>2018-10-17T11:57:04Z</time>
      </trkpt>
      <trkpt lat="47.68435" lon="6.20542">
        <ele>331</ele>
        <time>2018-10-17T11:57:06Z</time>
      </trkpt>
      <trkpt lat="47.68441" lon="6.20548">
        <ele>331</ele>
        <time>2018-10-17T11:57:08Z</time>
      </trkpt>
      <trkpt lat="47.68448" lon="6.20554">
        <ele>331</ele>
        <time>2018-10-17T11:57:10Z</time>
      </trkpt>
      <trkpt lat="47.68453" lon="6.20558">
        <ele>332</ele>
        <time>2018-10-17T11:57:12Z</time>
      </trkpt>
      <trkpt lat="47.68459" lon="6.20564">
        <ele>332</ele>
        <time>2018-10-17T11:57:14Z</time>
      </trkpt>
      <trkpt lat="47.68465" lon="6.20569">
        <ele>332</ele>
        <time>2018-10-17T11:57:17Z</time>
      </trkpt>
      <trkpt lat="47.68469" lon="6.20573">
        <ele>333</ele>
        <time>2018-10-17T11:57:19Z</time>
      </trkpt>
      <trkpt lat="47.68473" lon="6.20578">
        <ele>333</ele>
        <time>2018-10-17T11:57:21Z</time>
      </trkpt>
      <trkpt lat="47.68478" lon="6.20584">
        <ele>332</ele>
        <time>2018-10-17T11:57:24Z</time>
      </trkpt>
      <trkpt lat="47.68483" lon="6.20589">
        <ele>333</ele>
        <time>2018-10-17T11:57:27Z</time>
      </trkpt>
      <trkpt lat="47.68487" lon="6.20595">
        <ele>333</ele>
        <time>2018-10-17T11:57:30Z</time>
      </trkpt>
      <trkpt lat="47.6849" lon="6.20601">
        <ele>333</ele>
        <time>2018-10-17T11:57:32Z</time>
      </trkpt>
      <trkpt lat="47.68493" lon="6.20607">
        <ele>332</ele>
        <time>2018-10-17T11:57:34Z</time>
      </trkpt>
      <trkpt lat="47.68497" lon="6.20613">
        <ele>332</ele>
        <time>2018-10-17T11:57:36Z</time>
      </trkpt>
      <trkpt lat="47.685" lon="6.20618">
        <ele>337</ele>
        <time>2018-10-17T11:57:38Z</time>
      </trkpt>
      <trkpt lat="47.68504" lon="6.20624">
        <ele>337</ele>
        <time>2018-10-17T11:57:40Z</time>
      </trkpt>
      <trkpt lat="47.68508" lon="6.2063">
        <ele>337</ele>
        <time>2018-10-17T11:57:42Z</time>
      </trkpt>
      <trkpt lat="47.68511" lon="6.20635">
        <ele>337</ele>
        <time>2018-10-17T11:57:44Z</time>
      </trkpt>
      <trkpt lat="47.68515" lon="6.20639">
        <ele>337</ele>
        <time>2018-10-17T11:57:46Z</time>
      </trkpt>
      <trkpt lat="47.68519" lon="6.20644">
        <ele>337</ele>
        <time>2018-10-17T11:57:48Z</time>
      </trkpt>
      <trkpt lat="47.68523" lon="6.20649">
        <ele>337</ele>
        <time>2018-10-17T11:57:50Z</time>
      </trkpt>
      <trkpt lat="47.68527" lon="6.20653">
        <ele>337</ele>
        <time>2018-10-17T11:57:52Z</time>
      </trkpt>
      <trkpt lat="47.6853" lon="6.20658">
        <ele>337</ele>
        <time>2018-10-17T11:57:54Z</time>
      </trkpt>
      <trkpt lat="47.68533" lon="6.20663">
        <ele>338</ele>
        <time>2018-10-17T11:57:56Z</time>
      </trkpt>
      <trkpt lat="47.68537" lon="6.20668">
        <ele>336</ele>
        <time>2018-10-17T11:57:58Z</time>
      </trkpt>
      <trkpt lat="47.6854" lon="6.20678">
        <ele>336</ele>
        <time>2018-10-17T11:58:00Z</time>
      </trkpt>
      <trkpt lat="47.68543" lon="6.20685">
        <ele>336</ele>
        <time>2018-10-17T11:58:02Z</time>
      </trkpt>
      <trkpt lat="47.68548" lon="6.20692">
        <ele>336</ele>
        <time>2018-10-17T11:58:04Z</time>
      </trkpt>
      <trkpt lat="47.68554" lon="6.207">
        <ele>336</ele>
        <time>2018-10-17T11:58:06Z</time>
      </trkpt>
      <trkpt lat="47.68558" lon="6.20706">
        <ele>336</ele>
        <time>2018-10-17T11:58:08Z</time>
      </trkpt>
      <trkpt lat="47.68563" lon="6.20712">
        <ele>336</ele>
        <time>2018-10-17T11:58:10Z</time>
      </trkpt>
      <trkpt lat="47.68567" lon="6.2072">
        <ele>337</ele>
        <time>2018-10-17T11:58:12Z</time>
      </trkpt>
      <trkpt lat="47.68569" lon="6.20725">
        <ele>337</ele>
        <time>2018-10-17T11:58:14Z</time>
      </trkpt>
      <trkpt lat="47.68573" lon="6.20732">
        <ele>337</ele>
        <time>2018-10-17T11:58:17Z</time>
      </trkpt>
      <trkpt lat="47.68577" lon="6.20738">
        <ele>338</ele>
        <time>2018-10-17T11:58:20Z</time>
      </trkpt>
      <trkpt lat="47.68581" lon="6.20744">
        <ele>339</ele>
        <time>2018-10-17T11:58:23Z</time>
      </trkpt>
      <trkpt lat="47.68584" lon="6.2075">
        <ele>340</ele>
        <time>2018-10-17T11:58:25Z</time>
      </trkpt>
      <trkpt lat="47.68588" lon="6.20756">
        <ele>341</ele>
        <time>2018-10-17T11:58:28Z</time>
      </trkpt>
      <trkpt lat="47.68591" lon="6.2076">
        <ele>341</ele>
        <time>2018-10-17T11:58:30Z</time>
      </trkpt>
      <trkpt lat="47.68595" lon="6.20767">
        <ele>341</ele>
        <time>2018-10-17T11:58:32Z</time>
      </trkpt>
      <trkpt lat="47.686" lon="6.20772">
        <ele>342</ele>
        <time>2018-10-17T11:58:34Z</time>
      </trkpt>
      <trkpt lat="47.68603" lon="6.20777">
        <ele>342</ele>
        <time>2018-10-17T11:58:36Z</time>
      </trkpt>
      <trkpt lat="47.68607" lon="6.20783">
        <ele>342</ele>
        <time>2018-10-17T11:58:38Z</time>
      </trkpt>
      <trkpt lat="47.68611" lon="6.2079">
        <ele>342</ele>
        <time>2018-10-17T11:58:40Z</time>
      </trkpt>
      <trkpt lat="47.68615" lon="6.20796">
        <ele>342</ele>
        <time>2018-10-17T11:58:42Z</time>
      </trkpt>
      <trkpt lat="47.68619" lon="6.20802">
        <ele>342</ele>
        <time>2018-10-17T11:58:44Z</time>
      </trkpt>
      <trkpt lat="47.68622" lon="6.20807">
        <ele>342</ele>
        <time>2018-10-17T11:58:46Z</time>
      </trkpt>
      <trkpt lat="47.68626" lon="6.20815">
        <ele>342</ele>
        <time>2018-10-17T11:58:49Z</time>
      </trkpt>
      <trkpt lat="47.68629" lon="6.20822">
        <ele>343</ele>
        <time>2018-10-17T11:58:52Z</time>
      </trkpt>
      <trkpt lat="47.68633" lon="6.20828">
        <ele>343</ele>
        <time>2018-10-17T11:58:55Z</time>
      </trkpt>
      <trkpt lat="47.68637" lon="6.20835">
        <ele>340</ele>
        <time>2018-10-17T11:58:58Z</time>
      </trkpt>
      <trkpt lat="47.6864" lon="6.20842">
        <ele>340</ele>
        <time>2018-10-17T11:59:01Z</time>
      </trkpt>
      <trkpt lat="47.68644" lon="6.20849">
        <ele>340</ele>
        <time>2018-10-17T11:59:04Z</time>
      </trkpt>
      <trkpt lat="47.68647" lon="6.20855">
        <ele>340</ele>
        <time>2018-10-17T11:59:07Z</time>
      </trkpt>
      <trkpt lat="47.68651" lon="6.20862">
        <ele>339</ele>
        <time>2018-10-17T11:59:10Z</time>
      </trkpt>
      <trkpt lat="47.68656" lon="6.20868">
        <ele>339</ele>
        <time>2018-10-17T11:59:13Z</time>
      </trkpt>
      <trkpt lat="47.68659" lon="6.20872">
        <ele>339</ele>
        <time>2018-10-17T11:59:15Z</time>
      </trkpt>
      <trkpt lat="47.68664" lon="6.20878">
        <ele>339</ele>
        <time>2018-10-17T11:59:18Z</time>
      </trkpt>
      <trkpt lat="47.6867" lon="6.20882">
        <ele>342</ele>
        <time>2018-10-17T11:59:21Z</time>
      </trkpt>
      <trkpt lat="47.68676" lon="6.20887">
        <ele>342</ele>
        <time>2018-10-17T11:59:24Z</time>
      </trkpt>
      <trkpt lat="47.6868" lon="6.2089">
        <ele>342</ele>
        <time>2018-10-17T11:59:26Z</time>
      </trkpt>
      <trkpt lat="47.68686" lon="6.20893">
        <ele>342</ele>
        <time>2018-10-17T11:59:28Z</time>
      </trkpt>
      <trkpt lat="47.68691" lon="6.20895">
        <ele>342</ele>
        <time>2018-10-17T11:59:30Z</time>
      </trkpt>
      <trkpt lat="47.68697" lon="6.20897">
        <ele>342</ele>
        <time>2018-10-17T11:59:32Z</time>
      </trkpt>
      <trkpt lat="47.68703" lon="6.20898">
        <ele>342</ele>
        <time>2018-10-17T11:59:34Z</time>
      </trkpt>
      <trkpt lat="47.68709" lon="6.20899">
        <ele>342</ele>
        <time>2018-10-17T11:59:36Z</time>
      </trkpt>
      <trkpt lat="47.68714" lon="6.209">
        <ele>342</ele>
        <time>2018-10-17T11:59:38Z</time>
      </trkpt>
      <trkpt lat="47.6872" lon="6.20902">
        <ele>342</ele>
        <time>2018-10-17T11:59:40Z</time>
      </trkpt>
      <trkpt lat="47.68725" lon="6.20904">
        <ele>342</ele>
        <time>2018-10-17T11:59:42Z</time>
      </trkpt>
      <trkpt lat="47.68731" lon="6.20904">
        <ele>341</ele>
        <time>2018-10-17T11:59:44Z</time>
      </trkpt>
      <trkpt lat="47.68737" lon="6.20907">
        <ele>341</ele>
        <time>2018-10-17T11:59:46Z</time>
      </trkpt>
      <trkpt lat="47.68742" lon="6.2091">
        <ele>340</ele>
        <time>2018-10-17T11:59:47Z</time>
      </trkpt>
      <trkpt lat="47.68748" lon="6.20914">
        <ele>339</ele>
        <time>2018-10-17T11:59:48Z</time>
      </trkpt>
      <trkpt lat="47.68754" lon="6.20917">
        <ele>337</ele>
        <time>2018-10-17T11:59:49Z</time>
      </trkpt>
      <trkpt lat="47.6876" lon="6.20921">
        <ele>335</ele>
        <time>2018-10-17T11:59:50Z</time>
      </trkpt>
      <trkpt lat="47.68766" lon="6.20923">
        <ele>334</ele>
        <time>2018-10-17T11:59:51Z</time>
      </trkpt>
      <trkpt lat="47.6877" lon="6.20926">
        <ele>334</ele>
        <time>2018-10-17T11:59:52Z</time>
      </trkpt>
      <trkpt lat="47.68778" lon="6.20928">
        <ele>333</ele>
        <time>2018-10-17T11:59:53Z</time>
      </trkpt>
      <trkpt lat="47.68785" lon="6.20929">
        <ele>333</ele>
        <time>2018-10-17T11:59:54Z</time>
      </trkpt>
      <trkpt lat="47.68794" lon="6.2093">
        <ele>332</ele>
        <time>2018-10-17T11:59:55Z</time>
      </trkpt>
      <trkpt lat="47.68801" lon="6.20933">
        <ele>332</ele>
        <time>2018-10-17T11:59:57Z</time>
      </trkpt>
      <trkpt lat="47.68808" lon="6.20936">
        <ele>332</ele>
        <time>2018-10-17T11:59:59Z</time>
      </trkpt>
      <trkpt lat="47.68813" lon="6.2094">
        <ele>331</ele>
        <time>2018-10-17T12:00:01Z</time>
      </trkpt>
      <trkpt lat="47.68817" lon="6.20944">
        <ele>331</ele>
        <time>2018-10-17T12:00:03Z</time>
      </trkpt>
      <trkpt lat="47.68822" lon="6.20947">
        <ele>331</ele>
        <time>2018-10-17T12:00:05Z</time>
      </trkpt>
      <trkpt lat="47.68825" lon="6.20951">
        <ele>331</ele>
        <time>2018-10-17T12:00:07Z</time>
      </trkpt>
      <trkpt lat="47.68829" lon="6.20956">
        <ele>331</ele>
        <time>2018-10-17T12:00:10Z</time>
      </trkpt>
      <trkpt lat="47.68833" lon="6.20962">
        <ele>331</ele>
        <time>2018-10-17T12:00:13Z</time>
      </trkpt>
      <trkpt lat="47.68836" lon="6.20971">
        <ele>327</ele>
        <time>2018-10-17T12:00:16Z</time>
      </trkpt>
      <trkpt lat="47.68838" lon="6.20981">
        <ele>327</ele>
        <time>2018-10-17T12:00:19Z</time>
      </trkpt>
      <trkpt lat="47.6884" lon="6.20989">
        <ele>327</ele>
        <time>2018-10-17T12:00:22Z</time>
      </trkpt>
      <trkpt lat="47.68841" lon="6.20998">
        <ele>328</ele>
        <time>2018-10-17T12:00:25Z</time>
      </trkpt>
      <trkpt lat="47.68842" lon="6.21006">
        <ele>328</ele>
        <time>2018-10-17T12:00:28Z</time>
      </trkpt>
      <trkpt lat="47.68843" lon="6.21014">
        <ele>328</ele>
        <time>2018-10-17T12:00:30Z</time>
      </trkpt>
      <trkpt lat="47.68843" lon="6.21021">
        <ele>328</ele>
        <time>2018-10-17T12:00:32Z</time>
      </trkpt>
      <trkpt lat="47.68844" lon="6.21028">
        <ele>328</ele>
        <time>2018-10-17T12:00:34Z</time>
      </trkpt>
      <trkpt lat="47.68846" lon="6.21035">
        <ele>328</ele>
        <time>2018-10-17T12:00:36Z</time>
      </trkpt>
      <trkpt lat="47.68846" lon="6.21044">
        <ele>328</ele>
        <time>2018-10-17T12:00:39Z</time>
      </trkpt>
      <trkpt lat="47.68847" lon="6.21051">
        <ele>328</ele>
        <time>2018-10-17T12:00:42Z</time>
      </trkpt>
      <trkpt lat="47.68845" lon="6.21059">
        <ele>328</ele>
        <time>2018-10-17T12:00:45Z</time>
      </trkpt>
      <trkpt lat="47.68846" lon="6.21065">
        <ele>329</ele>
        <time>2018-10-17T12:00:54Z</time>
      </trkpt>
      <trkpt lat="47.68844" lon="6.21074">
        <ele>329</ele>
        <time>2018-10-17T12:01:10Z</time>
      </trkpt>
      <trkpt lat="47.68843" lon="6.21083">
        <ele>330</ele>
        <time>2018-10-17T12:01:13Z</time>
      </trkpt>
      <trkpt lat="47.68842" lon="6.21092">
        <ele>330</ele>
        <time>2018-10-17T12:01:16Z</time>
      </trkpt>
      <trkpt lat="47.68841" lon="6.21099">
        <ele>330</ele>
        <time>2018-10-17T12:01:18Z</time>
      </trkpt>
      <trkpt lat="47.6884" lon="6.21106">
        <ele>330</ele>
        <time>2018-10-17T12:01:20Z</time>
      </trkpt>
      <trkpt lat="47.68838" lon="6.21112">
        <ele>330</ele>
        <time>2018-10-17T12:01:22Z</time>
      </trkpt>
      <trkpt lat="47.68836" lon="6.21121">
        <ele>330</ele>
        <time>2018-10-17T12:01:25Z</time>
      </trkpt>
      <trkpt lat="47.68833" lon="6.21129">
        <ele>329</ele>
        <time>2018-10-17T12:01:28Z</time>
      </trkpt>
      <trkpt lat="47.68831" lon="6.21137">
        <ele>329</ele>
        <time>2018-10-17T12:01:31Z</time>
      </trkpt>
      <trkpt lat="47.6883" lon="6.21146">
        <ele>329</ele>
        <time>2018-10-17T12:01:34Z</time>
      </trkpt>
      <trkpt lat="47.6883" lon="6.21155">
        <ele>330</ele>
        <time>2018-10-17T12:01:37Z</time>
      </trkpt>
      <trkpt lat="47.68831" lon="6.21163">
        <ele>331</ele>
        <time>2018-10-17T12:01:40Z</time>
      </trkpt>
      <trkpt lat="47.68832" lon="6.21172">
        <ele>331</ele>
        <time>2018-10-17T12:01:43Z</time>
      </trkpt>
      <trkpt lat="47.68831" lon="6.2118">
        <ele>330</ele>
        <time>2018-10-17T12:01:46Z</time>
      </trkpt>
      <trkpt lat="47.68829" lon="6.21187">
        <ele>330</ele>
        <time>2018-10-17T12:01:49Z</time>
      </trkpt>
      <trkpt lat="47.68828" lon="6.21194">
        <ele>329</ele>
        <time>2018-10-17T12:01:52Z</time>
      </trkpt>
      <trkpt lat="47.68826" lon="6.21202">
        <ele>329</ele>
        <time>2018-10-17T12:01:55Z</time>
      </trkpt>
      <trkpt lat="47.68824" lon="6.21211">
        <ele>329</ele>
        <time>2018-10-17T12:01:58Z</time>
      </trkpt>
      <trkpt lat="47.68821" lon="6.21219">
        <ele>329</ele>
        <time>2018-10-17T12:02:01Z</time>
      </trkpt>
      <trkpt lat="47.68818" lon="6.21226">
        <ele>329</ele>
        <time>2018-10-17T12:02:04Z</time>
      </trkpt>
      <trkpt lat="47.68815" lon="6.21233">
        <ele>329</ele>
        <time>2018-10-17T12:02:07Z</time>
      </trkpt>
      <trkpt lat="47.68812" lon="6.2124">
        <ele>329</ele>
        <time>2018-10-17T12:02:10Z</time>
      </trkpt>
      <trkpt lat="47.6881" lon="6.21247">
        <ele>329</ele>
        <time>2018-10-17T12:02:13Z</time>
      </trkpt>
      <trkpt lat="47.68807" lon="6.21255">
        <ele>328</ele>
        <time>2018-10-17T12:02:16Z</time>
      </trkpt>
      <trkpt lat="47.68805" lon="6.21261">
        <ele>328</ele>
        <time>2018-10-17T12:02:18Z</time>
      </trkpt>
      <trkpt lat="47.68803" lon="6.21269">
        <ele>328</ele>
        <time>2018-10-17T12:02:20Z</time>
      </trkpt>
      <trkpt lat="47.68801" lon="6.21279">
        <ele>327</ele>
        <time>2018-10-17T12:02:22Z</time>
      </trkpt>
      <trkpt lat="47.68799" lon="6.21289">
        <ele>327</ele>
        <time>2018-10-17T12:02:24Z</time>
      </trkpt>
      <trkpt lat="47.68798" lon="6.21298">
        <ele>327</ele>
        <time>2018-10-17T12:02:26Z</time>
      </trkpt>
      <trkpt lat="47.68797" lon="6.21306">
        <ele>327</ele>
        <time>2018-10-17T12:02:28Z</time>
      </trkpt>
      <trkpt lat="47.68796" lon="6.21314">
        <ele>327</ele>
        <time>2018-10-17T12:02:30Z</time>
      </trkpt>
      <trkpt lat="47.68795" lon="6.21322">
        <ele>326</ele>
        <time>2018-10-17T12:02:32Z</time>
      </trkpt>
      <trkpt lat="47.68794" lon="6.2133">
        <ele>326</ele>
        <time>2018-10-17T12:02:34Z</time>
      </trkpt>
      <trkpt lat="47.68794" lon="6.21338">
        <ele>325</ele>
        <time>2018-10-17T12:02:36Z</time>
      </trkpt>
      <trkpt lat="47.68793" lon="6.21347">
        <ele>325</ele>
        <time>2018-10-17T12:02:38Z</time>
      </trkpt>
      <trkpt lat="47.68793" lon="6.21356">
        <ele>325</ele>
        <time>2018-10-17T12:02:40Z</time>
      </trkpt>
      <trkpt lat="47.68794" lon="6.21363">
        <ele>325</ele>
        <time>2018-10-17T12:02:42Z</time>
      </trkpt>
      <trkpt lat="47.68794" lon="6.21372">
        <ele>325</ele>
        <time>2018-10-17T12:02:44Z</time>
      </trkpt>
      <trkpt lat="47.68794" lon="6.21381">
        <ele>325</ele>
        <time>2018-10-17T12:02:46Z</time>
      </trkpt>
      <trkpt lat="47.68795" lon="6.21391">
        <ele>325</ele>
        <time>2018-10-17T12:02:48Z</time>
      </trkpt>
      <trkpt lat="47.68794" lon="6.21401">
        <ele>325</ele>
        <time>2018-10-17T12:02:50Z</time>
      </trkpt>
      <trkpt lat="47.68795" lon="6.21411">
        <ele>325</ele>
        <time>2018-10-17T12:02:52Z</time>
      </trkpt>
      <trkpt lat="47.68795" lon="6.21421">
        <ele>323</ele>
        <time>2018-10-17T12:02:54Z</time>
      </trkpt>
      <trkpt lat="47.68796" lon="6.21432">
        <ele>322</ele>
        <time>2018-10-17T12:02:56Z</time>
      </trkpt>
      <trkpt lat="47.68796" lon="6.2144">
        <ele>322</ele>
        <time>2018-10-17T12:02:58Z</time>
      </trkpt>
      <trkpt lat="47.68795" lon="6.21448">
        <ele>322</ele>
        <time>2018-10-17T12:03:00Z</time>
      </trkpt>
      <trkpt lat="47.68795" lon="6.21455">
        <ele>322</ele>
        <time>2018-10-17T12:03:02Z</time>
      </trkpt>
      <trkpt lat="47.68795" lon="6.21465">
        <ele>321</ele>
        <time>2018-10-17T12:03:05Z</time>
      </trkpt>
      <trkpt lat="47.68796" lon="6.21472">
        <ele>321</ele>
        <time>2018-10-17T12:03:07Z</time>
      </trkpt>
      <trkpt lat="47.68796" lon="6.21479">
        <ele>321</ele>
        <time>2018-10-17T12:03:09Z</time>
      </trkpt>
      <trkpt lat="47.68797" lon="6.21486">
        <ele>321</ele>
        <time>2018-10-17T12:03:11Z</time>
      </trkpt>
      <trkpt lat="47.68797" lon="6.21493">
        <ele>321</ele>
        <time>2018-10-17T12:03:13Z</time>
      </trkpt>
      <trkpt lat="47.68797" lon="6.21501">
        <ele>317</ele>
        <time>2018-10-17T12:03:15Z</time>
      </trkpt>
      <trkpt lat="47.68797" lon="6.21508">
        <ele>317</ele>
        <time>2018-10-17T12:03:17Z</time>
      </trkpt>
      <trkpt lat="47.68797" lon="6.21516">
        <ele>317</ele>
        <time>2018-10-17T12:03:19Z</time>
      </trkpt>
      <trkpt lat="47.68797" lon="6.21524">
        <ele>317</ele>
        <time>2018-10-17T12:03:21Z</time>
      </trkpt>
      <trkpt lat="47.68797" lon="6.21533">
        <ele>316</ele>
        <time>2018-10-17T12:03:23Z</time>
      </trkpt>
      <trkpt lat="47.68797" lon="6.21541">
        <ele>316</ele>
        <time>2018-10-17T12:03:25Z</time>
      </trkpt>
      <trkpt lat="47.68796" lon="6.21552">
        <ele>316</ele>
        <time>2018-10-17T12:03:28Z</time>
      </trkpt>
      <trkpt lat="47.68797" lon="6.21559">
        <ele>316</ele>
        <time>2018-10-17T12:03:30Z</time>
      </trkpt>
      <trkpt lat="47.68797" lon="6.21567">
        <ele>315</ele>
        <time>2018-10-17T12:03:36Z</time>
      </trkpt>
      <trkpt lat="47.68799" lon="6.21573">
        <ele>315</ele>
        <time>2018-10-17T12:03:39Z</time>
      </trkpt>
      <trkpt lat="47.68802" lon="6.2158">
        <ele>315</ele>
        <time>2018-10-17T12:03:42Z</time>
      </trkpt>
      <trkpt lat="47.68806" lon="6.21585">
        <ele>310</ele>
        <time>2018-10-17T12:03:44Z</time>
      </trkpt>
      <trkpt lat="47.68811" lon="6.21589">
        <ele>310</ele>
        <time>2018-10-17T12:03:47Z</time>
      </trkpt>
      <trkpt lat="47.68815" lon="6.21593">
        <ele>311</ele>
        <time>2018-10-17T12:03:50Z</time>
      </trkpt>
      <trkpt lat="47.68819" lon="6.21596">
        <ele>311</ele>
        <time>2018-10-17T12:03:57Z</time>
      </trkpt>
      <trkpt lat="47.68823" lon="6.216">
        <ele>310</ele>
        <time>2018-10-17T12:04:46Z</time>
      </trkpt>
      <trkpt lat="47.68819" lon="6.21595">
        <ele>311</ele>
        <time>2018-10-17T12:05:45Z</time>
      </trkpt>
      <trkpt lat="47.68814" lon="6.21591">
        <ele>311</ele>
        <time>2018-10-17T12:05:48Z</time>
      </trkpt>
      <trkpt lat="47.68809" lon="6.21587">
        <ele>310</ele>
        <time>2018-10-17T12:05:51Z</time>
      </trkpt>
      <trkpt lat="47.68805" lon="6.21583">
        <ele>310</ele>
        <time>2018-10-17T12:05:54Z</time>
      </trkpt>
      <trkpt lat="47.68801" lon="6.21579">
        <ele>315</ele>
        <time>2018-10-17T12:05:59Z</time>
      </trkpt>
      <trkpt lat="47.68798" lon="6.21574">
        <ele>315</ele>
        <time>2018-10-17T12:06:03Z</time>
      </trkpt>
      <trkpt lat="47.68795" lon="6.21567">
        <ele>315</ele>
        <time>2018-10-17T12:06:07Z</time>
      </trkpt>
      <trkpt lat="47.68792" lon="6.21561">
        <ele>315</ele>
        <time>2018-10-17T12:06:12Z</time>
      </trkpt>
      <trkpt lat="47.68787" lon="6.2156">
        <ele>315</ele>
        <time>2018-10-17T12:06:36Z</time>
      </trkpt>
      <trkpt lat="47.68783" lon="6.21555">
        <ele>315</ele>
        <time>2018-10-17T12:06:45Z</time>
      </trkpt>
      <trkpt lat="47.68779" lon="6.21551">
        <ele>315</ele>
        <time>2018-10-17T12:06:51Z</time>
      </trkpt>
      <trkpt lat="47.6878" lon="6.21544">
        <ele>316</ele>
        <time>2018-10-17T12:07:29Z</time>
      </trkpt>
      <trkpt lat="47.68784" lon="6.21543">
        <ele>316</ele>
        <time>2018-10-17T12:07:43Z</time>
      </trkpt>
      <trkpt lat="47.68786" lon="6.21536">
        <ele>316</ele>
        <time>2018-10-17T12:07:57Z</time>
      </trkpt>
      <trkpt lat="47.68788" lon="6.21529">
        <ele>316</ele>
        <time>2018-10-17T12:08:10Z</time>
      </trkpt>
      <trkpt lat="47.68789" lon="6.21522">
        <ele>317</ele>
        <time>2018-10-17T12:08:31Z</time>
      </trkpt>
      <trkpt lat="47.6879" lon="6.21514">
        <ele>317</ele>
        <time>2018-10-17T12:08:37Z</time>
      </trkpt>
      <trkpt lat="47.68789" lon="6.21507">
        <ele>317</ele>
        <time>2018-10-17T12:08:43Z</time>
      </trkpt>
      <trkpt lat="47.68787" lon="6.21501">
        <ele>317</ele>
        <time>2018-10-17T12:08:47Z</time>
      </trkpt>
      <trkpt lat="47.68784" lon="6.21495">
        <ele>320</ele>
        <time>2018-10-17T12:08:52Z</time>
      </trkpt>
      <trkpt lat="47.68781" lon="6.2149">
        <ele>320</ele>
        <time>2018-10-17T12:08:59Z</time>
      </trkpt>
      <trkpt lat="47.68776" lon="6.21486">
        <ele>320</ele>
        <time>2018-10-17T12:09:16Z</time>
      </trkpt>
      <trkpt lat="47.68772" lon="6.21486">
        <ele>320</ele>
        <time>2018-10-17T12:09:40Z</time>
      </trkpt>
      <trkpt lat="47.68768" lon="6.21483">
        <ele>319</ele>
        <time>2018-10-17T12:10:03Z</time>
      </trkpt>
      <trkpt lat="47.68763" lon="6.21479">
        <ele>319</ele>
        <time>2018-10-17T12:10:08Z</time>
      </trkpt>
      <trkpt lat="47.68757" lon="6.21479">
        <ele>319</ele>
        <time>2018-10-17T12:10:11Z</time>
      </trkpt>
      <trkpt lat="47.68752" lon="6.21483">
        <ele>319</ele>
        <time>2018-10-17T12:10:14Z</time>
      </trkpt>
      <trkpt lat="47.68747" lon="6.21487">
        <ele>316</ele>
        <time>2018-10-17T12:10:17Z</time>
      </trkpt>
      <trkpt lat="47.68741" lon="6.2149">
        <ele>315</ele>
        <time>2018-10-17T12:10:20Z</time>
      </trkpt>
      <trkpt lat="47.68735" lon="6.21492">
        <ele>315</ele>
        <time>2018-10-17T12:10:23Z</time>
      </trkpt>
      <trkpt lat="47.68729" lon="6.21491">
        <ele>315</ele>
        <time>2018-10-17T12:10:26Z</time>
      </trkpt>
      <trkpt lat="47.68723" lon="6.21488">
        <ele>315</ele>
        <time>2018-10-17T12:10:30Z</time>
      </trkpt>
      <trkpt lat="47.68718" lon="6.21488">
        <ele>315</ele>
        <time>2018-10-17T12:10:40Z</time>
      </trkpt>
      <trkpt lat="47.68713" lon="6.21485">
        <ele>314</ele>
        <time>2018-10-17T12:10:44Z</time>
      </trkpt>
      <trkpt lat="47.68706" lon="6.21482">
        <ele>314</ele>
        <time>2018-10-17T12:10:48Z</time>
      </trkpt>
      <trkpt lat="47.68702" lon="6.2148">
        <ele>314</ele>
        <time>2018-10-17T12:10:52Z</time>
      </trkpt>
      <trkpt lat="47.68696" lon="6.21477">
        <ele>314</ele>
        <time>2018-10-17T12:10:56Z</time>
      </trkpt>
      <trkpt lat="47.68692" lon="6.21476">
        <ele>314</ele>
        <time>2018-10-17T12:10:59Z</time>
      </trkpt>
      <trkpt lat="47.68687" lon="6.21474">
        <ele>313</ele>
        <time>2018-10-17T12:11:02Z</time>
      </trkpt>
      <trkpt lat="47.68681" lon="6.21474">
        <ele>313</ele>
        <time>2018-10-17T12:11:05Z</time>
      </trkpt>
      <trkpt lat="47.68676" lon="6.21473">
        <ele>313</ele>
        <time>2018-10-17T12:11:08Z</time>
      </trkpt>
      <trkpt lat="47.68671" lon="6.21472">
        <ele>313</ele>
        <time>2018-10-17T12:11:11Z</time>
      </trkpt>
      <trkpt lat="47.68665" lon="6.21471">
        <ele>308</ele>
        <time>2018-10-17T12:11:17Z</time>
      </trkpt>
      <trkpt lat="47.68659" lon="6.21469">
        <ele>308</ele>
        <time>2018-10-17T12:11:20Z</time>
      </trkpt>
      <trkpt lat="47.68654" lon="6.21468">
        <ele>308</ele>
        <time>2018-10-17T12:11:22Z</time>
      </trkpt>
      <trkpt lat="47.68649" lon="6.21466">
        <ele>308</ele>
        <time>2018-10-17T12:11:24Z</time>
      </trkpt>
      <trkpt lat="47.68644" lon="6.21466">
        <ele>308</ele>
        <time>2018-10-17T12:11:26Z</time>
      </trkpt>
      <trkpt lat="47.68639" lon="6.21465">
        <ele>307</ele>
        <time>2018-10-17T12:11:28Z</time>
      </trkpt>
      <trkpt lat="47.68635" lon="6.21464">
        <ele>307</ele>
        <time>2018-10-17T12:11:30Z</time>
      </trkpt>
      <trkpt lat="47.6863" lon="6.21465">
        <ele>307</ele>
        <time>2018-10-17T12:11:32Z</time>
      </trkpt>
      <trkpt lat="47.68624" lon="6.21464">
        <ele>306</ele>
        <time>2018-10-17T12:11:34Z</time>
      </trkpt>
      <trkpt lat="47.68618" lon="6.21463">
        <ele>306</ele>
        <time>2018-10-17T12:11:37Z</time>
      </trkpt>
      <trkpt lat="47.68613" lon="6.21461">
        <ele>306</ele>
        <time>2018-10-17T12:11:40Z</time>
      </trkpt>
      <trkpt lat="47.68607" lon="6.2146">
        <ele>306</ele>
        <time>2018-10-17T12:11:43Z</time>
      </trkpt>
      <trkpt lat="47.68603" lon="6.21459">
        <ele>305</ele>
        <time>2018-10-17T12:11:45Z</time>
      </trkpt>
      <trkpt lat="47.68598" lon="6.21459">
        <ele>305</ele>
        <time>2018-10-17T12:11:47Z</time>
      </trkpt>
      <trkpt lat="47.68593" lon="6.21457">
        <ele>305</ele>
        <time>2018-10-17T12:11:49Z</time>
      </trkpt>
      <trkpt lat="47.68587" lon="6.21457">
        <ele>305</ele>
        <time>2018-10-17T12:11:52Z</time>
      </trkpt>
      <trkpt lat="47.68582" lon="6.21454">
        <ele>302</ele>
        <time>2018-10-17T12:11:55Z</time>
      </trkpt>
      <trkpt lat="47.68577" lon="6.21451">
        <ele>302</ele>
        <time>2018-10-17T12:11:58Z</time>
      </trkpt>
      <trkpt lat="47.68572" lon="6.2145">
        <ele>302</ele>
        <time>2018-10-17T12:12:01Z</time>
      </trkpt>
      <trkpt lat="47.68567" lon="6.2145">
        <ele>302</ele>
        <time>2018-10-17T12:12:31Z</time>
      </trkpt>
      <trkpt lat="47.68561" lon="6.21451">
        <ele>302</ele>
        <time>2018-10-17T12:12:34Z</time>
      </trkpt>
      <trkpt lat="47.68555" lon="6.21455">
        <ele>302</ele>
        <time>2018-10-17T12:12:37Z</time>
      </trkpt>
      <trkpt lat="47.6855" lon="6.21456">
        <ele>302</ele>
        <time>2018-10-17T12:12:40Z</time>
      </trkpt>
      <trkpt lat="47.68545" lon="6.21457">
        <ele>302</ele>
        <time>2018-10-17T12:12:47Z</time>
      </trkpt>
      <trkpt lat="47.68541" lon="6.21459">
        <ele>303</ele>
        <time>2018-10-17T12:13:02Z</time>
      </trkpt>
      <trkpt lat="47.68538" lon="6.21453">
        <ele>302</ele>
        <time>2018-10-17T12:13:27Z</time>
      </trkpt>
      <trkpt lat="47.68537" lon="6.21446">
        <ele>302</ele>
        <time>2018-10-17T12:13:36Z</time>
      </trkpt>
      <trkpt lat="47.68541" lon="6.21451">
        <ele>302</ele>
        <time>2018-10-17T12:13:57Z</time>
      </trkpt>
      <trkpt lat="47.68537" lon="6.21457">
        <ele>303</ele>
        <time>2018-10-17T12:14:08Z</time>
      </trkpt>
      <trkpt lat="47.68539" lon="6.21463">
        <ele>303</ele>
        <time>2018-10-17T12:14:52Z</time>
      </trkpt>
      <trkpt lat="47.68543" lon="6.21465">
        <ele>303</ele>
        <time>2018-10-17T12:14:58Z</time>
      </trkpt>
      <trkpt lat="47.68545" lon="6.21459">
        <ele>302</ele>
        <time>2018-10-17T12:15:05Z</time>
      </trkpt>
      <trkpt lat="47.68549" lon="6.21454">
        <ele>302</ele>
        <time>2018-10-17T12:15:09Z</time>
      </trkpt>
      <trkpt lat="47.68553" lon="6.21448">
        <ele>302</ele>
        <time>2018-10-17T12:15:13Z</time>
      </trkpt>
      <trkpt lat="47.68557" lon="6.21445">
        <ele>302</ele>
        <time>2018-10-17T12:15:18Z</time>
      </trkpt>
      <trkpt lat="47.68563" lon="6.21444">
        <ele>302</ele>
        <time>2018-10-17T12:15:28Z</time>
      </trkpt>
      <trkpt lat="47.68567" lon="6.21444">
        <ele>302</ele>
        <time>2018-10-17T12:15:32Z</time>
      </trkpt>
      <trkpt lat="47.68572" lon="6.21446">
        <ele>302</ele>
        <time>2018-10-17T12:15:36Z</time>
      </trkpt>
      <trkpt lat="47.68576" lon="6.21448">
        <ele>302</ele>
        <time>2018-10-17T12:15:40Z</time>
      </trkpt>
      <trkpt lat="47.68582" lon="6.21449">
        <ele>302</ele>
        <time>2018-10-17T12:15:43Z</time>
      </trkpt>
      <trkpt lat="47.68587" lon="6.21451">
        <ele>305</ele>
        <time>2018-10-17T12:15:45Z</time>
      </trkpt>
      <trkpt lat="47.68592" lon="6.21454">
        <ele>305</ele>
        <time>2018-10-17T12:15:47Z</time>
      </trkpt>
      <trkpt lat="47.68598" lon="6.21455">
        <ele>305</ele>
        <time>2018-10-17T12:15:49Z</time>
      </trkpt>
      <trkpt lat="47.68603" lon="6.21456">
        <ele>305</ele>
        <time>2018-10-17T12:15:51Z</time>
      </trkpt>
      <trkpt lat="47.68608" lon="6.21457">
        <ele>306</ele>
        <time>2018-10-17T12:15:54Z</time>
      </trkpt>
      <trkpt lat="47.68612" lon="6.21459">
        <ele>306</ele>
        <time>2018-10-17T12:15:56Z</time>
      </trkpt>
      <trkpt lat="47.68617" lon="6.21459">
        <ele>306</ele>
        <time>2018-10-17T12:15:59Z</time>
      </trkpt>
      <trkpt lat="47.68624" lon="6.21459">
        <ele>306</ele>
        <time>2018-10-17T12:16:03Z</time>
      </trkpt>
      <trkpt lat="47.68629" lon="6.21459">
        <ele>307</ele>
        <time>2018-10-17T12:16:06Z</time>
      </trkpt>
      <trkpt lat="47.68633" lon="6.21459">
        <ele>307</ele>
        <time>2018-10-17T12:16:09Z</time>
      </trkpt>
      <trkpt lat="47.68638" lon="6.21459">
        <ele>307</ele>
        <time>2018-10-17T12:16:12Z</time>
      </trkpt>
      <trkpt lat="47.68644" lon="6.21459">
        <ele>307</ele>
        <time>2018-10-17T12:16:15Z</time>
      </trkpt>
      <trkpt lat="47.68649" lon="6.2146">
        <ele>308</ele>
        <time>2018-10-17T12:16:18Z</time>
      </trkpt>
      <trkpt lat="47.68654" lon="6.21462">
        <ele>308</ele>
        <time>2018-10-17T12:16:21Z</time>
      </trkpt>
      <trkpt lat="47.68659" lon="6.21462">
        <ele>308</ele>
        <time>2018-10-17T12:16:25Z</time>
      </trkpt>
      <trkpt lat="47.68664" lon="6.21463">
        <ele>308</ele>
        <time>2018-10-17T12:16:29Z</time>
      </trkpt>
      <trkpt lat="47.68669" lon="6.21464">
        <ele>313</ele>
        <time>2018-10-17T12:16:33Z</time>
      </trkpt>
      <trkpt lat="47.68674" lon="6.21465">
        <ele>313</ele>
        <time>2018-10-17T12:16:38Z</time>
      </trkpt>
      <trkpt lat="47.6868" lon="6.21466">
        <ele>313</ele>
        <time>2018-10-17T12:16:43Z</time>
      </trkpt>
      <trkpt lat="47.68685" lon="6.21466">
        <ele>314</ele>
        <time>2018-10-17T12:16:49Z</time>
      </trkpt>
      <trkpt lat="47.6869" lon="6.21466">
        <ele>314</ele>
        <time>2018-10-17T12:16:54Z</time>
      </trkpt>
      <trkpt lat="47.68695" lon="6.21468">
        <ele>314</ele>
        <time>2018-10-17T12:16:58Z</time>
      </trkpt>
      <trkpt lat="47.68699" lon="6.21471">
        <ele>314</ele>
        <time>2018-10-17T12:17:01Z</time>
      </trkpt>
      <trkpt lat="47.68704" lon="6.21474">
        <ele>314</ele>
        <time>2018-10-17T12:17:05Z</time>
      </trkpt>
      <trkpt lat="47.68709" lon="6.21476">
        <ele>314</ele>
        <time>2018-10-17T12:17:09Z</time>
      </trkpt>
      <trkpt lat="47.68715" lon="6.21477">
        <ele>315</ele>
        <time>2018-10-17T12:17:14Z</time>
      </trkpt>
      <trkpt lat="47.68719" lon="6.21479">
        <ele>315</ele>
        <time>2018-10-17T12:17:23Z</time>
      </trkpt>
      <trkpt lat="47.68723" lon="6.21483">
        <ele>315</ele>
        <time>2018-10-17T12:17:29Z</time>
      </trkpt>
      <trkpt lat="47.68731" lon="6.21484">
        <ele>315</ele>
        <time>2018-10-17T12:17:34Z</time>
      </trkpt>
      <trkpt lat="47.68736" lon="6.21485">
        <ele>315</ele>
        <time>2018-10-17T12:17:37Z</time>
      </trkpt>
      <trkpt lat="47.68741" lon="6.21485">
        <ele>315</ele>
        <time>2018-10-17T12:17:43Z</time>
      </trkpt>
      <trkpt lat="47.68745" lon="6.21484">
        <ele>315</ele>
        <time>2018-10-17T12:17:50Z</time>
      </trkpt>
      <trkpt lat="47.6875" lon="6.2148">
        <ele>316</ele>
        <time>2018-10-17T12:17:56Z</time>
      </trkpt>
      <trkpt lat="47.68754" lon="6.21476">
        <ele>319</ele>
        <time>2018-10-17T12:18:03Z</time>
      </trkpt>
      <trkpt lat="47.68758" lon="6.21472">
        <ele>320</ele>
        <time>2018-10-17T12:18:08Z</time>
      </trkpt>
      <trkpt lat="47.68762" lon="6.2147">
        <ele>320</ele>
        <time>2018-10-17T12:18:16Z</time>
      </trkpt>
      <trkpt lat="47.68767" lon="6.21472">
        <ele>320</ele>
        <time>2018-10-17T12:18:23Z</time>
      </trkpt>
      <trkpt lat="47.68772" lon="6.21474">
        <ele>320</ele>
        <time>2018-10-17T12:18:27Z</time>
      </trkpt>
      <trkpt lat="47.68776" lon="6.21476">
        <ele>320</ele>
        <time>2018-10-17T12:18:32Z</time>
      </trkpt>
      <trkpt lat="47.68782" lon="6.21476">
        <ele>321</ele>
        <time>2018-10-17T12:18:37Z</time>
      </trkpt>
      <trkpt lat="47.68788" lon="6.21473">
        <ele>321</ele>
        <time>2018-10-17T12:18:42Z</time>
      </trkpt>
      <trkpt lat="47.68792" lon="6.21471">
        <ele>321</ele>
        <time>2018-10-17T12:18:57Z</time>
      </trkpt>
      <trkpt lat="47.68797" lon="6.21471">
        <ele>321</ele>
        <time>2018-10-17T12:19:03Z</time>
      </trkpt>
      <trkpt lat="47.68801" lon="6.21467">
        <ele>322</ele>
        <time>2018-10-17T12:19:07Z</time>
      </trkpt>
      <trkpt lat="47.68799" lon="6.2146">
        <ele>322</ele>
        <time>2018-10-17T12:19:44Z</time>
      </trkpt>
      <trkpt lat="47.68797" lon="6.21453">
        <ele>322</ele>
        <time>2018-10-17T12:19:48Z</time>
      </trkpt>
      <trkpt lat="47.68795" lon="6.21446">
        <ele>322</ele>
        <time>2018-10-17T12:19:54Z</time>
      </trkpt>
      <trkpt lat="47.68794" lon="6.21438">
        <ele>322</ele>
        <time>2018-10-17T12:20:06Z</time>
      </trkpt>
      <trkpt lat="47.68794" lon="6.21431">
        <ele>322</ele>
        <time>2018-10-17T12:20:14Z</time>
      </trkpt>
      <trkpt lat="47.68795" lon="6.21425">
        <ele>323</ele>
        <time>2018-10-17T12:20:26Z</time>
      </trkpt>
      <trkpt lat="47.68798" lon="6.21432">
        <ele>323</ele>
        <time>2018-10-17T12:20:54Z</time>
      </trkpt>
      <trkpt lat="47.68798" lon="6.21443">
        <ele>322</ele>
        <time>2018-10-17T12:20:57Z</time>
      </trkpt>
      <trkpt lat="47.68799" lon="6.21452">
        <ele>322</ele>
        <time>2018-10-17T12:20:59Z</time>
      </trkpt>
      <trkpt lat="47.688" lon="6.21459">
        <ele>322</ele>
        <time>2018-10-17T12:21:01Z</time>
      </trkpt>
      <trkpt lat="47.68801" lon="6.21468">
        <ele>322</ele>
        <time>2018-10-17T12:21:04Z</time>
      </trkpt>
      <trkpt lat="47.68802" lon="6.21478">
        <ele>321</ele>
        <time>2018-10-17T12:21:07Z</time>
      </trkpt>
      <trkpt lat="47.68801" lon="6.21486">
        <ele>321</ele>
        <time>2018-10-17T12:21:10Z</time>
      </trkpt>
      <trkpt lat="47.688" lon="6.21495">
        <ele>321</ele>
        <time>2018-10-17T12:21:13Z</time>
      </trkpt>
      <trkpt lat="47.68799" lon="6.21504">
        <ele>317</ele>
        <time>2018-10-17T12:21:16Z</time>
      </trkpt>
      <trkpt lat="47.68797" lon="6.21512">
        <ele>317</ele>
        <time>2018-10-17T12:21:20Z</time>
      </trkpt>
      <trkpt lat="47.68798" lon="6.21519">
        <ele>317</ele>
        <time>2018-10-17T12:21:24Z</time>
      </trkpt>
      <trkpt lat="47.68798" lon="6.21528">
        <ele>317</ele>
        <time>2018-10-17T12:21:28Z</time>
      </trkpt>
      <trkpt lat="47.68798" lon="6.21537">
        <ele>316</ele>
        <time>2018-10-17T12:21:31Z</time>
      </trkpt>
      <trkpt lat="47.68799" lon="6.21548">
        <ele>316</ele>
        <time>2018-10-17T12:21:33Z</time>
      </trkpt>
      <trkpt lat="47.68799" lon="6.21556">
        <ele>316</ele>
        <time>2018-10-17T12:21:35Z</time>
      </trkpt>
      <trkpt lat="47.688" lon="6.21564">
        <ele>315</ele>
        <time>2018-10-17T12:21:38Z</time>
      </trkpt>
      <trkpt lat="47.68803" lon="6.21572">
        <ele>315</ele>
        <time>2018-10-17T12:21:42Z</time>
      </trkpt>
      <trkpt lat="47.68806" lon="6.21578">
        <ele>315</ele>
        <time>2018-10-17T12:21:45Z</time>
      </trkpt>
      <trkpt lat="47.6881" lon="6.21583">
        <ele>315</ele>
        <time>2018-10-17T12:21:48Z</time>
      </trkpt>
      <trkpt lat="47.68814" lon="6.21587">
        <ele>311</ele>
        <time>2018-10-17T12:21:52Z</time>
      </trkpt>
      <trkpt lat="47.68817" lon="6.21594">
        <ele>311</ele>
        <time>2018-10-17T12:21:56Z</time>
      </trkpt>
      <trkpt lat="47.68819" lon="6.21602">
        <ele>310</ele>
        <time>2018-10-17T12:22:00Z</time>
      </trkpt>
      <trkpt lat="47.68821" lon="6.21609">
        <ele>309</ele>
        <time>2018-10-17T12:22:03Z</time>
      </trkpt>
      <trkpt lat="47.68824" lon="6.21615">
        <ele>309</ele>
        <time>2018-10-17T12:22:06Z</time>
      </trkpt>
      <trkpt lat="47.68826" lon="6.21623">
        <ele>308</ele>
        <time>2018-10-17T12:22:09Z</time>
      </trkpt>
      <trkpt lat="47.68827" lon="6.21632">
        <ele>307</ele>
        <time>2018-10-17T12:22:13Z</time>
      </trkpt>
      <trkpt lat="47.68828" lon="6.2164">
        <ele>306</ele>
        <time>2018-10-17T12:22:16Z</time>
      </trkpt>
      <trkpt lat="47.68827" lon="6.21648">
        <ele>305</ele>
        <time>2018-10-17T12:22:19Z</time>
      </trkpt>
      <trkpt lat="47.68828" lon="6.21656">
        <ele>304</ele>
        <time>2018-10-17T12:22:21Z</time>
      </trkpt>
      <trkpt lat="47.6883" lon="6.21665">
        <ele>303</ele>
        <time>2018-10-17T12:22:23Z</time>
      </trkpt>
      <trkpt lat="47.68831" lon="6.21675">
        <ele>300</ele>
        <time>2018-10-17T12:22:25Z</time>
      </trkpt>
      <trkpt lat="47.68833" lon="6.21683">
        <ele>299</ele>
        <time>2018-10-17T12:22:27Z</time>
      </trkpt>
      <trkpt lat="47.68833" lon="6.2169">
        <ele>294</ele>
        <time>2018-10-17T12:22:29Z</time>
      </trkpt>
      <trkpt lat="47.68834" lon="6.21697">
        <ele>293</ele>
        <time>2018-10-17T12:22:31Z</time>
      </trkpt>
      <trkpt lat="47.68835" lon="6.21707">
        <ele>292</ele>
        <time>2018-10-17T12:22:34Z</time>
      </trkpt>
      <trkpt lat="47.68836" lon="6.21714">
        <ele>291</ele>
        <time>2018-10-17T12:22:37Z</time>
      </trkpt>
      <trkpt lat="47.68836" lon="6.21722">
        <ele>290</ele>
        <time>2018-10-17T12:22:43Z</time>
      </trkpt>
      <trkpt lat="47.68837" lon="6.21731">
        <ele>290</ele>
        <time>2018-10-17T12:22:46Z</time>
      </trkpt>
      <trkpt lat="47.68839" lon="6.21739">
        <ele>290</ele>
        <time>2018-10-17T12:22:49Z</time>
      </trkpt>
      <trkpt lat="47.68841" lon="6.21746">
        <ele>290</ele>
        <time>2018-10-17T12:22:51Z</time>
      </trkpt>
      <trkpt lat="47.68843" lon="6.21754">
        <ele>287</ele>
        <time>2018-10-17T12:22:54Z</time>
      </trkpt>
      <trkpt lat="47.68846" lon="6.21761">
        <ele>286</ele>
        <time>2018-10-17T12:22:57Z</time>
      </trkpt>
      <trkpt lat="47.68847" lon="6.21768">
        <ele>285</ele>
        <time>2018-10-17T12:22:59Z</time>
      </trkpt>
      <trkpt lat="47.68847" lon="6.21777">
        <ele>284</ele>
        <time>2018-10-17T12:23:01Z</time>
      </trkpt>
      <trkpt lat="47.68846" lon="6.21787">
        <ele>284</ele>
        <time>2018-10-17T12:23:03Z</time>
      </trkpt>
      <trkpt lat="47.68844" lon="6.21797">
        <ele>283</ele>
        <time>2018-10-17T12:23:05Z</time>
      </trkpt>
      <trkpt lat="47.68843" lon="6.21806">
        <ele>283</ele>
        <time>2018-10-17T12:23:08Z</time>
      </trkpt>
      <trkpt lat="47.68842" lon="6.21815">
        <ele>283</ele>
        <time>2018-10-17T12:23:11Z</time>
      </trkpt>
      <trkpt lat="47.68842" lon="6.21823">
        <ele>283</ele>
        <time>2018-10-17T12:23:13Z</time>
      </trkpt>
      <trkpt lat="47.68842" lon="6.21831">
        <ele>283</ele>
        <time>2018-10-17T12:23:15Z</time>
      </trkpt>
      <trkpt lat="47.68842" lon="6.2184">
        <ele>282</ele>
        <time>2018-10-17T12:23:18Z</time>
      </trkpt>
      <trkpt lat="47.68844" lon="6.21848">
        <ele>281</ele>
        <time>2018-10-17T12:23:21Z</time>
      </trkpt>
      <trkpt lat="47.68845" lon="6.21854">
        <ele>281</ele>
        <time>2018-10-17T12:23:24Z</time>
      </trkpt>
      <trkpt lat="47.68847" lon="6.21862">
        <ele>280</ele>
        <time>2018-10-17T12:23:27Z</time>
      </trkpt>
      <trkpt lat="47.68849" lon="6.21871">
        <ele>280</ele>
        <time>2018-10-17T12:23:30Z</time>
      </trkpt>
      <trkpt lat="47.6885" lon="6.21881">
        <ele>280</ele>
        <time>2018-10-17T12:23:33Z</time>
      </trkpt>
      <trkpt lat="47.68851" lon="6.21889">
        <ele>279</ele>
        <time>2018-10-17T12:23:36Z</time>
      </trkpt>
      <trkpt lat="47.68851" lon="6.21898">
        <ele>279</ele>
        <time>2018-10-17T12:23:39Z</time>
      </trkpt>
      <trkpt lat="47.68848" lon="6.21908">
        <ele>279</ele>
        <time>2018-10-17T12:23:42Z</time>
      </trkpt>
      <trkpt lat="47.68846" lon="6.21915">
        <ele>279</ele>
        <time>2018-10-17T12:23:44Z</time>
      </trkpt>
      <trkpt lat="47.68846" lon="6.21927">
        <ele>278</ele>
        <time>2018-10-17T12:23:47Z</time>
      </trkpt>
      <trkpt lat="47.68847" lon="6.21934">
        <ele>277</ele>
        <time>2018-10-17T12:23:48Z</time>
      </trkpt>
      <trkpt lat="47.68847" lon="6.21943">
        <ele>277</ele>
        <time>2018-10-17T12:23:49Z</time>
      </trkpt>
      <trkpt lat="47.68847" lon="6.21954">
        <ele>277</ele>
        <time>2018-10-17T12:23:51Z</time>
      </trkpt>
      <trkpt lat="47.68848" lon="6.21965">
        <ele>276</ele>
        <time>2018-10-17T12:23:52Z</time>
      </trkpt>
      <trkpt lat="47.68848" lon="6.21972">
        <ele>276</ele>
        <time>2018-10-17T12:23:53Z</time>
      </trkpt>
      <trkpt lat="47.68847" lon="6.21982">
        <ele>275</ele>
        <time>2018-10-17T12:23:55Z</time>
      </trkpt>
      <trkpt lat="47.68846" lon="6.21991">
        <ele>275</ele>
        <time>2018-10-17T12:23:57Z</time>
      </trkpt>
      <trkpt lat="47.68845" lon="6.21998">
        <ele>274</ele>
        <time>2018-10-17T12:23:59Z</time>
      </trkpt>
      <trkpt lat="47.68843" lon="6.22008">
        <ele>273</ele>
        <time>2018-10-17T12:24:02Z</time>
      </trkpt>
      <trkpt lat="47.68842" lon="6.22016">
        <ele>273</ele>
        <time>2018-10-17T12:24:05Z</time>
      </trkpt>
      <trkpt lat="47.68842" lon="6.22025">
        <ele>272</ele>
        <time>2018-10-17T12:24:09Z</time>
      </trkpt>
      <trkpt lat="47.68843" lon="6.22034">
        <ele>272</ele>
        <time>2018-10-17T12:24:13Z</time>
      </trkpt>
      <trkpt lat="47.68843" lon="6.22043">
        <ele>272</ele>
        <time>2018-10-17T12:24:16Z</time>
      </trkpt>
      <trkpt lat="47.68842" lon="6.22049">
        <ele>272</ele>
        <time>2018-10-17T12:24:18Z</time>
      </trkpt>
      <trkpt lat="47.68839" lon="6.22058">
        <ele>271</ele>
        <time>2018-10-17T12:24:21Z</time>
      </trkpt>
      <trkpt lat="47.68836" lon="6.22067">
        <ele>271</ele>
        <time>2018-10-17T12:24:24Z</time>
      </trkpt>
      <trkpt lat="47.68835" lon="6.22074">
        <ele>270</ele>
        <time>2018-10-17T12:24:26Z</time>
      </trkpt>
      <trkpt lat="47.68833" lon="6.22082">
        <ele>269</ele>
        <time>2018-10-17T12:24:28Z</time>
      </trkpt>
      <trkpt lat="47.68832" lon="6.22089">
        <ele>267</ele>
        <time>2018-10-17T12:24:30Z</time>
      </trkpt>
      <trkpt lat="47.68828" lon="6.22097">
        <ele>264</ele>
        <time>2018-10-17T12:24:33Z</time>
      </trkpt>
      <trkpt lat="47.68824" lon="6.22106">
        <ele>262</ele>
        <time>2018-10-17T12:24:36Z</time>
      </trkpt>
      <trkpt lat="47.68821" lon="6.22117">
        <ele>261</ele>
        <time>2018-10-17T12:24:38Z</time>
      </trkpt>
      <trkpt lat="47.68819" lon="6.2213">
        <ele>260</ele>
        <time>2018-10-17T12:24:40Z</time>
      </trkpt>
      <trkpt lat="47.68818" lon="6.22144">
        <ele>259</ele>
        <time>2018-10-17T12:24:42Z</time>
      </trkpt>
      <trkpt lat="47.68818" lon="6.22151">
        <ele>259</ele>
        <time>2018-10-17T12:24:43Z</time>
      </trkpt>
      <trkpt lat="47.68817" lon="6.22159">
        <ele>259</ele>
        <time>2018-10-17T12:24:44Z</time>
      </trkpt>
      <trkpt lat="47.68817" lon="6.22166">
        <ele>259</ele>
        <time>2018-10-17T12:24:45Z</time>
      </trkpt>
      <trkpt lat="47.68817" lon="6.22174">
        <ele>257</ele>
        <time>2018-10-17T12:24:46Z</time>
      </trkpt>
      <trkpt lat="47.68817" lon="6.22182">
        <ele>257</ele>
        <time>2018-10-17T12:24:47Z</time>
      </trkpt>
      <trkpt lat="47.68818" lon="6.22194">
        <ele>256</ele>
        <time>2018-10-17T12:24:49Z</time>
      </trkpt>
      <trkpt lat="47.68818" lon="6.22205">
        <ele>256</ele>
        <time>2018-10-17T12:24:51Z</time>
      </trkpt>
      <trkpt lat="47.68818" lon="6.22214">
        <ele>256</ele>
        <time>2018-10-17T12:24:53Z</time>
      </trkpt>
      <trkpt lat="47.68819" lon="6.22224">
        <ele>256</ele>
        <time>2018-10-17T12:24:55Z</time>
      </trkpt>
      <trkpt lat="47.68819" lon="6.22234">
        <ele>256</ele>
        <time>2018-10-17T12:24:57Z</time>
      </trkpt>
      <trkpt lat="47.68818" lon="6.22245">
        <ele>256</ele>
        <time>2018-10-17T12:24:59Z</time>
      </trkpt>
      <trkpt lat="47.68816" lon="6.22256">
        <ele>255</ele>
        <time>2018-10-17T12:25:01Z</time>
      </trkpt>
      <trkpt lat="47.68812" lon="6.22265">
        <ele>255</ele>
        <time>2018-10-17T12:25:03Z</time>
      </trkpt>
      <trkpt lat="47.68808" lon="6.22271">
        <ele>255</ele>
        <time>2018-10-17T12:25:06Z</time>
      </trkpt>
      <trkpt lat="47.68799" lon="6.22282">
        <ele>255</ele>
        <time>2018-10-17T12:25:08Z</time>
      </trkpt>
      <trkpt lat="47.68793" lon="6.22289">
        <ele>255</ele>
        <time>2018-10-17T12:25:10Z</time>
      </trkpt>
      <trkpt lat="47.68789" lon="6.22293">
        <ele>255</ele>
        <time>2018-10-17T12:25:12Z</time>
      </trkpt>
      <trkpt lat="47.68783" lon="6.22293">
        <ele>255</ele>
        <time>2018-10-17T12:25:14Z</time>
      </trkpt>
      <trkpt lat="47.68778" lon="6.22294">
        <ele>255</ele>
        <time>2018-10-17T12:25:16Z</time>
      </trkpt>
      <trkpt lat="47.68772" lon="6.223">
        <ele>255</ele>
        <time>2018-10-17T12:25:19Z</time>
      </trkpt>
      <trkpt lat="47.6877" lon="6.22306">
        <ele>255</ele>
        <time>2018-10-17T12:25:21Z</time>
      </trkpt>
      <trkpt lat="47.68769" lon="6.22313">
        <ele>255</ele>
        <time>2018-10-17T12:25:22Z</time>
      </trkpt>
      <trkpt lat="47.68771" lon="6.22321">
        <ele>255</ele>
        <time>2018-10-17T12:25:24Z</time>
      </trkpt>
      <trkpt lat="47.68775" lon="6.22327">
        <ele>255</ele>
        <time>2018-10-17T12:25:26Z</time>
      </trkpt>
      <trkpt lat="47.6878" lon="6.2233">
        <ele>255</ele>
        <time>2018-10-17T12:25:28Z</time>
      </trkpt>
      <trkpt lat="47.68784" lon="6.22334">
        <ele>255</ele>
        <time>2018-10-17T12:25:31Z</time>
      </trkpt>
      <trkpt lat="47.68788" lon="6.22339">
        <ele>255</ele>
        <time>2018-10-17T12:25:33Z</time>
      </trkpt>
      <trkpt lat="47.68792" lon="6.22343">
        <ele>255</ele>
        <time>2018-10-17T12:25:36Z</time>
      </trkpt>
      <trkpt lat="47.68796" lon="6.22349">
        <ele>255</ele>
        <time>2018-10-17T12:25:44Z</time>
      </trkpt>
      <trkpt lat="47.68798" lon="6.22355">
        <ele>255</ele>
        <time>2018-10-17T12:25:46Z</time>
      </trkpt>
      <trkpt lat="47.68803" lon="6.2237">
        <ele>255</ele>
        <time>2018-10-17T12:25:48Z</time>
      </trkpt>
      <trkpt lat="47.68807" lon="6.2238">
        <ele>255</ele>
        <time>2018-10-17T12:25:50Z</time>
      </trkpt>
      <trkpt lat="47.68811" lon="6.22385">
        <ele>254</ele>
        <time>2018-10-17T12:25:51Z</time>
      </trkpt>
      <trkpt lat="47.68815" lon="6.22391">
        <ele>254</ele>
        <time>2018-10-17T12:25:52Z</time>
      </trkpt>
      <trkpt lat="47.68819" lon="6.22396">
        <ele>254</ele>
        <time>2018-10-17T12:25:53Z</time>
      </trkpt>
      <trkpt lat="47.68823" lon="6.22402">
        <ele>254</ele>
        <time>2018-10-17T12:25:54Z</time>
      </trkpt>
      <trkpt lat="47.68827" lon="6.22409">
        <ele>253</ele>
        <time>2018-10-17T12:25:55Z</time>
      </trkpt>
      <trkpt lat="47.68831" lon="6.22415">
        <ele>252</ele>
        <time>2018-10-17T12:25:56Z</time>
      </trkpt>
      <trkpt lat="47.68836" lon="6.22423">
        <ele>251</ele>
        <time>2018-10-17T12:25:57Z</time>
      </trkpt>
      <trkpt lat="47.6884" lon="6.22431">
        <ele>251</ele>
        <time>2018-10-17T12:25:58Z</time>
      </trkpt>
      <trkpt lat="47.68844" lon="6.22439">
        <ele>250</ele>
        <time>2018-10-17T12:25:59Z</time>
      </trkpt>
      <trkpt lat="47.68847" lon="6.22448">
        <ele>250</ele>
        <time>2018-10-17T12:26:00Z</time>
      </trkpt>
      <trkpt lat="47.68849" lon="6.22458">
        <ele>250</ele>
        <time>2018-10-17T12:26:01Z</time>
      </trkpt>
      <trkpt lat="47.68851" lon="6.22468">
        <ele>249</ele>
        <time>2018-10-17T12:26:02Z</time>
      </trkpt>
      <trkpt lat="47.68851" lon="6.22478">
        <ele>250</ele>
        <time>2018-10-17T12:26:03Z</time>
      </trkpt>
      <trkpt lat="47.68852" lon="6.22488">
        <ele>250</ele>
        <time>2018-10-17T12:26:04Z</time>
      </trkpt>
      <trkpt lat="47.68853" lon="6.22498">
        <ele>250</ele>
        <time>2018-10-17T12:26:05Z</time>
      </trkpt>
      <trkpt lat="47.68854" lon="6.22508">
        <ele>249</ele>
        <time>2018-10-17T12:26:06Z</time>
      </trkpt>
      <trkpt lat="47.68855" lon="6.22517">
        <ele>249</ele>
        <time>2018-10-17T12:26:07Z</time>
      </trkpt>
      <trkpt lat="47.68856" lon="6.22527">
        <ele>249</ele>
        <time>2018-10-17T12:26:08Z</time>
      </trkpt>
      <trkpt lat="47.68857" lon="6.22537">
        <ele>248</ele>
        <time>2018-10-17T12:26:09Z</time>
      </trkpt>
      <trkpt lat="47.68858" lon="6.22546">
        <ele>248</ele>
        <time>2018-10-17T12:26:10Z</time>
      </trkpt>
      <trkpt lat="47.68858" lon="6.22555">
        <ele>248</ele>
        <time>2018-10-17T12:26:11Z</time>
      </trkpt>
      <trkpt lat="47.68859" lon="6.22565">
        <ele>248</ele>
        <time>2018-10-17T12:26:12Z</time>
      </trkpt>
      <trkpt lat="47.6886" lon="6.22574">
        <ele>248</ele>
        <time>2018-10-17T12:26:13Z</time>
      </trkpt>
      <trkpt lat="47.68861" lon="6.22582">
        <ele>248</ele>
        <time>2018-10-17T12:26:14Z</time>
      </trkpt>
      <trkpt lat="47.68862" lon="6.22591">
        <ele>247</ele>
        <time>2018-10-17T12:26:15Z</time>
      </trkpt>
      <trkpt lat="47.68863" lon="6.22599">
        <ele>247</ele>
        <time>2018-10-17T12:26:16Z</time>
      </trkpt>
      <trkpt lat="47.68864" lon="6.22607">
        <ele>247</ele>
        <time>2018-10-17T12:26:17Z</time>
      </trkpt>
      <trkpt lat="47.68865" lon="6.22615">
        <ele>247</ele>
        <time>2018-10-17T12:26:18Z</time>
      </trkpt>
      <trkpt lat="47.68866" lon="6.22623">
        <ele>247</ele>
        <time>2018-10-17T12:26:19Z</time>
      </trkpt>
      <trkpt lat="47.68867" lon="6.22631">
        <ele>247</ele>
        <time>2018-10-17T12:26:20Z</time>
      </trkpt>
      <trkpt lat="47.68868" lon="6.22639">
        <ele>247</ele>
        <time>2018-10-17T12:26:21Z</time>
      </trkpt>
      <trkpt lat="47.68869" lon="6.22647">
        <ele>247</ele>
        <time>2018-10-17T12:26:22Z</time>
      </trkpt>
      <trkpt lat="47.6887" lon="6.22656">
        <ele>247</ele>
        <time>2018-10-17T12:26:23Z</time>
      </trkpt>
      <trkpt lat="47.6887" lon="6.22664">
        <ele>247</ele>
        <time>2018-10-17T12:26:24Z</time>
      </trkpt>
      <trkpt lat="47.68871" lon="6.22673">
        <ele>245</ele>
        <time>2018-10-17T12:26:25Z</time>
      </trkpt>
      <trkpt lat="47.68871" lon="6.22681">
        <ele>245</ele>
        <time>2018-10-17T12:26:26Z</time>
      </trkpt>
      <trkpt lat="47.68871" lon="6.22688">
        <ele>245</ele>
        <time>2018-10-17T12:26:27Z</time>
      </trkpt>
      <trkpt lat="47.68871" lon="6.22696">
        <ele>245</ele>
        <time>2018-10-17T12:26:28Z</time>
      </trkpt>
      <trkpt lat="47.68871" lon="6.22704">
        <ele>245</ele>
        <time>2018-10-17T12:26:29Z</time>
      </trkpt>
      <trkpt lat="47.68872" lon="6.22713">
        <ele>245</ele>
        <time>2018-10-17T12:26:30Z</time>
      </trkpt>
      <trkpt lat="47.68872" lon="6.22721">
        <ele>245</ele>
        <time>2018-10-17T12:26:31Z</time>
      </trkpt>
      <trkpt lat="47.68872" lon="6.2273">
        <ele>245</ele>
        <time>2018-10-17T12:26:32Z</time>
      </trkpt>
      <trkpt lat="47.68873" lon="6.22738">
        <ele>244</ele>
        <time>2018-10-17T12:26:33Z</time>
      </trkpt>
      <trkpt lat="47.68873" lon="6.22746">
        <ele>244</ele>
        <time>2018-10-17T12:26:34Z</time>
      </trkpt>
      <trkpt lat="47.68873" lon="6.22755">
        <ele>243</ele>
        <time>2018-10-17T12:26:35Z</time>
      </trkpt>
      <trkpt lat="47.68873" lon="6.22764">
        <ele>243</ele>
        <time>2018-10-17T12:26:36Z</time>
      </trkpt>
      <trkpt lat="47.68873" lon="6.22772">
        <ele>243</ele>
        <time>2018-10-17T12:26:37Z</time>
      </trkpt>
      <trkpt lat="47.68872" lon="6.22781">
        <ele>243</ele>
        <time>2018-10-17T12:26:38Z</time>
      </trkpt>
      <trkpt lat="47.68872" lon="6.22789">
        <ele>243</ele>
        <time>2018-10-17T12:26:39Z</time>
      </trkpt>
      <trkpt lat="47.68872" lon="6.22798">
        <ele>243</ele>
        <time>2018-10-17T12:26:40Z</time>
      </trkpt>
      <trkpt lat="47.68872" lon="6.22807">
        <ele>243</ele>
        <time>2018-10-17T12:26:41Z</time>
      </trkpt>
      <trkpt lat="47.68871" lon="6.22816">
        <ele>243</ele>
        <time>2018-10-17T12:26:42Z</time>
      </trkpt>
      <trkpt lat="47.68871" lon="6.22825">
        <ele>243</ele>
        <time>2018-10-17T12:26:43Z</time>
      </trkpt>
      <trkpt lat="47.6887" lon="6.22835">
        <ele>242</ele>
        <time>2018-10-17T12:26:44Z</time>
      </trkpt>
      <trkpt lat="47.68869" lon="6.22843">
        <ele>242</ele>
        <time>2018-10-17T12:26:45Z</time>
      </trkpt>
      <trkpt lat="47.68869" lon="6.22853">
        <ele>242</ele>
        <time>2018-10-17T12:26:46Z</time>
      </trkpt>
      <trkpt lat="47.68868" lon="6.22863">
        <ele>242</ele>
        <time>2018-10-17T12:26:47Z</time>
      </trkpt>
      <trkpt lat="47.68868" lon="6.22873">
        <ele>242</ele>
        <time>2018-10-17T12:26:48Z</time>
      </trkpt>
      <trkpt lat="47.68867" lon="6.22883">
        <ele>242</ele>
        <time>2018-10-17T12:26:49Z</time>
      </trkpt>
      <trkpt lat="47.68866" lon="6.22893">
        <ele>242</ele>
        <time>2018-10-17T12:26:50Z</time>
      </trkpt>
      <trkpt lat="47.68866" lon="6.22903">
        <ele>242</ele>
        <time>2018-10-17T12:26:51Z</time>
      </trkpt>
      <trkpt lat="47.68866" lon="6.22914">
        <ele>242</ele>
        <time>2018-10-17T12:26:52Z</time>
      </trkpt>
      <trkpt lat="47.68866" lon="6.22924">
        <ele>242</ele>
        <time>2018-10-17T12:26:53Z</time>
      </trkpt>
      <trkpt lat="47.68866" lon="6.22935">
        <ele>242</ele>
        <time>2018-10-17T12:26:54Z</time>
      </trkpt>
      <trkpt lat="47.68867" lon="6.22945">
        <ele>242</ele>
        <time>2018-10-17T12:26:55Z</time>
      </trkpt>
      <trkpt lat="47.68868" lon="6.22955">
        <ele>242</ele>
        <time>2018-10-17T12:26:56Z</time>
      </trkpt>
      <trkpt lat="47.68869" lon="6.22965">
        <ele>242</ele>
        <time>2018-10-17T12:26:57Z</time>
      </trkpt>
      <trkpt lat="47.6887" lon="6.22976">
        <ele>242</ele>
        <time>2018-10-17T12:26:58Z</time>
      </trkpt>
      <trkpt lat="47.68871" lon="6.22986">
        <ele>241</ele>
        <time>2018-10-17T12:26:59Z</time>
      </trkpt>
      <trkpt lat="47.68873" lon="6.22996">
        <ele>241</ele>
        <time>2018-10-17T12:27:00Z</time>
      </trkpt>
      <trkpt lat="47.68874" lon="6.23006">
        <ele>240</ele>
        <time>2018-10-17T12:27:01Z</time>
      </trkpt>
      <trkpt lat="47.68875" lon="6.23016">
        <ele>240</ele>
        <time>2018-10-17T12:27:02Z</time>
      </trkpt>
      <trkpt lat="47.68876" lon="6.23026">
        <ele>240</ele>
        <time>2018-10-17T12:27:03Z</time>
      </trkpt>
      <trkpt lat="47.68877" lon="6.23036">
        <ele>240</ele>
        <time>2018-10-17T12:27:04Z</time>
      </trkpt>
      <trkpt lat="47.68878" lon="6.23046">
        <ele>240</ele>
        <time>2018-10-17T12:27:05Z</time>
      </trkpt>
      <trkpt lat="47.6888" lon="6.23056">
        <ele>240</ele>
        <time>2018-10-17T12:27:06Z</time>
      </trkpt>
      <trkpt lat="47.6888" lon="6.23066">
        <ele>240</ele>
        <time>2018-10-17T12:27:07Z</time>
      </trkpt>
      <trkpt lat="47.68881" lon="6.23075">
        <ele>240</ele>
        <time>2018-10-17T12:27:08Z</time>
      </trkpt>
      <trkpt lat="47.68882" lon="6.23085">
        <ele>239</ele>
        <time>2018-10-17T12:27:09Z</time>
      </trkpt>
      <trkpt lat="47.68883" lon="6.23094">
        <ele>239</ele>
        <time>2018-10-17T12:27:10Z</time>
      </trkpt>
      <trkpt lat="47.68884" lon="6.23103">
        <ele>239</ele>
        <time>2018-10-17T12:27:11Z</time>
      </trkpt>
      <trkpt lat="47.68885" lon="6.23112">
        <ele>239</ele>
        <time>2018-10-17T12:27:12Z</time>
      </trkpt>
      <trkpt lat="47.68886" lon="6.23121">
        <ele>239</ele>
        <time>2018-10-17T12:27:13Z</time>
      </trkpt>
      <trkpt lat="47.68887" lon="6.23129">
        <ele>239</ele>
        <time>2018-10-17T12:27:14Z</time>
      </trkpt>
      <trkpt lat="47.68888" lon="6.23138">
        <ele>239</ele>
        <time>2018-10-17T12:27:15Z</time>
      </trkpt>
      <trkpt lat="47.6889" lon="6.23146">
        <ele>239</ele>
        <time>2018-10-17T12:27:16Z</time>
      </trkpt>
      <trkpt lat="47.68891" lon="6.23155">
        <ele>239</ele>
        <time>2018-10-17T12:27:17Z</time>
      </trkpt>
      <trkpt lat="47.68893" lon="6.23163">
        <ele>239</ele>
        <time>2018-10-17T12:27:18Z</time>
      </trkpt>
      <trkpt lat="47.68895" lon="6.23171">
        <ele>239</ele>
        <time>2018-10-17T12:27:19Z</time>
      </trkpt>
      <trkpt lat="47.68896" lon="6.23179">
        <ele>239</ele>
        <time>2018-10-17T12:27:20Z</time>
      </trkpt>
      <trkpt lat="47.68898" lon="6.23187">
        <ele>239</ele>
        <time>2018-10-17T12:27:21Z</time>
      </trkpt>
      <trkpt lat="47.689" lon="6.23196">
        <ele>239</ele>
        <time>2018-10-17T12:27:22Z</time>
      </trkpt>
      <trkpt lat="47.68901" lon="6.23204">
        <ele>239</ele>
        <time>2018-10-17T12:27:23Z</time>
      </trkpt>
      <trkpt lat="47.68903" lon="6.23212">
        <ele>239</ele>
        <time>2018-10-17T12:27:24Z</time>
      </trkpt>
      <trkpt lat="47.68905" lon="6.2322">
        <ele>239</ele>
        <time>2018-10-17T12:27:25Z</time>
      </trkpt>
      <trkpt lat="47.68907" lon="6.23228">
        <ele>239</ele>
        <time>2018-10-17T12:27:26Z</time>
      </trkpt>
      <trkpt lat="47.68909" lon="6.23237">
        <ele>239</ele>
        <time>2018-10-17T12:27:27Z</time>
      </trkpt>
      <trkpt lat="47.68911" lon="6.23245">
        <ele>239</ele>
        <time>2018-10-17T12:27:28Z</time>
      </trkpt>
      <trkpt lat="47.68913" lon="6.23253">
        <ele>239</ele>
        <time>2018-10-17T12:27:29Z</time>
      </trkpt>
      <trkpt lat="47.68915" lon="6.23261">
        <ele>239</ele>
        <time>2018-10-17T12:27:30Z</time>
      </trkpt>
      <trkpt lat="47.68917" lon="6.23268">
        <ele>238</ele>
        <time>2018-10-17T12:27:31Z</time>
      </trkpt>
      <trkpt lat="47.68919" lon="6.23277">
        <ele>238</ele>
        <time>2018-10-17T12:27:32Z</time>
      </trkpt>
      <trkpt lat="47.6892" lon="6.23284">
        <ele>238</ele>
        <time>2018-10-17T12:27:33Z</time>
      </trkpt>
      <trkpt lat="47.68922" lon="6.23293">
        <ele>238</ele>
        <time>2018-10-17T12:27:34Z</time>
      </trkpt>
      <trkpt lat="47.68924" lon="6.23301">
        <ele>238</ele>
        <time>2018-10-17T12:27:35Z</time>
      </trkpt>
      <trkpt lat="47.68926" lon="6.23309">
        <ele>238</ele>
        <time>2018-10-17T12:27:36Z</time>
      </trkpt>
      <trkpt lat="47.68927" lon="6.23317">
        <ele>238</ele>
        <time>2018-10-17T12:27:37Z</time>
      </trkpt>
      <trkpt lat="47.68929" lon="6.23324">
        <ele>238</ele>
        <time>2018-10-17T12:27:38Z</time>
      </trkpt>
      <trkpt lat="47.68931" lon="6.23332">
        <ele>238</ele>
        <time>2018-10-17T12:27:39Z</time>
      </trkpt>
      <trkpt lat="47.68932" lon="6.23339">
        <ele>237</ele>
        <time>2018-10-17T12:27:40Z</time>
      </trkpt>
      <trkpt lat="47.68933" lon="6.23346">
        <ele>237</ele>
        <time>2018-10-17T12:27:41Z</time>
      </trkpt>
      <trkpt lat="47.68934" lon="6.23352">
        <ele>237</ele>
        <time>2018-10-17T12:27:42Z</time>
      </trkpt>
      <trkpt lat="47.68936" lon="6.23359">
        <ele>237</ele>
        <time>2018-10-17T12:27:43Z</time>
      </trkpt>
      <trkpt lat="47.68937" lon="6.23366">
        <ele>237</ele>
        <time>2018-10-17T12:27:44Z</time>
      </trkpt>
      <trkpt lat="47.68938" lon="6.23372">
        <ele>237</ele>
        <time>2018-10-17T12:27:45Z</time>
      </trkpt>
      <trkpt lat="47.68939" lon="6.23379">
        <ele>237</ele>
        <time>2018-10-17T12:27:46Z</time>
      </trkpt>
      <trkpt lat="47.6894" lon="6.23386">
        <ele>237</ele>
        <time>2018-10-17T12:27:47Z</time>
      </trkpt>
      <trkpt lat="47.68941" lon="6.23394">
        <ele>237</ele>
        <time>2018-10-17T12:27:48Z</time>
      </trkpt>
      <trkpt lat="47.68942" lon="6.23401">
        <ele>237</ele>
        <time>2018-10-17T12:27:49Z</time>
      </trkpt>
      <trkpt lat="47.68942" lon="6.23408">
        <ele>237</ele>
        <time>2018-10-17T12:27:50Z</time>
      </trkpt>
      <trkpt lat="47.68942" lon="6.23415">
        <ele>237</ele>
        <time>2018-10-17T12:27:51Z</time>
      </trkpt>
      <trkpt lat="47.68943" lon="6.23422">
        <ele>237</ele>
        <time>2018-10-17T12:27:52Z</time>
      </trkpt>
      <trkpt lat="47.68943" lon="6.23429">
        <ele>237</ele>
        <time>2018-10-17T12:27:53Z</time>
      </trkpt>
      <trkpt lat="47.68943" lon="6.23436">
        <ele>237</ele>
        <time>2018-10-17T12:27:54Z</time>
      </trkpt>
      <trkpt lat="47.68943" lon="6.23449">
        <ele>237</ele>
        <time>2018-10-17T12:27:56Z</time>
      </trkpt>
      <trkpt lat="47.68942" lon="6.23462">
        <ele>237</ele>
        <time>2018-10-17T12:27:58Z</time>
      </trkpt>
      <trkpt lat="47.68941" lon="6.23469">
        <ele>237</ele>
        <time>2018-10-17T12:27:59Z</time>
      </trkpt>
      <trkpt lat="47.68939" lon="6.23476">
        <ele>237</ele>
        <time>2018-10-17T12:28:00Z</time>
      </trkpt>
      <trkpt lat="47.68937" lon="6.23483">
        <ele>237</ele>
        <time>2018-10-17T12:28:01Z</time>
      </trkpt>
      <trkpt lat="47.68935" lon="6.2349">
        <ele>237</ele>
        <time>2018-10-17T12:28:02Z</time>
      </trkpt>
      <trkpt lat="47.68933" lon="6.23498">
        <ele>237</ele>
        <time>2018-10-17T12:28:03Z</time>
      </trkpt>
      <trkpt lat="47.6893" lon="6.23505">
        <ele>236</ele>
        <time>2018-10-17T12:28:04Z</time>
      </trkpt>
      <trkpt lat="47.68927" lon="6.23512">
        <ele>236</ele>
        <time>2018-10-17T12:28:05Z</time>
      </trkpt>
      <trkpt lat="47.68924" lon="6.23519">
        <ele>236</ele>
        <time>2018-10-17T12:28:06Z</time>
      </trkpt>
      <trkpt lat="47.68921" lon="6.23525">
        <ele>236</ele>
        <time>2018-10-17T12:28:07Z</time>
      </trkpt>
      <trkpt lat="47.68917" lon="6.23531">
        <ele>236</ele>
        <time>2018-10-17T12:28:08Z</time>
      </trkpt>
      <trkpt lat="47.68913" lon="6.23537">
        <ele>236</ele>
        <time>2018-10-17T12:28:09Z</time>
      </trkpt>
      <trkpt lat="47.6891" lon="6.23543">
        <ele>236</ele>
        <time>2018-10-17T12:28:10Z</time>
      </trkpt>
      <trkpt lat="47.68906" lon="6.23549">
        <ele>236</ele>
        <time>2018-10-17T12:28:11Z</time>
      </trkpt>
      <trkpt lat="47.68902" lon="6.23555">
        <ele>236</ele>
        <time>2018-10-17T12:28:12Z</time>
      </trkpt>
      <trkpt lat="47.68899" lon="6.23561">
        <ele>236</ele>
        <time>2018-10-17T12:28:13Z</time>
      </trkpt>
      <trkpt lat="47.68895" lon="6.23568">
        <ele>236</ele>
        <time>2018-10-17T12:28:14Z</time>
      </trkpt>
      <trkpt lat="47.68891" lon="6.23574">
        <ele>236</ele>
        <time>2018-10-17T12:28:15Z</time>
      </trkpt>
      <trkpt lat="47.68888" lon="6.23581">
        <ele>236</ele>
        <time>2018-10-17T12:28:16Z</time>
      </trkpt>
      <trkpt lat="47.68884" lon="6.2359">
        <ele>234</ele>
        <time>2018-10-17T12:28:17Z</time>
      </trkpt>
      <trkpt lat="47.68881" lon="6.23598">
        <ele>234</ele>
        <time>2018-10-17T12:28:18Z</time>
      </trkpt>
      <trkpt lat="47.68878" lon="6.23607">
        <ele>234</ele>
        <time>2018-10-17T12:28:19Z</time>
      </trkpt>
      <trkpt lat="47.68874" lon="6.23616">
        <ele>234</ele>
        <time>2018-10-17T12:28:20Z</time>
      </trkpt>
      <trkpt lat="47.68872" lon="6.23625">
        <ele>234</ele>
        <time>2018-10-17T12:28:21Z</time>
      </trkpt>
      <trkpt lat="47.68869" lon="6.23634">
        <ele>234</ele>
        <time>2018-10-17T12:28:22Z</time>
      </trkpt>
      <trkpt lat="47.68866" lon="6.23642">
        <ele>234</ele>
        <time>2018-10-17T12:28:23Z</time>
      </trkpt>
      <trkpt lat="47.68864" lon="6.23651">
        <ele>233</ele>
        <time>2018-10-17T12:28:24Z</time>
      </trkpt>
      <trkpt lat="47.68861" lon="6.23659">
        <ele>233</ele>
        <time>2018-10-17T12:28:25Z</time>
      </trkpt>
      <trkpt lat="47.68858" lon="6.23668">
        <ele>232</ele>
        <time>2018-10-17T12:28:26Z</time>
      </trkpt>
      <trkpt lat="47.68855" lon="6.23676">
        <ele>232</ele>
        <time>2018-10-17T12:28:27Z</time>
      </trkpt>
      <trkpt lat="47.68853" lon="6.23685">
        <ele>232</ele>
        <time>2018-10-17T12:28:28Z</time>
      </trkpt>
      <trkpt lat="47.68852" lon="6.23693">
        <ele>232</ele>
        <time>2018-10-17T12:28:29Z</time>
      </trkpt>
      <trkpt lat="47.68849" lon="6.23701">
        <ele>232</ele>
        <time>2018-10-17T12:28:30Z</time>
      </trkpt>
      <trkpt lat="47.68847" lon="6.23709">
        <ele>231</ele>
        <time>2018-10-17T12:28:31Z</time>
      </trkpt>
      <trkpt lat="47.68844" lon="6.23717">
        <ele>231</ele>
        <time>2018-10-17T12:28:32Z</time>
      </trkpt>
      <trkpt lat="47.68842" lon="6.23724">
        <ele>231</ele>
        <time>2018-10-17T12:28:33Z</time>
      </trkpt>
      <trkpt lat="47.6884" lon="6.2373">
        <ele>231</ele>
        <time>2018-10-17T12:28:34Z</time>
      </trkpt>
      <trkpt lat="47.68836" lon="6.23736">
        <ele>231</ele>
        <time>2018-10-17T12:28:35Z</time>
      </trkpt>
      <trkpt lat="47.68832" lon="6.2374">
        <ele>231</ele>
        <time>2018-10-17T12:28:36Z</time>
      </trkpt>
      <trkpt lat="47.68828" lon="6.23741">
        <ele>231</ele>
        <time>2018-10-17T12:28:37Z</time>
      </trkpt>
      <trkpt lat="47.6882" lon="6.23738">
        <ele>231</ele>
        <time>2018-10-17T12:28:39Z</time>
      </trkpt>
      <trkpt lat="47.68816" lon="6.23734">
        <ele>231</ele>
        <time>2018-10-17T12:28:40Z</time>
      </trkpt>
      <trkpt lat="47.68812" lon="6.23729">
        <ele>231</ele>
        <time>2018-10-17T12:28:41Z</time>
      </trkpt>
      <trkpt lat="47.68807" lon="6.23724">
        <ele>231</ele>
        <time>2018-10-17T12:28:42Z</time>
      </trkpt>
      <trkpt lat="47.68803" lon="6.2372">
        <ele>231</ele>
        <time>2018-10-17T12:28:43Z</time>
      </trkpt>
      <trkpt lat="47.68799" lon="6.23716">
        <ele>231</ele>
        <time>2018-10-17T12:28:44Z</time>
      </trkpt>
      <trkpt lat="47.68795" lon="6.23712">
        <ele>231</ele>
        <time>2018-10-17T12:28:45Z</time>
      </trkpt>
      <trkpt lat="47.68792" lon="6.23707">
        <ele>231</ele>
        <time>2018-10-17T12:28:46Z</time>
      </trkpt>
      <trkpt lat="47.68788" lon="6.23703">
        <ele>231</ele>
        <time>2018-10-17T12:28:47Z</time>
      </trkpt>
      <trkpt lat="47.68784" lon="6.23699">
        <ele>231</ele>
        <time>2018-10-17T12:28:48Z</time>
      </trkpt>
      <trkpt lat="47.6878" lon="6.23695">
        <ele>231</ele>
        <time>2018-10-17T12:28:49Z</time>
      </trkpt>
      <trkpt lat="47.68776" lon="6.23691">
        <ele>231</ele>
        <time>2018-10-17T12:28:50Z</time>
      </trkpt>
      <trkpt lat="47.68772" lon="6.23687">
        <ele>231</ele>
        <time>2018-10-17T12:28:51Z</time>
      </trkpt>
      <trkpt lat="47.68768" lon="6.23684">
        <ele>231</ele>
        <time>2018-10-17T12:28:52Z</time>
      </trkpt>
      <trkpt lat="47.68761" lon="6.23677">
        <ele>231</ele>
        <time>2018-10-17T12:28:54Z</time>
      </trkpt>
      <trkpt lat="47.68753" lon="6.23672">
        <ele>231</ele>
        <time>2018-10-17T12:28:56Z</time>
      </trkpt>
      <trkpt lat="47.68745" lon="6.23668">
        <ele>231</ele>
        <time>2018-10-17T12:28:58Z</time>
      </trkpt>
      <trkpt lat="47.68736" lon="6.23665">
        <ele>231</ele>
        <time>2018-10-17T12:29:00Z</time>
      </trkpt>
      <trkpt lat="47.68731" lon="6.23664">
        <ele>231</ele>
        <time>2018-10-17T12:29:01Z</time>
      </trkpt>
      <trkpt lat="47.68727" lon="6.23663">
        <ele>231</ele>
        <time>2018-10-17T12:29:02Z</time>
      </trkpt>
      <trkpt lat="47.68722" lon="6.23662">
        <ele>231</ele>
        <time>2018-10-17T12:29:03Z</time>
      </trkpt>
      <trkpt lat="47.68717" lon="6.23661">
        <ele>231</ele>
        <time>2018-10-17T12:29:04Z</time>
      </trkpt>
      <trkpt lat="47.68712" lon="6.2366">
        <ele>231</ele>
        <time>2018-10-17T12:29:05Z</time>
      </trkpt>
      <trkpt lat="47.68706" lon="6.23659">
        <ele>231</ele>
        <time>2018-10-17T12:29:06Z</time>
      </trkpt>
      <trkpt lat="47.68701" lon="6.23658">
        <ele>231</ele>
        <time>2018-10-17T12:29:07Z</time>
      </trkpt>
      <trkpt lat="47.68696" lon="6.23656">
        <ele>230</ele>
        <time>2018-10-17T12:29:08Z</time>
      </trkpt>
      <trkpt lat="47.6869" lon="6.23655">
        <ele>230</ele>
        <time>2018-10-17T12:29:09Z</time>
      </trkpt>
      <trkpt lat="47.68685" lon="6.23653">
        <ele>230</ele>
        <time>2018-10-17T12:29:10Z</time>
      </trkpt>
      <trkpt lat="47.6868" lon="6.23652">
        <ele>230</ele>
        <time>2018-10-17T12:29:11Z</time>
      </trkpt>
      <trkpt lat="47.68675" lon="6.2365">
        <ele>230</ele>
        <time>2018-10-17T12:29:12Z</time>
      </trkpt>
      <trkpt lat="47.6867" lon="6.23649">
        <ele>230</ele>
        <time>2018-10-17T12:29:13Z</time>
      </trkpt>
      <trkpt lat="47.68665" lon="6.23647">
        <ele>229</ele>
        <time>2018-10-17T12:29:14Z</time>
      </trkpt>
      <trkpt lat="47.68661" lon="6.23644">
        <ele>230</ele>
        <time>2018-10-17T12:29:15Z</time>
      </trkpt>
      <trkpt lat="47.68657" lon="6.23642">
        <ele>230</ele>
        <time>2018-10-17T12:29:16Z</time>
      </trkpt>
      <trkpt lat="47.68648" lon="6.23638">
        <ele>230</ele>
        <time>2018-10-17T12:29:18Z</time>
      </trkpt>
      <trkpt lat="47.6864" lon="6.23633">
        <ele>230</ele>
        <time>2018-10-17T12:29:20Z</time>
      </trkpt>
      <trkpt lat="47.68636" lon="6.2363">
        <ele>230</ele>
        <time>2018-10-17T12:29:21Z</time>
      </trkpt>
      <trkpt lat="47.68632" lon="6.23627">
        <ele>230</ele>
        <time>2018-10-17T12:29:22Z</time>
      </trkpt>
      <trkpt lat="47.68627" lon="6.23625">
        <ele>230</ele>
        <time>2018-10-17T12:29:23Z</time>
      </trkpt>
      <trkpt lat="47.68623" lon="6.23622">
        <ele>230</ele>
        <time>2018-10-17T12:29:24Z</time>
      </trkpt>
      <trkpt lat="47.68615" lon="6.23616">
        <ele>230</ele>
        <time>2018-10-17T12:29:26Z</time>
      </trkpt>
      <trkpt lat="47.68611" lon="6.23612">
        <ele>230</ele>
        <time>2018-10-17T12:29:27Z</time>
      </trkpt>
      <trkpt lat="47.68607" lon="6.23609">
        <ele>230</ele>
        <time>2018-10-17T12:29:28Z</time>
      </trkpt>
      <trkpt lat="47.686" lon="6.23602">
        <ele>230</ele>
        <time>2018-10-17T12:29:30Z</time>
      </trkpt>
      <trkpt lat="47.68593" lon="6.23595">
        <ele>230</ele>
        <time>2018-10-17T12:29:32Z</time>
      </trkpt>
      <trkpt lat="47.68586" lon="6.23588">
        <ele>230</ele>
        <time>2018-10-17T12:29:34Z</time>
      </trkpt>
      <trkpt lat="47.68579" lon="6.2358">
        <ele>230</ele>
        <time>2018-10-17T12:29:36Z</time>
      </trkpt>
      <trkpt lat="47.68572" lon="6.23573">
        <ele>230</ele>
        <time>2018-10-17T12:29:38Z</time>
      </trkpt>
      <trkpt lat="47.68569" lon="6.23569">
        <ele>230</ele>
        <time>2018-10-17T12:29:39Z</time>
      </trkpt>
      <trkpt lat="47.68565" lon="6.23564">
        <ele>230</ele>
        <time>2018-10-17T12:29:40Z</time>
      </trkpt>
      <trkpt lat="47.68561" lon="6.2356">
        <ele>230</ele>
        <time>2018-10-17T12:29:41Z</time>
      </trkpt>
      <trkpt lat="47.68557" lon="6.23556">
        <ele>230</ele>
        <time>2018-10-17T12:29:42Z</time>
      </trkpt>
      <trkpt lat="47.68553" lon="6.23552">
        <ele>230</ele>
        <time>2018-10-17T12:29:43Z</time>
      </trkpt>
      <trkpt lat="47.68549" lon="6.23547">
        <ele>230</ele>
        <time>2018-10-17T12:29:44Z</time>
      </trkpt>
      <trkpt lat="47.68545" lon="6.23543">
        <ele>230</ele>
        <time>2018-10-17T12:29:45Z</time>
      </trkpt>
      <trkpt lat="47.68541" lon="6.23538">
        <ele>230</ele>
        <time>2018-10-17T12:29:46Z</time>
      </trkpt>
      <trkpt lat="47.68537" lon="6.23534">
        <ele>230</ele>
        <time>2018-10-17T12:29:47Z</time>
      </trkpt>
      <trkpt lat="47.68533" lon="6.23529">
        <ele>230</ele>
        <time>2018-10-17T12:29:48Z</time>
      </trkpt>
      <trkpt lat="47.68529" lon="6.23525">
        <ele>230</ele>
        <time>2018-10-17T12:29:49Z</time>
      </trkpt>
      <trkpt lat="47.68524" lon="6.23521">
        <ele>230</ele>
        <time>2018-10-17T12:29:50Z</time>
      </trkpt>
      <trkpt lat="47.6852" lon="6.23516">
        <ele>230</ele>
        <time>2018-10-17T12:29:51Z</time>
      </trkpt>
      <trkpt lat="47.68516" lon="6.23512">
        <ele>230</ele>
        <time>2018-10-17T12:29:52Z</time>
      </trkpt>
      <trkpt lat="47.68512" lon="6.23508">
        <ele>230</ele>
        <time>2018-10-17T12:29:53Z</time>
      </trkpt>
      <trkpt lat="47.68507" lon="6.23504">
        <ele>230</ele>
        <time>2018-10-17T12:29:54Z</time>
      </trkpt>
      <trkpt lat="47.68503" lon="6.23501">
        <ele>230</ele>
        <time>2018-10-17T12:29:55Z</time>
      </trkpt>
      <trkpt lat="47.68499" lon="6.23499">
        <ele>230</ele>
        <time>2018-10-17T12:29:56Z</time>
      </trkpt>
      <trkpt lat="47.68491" lon="6.23494">
        <ele>230</ele>
        <time>2018-10-17T12:29:58Z</time>
      </trkpt>
      <trkpt lat="47.68483" lon="6.2349">
        <ele>230</ele>
        <time>2018-10-17T12:30:00Z</time>
      </trkpt>
      <trkpt lat="47.68475" lon="6.23488">
        <ele>230</ele>
        <time>2018-10-17T12:30:02Z</time>
      </trkpt>
      <trkpt lat="47.68466" lon="6.23488">
        <ele>230</ele>
        <time>2018-10-17T12:30:04Z</time>
      </trkpt>
      <trkpt lat="47.68458" lon="6.23488">
        <ele>230</ele>
        <time>2018-10-17T12:30:06Z</time>
      </trkpt>
      <trkpt lat="47.6845" lon="6.2349">
        <ele>230</ele>
        <time>2018-10-17T12:30:08Z</time>
      </trkpt>
      <trkpt lat="47.68442" lon="6.23492">
        <ele>230</ele>
        <time>2018-10-17T12:30:10Z</time>
      </trkpt>
      <trkpt lat="47.68434" lon="6.23492">
        <ele>230</ele>
        <time>2018-10-17T12:30:12Z</time>
      </trkpt>
      <trkpt lat="47.68426" lon="6.23492">
        <ele>230</ele>
        <time>2018-10-17T12:30:14Z</time>
      </trkpt>
      <trkpt lat="47.68419" lon="6.23491">
        <ele>229</ele>
        <time>2018-10-17T12:30:16Z</time>
      </trkpt>
      <trkpt lat="47.68411" lon="6.23489">
        <ele>230</ele>
        <time>2018-10-17T12:30:18Z</time>
      </trkpt>
      <trkpt lat="47.68402" lon="6.23487">
        <ele>230</ele>
        <time>2018-10-17T12:30:20Z</time>
      </trkpt>
      <trkpt lat="47.68397" lon="6.23487">
        <ele>230</ele>
        <time>2018-10-17T12:30:21Z</time>
      </trkpt>
      <trkpt lat="47.68393" lon="6.23487">
        <ele>230</ele>
        <time>2018-10-17T12:30:22Z</time>
      </trkpt>
      <trkpt lat="47.68388" lon="6.23486">
        <ele>230</ele>
        <time>2018-10-17T12:30:23Z</time>
      </trkpt>
      <trkpt lat="47.68383" lon="6.23485">
        <ele>230</ele>
        <time>2018-10-17T12:30:24Z</time>
      </trkpt>
      <trkpt lat="47.68378" lon="6.23484">
        <ele>230</ele>
        <time>2018-10-17T12:30:25Z</time>
      </trkpt>
      <trkpt lat="47.68373" lon="6.23483">
        <ele>230</ele>
        <time>2018-10-17T12:30:26Z</time>
      </trkpt>
      <trkpt lat="47.68368" lon="6.23483">
        <ele>230</ele>
        <time>2018-10-17T12:30:27Z</time>
      </trkpt>
      <trkpt lat="47.68363" lon="6.23483">
        <ele>230</ele>
        <time>2018-10-17T12:30:28Z</time>
      </trkpt>
      <trkpt lat="47.68359" lon="6.23483">
        <ele>230</ele>
        <time>2018-10-17T12:30:29Z</time>
      </trkpt>
      <trkpt lat="47.68354" lon="6.23484">
        <ele>230</ele>
        <time>2018-10-17T12:30:30Z</time>
      </trkpt>
      <trkpt lat="47.68349" lon="6.23484">
        <ele>230</ele>
        <time>2018-10-17T12:30:31Z</time>
      </trkpt>
      <trkpt lat="47.68344" lon="6.23485">
        <ele>230</ele>
        <time>2018-10-17T12:30:32Z</time>
      </trkpt>
      <trkpt lat="47.6834" lon="6.23485">
        <ele>230</ele>
        <time>2018-10-17T12:30:33Z</time>
      </trkpt>
      <trkpt lat="47.68335" lon="6.23486">
        <ele>230</ele>
        <time>2018-10-17T12:30:34Z</time>
      </trkpt>
      <trkpt lat="47.6833" lon="6.23486">
        <ele>232</ele>
        <time>2018-10-17T12:30:35Z</time>
      </trkpt>
      <trkpt lat="47.68325" lon="6.23487">
        <ele>232</ele>
        <time>2018-10-17T12:30:36Z</time>
      </trkpt>
      <trkpt lat="47.68321" lon="6.23488">
        <ele>232</ele>
        <time>2018-10-17T12:30:37Z</time>
      </trkpt>
      <trkpt lat="47.68316" lon="6.23489">
        <ele>233</ele>
        <time>2018-10-17T12:30:38Z</time>
      </trkpt>
      <trkpt lat="47.68311" lon="6.2349">
        <ele>233</ele>
        <time>2018-10-17T12:30:39Z</time>
      </trkpt>
      <trkpt lat="47.68305" lon="6.23491">
        <ele>233</ele>
        <time>2018-10-17T12:30:40Z</time>
      </trkpt>
      <trkpt lat="47.683" lon="6.23492">
        <ele>234</ele>
        <time>2018-10-17T12:30:41Z</time>
      </trkpt>
      <trkpt lat="47.68295" lon="6.23493">
        <ele>234</ele>
        <time>2018-10-17T12:30:42Z</time>
      </trkpt>
      <trkpt lat="47.6829" lon="6.23494">
        <ele>234</ele>
        <time>2018-10-17T12:30:43Z</time>
      </trkpt>
      <trkpt lat="47.68284" lon="6.23496">
        <ele>234</ele>
        <time>2018-10-17T12:30:44Z</time>
      </trkpt>
      <trkpt lat="47.68279" lon="6.23497">
        <ele>234</ele>
        <time>2018-10-17T12:30:45Z</time>
      </trkpt>
      <trkpt lat="47.68275" lon="6.23498">
        <ele>235</ele>
        <time>2018-10-17T12:30:46Z</time>
      </trkpt>
      <trkpt lat="47.6827" lon="6.23499">
        <ele>235</ele>
        <time>2018-10-17T12:30:47Z</time>
      </trkpt>
      <trkpt lat="47.68265" lon="6.235">
        <ele>235</ele>
        <time>2018-10-17T12:30:48Z</time>
      </trkpt>
      <trkpt lat="47.68257" lon="6.23501">
        <ele>234</ele>
        <time>2018-10-17T12:30:50Z</time>
      </trkpt>
      <trkpt lat="47.68249" lon="6.23501">
        <ele>235</ele>
        <time>2018-10-17T12:30:52Z</time>
      </trkpt>
      <trkpt lat="47.68241" lon="6.23499">
        <ele>236</ele>
        <time>2018-10-17T12:30:54Z</time>
      </trkpt>
      <trkpt lat="47.68233" lon="6.23498">
        <ele>237</ele>
        <time>2018-10-17T12:30:56Z</time>
      </trkpt>
      <trkpt lat="47.68225" lon="6.23495">
        <ele>237</ele>
        <time>2018-10-17T12:30:58Z</time>
      </trkpt>
      <trkpt lat="47.68218" lon="6.23494">
        <ele>237</ele>
        <time>2018-10-17T12:31:00Z</time>
      </trkpt>
      <trkpt lat="47.68211" lon="6.23492">
        <ele>238</ele>
        <time>2018-10-17T12:31:02Z</time>
      </trkpt>
      <trkpt lat="47.68204" lon="6.23489">
        <ele>238</ele>
        <time>2018-10-17T12:31:04Z</time>
      </trkpt>
      <trkpt lat="47.68197" lon="6.23486">
        <ele>238</ele>
        <time>2018-10-17T12:31:06Z</time>
      </trkpt>
      <trkpt lat="47.6819" lon="6.23483">
        <ele>238</ele>
        <time>2018-10-17T12:31:08Z</time>
      </trkpt>
      <trkpt lat="47.68183" lon="6.2348">
        <ele>238</ele>
        <time>2018-10-17T12:31:10Z</time>
      </trkpt>
      <trkpt lat="47.68176" lon="6.23478">
        <ele>238</ele>
        <time>2018-10-17T12:31:12Z</time>
      </trkpt>
      <trkpt lat="47.6817" lon="6.23475">
        <ele>238</ele>
        <time>2018-10-17T12:31:14Z</time>
      </trkpt>
      <trkpt lat="47.68163" lon="6.23473">
        <ele>237</ele>
        <time>2018-10-17T12:31:16Z</time>
      </trkpt>
      <trkpt lat="47.68156" lon="6.23471">
        <ele>237</ele>
        <time>2018-10-17T12:31:18Z</time>
      </trkpt>
      <trkpt lat="47.68149" lon="6.23469">
        <ele>237</ele>
        <time>2018-10-17T12:31:20Z</time>
      </trkpt>
      <trkpt lat="47.68142" lon="6.23468">
        <ele>237</ele>
        <time>2018-10-17T12:31:22Z</time>
      </trkpt>
      <trkpt lat="47.68137" lon="6.23466">
        <ele>237</ele>
        <time>2018-10-17T12:31:24Z</time>
      </trkpt>
      <trkpt lat="47.6813" lon="6.23463">
        <ele>237</ele>
        <time>2018-10-17T12:31:26Z</time>
      </trkpt>
      <trkpt lat="47.68123" lon="6.23461">
        <ele>237</ele>
        <time>2018-10-17T12:31:28Z</time>
      </trkpt>
      <trkpt lat="47.68116" lon="6.23457">
        <ele>237</ele>
        <time>2018-10-17T12:31:30Z</time>
      </trkpt>
      <trkpt lat="47.68111" lon="6.23453">
        <ele>237</ele>
        <time>2018-10-17T12:31:32Z</time>
      </trkpt>
      <trkpt lat="47.68104" lon="6.23447">
        <ele>237</ele>
        <time>2018-10-17T12:31:34Z</time>
      </trkpt>
      <trkpt lat="47.68099" lon="6.23441">
        <ele>237</ele>
        <time>2018-10-17T12:31:36Z</time>
      </trkpt>
      <trkpt lat="47.68094" lon="6.23433">
        <ele>237</ele>
        <time>2018-10-17T12:31:38Z</time>
      </trkpt>
      <trkpt lat="47.68089" lon="6.23426">
        <ele>238</ele>
        <time>2018-10-17T12:31:40Z</time>
      </trkpt>
      <trkpt lat="47.68085" lon="6.23418">
        <ele>238</ele>
        <time>2018-10-17T12:31:42Z</time>
      </trkpt>
      <trkpt lat="47.68081" lon="6.23411">
        <ele>238</ele>
        <time>2018-10-17T12:31:44Z</time>
      </trkpt>
      <trkpt lat="47.68077" lon="6.23403">
        <ele>238</ele>
        <time>2018-10-17T12:31:46Z</time>
      </trkpt>
      <trkpt lat="47.68074" lon="6.23394">
        <ele>238</ele>
        <time>2018-10-17T12:31:48Z</time>
      </trkpt>
      <trkpt lat="47.6807" lon="6.23384">
        <ele>239</ele>
        <time>2018-10-17T12:31:50Z</time>
      </trkpt>
      <trkpt lat="47.68067" lon="6.23376">
        <ele>239</ele>
        <time>2018-10-17T12:31:52Z</time>
      </trkpt>
      <trkpt lat="47.68064" lon="6.23368">
        <ele>239</ele>
        <time>2018-10-17T12:31:54Z</time>
      </trkpt>
      <trkpt lat="47.68061" lon="6.2336">
        <ele>240</ele>
        <time>2018-10-17T12:31:56Z</time>
      </trkpt>
      <trkpt lat="47.68057" lon="6.23353">
        <ele>240</ele>
        <time>2018-10-17T12:31:58Z</time>
      </trkpt>
      <trkpt lat="47.68054" lon="6.23344">
        <ele>240</ele>
        <time>2018-10-17T12:32:00Z</time>
      </trkpt>
      <trkpt lat="47.6805" lon="6.23337">
        <ele>240</ele>
        <time>2018-10-17T12:32:02Z</time>
      </trkpt>
      <trkpt lat="47.68047" lon="6.23331">
        <ele>243</ele>
        <time>2018-10-17T12:32:04Z</time>
      </trkpt>
      <trkpt lat="47.68044" lon="6.23324">
        <ele>243</ele>
        <time>2018-10-17T12:32:06Z</time>
      </trkpt>
      <trkpt lat="47.6804" lon="6.23318">
        <ele>243</ele>
        <time>2018-10-17T12:32:08Z</time>
      </trkpt>
      <trkpt lat="47.68036" lon="6.23313">
        <ele>243</ele>
        <time>2018-10-17T12:32:10Z</time>
      </trkpt>
      <trkpt lat="47.68032" lon="6.23307">
        <ele>243</ele>
        <time>2018-10-17T12:32:12Z</time>
      </trkpt>
      <trkpt lat="47.68029" lon="6.233">
        <ele>243</ele>
        <time>2018-10-17T12:32:14Z</time>
      </trkpt>
      <trkpt lat="47.68026" lon="6.23294">
        <ele>243</ele>
        <time>2018-10-17T12:32:16Z</time>
      </trkpt>
      <trkpt lat="47.68024" lon="6.23288">
        <ele>243</ele>
        <time>2018-10-17T12:32:18Z</time>
      </trkpt>
      <trkpt lat="47.68021" lon="6.23281">
        <ele>243</ele>
        <time>2018-10-17T12:32:20Z</time>
      </trkpt>
      <trkpt lat="47.68017" lon="6.23275">
        <ele>243</ele>
        <time>2018-10-17T12:32:22Z</time>
      </trkpt>
      <trkpt lat="47.68014" lon="6.23268">
        <ele>243</ele>
        <time>2018-10-17T12:32:24Z</time>
      </trkpt>
      <trkpt lat="47.68011" lon="6.23261">
        <ele>243</ele>
        <time>2018-10-17T12:32:26Z</time>
      </trkpt>
      <trkpt lat="47.68008" lon="6.23252">
        <ele>243</ele>
        <time>2018-10-17T12:32:28Z</time>
      </trkpt>
      <trkpt lat="47.68006" lon="6.23243">
        <ele>245</ele>
        <time>2018-10-17T12:32:30Z</time>
      </trkpt>
      <trkpt lat="47.68001" lon="6.2323">
        <ele>246</ele>
        <time>2018-10-17T12:32:32Z</time>
      </trkpt>
      <trkpt lat="47.67997" lon="6.23223">
        <ele>241</ele>
        <time>2018-10-17T12:32:34Z</time>
      </trkpt>
      <trkpt lat="47.67993" lon="6.23211">
        <ele>242</ele>
        <time>2018-10-17T12:32:35Z</time>
      </trkpt>
      <trkpt lat="47.6799" lon="6.23205">
        <ele>242</ele>
        <time>2018-10-17T12:32:36Z</time>
      </trkpt>
      <trkpt lat="47.67988" lon="6.23198">
        <ele>242</ele>
        <time>2018-10-17T12:32:37Z</time>
      </trkpt>
      <trkpt lat="47.67985" lon="6.23191">
        <ele>243</ele>
        <time>2018-10-17T12:32:38Z</time>
      </trkpt>
      <trkpt lat="47.67982" lon="6.23184">
        <ele>243</ele>
        <time>2018-10-17T12:32:39Z</time>
      </trkpt>
      <trkpt lat="47.67979" lon="6.23177">
        <ele>243</ele>
        <time>2018-10-17T12:32:40Z</time>
      </trkpt>
      <trkpt lat="47.67976" lon="6.23169">
        <ele>243</ele>
        <time>2018-10-17T12:32:41Z</time>
      </trkpt>
      <trkpt lat="47.67973" lon="6.23162">
        <ele>247</ele>
        <time>2018-10-17T12:32:42Z</time>
      </trkpt>
      <trkpt lat="47.67969" lon="6.23156">
        <ele>247</ele>
        <time>2018-10-17T12:32:43Z</time>
      </trkpt>
      <trkpt lat="47.67966" lon="6.2315">
        <ele>247</ele>
        <time>2018-10-17T12:32:44Z</time>
      </trkpt>
      <trkpt lat="47.67962" lon="6.23145">
        <ele>247</ele>
        <time>2018-10-17T12:32:45Z</time>
      </trkpt>
      <trkpt lat="47.67958" lon="6.2314">
        <ele>247</ele>
        <time>2018-10-17T12:32:46Z</time>
      </trkpt>
      <trkpt lat="47.67953" lon="6.23136">
        <ele>247</ele>
        <time>2018-10-17T12:32:47Z</time>
      </trkpt>
      <trkpt lat="47.67949" lon="6.23132">
        <ele>247</ele>
        <time>2018-10-17T12:32:48Z</time>
      </trkpt>
      <trkpt lat="47.67945" lon="6.23128">
        <ele>247</ele>
        <time>2018-10-17T12:32:49Z</time>
      </trkpt>
      <trkpt lat="47.6794" lon="6.23125">
        <ele>247</ele>
        <time>2018-10-17T12:32:50Z</time>
      </trkpt>
      <trkpt lat="47.67935" lon="6.23123">
        <ele>247</ele>
        <time>2018-10-17T12:32:51Z</time>
      </trkpt>
      <trkpt lat="47.6793" lon="6.23122">
        <ele>247</ele>
        <time>2018-10-17T12:32:52Z</time>
      </trkpt>
      <trkpt lat="47.67925" lon="6.2312">
        <ele>247</ele>
        <time>2018-10-17T12:32:53Z</time>
      </trkpt>
      <trkpt lat="47.6792" lon="6.23119">
        <ele>247</ele>
        <time>2018-10-17T12:32:54Z</time>
      </trkpt>
      <trkpt lat="47.67915" lon="6.23118">
        <ele>244</ele>
        <time>2018-10-17T12:32:55Z</time>
      </trkpt>
      <trkpt lat="47.67911" lon="6.23117">
        <ele>244</ele>
        <time>2018-10-17T12:32:56Z</time>
      </trkpt>
      <trkpt lat="47.67906" lon="6.23115">
        <ele>244</ele>
        <time>2018-10-17T12:32:57Z</time>
      </trkpt>
      <trkpt lat="47.67899" lon="6.23114">
        <ele>244</ele>
        <time>2018-10-17T12:32:59Z</time>
      </trkpt>
      <trkpt lat="47.67891" lon="6.23113">
        <ele>244</ele>
        <time>2018-10-17T12:33:01Z</time>
      </trkpt>
      <trkpt lat="47.67884" lon="6.23111">
        <ele>244</ele>
        <time>2018-10-17T12:33:03Z</time>
      </trkpt>
      <trkpt lat="47.67877" lon="6.2311">
        <ele>244</ele>
        <time>2018-10-17T12:33:05Z</time>
      </trkpt>
      <trkpt lat="47.67871" lon="6.2311">
        <ele>244</ele>
        <time>2018-10-17T12:33:07Z</time>
      </trkpt>
      <trkpt lat="47.67867" lon="6.23109">
        <ele>244</ele>
        <time>2018-10-17T12:33:09Z</time>
      </trkpt>
      <trkpt lat="47.67861" lon="6.23106">
        <ele>244</ele>
        <time>2018-10-17T12:33:13Z</time>
      </trkpt>
      <trkpt lat="47.67855" lon="6.23106">
        <ele>245</ele>
        <time>2018-10-17T12:33:16Z</time>
      </trkpt>
      <trkpt lat="47.67849" lon="6.23105">
        <ele>245</ele>
        <time>2018-10-17T12:33:19Z</time>
      </trkpt>
      <trkpt lat="47.67844" lon="6.23106">
        <ele>245</ele>
        <time>2018-10-17T12:33:21Z</time>
      </trkpt>
      <trkpt lat="47.67839" lon="6.23107">
        <ele>245</ele>
        <time>2018-10-17T12:33:23Z</time>
      </trkpt>
      <trkpt lat="47.67833" lon="6.23108">
        <ele>243</ele>
        <time>2018-10-17T12:33:25Z</time>
      </trkpt>
      <trkpt lat="47.67826" lon="6.23109">
        <ele>242</ele>
        <time>2018-10-17T12:33:27Z</time>
      </trkpt>
      <trkpt lat="47.67818" lon="6.2311">
        <ele>242</ele>
        <time>2018-10-17T12:33:29Z</time>
      </trkpt>
      <trkpt lat="47.6781" lon="6.23111">
        <ele>241</ele>
        <time>2018-10-17T12:33:31Z</time>
      </trkpt>
      <trkpt lat="47.67802" lon="6.23111">
        <ele>241</ele>
        <time>2018-10-17T12:33:33Z</time>
      </trkpt>
      <trkpt lat="47.67796" lon="6.23111">
        <ele>241</ele>
        <time>2018-10-17T12:33:34Z</time>
      </trkpt>
      <trkpt lat="47.67791" lon="6.23111">
        <ele>241</ele>
        <time>2018-10-17T12:33:35Z</time>
      </trkpt>
      <trkpt lat="47.67783" lon="6.2311">
        <ele>240</ele>
        <time>2018-10-17T12:33:36Z</time>
      </trkpt>
      <trkpt lat="47.67778" lon="6.23108">
        <ele>240</ele>
        <time>2018-10-17T12:33:37Z</time>
      </trkpt>
      <trkpt lat="47.67774" lon="6.23105">
        <ele>240</ele>
        <time>2018-10-17T12:33:38Z</time>
      </trkpt>
      <trkpt lat="47.67769" lon="6.23101">
        <ele>240</ele>
        <time>2018-10-17T12:33:39Z</time>
      </trkpt>
      <trkpt lat="47.67765" lon="6.23098">
        <ele>240</ele>
        <time>2018-10-17T12:33:40Z</time>
      </trkpt>
      <trkpt lat="47.6776" lon="6.23094">
        <ele>240</ele>
        <time>2018-10-17T12:33:41Z</time>
      </trkpt>
      <trkpt lat="47.67756" lon="6.2309">
        <ele>241</ele>
        <time>2018-10-17T12:33:42Z</time>
      </trkpt>
      <trkpt lat="47.67751" lon="6.23086">
        <ele>241</ele>
        <time>2018-10-17T12:33:43Z</time>
      </trkpt>
      <trkpt lat="47.67747" lon="6.2308">
        <ele>240</ele>
        <time>2018-10-17T12:33:44Z</time>
      </trkpt>
      <trkpt lat="47.67742" lon="6.23075">
        <ele>239</ele>
        <time>2018-10-17T12:33:45Z</time>
      </trkpt>
      <trkpt lat="47.67738" lon="6.2307">
        <ele>239</ele>
        <time>2018-10-17T12:33:46Z</time>
      </trkpt>
      <trkpt lat="47.67734" lon="6.23064">
        <ele>238</ele>
        <time>2018-10-17T12:33:47Z</time>
      </trkpt>
      <trkpt lat="47.6773" lon="6.23058">
        <ele>238</ele>
        <time>2018-10-17T12:33:48Z</time>
      </trkpt>
      <trkpt lat="47.67725" lon="6.23051">
        <ele>237</ele>
        <time>2018-10-17T12:33:49Z</time>
      </trkpt>
      <trkpt lat="47.67721" lon="6.23045">
        <ele>237</ele>
        <time>2018-10-17T12:33:50Z</time>
      </trkpt>
      <trkpt lat="47.67716" lon="6.23039">
        <ele>237</ele>
        <time>2018-10-17T12:33:51Z</time>
      </trkpt>
      <trkpt lat="47.67712" lon="6.23033">
        <ele>237</ele>
        <time>2018-10-17T12:33:52Z</time>
      </trkpt>
      <trkpt lat="47.67708" lon="6.23026">
        <ele>236</ele>
        <time>2018-10-17T12:33:53Z</time>
      </trkpt>
      <trkpt lat="47.67704" lon="6.23017">
        <ele>236</ele>
        <time>2018-10-17T12:33:54Z</time>
      </trkpt>
      <trkpt lat="47.67702" lon="6.23008">
        <ele>236</ele>
        <time>2018-10-17T12:33:55Z</time>
      </trkpt>
      <trkpt lat="47.677" lon="6.22999">
        <ele>236</ele>
        <time>2018-10-17T12:33:56Z</time>
      </trkpt>
      <trkpt lat="47.67699" lon="6.22989">
        <ele>236</ele>
        <time>2018-10-17T12:33:57Z</time>
      </trkpt>
      <trkpt lat="47.67699" lon="6.2298">
        <ele>236</ele>
        <time>2018-10-17T12:33:58Z</time>
      </trkpt>
      <trkpt lat="47.67698" lon="6.22971">
        <ele>236</ele>
        <time>2018-10-17T12:33:59Z</time>
      </trkpt>
      <trkpt lat="47.67698" lon="6.22963">
        <ele>236</ele>
        <time>2018-10-17T12:34:00Z</time>
      </trkpt>
      <trkpt lat="47.67697" lon="6.22954">
        <ele>236</ele>
        <time>2018-10-17T12:34:01Z</time>
      </trkpt>
      <trkpt lat="47.67697" lon="6.22946">
        <ele>236</ele>
        <time>2018-10-17T12:34:02Z</time>
      </trkpt>
      <trkpt lat="47.67696" lon="6.22938">
        <ele>236</ele>
        <time>2018-10-17T12:34:03Z</time>
      </trkpt>
      <trkpt lat="47.67694" lon="6.2293">
        <ele>236</ele>
        <time>2018-10-17T12:34:04Z</time>
      </trkpt>
      <trkpt lat="47.67692" lon="6.22922">
        <ele>235</ele>
        <time>2018-10-17T12:34:05Z</time>
      </trkpt>
      <trkpt lat="47.67689" lon="6.22915">
        <ele>234</ele>
        <time>2018-10-17T12:34:06Z</time>
      </trkpt>
      <trkpt lat="47.67685" lon="6.22908">
        <ele>234</ele>
        <time>2018-10-17T12:34:07Z</time>
      </trkpt>
      <trkpt lat="47.67682" lon="6.22901">
        <ele>234</ele>
        <time>2018-10-17T12:34:08Z</time>
      </trkpt>
      <trkpt lat="47.67679" lon="6.22895">
        <ele>234</ele>
        <time>2018-10-17T12:34:09Z</time>
      </trkpt>
      <trkpt lat="47.67675" lon="6.22888">
        <ele>234</ele>
        <time>2018-10-17T12:34:10Z</time>
      </trkpt>
      <trkpt lat="47.67671" lon="6.22882">
        <ele>234</ele>
        <time>2018-10-17T12:34:11Z</time>
      </trkpt>
      <trkpt lat="47.67668" lon="6.22875">
        <ele>234</ele>
        <time>2018-10-17T12:34:12Z</time>
      </trkpt>
      <trkpt lat="47.67664" lon="6.22869">
        <ele>228</ele>
        <time>2018-10-17T12:34:13Z</time>
      </trkpt>
      <trkpt lat="47.67661" lon="6.22863">
        <ele>228</ele>
        <time>2018-10-17T12:34:14Z</time>
      </trkpt>
      <trkpt lat="47.67657" lon="6.22857">
        <ele>228</ele>
        <time>2018-10-17T12:34:15Z</time>
      </trkpt>
      <trkpt lat="47.67654" lon="6.22851">
        <ele>228</ele>
        <time>2018-10-17T12:34:16Z</time>
      </trkpt>
      <trkpt lat="47.6765" lon="6.22845">
        <ele>228</ele>
        <time>2018-10-17T12:34:17Z</time>
      </trkpt>
      <trkpt lat="47.67647" lon="6.22839">
        <ele>228</ele>
        <time>2018-10-17T12:34:18Z</time>
      </trkpt>
      <trkpt lat="47.67644" lon="6.22834">
        <ele>228</ele>
        <time>2018-10-17T12:34:19Z</time>
      </trkpt>
      <trkpt lat="47.67641" lon="6.22828">
        <ele>228</ele>
        <time>2018-10-17T12:34:20Z</time>
      </trkpt>
      <trkpt lat="47.67637" lon="6.22822">
        <ele>228</ele>
        <time>2018-10-17T12:34:21Z</time>
      </trkpt>
      <trkpt lat="47.67634" lon="6.22816">
        <ele>228</ele>
        <time>2018-10-17T12:34:22Z</time>
      </trkpt>
      <trkpt lat="47.67631" lon="6.2281">
        <ele>228</ele>
        <time>2018-10-17T12:34:23Z</time>
      </trkpt>
      <trkpt lat="47.67627" lon="6.22804">
        <ele>228</ele>
        <time>2018-10-17T12:34:24Z</time>
      </trkpt>
      <trkpt lat="47.67624" lon="6.22797">
        <ele>228</ele>
        <time>2018-10-17T12:34:25Z</time>
      </trkpt>
      <trkpt lat="47.67622" lon="6.22791">
        <ele>228</ele>
        <time>2018-10-17T12:34:26Z</time>
      </trkpt>
      <trkpt lat="47.67619" lon="6.22785">
        <ele>228</ele>
        <time>2018-10-17T12:34:27Z</time>
      </trkpt>
      <trkpt lat="47.67616" lon="6.22779">
        <ele>228</ele>
        <time>2018-10-17T12:34:28Z</time>
      </trkpt>
      <trkpt lat="47.67613" lon="6.22773">
        <ele>228</ele>
        <time>2018-10-17T12:34:29Z</time>
      </trkpt>
      <trkpt lat="47.6761" lon="6.22767">
        <ele>228</ele>
        <time>2018-10-17T12:34:30Z</time>
      </trkpt>
      <trkpt lat="47.67608" lon="6.22761">
        <ele>228</ele>
        <time>2018-10-17T12:34:31Z</time>
      </trkpt>
      <trkpt lat="47.67605" lon="6.22755">
        <ele>228</ele>
        <time>2018-10-17T12:34:32Z</time>
      </trkpt>
      <trkpt lat="47.67602" lon="6.22749">
        <ele>228</ele>
        <time>2018-10-17T12:34:33Z</time>
      </trkpt>
      <trkpt lat="47.67599" lon="6.22743">
        <ele>228</ele>
        <time>2018-10-17T12:34:34Z</time>
      </trkpt>
      <trkpt lat="47.67596" lon="6.22737">
        <ele>228</ele>
        <time>2018-10-17T12:34:35Z</time>
      </trkpt>
      <trkpt lat="47.67593" lon="6.22732">
        <ele>228</ele>
        <time>2018-10-17T12:34:36Z</time>
      </trkpt>
      <trkpt lat="47.6759" lon="6.22726">
        <ele>228</ele>
        <time>2018-10-17T12:34:37Z</time>
      </trkpt>
      <trkpt lat="47.67587" lon="6.2272">
        <ele>228</ele>
        <time>2018-10-17T12:34:38Z</time>
      </trkpt>
      <trkpt lat="47.67583" lon="6.22715">
        <ele>228</ele>
        <time>2018-10-17T12:34:39Z</time>
      </trkpt>
      <trkpt lat="47.6758" lon="6.2271">
        <ele>228</ele>
        <time>2018-10-17T12:34:40Z</time>
      </trkpt>
      <trkpt lat="47.67576" lon="6.22706">
        <ele>228</ele>
        <time>2018-10-17T12:34:41Z</time>
      </trkpt>
      <trkpt lat="47.67572" lon="6.22701">
        <ele>228</ele>
        <time>2018-10-17T12:34:42Z</time>
      </trkpt>
      <trkpt lat="47.67568" lon="6.22697">
        <ele>228</ele>
        <time>2018-10-17T12:34:43Z</time>
      </trkpt>
      <trkpt lat="47.67565" lon="6.22693">
        <ele>228</ele>
        <time>2018-10-17T12:34:44Z</time>
      </trkpt>
      <trkpt lat="47.67561" lon="6.22689">
        <ele>228</ele>
        <time>2018-10-17T12:34:45Z</time>
      </trkpt>
      <trkpt lat="47.67556" lon="6.22686">
        <ele>228</ele>
        <time>2018-10-17T12:34:46Z</time>
      </trkpt>
      <trkpt lat="47.67552" lon="6.22682">
        <ele>228</ele>
        <time>2018-10-17T12:34:47Z</time>
      </trkpt>
      <trkpt lat="47.67548" lon="6.22679">
        <ele>228</ele>
        <time>2018-10-17T12:34:48Z</time>
      </trkpt>
      <trkpt lat="47.67543" lon="6.22676">
        <ele>228</ele>
        <time>2018-10-17T12:34:49Z</time>
      </trkpt>
      <trkpt lat="47.67539" lon="6.22674">
        <ele>228</ele>
        <time>2018-10-17T12:34:50Z</time>
      </trkpt>
      <trkpt lat="47.67534" lon="6.22671">
        <ele>228</ele>
        <time>2018-10-17T12:34:51Z</time>
      </trkpt>
      <trkpt lat="47.6753" lon="6.22669">
        <ele>228</ele>
        <time>2018-10-17T12:34:52Z</time>
      </trkpt>
      <trkpt lat="47.67525" lon="6.22667">
        <ele>228</ele>
        <time>2018-10-17T12:34:53Z</time>
      </trkpt>
      <trkpt lat="47.6752" lon="6.22665">
        <ele>229</ele>
        <time>2018-10-17T12:34:54Z</time>
      </trkpt>
      <trkpt lat="47.67515" lon="6.22663">
        <ele>229</ele>
        <time>2018-10-17T12:34:55Z</time>
      </trkpt>
      <trkpt lat="47.67509" lon="6.22661">
        <ele>229</ele>
        <time>2018-10-17T12:34:56Z</time>
      </trkpt>
      <trkpt lat="47.67504" lon="6.22658">
        <ele>229</ele>
        <time>2018-10-17T12:34:57Z</time>
      </trkpt>
      <trkpt lat="47.67498" lon="6.22655">
        <ele>228</ele>
        <time>2018-10-17T12:34:58Z</time>
      </trkpt>
      <trkpt lat="47.67493" lon="6.22653">
        <ele>228</ele>
        <time>2018-10-17T12:34:59Z</time>
      </trkpt>
      <trkpt lat="47.67487" lon="6.2265">
        <ele>228</ele>
        <time>2018-10-17T12:35:00Z</time>
      </trkpt>
      <trkpt lat="47.67482" lon="6.22647">
        <ele>228</ele>
        <time>2018-10-17T12:35:01Z</time>
      </trkpt>
      <trkpt lat="47.67476" lon="6.22644">
        <ele>228</ele>
        <time>2018-10-17T12:35:02Z</time>
      </trkpt>
      <trkpt lat="47.67471" lon="6.2264">
        <ele>228</ele>
        <time>2018-10-17T12:35:03Z</time>
      </trkpt>
      <trkpt lat="47.67467" lon="6.22637">
        <ele>228</ele>
        <time>2018-10-17T12:35:04Z</time>
      </trkpt>
      <trkpt lat="47.67462" lon="6.22633">
        <ele>228</ele>
        <time>2018-10-17T12:35:05Z</time>
      </trkpt>
      <trkpt lat="47.67457" lon="6.22629">
        <ele>228</ele>
        <time>2018-10-17T12:35:06Z</time>
      </trkpt>
      <trkpt lat="47.67452" lon="6.22624">
        <ele>228</ele>
        <time>2018-10-17T12:35:07Z</time>
      </trkpt>
      <trkpt lat="47.67448" lon="6.2262">
        <ele>228</ele>
        <time>2018-10-17T12:35:08Z</time>
      </trkpt>
      <trkpt lat="47.67444" lon="6.22616">
        <ele>228</ele>
        <time>2018-10-17T12:35:09Z</time>
      </trkpt>
      <trkpt lat="47.6744" lon="6.22612">
        <ele>228</ele>
        <time>2018-10-17T12:35:10Z</time>
      </trkpt>
      <trkpt lat="47.67436" lon="6.22607">
        <ele>228</ele>
        <time>2018-10-17T12:35:11Z</time>
      </trkpt>
      <trkpt lat="47.67433" lon="6.22603">
        <ele>228</ele>
        <time>2018-10-17T12:35:12Z</time>
      </trkpt>
      <trkpt lat="47.67429" lon="6.22597">
        <ele>228</ele>
        <time>2018-10-17T12:35:13Z</time>
      </trkpt>
      <trkpt lat="47.67425" lon="6.22593">
        <ele>228</ele>
        <time>2018-10-17T12:35:14Z</time>
      </trkpt>
      <trkpt lat="47.67422" lon="6.22588">
        <ele>228</ele>
        <time>2018-10-17T12:35:15Z</time>
      </trkpt>
      <trkpt lat="47.67418" lon="6.22583">
        <ele>228</ele>
        <time>2018-10-17T12:35:16Z</time>
      </trkpt>
      <trkpt lat="47.67415" lon="6.22578">
        <ele>228</ele>
        <time>2018-10-17T12:35:17Z</time>
      </trkpt>
      <trkpt lat="47.67411" lon="6.22573">
        <ele>228</ele>
        <time>2018-10-17T12:35:18Z</time>
      </trkpt>
      <trkpt lat="47.67408" lon="6.22568">
        <ele>228</ele>
        <time>2018-10-17T12:35:19Z</time>
      </trkpt>
      <trkpt lat="47.67402" lon="6.22558">
        <ele>228</ele>
        <time>2018-10-17T12:35:21Z</time>
      </trkpt>
      <trkpt lat="47.67397" lon="6.22549">
        <ele>228</ele>
        <time>2018-10-17T12:35:23Z</time>
      </trkpt>
      <trkpt lat="47.67392" lon="6.22539">
        <ele>228</ele>
        <time>2018-10-17T12:35:25Z</time>
      </trkpt>
      <trkpt lat="47.67388" lon="6.22529">
        <ele>229</ele>
        <time>2018-10-17T12:35:27Z</time>
      </trkpt>
      <trkpt lat="47.67384" lon="6.2252">
        <ele>229</ele>
        <time>2018-10-17T12:35:29Z</time>
      </trkpt>
      <trkpt lat="47.67381" lon="6.22509">
        <ele>229</ele>
        <time>2018-10-17T12:35:31Z</time>
      </trkpt>
      <trkpt lat="47.67376" lon="6.22498">
        <ele>229</ele>
        <time>2018-10-17T12:35:33Z</time>
      </trkpt>
      <trkpt lat="47.67373" lon="6.22492">
        <ele>229</ele>
        <time>2018-10-17T12:35:34Z</time>
      </trkpt>
      <trkpt lat="47.67371" lon="6.22486">
        <ele>229</ele>
        <time>2018-10-17T12:35:35Z</time>
      </trkpt>
      <trkpt lat="47.67368" lon="6.22479">
        <ele>229</ele>
        <time>2018-10-17T12:35:36Z</time>
      </trkpt>
      <trkpt lat="47.67365" lon="6.22473">
        <ele>229</ele>
        <time>2018-10-17T12:35:37Z</time>
      </trkpt>
      <trkpt lat="47.67362" lon="6.22467">
        <ele>229</ele>
        <time>2018-10-17T12:35:38Z</time>
      </trkpt>
      <trkpt lat="47.67359" lon="6.22461">
        <ele>229</ele>
        <time>2018-10-17T12:35:39Z</time>
      </trkpt>
      <trkpt lat="47.67356" lon="6.22455">
        <ele>229</ele>
        <time>2018-10-17T12:35:40Z</time>
      </trkpt>
      <trkpt lat="47.67351" lon="6.22445">
        <ele>229</ele>
        <time>2018-10-17T12:35:42Z</time>
      </trkpt>
      <trkpt lat="47.67348" lon="6.2244">
        <ele>229</ele>
        <time>2018-10-17T12:35:43Z</time>
      </trkpt>
      <trkpt lat="47.67345" lon="6.22434">
        <ele>229</ele>
        <time>2018-10-17T12:35:44Z</time>
      </trkpt>
      <trkpt lat="47.67341" lon="6.22428">
        <ele>229</ele>
        <time>2018-10-17T12:35:45Z</time>
      </trkpt>
      <trkpt lat="47.67338" lon="6.22423">
        <ele>229</ele>
        <time>2018-10-17T12:35:46Z</time>
      </trkpt>
      <trkpt lat="47.67335" lon="6.22418">
        <ele>228</ele>
        <time>2018-10-17T12:35:47Z</time>
      </trkpt>
      <trkpt lat="47.67329" lon="6.22407">
        <ele>228</ele>
        <time>2018-10-17T12:35:49Z</time>
      </trkpt>
      <trkpt lat="47.67326" lon="6.22401">
        <ele>228</ele>
        <time>2018-10-17T12:35:50Z</time>
      </trkpt>
      <trkpt lat="47.67323" lon="6.22396">
        <ele>228</ele>
        <time>2018-10-17T12:35:51Z</time>
      </trkpt>
      <trkpt lat="47.67319" lon="6.2239">
        <ele>228</ele>
        <time>2018-10-17T12:35:52Z</time>
      </trkpt>
      <trkpt lat="47.67315" lon="6.22384">
        <ele>228</ele>
        <time>2018-10-17T12:35:53Z</time>
      </trkpt>
      <trkpt lat="47.67311" lon="6.22378">
        <ele>228</ele>
        <time>2018-10-17T12:35:54Z</time>
      </trkpt>
      <trkpt lat="47.67304" lon="6.22369">
        <ele>228</ele>
        <time>2018-10-17T12:35:56Z</time>
      </trkpt>
      <trkpt lat="47.67301" lon="6.22364">
        <ele>228</ele>
        <time>2018-10-17T12:35:57Z</time>
      </trkpt>
      <trkpt lat="47.67297" lon="6.22358">
        <ele>228</ele>
        <time>2018-10-17T12:35:58Z</time>
      </trkpt>
      <trkpt lat="47.67293" lon="6.22353">
        <ele>228</ele>
        <time>2018-10-17T12:35:59Z</time>
      </trkpt>
      <trkpt lat="47.67289" lon="6.22348">
        <ele>228</ele>
        <time>2018-10-17T12:36:00Z</time>
      </trkpt>
      <trkpt lat="47.67284" lon="6.22344">
        <ele>228</ele>
        <time>2018-10-17T12:36:01Z</time>
      </trkpt>
      <trkpt lat="47.67279" lon="6.2234">
        <ele>229</ele>
        <time>2018-10-17T12:36:02Z</time>
      </trkpt>
      <trkpt lat="47.67275" lon="6.22337">
        <ele>229</ele>
        <time>2018-10-17T12:36:03Z</time>
      </trkpt>
      <trkpt lat="47.6727" lon="6.22334">
        <ele>229</ele>
        <time>2018-10-17T12:36:04Z</time>
      </trkpt>
      <trkpt lat="47.67266" lon="6.22331">
        <ele>230</ele>
        <time>2018-10-17T12:36:05Z</time>
      </trkpt>
      <trkpt lat="47.67261" lon="6.22329">
        <ele>230</ele>
        <time>2018-10-17T12:36:06Z</time>
      </trkpt>
      <trkpt lat="47.67253" lon="6.22324">
        <ele>230</ele>
        <time>2018-10-17T12:36:08Z</time>
      </trkpt>
      <trkpt lat="47.67246" lon="6.2232">
        <ele>230</ele>
        <time>2018-10-17T12:36:10Z</time>
      </trkpt>
      <trkpt lat="47.67239" lon="6.22316">
        <ele>230</ele>
        <time>2018-10-17T12:36:12Z</time>
      </trkpt>
      <trkpt lat="47.67232" lon="6.22312">
        <ele>230</ele>
        <time>2018-10-17T12:36:14Z</time>
      </trkpt>
      <trkpt lat="47.67224" lon="6.22309">
        <ele>230</ele>
        <time>2018-10-17T12:36:16Z</time>
      </trkpt>
      <trkpt lat="47.67216" lon="6.22304">
        <ele>230</ele>
        <time>2018-10-17T12:36:18Z</time>
      </trkpt>
      <trkpt lat="47.67208" lon="6.223">
        <ele>230</ele>
        <time>2018-10-17T12:36:20Z</time>
      </trkpt>
      <trkpt lat="47.67203" lon="6.22298">
        <ele>230</ele>
        <time>2018-10-17T12:36:21Z</time>
      </trkpt>
      <trkpt lat="47.67199" lon="6.22297">
        <ele>230</ele>
        <time>2018-10-17T12:36:22Z</time>
      </trkpt>
      <trkpt lat="47.6719" lon="6.22293">
        <ele>230</ele>
        <time>2018-10-17T12:36:24Z</time>
      </trkpt>
      <trkpt lat="47.67185" lon="6.22291">
        <ele>230</ele>
        <time>2018-10-17T12:36:25Z</time>
      </trkpt>
      <trkpt lat="47.67177" lon="6.22287">
        <ele>230</ele>
        <time>2018-10-17T12:36:27Z</time>
      </trkpt>
      <trkpt lat="47.6717" lon="6.22284">
        <ele>230</ele>
        <time>2018-10-17T12:36:29Z</time>
      </trkpt>
      <trkpt lat="47.67163" lon="6.2228">
        <ele>229</ele>
        <time>2018-10-17T12:36:31Z</time>
      </trkpt>
      <trkpt lat="47.67156" lon="6.22276">
        <ele>229</ele>
        <time>2018-10-17T12:36:33Z</time>
      </trkpt>
      <trkpt lat="47.67151" lon="6.22273">
        <ele>229</ele>
        <time>2018-10-17T12:36:35Z</time>
      </trkpt>
      <trkpt lat="47.67144" lon="6.22268">
        <ele>229</ele>
        <time>2018-10-17T12:36:37Z</time>
      </trkpt>
      <trkpt lat="47.67138" lon="6.22264">
        <ele>229</ele>
        <time>2018-10-17T12:36:39Z</time>
      </trkpt>
      <trkpt lat="47.67131" lon="6.22258">
        <ele>229</ele>
        <time>2018-10-17T12:36:41Z</time>
      </trkpt>
      <trkpt lat="47.67125" lon="6.22251">
        <ele>229</ele>
        <time>2018-10-17T12:36:43Z</time>
      </trkpt>
      <trkpt lat="47.67118" lon="6.22245">
        <ele>232</ele>
        <time>2018-10-17T12:36:45Z</time>
      </trkpt>
      <trkpt lat="47.67112" lon="6.22237">
        <ele>232</ele>
        <time>2018-10-17T12:36:47Z</time>
      </trkpt>
      <trkpt lat="47.67104" lon="6.22228">
        <ele>232</ele>
        <time>2018-10-17T12:36:49Z</time>
      </trkpt>
      <trkpt lat="47.67101" lon="6.22224">
        <ele>232</ele>
        <time>2018-10-17T12:36:50Z</time>
      </trkpt>
      <trkpt lat="47.67097" lon="6.22219">
        <ele>232</ele>
        <time>2018-10-17T12:36:51Z</time>
      </trkpt>
      <trkpt lat="47.67093" lon="6.22214">
        <ele>232</ele>
        <time>2018-10-17T12:36:52Z</time>
      </trkpt>
      <trkpt lat="47.67086" lon="6.22206">
        <ele>232</ele>
        <time>2018-10-17T12:36:54Z</time>
      </trkpt>
      <trkpt lat="47.67082" lon="6.22202">
        <ele>230</ele>
        <time>2018-10-17T12:36:55Z</time>
      </trkpt>
      <trkpt lat="47.67075" lon="6.22193">
        <ele>230</ele>
        <time>2018-10-17T12:36:57Z</time>
      </trkpt>
      <trkpt lat="47.6707" lon="6.22186">
        <ele>230</ele>
        <time>2018-10-17T12:36:59Z</time>
      </trkpt>
      <trkpt lat="47.67066" lon="6.22179">
        <ele>231</ele>
        <time>2018-10-17T12:37:01Z</time>
      </trkpt>
      <trkpt lat="47.67061" lon="6.22171">
        <ele>230</ele>
        <time>2018-10-17T12:37:03Z</time>
      </trkpt>
      <trkpt lat="47.67056" lon="6.22162">
        <ele>232</ele>
        <time>2018-10-17T12:37:05Z</time>
      </trkpt>
      <trkpt lat="47.6705" lon="6.22152">
        <ele>232</ele>
        <time>2018-10-17T12:37:07Z</time>
      </trkpt>
      <trkpt lat="47.67046" lon="6.22143">
        <ele>232</ele>
        <time>2018-10-17T12:37:09Z</time>
      </trkpt>
      <trkpt lat="47.67042" lon="6.22133">
        <ele>232</ele>
        <time>2018-10-17T12:37:11Z</time>
      </trkpt>
      <trkpt lat="47.67038" lon="6.22123">
        <ele>232</ele>
        <time>2018-10-17T12:37:13Z</time>
      </trkpt>
      <trkpt lat="47.67033" lon="6.22114">
        <ele>232</ele>
        <time>2018-10-17T12:37:15Z</time>
      </trkpt>
      <trkpt lat="47.67029" lon="6.22104">
        <ele>231</ele>
        <time>2018-10-17T12:37:17Z</time>
      </trkpt>
      <trkpt lat="47.67025" lon="6.22095">
        <ele>231</ele>
        <time>2018-10-17T12:37:19Z</time>
      </trkpt>
      <trkpt lat="47.67021" lon="6.22085">
        <ele>231</ele>
        <time>2018-10-17T12:37:21Z</time>
      </trkpt>
      <trkpt lat="47.67017" lon="6.22076">
        <ele>233</ele>
        <time>2018-10-17T12:37:23Z</time>
      </trkpt>
      <trkpt lat="47.67013" lon="6.22065">
        <ele>234</ele>
        <time>2018-10-17T12:37:25Z</time>
      </trkpt>
      <trkpt lat="47.6701" lon="6.22056">
        <ele>234</ele>
        <time>2018-10-17T12:37:27Z</time>
      </trkpt>
      <trkpt lat="47.67006" lon="6.22046">
        <ele>235</ele>
        <time>2018-10-17T12:37:29Z</time>
      </trkpt>
      <trkpt lat="47.67003" lon="6.22038">
        <ele>235</ele>
        <time>2018-10-17T12:37:31Z</time>
      </trkpt>
      <trkpt lat="47.66999" lon="6.2203">
        <ele>232</ele>
        <time>2018-10-17T12:37:33Z</time>
      </trkpt>
      <trkpt lat="47.66997" lon="6.22023">
        <ele>232</ele>
        <time>2018-10-17T12:37:35Z</time>
      </trkpt>
      <trkpt lat="47.66994" lon="6.22017">
        <ele>232</ele>
        <time>2018-10-17T12:37:37Z</time>
      </trkpt>
      <trkpt lat="47.6699" lon="6.22011">
        <ele>233</ele>
        <time>2018-10-17T12:37:39Z</time>
      </trkpt>
      <trkpt lat="47.66986" lon="6.22005">
        <ele>233</ele>
        <time>2018-10-17T12:37:41Z</time>
      </trkpt>
      <trkpt lat="47.6698" lon="6.21998">
        <ele>233</ele>
        <time>2018-10-17T12:37:43Z</time>
      </trkpt>
      <trkpt lat="47.6697" lon="6.21988">
        <ele>233</ele>
        <time>2018-10-17T12:37:45Z</time>
      </trkpt>
      <trkpt lat="47.66966" lon="6.21984">
        <ele>233</ele>
        <time>2018-10-17T12:37:46Z</time>
      </trkpt>
      <trkpt lat="47.66961" lon="6.21981">
        <ele>232</ele>
        <time>2018-10-17T12:37:47Z</time>
      </trkpt>
      <trkpt lat="47.66957" lon="6.21976">
        <ele>232</ele>
        <time>2018-10-17T12:37:48Z</time>
      </trkpt>
      <trkpt lat="47.66952" lon="6.21972">
        <ele>232</ele>
        <time>2018-10-17T12:37:49Z</time>
      </trkpt>
      <trkpt lat="47.66947" lon="6.21968">
        <ele>232</ele>
        <time>2018-10-17T12:37:50Z</time>
      </trkpt>
      <trkpt lat="47.66942" lon="6.21963">
        <ele>232</ele>
        <time>2018-10-17T12:37:51Z</time>
      </trkpt>
      <trkpt lat="47.66937" lon="6.21958">
        <ele>231</ele>
        <time>2018-10-17T12:37:52Z</time>
      </trkpt>
      <trkpt lat="47.66933" lon="6.21954">
        <ele>231</ele>
        <time>2018-10-17T12:37:53Z</time>
      </trkpt>
      <trkpt lat="47.66928" lon="6.21949">
        <ele>231</ele>
        <time>2018-10-17T12:37:54Z</time>
      </trkpt>
      <trkpt lat="47.66923" lon="6.21944">
        <ele>231</ele>
        <time>2018-10-17T12:37:55Z</time>
      </trkpt>
      <trkpt lat="47.66919" lon="6.21939">
        <ele>231</ele>
        <time>2018-10-17T12:37:56Z</time>
      </trkpt>
      <trkpt lat="47.66914" lon="6.21934">
        <ele>229</ele>
        <time>2018-10-17T12:37:57Z</time>
      </trkpt>
      <trkpt lat="47.6691" lon="6.2193">
        <ele>229</ele>
        <time>2018-10-17T12:37:58Z</time>
      </trkpt>
      <trkpt lat="47.66906" lon="6.21926">
        <ele>229</ele>
        <time>2018-10-17T12:37:59Z</time>
      </trkpt>
      <trkpt lat="47.66902" lon="6.21921">
        <ele>229</ele>
        <time>2018-10-17T12:38:00Z</time>
      </trkpt>
      <trkpt lat="47.66897" lon="6.21916">
        <ele>229</ele>
        <time>2018-10-17T12:38:01Z</time>
      </trkpt>
      <trkpt lat="47.66892" lon="6.2191">
        <ele>229</ele>
        <time>2018-10-17T12:38:02Z</time>
      </trkpt>
      <trkpt lat="47.66888" lon="6.21905">
        <ele>229</ele>
        <time>2018-10-17T12:38:03Z</time>
      </trkpt>
      <trkpt lat="47.66883" lon="6.219">
        <ele>229</ele>
        <time>2018-10-17T12:38:04Z</time>
      </trkpt>
      <trkpt lat="47.66878" lon="6.21895">
        <ele>229</ele>
        <time>2018-10-17T12:38:05Z</time>
      </trkpt>
      <trkpt lat="47.66873" lon="6.2189">
        <ele>229</ele>
        <time>2018-10-17T12:38:06Z</time>
      </trkpt>
      <trkpt lat="47.66869" lon="6.21886">
        <ele>229</ele>
        <time>2018-10-17T12:38:07Z</time>
      </trkpt>
      <trkpt lat="47.66865" lon="6.21881">
        <ele>229</ele>
        <time>2018-10-17T12:38:08Z</time>
      </trkpt>
      <trkpt lat="47.6686" lon="6.21876">
        <ele>229</ele>
        <time>2018-10-17T12:38:09Z</time>
      </trkpt>
      <trkpt lat="47.66856" lon="6.21872">
        <ele>229</ele>
        <time>2018-10-17T12:38:10Z</time>
      </trkpt>
      <trkpt lat="47.66849" lon="6.21865">
        <ele>229</ele>
        <time>2018-10-17T12:38:12Z</time>
      </trkpt>
      <trkpt lat="47.66845" lon="6.21861">
        <ele>229</ele>
        <time>2018-10-17T12:38:13Z</time>
      </trkpt>
      <trkpt lat="47.66839" lon="6.21853">
        <ele>229</ele>
        <time>2018-10-17T12:38:15Z</time>
      </trkpt>
      <trkpt lat="47.66836" lon="6.21848">
        <ele>230</ele>
        <time>2018-10-17T12:38:16Z</time>
      </trkpt>
      <trkpt lat="47.66829" lon="6.2184">
        <ele>230</ele>
        <time>2018-10-17T12:38:18Z</time>
      </trkpt>
      <trkpt lat="47.66823" lon="6.21833">
        <ele>231</ele>
        <time>2018-10-17T12:38:20Z</time>
      </trkpt>
      <trkpt lat="47.66818" lon="6.21828">
        <ele>231</ele>
        <time>2018-10-17T12:38:22Z</time>
      </trkpt>
      <trkpt lat="47.66813" lon="6.21822">
        <ele>231</ele>
        <time>2018-10-17T12:38:24Z</time>
      </trkpt>
      <trkpt lat="47.66808" lon="6.21818">
        <ele>231</ele>
        <time>2018-10-17T12:38:26Z</time>
      </trkpt>
      <trkpt lat="47.66802" lon="6.21815">
        <ele>231</ele>
        <time>2018-10-17T12:38:28Z</time>
      </trkpt>
      <trkpt lat="47.66797" lon="6.21811">
        <ele>232</ele>
        <time>2018-10-17T12:38:30Z</time>
      </trkpt>
      <trkpt lat="47.66793" lon="6.21808">
        <ele>232</ele>
        <time>2018-10-17T12:38:32Z</time>
      </trkpt>
      <trkpt lat="47.66788" lon="6.21805">
        <ele>232</ele>
        <time>2018-10-17T12:38:34Z</time>
      </trkpt>
      <trkpt lat="47.66782" lon="6.21801">
        <ele>232</ele>
        <time>2018-10-17T12:38:36Z</time>
      </trkpt>
      <trkpt lat="47.66776" lon="6.21797">
        <ele>232</ele>
        <time>2018-10-17T12:38:38Z</time>
      </trkpt>
      <trkpt lat="47.66769" lon="6.21792">
        <ele>232</ele>
        <time>2018-10-17T12:38:40Z</time>
      </trkpt>
      <trkpt lat="47.66763" lon="6.21786">
        <ele>232</ele>
        <time>2018-10-17T12:38:41Z</time>
      </trkpt>
      <trkpt lat="47.66755" lon="6.21779">
        <ele>232</ele>
        <time>2018-10-17T12:38:43Z</time>
      </trkpt>
      <trkpt lat="47.66748" lon="6.21771">
        <ele>231</ele>
        <time>2018-10-17T12:38:45Z</time>
      </trkpt>
      <trkpt lat="47.66741" lon="6.21763">
        <ele>231</ele>
        <time>2018-10-17T12:38:47Z</time>
      </trkpt>
      <trkpt lat="47.66734" lon="6.21754">
        <ele>231</ele>
        <time>2018-10-17T12:38:49Z</time>
      </trkpt>
      <trkpt lat="47.66728" lon="6.21745">
        <ele>232</ele>
        <time>2018-10-17T12:38:51Z</time>
      </trkpt>
      <trkpt lat="47.66725" lon="6.2174">
        <ele>232</ele>
        <time>2018-10-17T12:38:52Z</time>
      </trkpt>
      <trkpt lat="47.66722" lon="6.21734">
        <ele>232</ele>
        <time>2018-10-17T12:38:53Z</time>
      </trkpt>
      <trkpt lat="47.66719" lon="6.21728">
        <ele>232</ele>
        <time>2018-10-17T12:38:54Z</time>
      </trkpt>
      <trkpt lat="47.66715" lon="6.21722">
        <ele>232</ele>
        <time>2018-10-17T12:38:55Z</time>
      </trkpt>
      <trkpt lat="47.66712" lon="6.21715">
        <ele>232</ele>
        <time>2018-10-17T12:38:56Z</time>
      </trkpt>
      <trkpt lat="47.66709" lon="6.21708">
        <ele>232</ele>
        <time>2018-10-17T12:38:57Z</time>
      </trkpt>
      <trkpt lat="47.66706" lon="6.21702">
        <ele>232</ele>
        <time>2018-10-17T12:38:58Z</time>
      </trkpt>
      <trkpt lat="47.66703" lon="6.21695">
        <ele>232</ele>
        <time>2018-10-17T12:38:59Z</time>
      </trkpt>
      <trkpt lat="47.667" lon="6.21688">
        <ele>232</ele>
        <time>2018-10-17T12:39:00Z</time>
      </trkpt>
      <trkpt lat="47.66696" lon="6.21682">
        <ele>232</ele>
        <time>2018-10-17T12:39:01Z</time>
      </trkpt>
      <trkpt lat="47.66693" lon="6.21676">
        <ele>232</ele>
        <time>2018-10-17T12:39:02Z</time>
      </trkpt>
      <trkpt lat="47.6669" lon="6.21668">
        <ele>231</ele>
        <time>2018-10-17T12:39:03Z</time>
      </trkpt>
      <trkpt lat="47.66687" lon="6.21662">
        <ele>233</ele>
        <time>2018-10-17T12:39:04Z</time>
      </trkpt>
      <trkpt lat="47.66684" lon="6.21655">
        <ele>233</ele>
        <time>2018-10-17T12:39:05Z</time>
      </trkpt>
      <trkpt lat="47.66681" lon="6.21649">
        <ele>234</ele>
        <time>2018-10-17T12:39:06Z</time>
      </trkpt>
      <trkpt lat="47.66679" lon="6.21642">
        <ele>234</ele>
        <time>2018-10-17T12:39:07Z</time>
      </trkpt>
      <trkpt lat="47.66676" lon="6.21636">
        <ele>234</ele>
        <time>2018-10-17T12:39:08Z</time>
      </trkpt>
      <trkpt lat="47.66673" lon="6.21629">
        <ele>234</ele>
        <time>2018-10-17T12:39:09Z</time>
      </trkpt>
      <trkpt lat="47.66671" lon="6.21623">
        <ele>235</ele>
        <time>2018-10-17T12:39:10Z</time>
      </trkpt>
      <trkpt lat="47.66668" lon="6.21616">
        <ele>235</ele>
        <time>2018-10-17T12:39:11Z</time>
      </trkpt>
      <trkpt lat="47.66665" lon="6.2161">
        <ele>230</ele>
        <time>2018-10-17T12:39:12Z</time>
      </trkpt>
      <trkpt lat="47.66662" lon="6.21604">
        <ele>230</ele>
        <time>2018-10-17T12:39:13Z</time>
      </trkpt>
      <trkpt lat="47.6666" lon="6.21597">
        <ele>230</ele>
        <time>2018-10-17T12:39:14Z</time>
      </trkpt>
      <trkpt lat="47.66657" lon="6.21591">
        <ele>231</ele>
        <time>2018-10-17T12:39:15Z</time>
      </trkpt>
      <trkpt lat="47.66655" lon="6.21584">
        <ele>231</ele>
        <time>2018-10-17T12:39:16Z</time>
      </trkpt>
      <trkpt lat="47.66652" lon="6.21577">
        <ele>232</ele>
        <time>2018-10-17T12:39:17Z</time>
      </trkpt>
      <trkpt lat="47.6665" lon="6.21571">
        <ele>231</ele>
        <time>2018-10-17T12:39:18Z</time>
      </trkpt>
      <trkpt lat="47.66647" lon="6.21564">
        <ele>231</ele>
        <time>2018-10-17T12:39:19Z</time>
      </trkpt>
      <trkpt lat="47.66644" lon="6.21557">
        <ele>231</ele>
        <time>2018-10-17T12:39:20Z</time>
      </trkpt>
      <trkpt lat="47.66642" lon="6.21552">
        <ele>231</ele>
        <time>2018-10-17T12:39:21Z</time>
      </trkpt>
      <trkpt lat="47.66639" lon="6.21546">
        <ele>231</ele>
        <time>2018-10-17T12:39:22Z</time>
      </trkpt>
      <trkpt lat="47.66635" lon="6.21534">
        <ele>232</ele>
        <time>2018-10-17T12:39:24Z</time>
      </trkpt>
      <trkpt lat="47.6663" lon="6.21526">
        <ele>231</ele>
        <time>2018-10-17T12:39:26Z</time>
      </trkpt>
      <trkpt lat="47.66626" lon="6.21516">
        <ele>231</ele>
        <time>2018-10-17T12:39:28Z</time>
      </trkpt>
      <trkpt lat="47.66621" lon="6.21505">
        <ele>231</ele>
        <time>2018-10-17T12:39:30Z</time>
      </trkpt>
      <trkpt lat="47.66615" lon="6.21495">
        <ele>232</ele>
        <time>2018-10-17T12:39:32Z</time>
      </trkpt>
      <trkpt lat="47.66612" lon="6.2149">
        <ele>232</ele>
        <time>2018-10-17T12:39:33Z</time>
      </trkpt>
      <trkpt lat="47.66609" lon="6.21485">
        <ele>232</ele>
        <time>2018-10-17T12:39:34Z</time>
      </trkpt>
      <trkpt lat="47.66606" lon="6.21479">
        <ele>232</ele>
        <time>2018-10-17T12:39:35Z</time>
      </trkpt>
      <trkpt lat="47.66603" lon="6.21474">
        <ele>232</ele>
        <time>2018-10-17T12:39:36Z</time>
      </trkpt>
      <trkpt lat="47.66599" lon="6.21468">
        <ele>232</ele>
        <time>2018-10-17T12:39:37Z</time>
      </trkpt>
      <trkpt lat="47.66596" lon="6.21463">
        <ele>232</ele>
        <time>2018-10-17T12:39:38Z</time>
      </trkpt>
      <trkpt lat="47.66592" lon="6.21457">
        <ele>233</ele>
        <time>2018-10-17T12:39:39Z</time>
      </trkpt>
      <trkpt lat="47.66588" lon="6.2145">
        <ele>233</ele>
        <time>2018-10-17T12:39:40Z</time>
      </trkpt>
      <trkpt lat="47.66584" lon="6.21444">
        <ele>232</ele>
        <time>2018-10-17T12:39:41Z</time>
      </trkpt>
      <trkpt lat="47.6658" lon="6.21437">
        <ele>229</ele>
        <time>2018-10-17T12:39:42Z</time>
      </trkpt>
      <trkpt lat="47.66576" lon="6.21431">
        <ele>230</ele>
        <time>2018-10-17T12:39:43Z</time>
      </trkpt>
      <trkpt lat="47.66572" lon="6.21425">
        <ele>230</ele>
        <time>2018-10-17T12:39:44Z</time>
      </trkpt>
      <trkpt lat="47.66569" lon="6.21419">
        <ele>230</ele>
        <time>2018-10-17T12:39:45Z</time>
      </trkpt>
      <trkpt lat="47.66566" lon="6.21414">
        <ele>231</ele>
        <time>2018-10-17T12:39:46Z</time>
      </trkpt>
      <trkpt lat="47.66561" lon="6.21406">
        <ele>231</ele>
        <time>2018-10-17T12:39:48Z</time>
      </trkpt>
      <trkpt lat="47.66556" lon="6.21399">
        <ele>231</ele>
        <time>2018-10-17T12:39:50Z</time>
      </trkpt>
      <trkpt lat="47.66553" lon="6.21393">
        <ele>231</ele>
        <time>2018-10-17T12:39:52Z</time>
      </trkpt>
      <trkpt lat="47.6655" lon="6.21387">
        <ele>231</ele>
        <time>2018-10-17T12:39:54Z</time>
      </trkpt>
      <trkpt lat="47.66547" lon="6.21381">
        <ele>231</ele>
        <time>2018-10-17T12:39:56Z</time>
      </trkpt>
      <trkpt lat="47.66544" lon="6.21374">
        <ele>231</ele>
        <time>2018-10-17T12:39:59Z</time>
      </trkpt>
      <trkpt lat="47.66541" lon="6.21368">
        <ele>231</ele>
        <time>2018-10-17T12:40:01Z</time>
      </trkpt>
      <trkpt lat="47.66537" lon="6.21361">
        <ele>231</ele>
        <time>2018-10-17T12:40:04Z</time>
      </trkpt>
      <trkpt lat="47.66533" lon="6.21353">
        <ele>231</ele>
        <time>2018-10-17T12:40:07Z</time>
      </trkpt>
      <trkpt lat="47.66529" lon="6.21345">
        <ele>231</ele>
        <time>2018-10-17T12:40:10Z</time>
      </trkpt>
      <trkpt lat="47.66527" lon="6.21339">
        <ele>231</ele>
        <time>2018-10-17T12:40:12Z</time>
      </trkpt>
      <trkpt lat="47.66522" lon="6.21332">
        <ele>232</ele>
        <time>2018-10-17T12:40:14Z</time>
      </trkpt>
      <trkpt lat="47.66517" lon="6.21324">
        <ele>232</ele>
        <time>2018-10-17T12:40:16Z</time>
      </trkpt>
      <trkpt lat="47.66512" lon="6.21316">
        <ele>232</ele>
        <time>2018-10-17T12:40:18Z</time>
      </trkpt>
      <trkpt lat="47.66507" lon="6.21307">
        <ele>232</ele>
        <time>2018-10-17T12:40:20Z</time>
      </trkpt>
      <trkpt lat="47.66501" lon="6.21297">
        <ele>232</ele>
        <time>2018-10-17T12:40:22Z</time>
      </trkpt>
      <trkpt lat="47.66495" lon="6.21286">
        <ele>230</ele>
        <time>2018-10-17T12:40:23Z</time>
      </trkpt>
      <trkpt lat="47.66492" lon="6.2128">
        <ele>230</ele>
        <time>2018-10-17T12:40:24Z</time>
      </trkpt>
      <trkpt lat="47.66489" lon="6.21275">
        <ele>230</ele>
        <time>2018-10-17T12:40:25Z</time>
      </trkpt>
      <trkpt lat="47.66486" lon="6.2127">
        <ele>230</ele>
        <time>2018-10-17T12:40:26Z</time>
      </trkpt>
      <trkpt lat="47.66483" lon="6.21264">
        <ele>230</ele>
        <time>2018-10-17T12:40:27Z</time>
      </trkpt>
      <trkpt lat="47.6648" lon="6.21259">
        <ele>230</ele>
        <time>2018-10-17T12:40:28Z</time>
      </trkpt>
      <trkpt lat="47.66477" lon="6.21253">
        <ele>230</ele>
        <time>2018-10-17T12:40:29Z</time>
      </trkpt>
      <trkpt lat="47.66474" lon="6.21247">
        <ele>231</ele>
        <time>2018-10-17T12:40:30Z</time>
      </trkpt>
      <trkpt lat="47.66471" lon="6.21241">
        <ele>231</ele>
        <time>2018-10-17T12:40:31Z</time>
      </trkpt>
      <trkpt lat="47.66468" lon="6.21236">
        <ele>231</ele>
        <time>2018-10-17T12:40:32Z</time>
      </trkpt>
      <trkpt lat="47.66465" lon="6.21229">
        <ele>231</ele>
        <time>2018-10-17T12:40:33Z</time>
      </trkpt>
      <trkpt lat="47.66462" lon="6.21223">
        <ele>231</ele>
        <time>2018-10-17T12:40:34Z</time>
      </trkpt>
      <trkpt lat="47.66459" lon="6.21218">
        <ele>231</ele>
        <time>2018-10-17T12:40:35Z</time>
      </trkpt>
      <trkpt lat="47.66456" lon="6.21212">
        <ele>231</ele>
        <time>2018-10-17T12:40:36Z</time>
      </trkpt>
      <trkpt lat="47.66452" lon="6.21206">
        <ele>231</ele>
        <time>2018-10-17T12:40:37Z</time>
      </trkpt>
      <trkpt lat="47.66449" lon="6.212">
        <ele>231</ele>
        <time>2018-10-17T12:40:38Z</time>
      </trkpt>
      <trkpt lat="47.66446" lon="6.21194">
        <ele>231</ele>
        <time>2018-10-17T12:40:39Z</time>
      </trkpt>
      <trkpt lat="47.66442" lon="6.21189">
        <ele>231</ele>
        <time>2018-10-17T12:40:40Z</time>
      </trkpt>
      <trkpt lat="47.66439" lon="6.21183">
        <ele>231</ele>
        <time>2018-10-17T12:40:41Z</time>
      </trkpt>
      <trkpt lat="47.66434" lon="6.21173">
        <ele>230</ele>
        <time>2018-10-17T12:40:43Z</time>
      </trkpt>
      <trkpt lat="47.66429" lon="6.21165">
        <ele>231</ele>
        <time>2018-10-17T12:40:45Z</time>
      </trkpt>
      <trkpt lat="47.66424" lon="6.21157">
        <ele>232</ele>
        <time>2018-10-17T12:40:47Z</time>
      </trkpt>
      <trkpt lat="47.66419" lon="6.21148">
        <ele>232</ele>
        <time>2018-10-17T12:40:49Z</time>
      </trkpt>
      <trkpt lat="47.66414" lon="6.21141">
        <ele>231</ele>
        <time>2018-10-17T12:40:51Z</time>
      </trkpt>
      <trkpt lat="47.66409" lon="6.21133">
        <ele>231</ele>
        <time>2018-10-17T12:40:53Z</time>
      </trkpt>
      <trkpt lat="47.66404" lon="6.21125">
        <ele>231</ele>
        <time>2018-10-17T12:40:55Z</time>
      </trkpt>
      <trkpt lat="47.66401" lon="6.21115">
        <ele>232</ele>
        <time>2018-10-17T12:40:57Z</time>
      </trkpt>
      <trkpt lat="47.664" lon="6.21104">
        <ele>232</ele>
        <time>2018-10-17T12:40:59Z</time>
      </trkpt>
      <trkpt lat="47.66399" lon="6.21095">
        <ele>233</ele>
        <time>2018-10-17T12:41:02Z</time>
      </trkpt>
      <trkpt lat="47.66399" lon="6.21088">
        <ele>233</ele>
        <time>2018-10-17T12:41:04Z</time>
      </trkpt>
      <trkpt lat="47.66399" lon="6.21081">
        <ele>235</ele>
        <time>2018-10-17T12:41:06Z</time>
      </trkpt>
      <trkpt lat="47.66398" lon="6.21072">
        <ele>235</ele>
        <time>2018-10-17T12:41:08Z</time>
      </trkpt>
      <trkpt lat="47.66398" lon="6.21065">
        <ele>235</ele>
        <time>2018-10-17T12:41:10Z</time>
      </trkpt>
      <trkpt lat="47.66398" lon="6.21057">
        <ele>236</ele>
        <time>2018-10-17T12:41:12Z</time>
      </trkpt>
      <trkpt lat="47.66398" lon="6.2105">
        <ele>236</ele>
        <time>2018-10-17T12:41:14Z</time>
      </trkpt>
      <trkpt lat="47.66398" lon="6.21043">
        <ele>236</ele>
        <time>2018-10-17T12:41:16Z</time>
      </trkpt>
      <trkpt lat="47.66398" lon="6.21033">
        <ele>237</ele>
        <time>2018-10-17T12:41:19Z</time>
      </trkpt>
      <trkpt lat="47.66398" lon="6.21024">
        <ele>237</ele>
        <time>2018-10-17T12:41:22Z</time>
      </trkpt>
      <trkpt lat="47.66398" lon="6.21015">
        <ele>238</ele>
        <time>2018-10-17T12:41:25Z</time>
      </trkpt>
      <trkpt lat="47.66397" lon="6.21007">
        <ele>238</ele>
        <time>2018-10-17T12:41:28Z</time>
      </trkpt>
      <trkpt lat="47.66396" lon="6.20999">
        <ele>240</ele>
        <time>2018-10-17T12:41:31Z</time>
      </trkpt>
      <trkpt lat="47.66395" lon="6.2099">
        <ele>240</ele>
        <time>2018-10-17T12:41:34Z</time>
      </trkpt>
      <trkpt lat="47.66394" lon="6.20982">
        <ele>240</ele>
        <time>2018-10-17T12:41:37Z</time>
      </trkpt>
      <trkpt lat="47.66394" lon="6.20975">
        <ele>240</ele>
        <time>2018-10-17T12:41:40Z</time>
      </trkpt>
      <trkpt lat="47.66395" lon="6.20968">
        <ele>240</ele>
        <time>2018-10-17T12:41:43Z</time>
      </trkpt>
      <trkpt lat="47.66397" lon="6.20961">
        <ele>240</ele>
        <time>2018-10-17T12:41:46Z</time>
      </trkpt>
      <trkpt lat="47.66401" lon="6.20955">
        <ele>241</ele>
        <time>2018-10-17T12:41:50Z</time>
      </trkpt>
      <trkpt lat="47.66403" lon="6.20949">
        <ele>241</ele>
        <time>2018-10-17T12:41:53Z</time>
      </trkpt>
      <trkpt lat="47.66403" lon="6.20941">
        <ele>241</ele>
        <time>2018-10-17T12:41:57Z</time>
      </trkpt>
      <trkpt lat="47.66401" lon="6.20933">
        <ele>242</ele>
        <time>2018-10-17T12:42:00Z</time>
      </trkpt>
      <trkpt lat="47.66398" lon="6.20926">
        <ele>242</ele>
        <time>2018-10-17T12:42:03Z</time>
      </trkpt>
      <trkpt lat="47.66396" lon="6.20919">
        <ele>242</ele>
        <time>2018-10-17T12:42:06Z</time>
      </trkpt>
      <trkpt lat="47.66394" lon="6.2091">
        <ele>243</ele>
        <time>2018-10-17T12:42:09Z</time>
      </trkpt>
      <trkpt lat="47.66393" lon="6.20901">
        <ele>243</ele>
        <time>2018-10-17T12:42:12Z</time>
      </trkpt>
      <trkpt lat="47.66391" lon="6.20892">
        <ele>242</ele>
        <time>2018-10-17T12:42:15Z</time>
      </trkpt>
      <trkpt lat="47.66388" lon="6.20883">
        <ele>242</ele>
        <time>2018-10-17T12:42:18Z</time>
      </trkpt>
      <trkpt lat="47.66385" lon="6.20874">
        <ele>242</ele>
        <time>2018-10-17T12:42:21Z</time>
      </trkpt>
      <trkpt lat="47.66384" lon="6.20867">
        <ele>242</ele>
        <time>2018-10-17T12:42:23Z</time>
      </trkpt>
      <trkpt lat="47.66383" lon="6.2086">
        <ele>242</ele>
        <time>2018-10-17T12:42:25Z</time>
      </trkpt>
      <trkpt lat="47.66383" lon="6.20852">
        <ele>242</ele>
        <time>2018-10-17T12:42:27Z</time>
      </trkpt>
      <trkpt lat="47.66382" lon="6.20844">
        <ele>243</ele>
        <time>2018-10-17T12:42:29Z</time>
      </trkpt>
      <trkpt lat="47.66382" lon="6.20835">
        <ele>243</ele>
        <time>2018-10-17T12:42:31Z</time>
      </trkpt>
      <trkpt lat="47.66381" lon="6.20827">
        <ele>245</ele>
        <time>2018-10-17T12:42:33Z</time>
      </trkpt>
      <trkpt lat="47.66379" lon="6.2082">
        <ele>245</ele>
        <time>2018-10-17T12:42:36Z</time>
      </trkpt>
      <trkpt lat="47.66375" lon="6.20812">
        <ele>245</ele>
        <time>2018-10-17T12:42:39Z</time>
      </trkpt>
      <trkpt lat="47.66371" lon="6.20805">
        <ele>245</ele>
        <time>2018-10-17T12:42:42Z</time>
      </trkpt>
      <trkpt lat="47.66368" lon="6.20799">
        <ele>245</ele>
        <time>2018-10-17T12:42:45Z</time>
      </trkpt>
      <trkpt lat="47.66364" lon="6.20791">
        <ele>245</ele>
        <time>2018-10-17T12:42:48Z</time>
      </trkpt>
      <trkpt lat="47.66362" lon="6.20782">
        <ele>245</ele>
        <time>2018-10-17T12:42:51Z</time>
      </trkpt>
      <trkpt lat="47.66359" lon="6.20774">
        <ele>245</ele>
        <time>2018-10-17T12:42:54Z</time>
      </trkpt>
      <trkpt lat="47.66358" lon="6.20767">
        <ele>246</ele>
        <time>2018-10-17T12:42:56Z</time>
      </trkpt>
      <trkpt lat="47.66356" lon="6.20759">
        <ele>246</ele>
        <time>2018-10-17T12:42:59Z</time>
      </trkpt>
      <trkpt lat="47.66353" lon="6.20753">
        <ele>246</ele>
        <time>2018-10-17T12:43:02Z</time>
      </trkpt>
      <trkpt lat="47.66349" lon="6.20747">
        <ele>248</ele>
        <time>2018-10-17T12:43:06Z</time>
      </trkpt>
      <trkpt lat="47.66344" lon="6.20741">
        <ele>248</ele>
        <time>2018-10-17T12:43:10Z</time>
      </trkpt>
      <trkpt lat="47.6634" lon="6.20737">
        <ele>248</ele>
        <time>2018-10-17T12:43:13Z</time>
      </trkpt>
      <trkpt lat="47.66335" lon="6.20735">
        <ele>248</ele>
        <time>2018-10-17T12:43:17Z</time>
      </trkpt>
      <trkpt lat="47.66329" lon="6.20733">
        <ele>247</ele>
        <time>2018-10-17T12:43:21Z</time>
      </trkpt>
      <trkpt lat="47.66323" lon="6.20731">
        <ele>247</ele>
        <time>2018-10-17T12:43:25Z</time>
      </trkpt>
      <trkpt lat="47.66318" lon="6.20729">
        <ele>248</ele>
        <time>2018-10-17T12:43:29Z</time>
      </trkpt>
      <trkpt lat="47.66312" lon="6.20727">
        <ele>248</ele>
        <time>2018-10-17T12:43:33Z</time>
      </trkpt>
      <trkpt lat="47.66308" lon="6.20726">
        <ele>248</ele>
        <time>2018-10-17T12:43:36Z</time>
      </trkpt>
      <trkpt lat="47.66302" lon="6.20725">
        <ele>248</ele>
        <time>2018-10-17T12:43:40Z</time>
      </trkpt>
      <trkpt lat="47.66296" lon="6.20725">
        <ele>248</ele>
        <time>2018-10-17T12:43:44Z</time>
      </trkpt>
      <trkpt lat="47.66291" lon="6.20723">
        <ele>248</ele>
        <time>2018-10-17T12:43:48Z</time>
      </trkpt>
      <trkpt lat="47.66286" lon="6.20722">
        <ele>248</ele>
        <time>2018-10-17T12:43:52Z</time>
      </trkpt>
      <trkpt lat="47.66281" lon="6.20721">
        <ele>248</ele>
        <time>2018-10-17T12:43:57Z</time>
      </trkpt>
      <trkpt lat="47.66276" lon="6.20719">
        <ele>248</ele>
        <time>2018-10-17T12:44:01Z</time>
      </trkpt>
      <trkpt lat="47.66271" lon="6.20717">
        <ele>248</ele>
        <time>2018-10-17T12:44:05Z</time>
      </trkpt>
      <trkpt lat="47.66267" lon="6.20713">
        <ele>249</ele>
        <time>2018-10-17T12:44:09Z</time>
      </trkpt>
      <trkpt lat="47.66263" lon="6.20709">
        <ele>249</ele>
        <time>2018-10-17T12:44:14Z</time>
      </trkpt>
      <trkpt lat="47.66258" lon="6.20706">
        <ele>249</ele>
        <time>2018-10-17T12:44:19Z</time>
      </trkpt>
      <trkpt lat="47.66255" lon="6.20701">
        <ele>250</ele>
        <time>2018-10-17T12:44:23Z</time>
      </trkpt>
      <trkpt lat="47.66252" lon="6.20696">
        <ele>250</ele>
        <time>2018-10-17T12:44:28Z</time>
      </trkpt>
      <trkpt lat="47.66247" lon="6.20694">
        <ele>251</ele>
        <time>2018-10-17T12:44:32Z</time>
      </trkpt>
      <trkpt lat="47.66242" lon="6.20691">
        <ele>251</ele>
        <time>2018-10-17T12:44:36Z</time>
      </trkpt>
      <trkpt lat="47.66238" lon="6.20688">
        <ele>251</ele>
        <time>2018-10-17T12:44:39Z</time>
      </trkpt>
      <trkpt lat="47.66234" lon="6.20684">
        <ele>252</ele>
        <time>2018-10-17T12:44:43Z</time>
      </trkpt>
      <trkpt lat="47.66231" lon="6.20678">
        <ele>252</ele>
        <time>2018-10-17T12:44:47Z</time>
      </trkpt>
      <trkpt lat="47.66229" lon="6.20672">
        <ele>252</ele>
        <time>2018-10-17T12:44:51Z</time>
      </trkpt>
      <trkpt lat="47.66225" lon="6.20666">
        <ele>259</ele>
        <time>2018-10-17T12:44:57Z</time>
      </trkpt>
      <trkpt lat="47.66221" lon="6.20661">
        <ele>260</ele>
        <time>2018-10-17T12:45:01Z</time>
      </trkpt>
      <trkpt lat="47.66219" lon="6.20654">
        <ele>260</ele>
        <time>2018-10-17T12:45:06Z</time>
      </trkpt>
      <trkpt lat="47.66216" lon="6.20649">
        <ele>261</ele>
        <time>2018-10-17T12:45:10Z</time>
      </trkpt>
      <trkpt lat="47.66212" lon="6.20645">
        <ele>261</ele>
        <time>2018-10-17T12:45:14Z</time>
      </trkpt>
      <trkpt lat="47.66206" lon="6.20643">
        <ele>261</ele>
        <time>2018-10-17T12:45:19Z</time>
      </trkpt>
      <trkpt lat="47.66201" lon="6.2064">
        <ele>262</ele>
        <time>2018-10-17T12:45:24Z</time>
      </trkpt>
      <trkpt lat="47.66198" lon="6.20636">
        <ele>262</ele>
        <time>2018-10-17T12:45:28Z</time>
      </trkpt>
      <trkpt lat="47.66195" lon="6.2063">
        <ele>263</ele>
        <time>2018-10-17T12:45:32Z</time>
      </trkpt>
      <trkpt lat="47.66192" lon="6.20625">
        <ele>263</ele>
        <time>2018-10-17T12:45:36Z</time>
      </trkpt>
      <trkpt lat="47.66187" lon="6.20621">
        <ele>264</ele>
        <time>2018-10-17T12:45:40Z</time>
      </trkpt>
      <trkpt lat="47.66182" lon="6.20618">
        <ele>264</ele>
        <time>2018-10-17T12:45:44Z</time>
      </trkpt>
      <trkpt lat="47.66176" lon="6.20615">
        <ele>264</ele>
        <time>2018-10-17T12:45:48Z</time>
      </trkpt>
      <trkpt lat="47.66171" lon="6.20614">
        <ele>265</ele>
        <time>2018-10-17T12:45:52Z</time>
      </trkpt>
      <trkpt lat="47.66166" lon="6.20612">
        <ele>263</ele>
        <time>2018-10-17T12:45:55Z</time>
      </trkpt>
      <trkpt lat="47.66161" lon="6.20609">
        <ele>264</ele>
        <time>2018-10-17T12:45:58Z</time>
      </trkpt>
      <trkpt lat="47.66155" lon="6.20605">
        <ele>264</ele>
        <time>2018-10-17T12:46:01Z</time>
      </trkpt>
      <trkpt lat="47.66151" lon="6.20602">
        <ele>264</ele>
        <time>2018-10-17T12:46:03Z</time>
      </trkpt>
      <trkpt lat="47.66145" lon="6.20599">
        <ele>264</ele>
        <time>2018-10-17T12:46:05Z</time>
      </trkpt>
      <trkpt lat="47.66138" lon="6.20595">
        <ele>263</ele>
        <time>2018-10-17T12:46:07Z</time>
      </trkpt>
      <trkpt lat="47.66131" lon="6.20591">
        <ele>263</ele>
        <time>2018-10-17T12:46:09Z</time>
      </trkpt>
      <trkpt lat="47.66124" lon="6.20587">
        <ele>262</ele>
        <time>2018-10-17T12:46:11Z</time>
      </trkpt>
      <trkpt lat="47.66116" lon="6.20583">
        <ele>262</ele>
        <time>2018-10-17T12:46:13Z</time>
      </trkpt>
      <trkpt lat="47.66108" lon="6.20579">
        <ele>271</ele>
        <time>2018-10-17T12:46:15Z</time>
      </trkpt>
      <trkpt lat="47.661" lon="6.20574">
        <ele>270</ele>
        <time>2018-10-17T12:46:17Z</time>
      </trkpt>
      <trkpt lat="47.66089" lon="6.20568">
        <ele>269</ele>
        <time>2018-10-17T12:46:19Z</time>
      </trkpt>
      <trkpt lat="47.66082" lon="6.20563">
        <ele>265</ele>
        <time>2018-10-17T12:46:21Z</time>
      </trkpt>
      <trkpt lat="47.66076" lon="6.20559">
        <ele>266</ele>
        <time>2018-10-17T12:46:23Z</time>
      </trkpt>
      <trkpt lat="47.66069" lon="6.20556">
        <ele>266</ele>
        <time>2018-10-17T12:46:25Z</time>
      </trkpt>
      <trkpt lat="47.66063" lon="6.20554">
        <ele>266</ele>
        <time>2018-10-17T12:46:28Z</time>
      </trkpt>
      <trkpt lat="47.66058" lon="6.20551">
        <ele>266</ele>
        <time>2018-10-17T12:46:30Z</time>
      </trkpt>
      <trkpt lat="47.6605" lon="6.20547">
        <ele>266</ele>
        <time>2018-10-17T12:46:32Z</time>
      </trkpt>
      <trkpt lat="47.66037" lon="6.20539">
        <ele>266</ele>
        <time>2018-10-17T12:46:34Z</time>
      </trkpt>
      <trkpt lat="47.6603" lon="6.20534">
        <ele>266</ele>
        <time>2018-10-17T12:46:36Z</time>
      </trkpt>
      <trkpt lat="47.66022" lon="6.2053">
        <ele>266</ele>
        <time>2018-10-17T12:46:38Z</time>
      </trkpt>
      <trkpt lat="47.66016" lon="6.20527">
        <ele>266</ele>
        <time>2018-10-17T12:46:40Z</time>
      </trkpt>
      <trkpt lat="47.6601" lon="6.20525">
        <ele>266</ele>
        <time>2018-10-17T12:46:42Z</time>
      </trkpt>
      <trkpt lat="47.66003" lon="6.20522">
        <ele>266</ele>
        <time>2018-10-17T12:46:44Z</time>
      </trkpt>
      <trkpt lat="47.65999" lon="6.2052">
        <ele>262</ele>
        <time>2018-10-17T12:46:46Z</time>
      </trkpt>
      <trkpt lat="47.65994" lon="6.20518">
        <ele>262</ele>
        <time>2018-10-17T12:46:48Z</time>
      </trkpt>
      <trkpt lat="47.65988" lon="6.20514">
        <ele>262</ele>
        <time>2018-10-17T12:46:50Z</time>
      </trkpt>
      <trkpt lat="47.65984" lon="6.2051">
        <ele>262</ele>
        <time>2018-10-17T12:46:52Z</time>
      </trkpt>
      <trkpt lat="47.65978" lon="6.20507">
        <ele>261</ele>
        <time>2018-10-17T12:46:54Z</time>
      </trkpt>
      <trkpt lat="47.65973" lon="6.20503">
        <ele>261</ele>
        <time>2018-10-17T12:46:56Z</time>
      </trkpt>
      <trkpt lat="47.65968" lon="6.20499">
        <ele>268</ele>
        <time>2018-10-17T12:46:58Z</time>
      </trkpt>
      <trkpt lat="47.65963" lon="6.20496">
        <ele>268</ele>
        <time>2018-10-17T12:47:00Z</time>
      </trkpt>
      <trkpt lat="47.65957" lon="6.20492">
        <ele>268</ele>
        <time>2018-10-17T12:47:02Z</time>
      </trkpt>
      <trkpt lat="47.65951" lon="6.20488">
        <ele>267</ele>
        <time>2018-10-17T12:47:04Z</time>
      </trkpt>
      <trkpt lat="47.65945" lon="6.20485">
        <ele>267</ele>
        <time>2018-10-17T12:47:06Z</time>
      </trkpt>
      <trkpt lat="47.65939" lon="6.20481">
        <ele>267</ele>
        <time>2018-10-17T12:47:08Z</time>
      </trkpt>
      <trkpt lat="47.65932" lon="6.20477">
        <ele>267</ele>
        <time>2018-10-17T12:47:10Z</time>
      </trkpt>
      <trkpt lat="47.65925" lon="6.20471">
        <ele>267</ele>
        <time>2018-10-17T12:47:12Z</time>
      </trkpt>
      <trkpt lat="47.65918" lon="6.20466">
        <ele>267</ele>
        <time>2018-10-17T12:47:14Z</time>
      </trkpt>
      <trkpt lat="47.65912" lon="6.2046">
        <ele>263</ele>
        <time>2018-10-17T12:47:16Z</time>
      </trkpt>
      <trkpt lat="47.65908" lon="6.20456">
        <ele>263</ele>
        <time>2018-10-17T12:47:17Z</time>
      </trkpt>
      <trkpt lat="47.65903" lon="6.20449">
        <ele>263</ele>
        <time>2018-10-17T12:47:19Z</time>
      </trkpt>
      <trkpt lat="47.65899" lon="6.20444">
        <ele>264</ele>
        <time>2018-10-17T12:47:21Z</time>
      </trkpt>
      <trkpt lat="47.65894" lon="6.20439">
        <ele>264</ele>
        <time>2018-10-17T12:47:23Z</time>
      </trkpt>
      <trkpt lat="47.65889" lon="6.20434">
        <ele>264</ele>
        <time>2018-10-17T12:47:25Z</time>
      </trkpt>
      <trkpt lat="47.65884" lon="6.20429">
        <ele>264</ele>
        <time>2018-10-17T12:47:27Z</time>
      </trkpt>
      <trkpt lat="47.65878" lon="6.20423">
        <ele>263</ele>
        <time>2018-10-17T12:47:29Z</time>
      </trkpt>
      <trkpt lat="47.65871" lon="6.20417">
        <ele>263</ele>
        <time>2018-10-17T12:47:31Z</time>
      </trkpt>
      <trkpt lat="47.65862" lon="6.2041">
        <ele>268</ele>
        <time>2018-10-17T12:47:32Z</time>
      </trkpt>
      <trkpt lat="47.65855" lon="6.20403">
        <ele>268</ele>
        <time>2018-10-17T12:47:34Z</time>
      </trkpt>
      <trkpt lat="47.65851" lon="6.20399">
        <ele>268</ele>
        <time>2018-10-17T12:47:35Z</time>
      </trkpt>
      <trkpt lat="47.65846" lon="6.20394">
        <ele>268</ele>
        <time>2018-10-17T12:47:36Z</time>
      </trkpt>
      <trkpt lat="47.65839" lon="6.20387">
        <ele>268</ele>
        <time>2018-10-17T12:47:38Z</time>
      </trkpt>
      <trkpt lat="47.65832" lon="6.2038">
        <ele>263</ele>
        <time>2018-10-17T12:47:40Z</time>
      </trkpt>
      <trkpt lat="47.65826" lon="6.20373">
        <ele>263</ele>
        <time>2018-10-17T12:47:42Z</time>
      </trkpt>
      <trkpt lat="47.65819" lon="6.20366">
        <ele>264</ele>
        <time>2018-10-17T12:47:44Z</time>
      </trkpt>
      <trkpt lat="47.65814" lon="6.2036">
        <ele>264</ele>
        <time>2018-10-17T12:47:46Z</time>
      </trkpt>
      <trkpt lat="47.65808" lon="6.20354">
        <ele>264</ele>
        <time>2018-10-17T12:47:48Z</time>
      </trkpt>
      <trkpt lat="47.65803" lon="6.2035">
        <ele>264</ele>
        <time>2018-10-17T12:47:50Z</time>
      </trkpt>
      <trkpt lat="47.65798" lon="6.20344">
        <ele>264</ele>
        <time>2018-10-17T12:47:53Z</time>
      </trkpt>
      <trkpt lat="47.65792" lon="6.20337">
        <ele>264</ele>
        <time>2018-10-17T12:47:56Z</time>
      </trkpt>
      <trkpt lat="47.65788" lon="6.20333">
        <ele>271</ele>
        <time>2018-10-17T12:47:58Z</time>
      </trkpt>
      <trkpt lat="47.65783" lon="6.20328">
        <ele>271</ele>
        <time>2018-10-17T12:48:00Z</time>
      </trkpt>
      <trkpt lat="47.65779" lon="6.20324">
        <ele>271</ele>
        <time>2018-10-17T12:48:02Z</time>
      </trkpt>
      <trkpt lat="47.65775" lon="6.2032">
        <ele>271</ele>
        <time>2018-10-17T12:48:04Z</time>
      </trkpt>
      <trkpt lat="47.65768" lon="6.20313">
        <ele>271</ele>
        <time>2018-10-17T12:48:07Z</time>
      </trkpt>
      <trkpt lat="47.65764" lon="6.20309">
        <ele>271</ele>
        <time>2018-10-17T12:48:09Z</time>
      </trkpt>
      <trkpt lat="47.6576" lon="6.20304">
        <ele>271</ele>
        <time>2018-10-17T12:48:11Z</time>
      </trkpt>
      <trkpt lat="47.65756" lon="6.203">
        <ele>272</ele>
        <time>2018-10-17T12:48:13Z</time>
      </trkpt>
      <trkpt lat="47.65752" lon="6.20295">
        <ele>272</ele>
        <time>2018-10-17T12:48:15Z</time>
      </trkpt>
      <trkpt lat="47.65749" lon="6.20289">
        <ele>269</ele>
        <time>2018-10-17T12:48:17Z</time>
      </trkpt>
      <trkpt lat="47.65744" lon="6.20283">
        <ele>270</ele>
        <time>2018-10-17T12:48:20Z</time>
      </trkpt>
      <trkpt lat="47.65738" lon="6.20278">
        <ele>270</ele>
        <time>2018-10-17T12:48:23Z</time>
      </trkpt>
      <trkpt lat="47.65735" lon="6.20274">
        <ele>271</ele>
        <time>2018-10-17T12:48:25Z</time>
      </trkpt>
      <trkpt lat="47.65729" lon="6.20269">
        <ele>271</ele>
        <time>2018-10-17T12:48:28Z</time>
      </trkpt>
      <trkpt lat="47.65723" lon="6.20263">
        <ele>271</ele>
        <time>2018-10-17T12:48:31Z</time>
      </trkpt>
      <trkpt lat="47.65718" lon="6.20257">
        <ele>271</ele>
        <time>2018-10-17T12:48:34Z</time>
      </trkpt>
      <trkpt lat="47.65713" lon="6.20252">
        <ele>270</ele>
        <time>2018-10-17T12:48:37Z</time>
      </trkpt>
      <trkpt lat="47.65708" lon="6.20245">
        <ele>276</ele>
        <time>2018-10-17T12:48:40Z</time>
      </trkpt>
      <trkpt lat="47.65704" lon="6.2024">
        <ele>276</ele>
        <time>2018-10-17T12:48:42Z</time>
      </trkpt>
      <trkpt lat="47.65699" lon="6.20235">
        <ele>276</ele>
        <time>2018-10-17T12:48:44Z</time>
      </trkpt>
      <trkpt lat="47.65695" lon="6.20231">
        <ele>275</ele>
        <time>2018-10-17T12:48:46Z</time>
      </trkpt>
      <trkpt lat="47.65691" lon="6.20225">
        <ele>275</ele>
        <time>2018-10-17T12:48:48Z</time>
      </trkpt>
      <trkpt lat="47.65687" lon="6.2022">
        <ele>275</ele>
        <time>2018-10-17T12:48:50Z</time>
      </trkpt>
      <trkpt lat="47.65682" lon="6.20214">
        <ele>275</ele>
        <time>2018-10-17T12:48:52Z</time>
      </trkpt>
      <trkpt lat="47.65678" lon="6.20209">
        <ele>275</ele>
        <time>2018-10-17T12:48:54Z</time>
      </trkpt>
      <trkpt lat="47.65674" lon="6.20204">
        <ele>275</ele>
        <time>2018-10-17T12:48:56Z</time>
      </trkpt>
      <trkpt lat="47.6567" lon="6.20199">
        <ele>275</ele>
        <time>2018-10-17T12:48:58Z</time>
      </trkpt>
      <trkpt lat="47.65666" lon="6.20193">
        <ele>271</ele>
        <time>2018-10-17T12:49:00Z</time>
      </trkpt>
      <trkpt lat="47.65661" lon="6.20188">
        <ele>271</ele>
        <time>2018-10-17T12:49:02Z</time>
      </trkpt>
      <trkpt lat="47.65658" lon="6.20183">
        <ele>271</ele>
        <time>2018-10-17T12:49:04Z</time>
      </trkpt>
      <trkpt lat="47.65654" lon="6.20178">
        <ele>271</ele>
        <time>2018-10-17T12:49:06Z</time>
      </trkpt>
      <trkpt lat="47.6565" lon="6.20171">
        <ele>271</ele>
        <time>2018-10-17T12:49:09Z</time>
      </trkpt>
      <trkpt lat="47.65646" lon="6.20165">
        <ele>274</ele>
        <time>2018-10-17T12:49:11Z</time>
      </trkpt>
      <trkpt lat="47.65643" lon="6.20157">
        <ele>273</ele>
        <time>2018-10-17T12:49:14Z</time>
      </trkpt>
      <trkpt lat="47.6564" lon="6.20151">
        <ele>273</ele>
        <time>2018-10-17T12:49:17Z</time>
      </trkpt>
      <trkpt lat="47.65635" lon="6.20146">
        <ele>273</ele>
        <time>2018-10-17T12:49:20Z</time>
      </trkpt>
      <trkpt lat="47.65628" lon="6.20143">
        <ele>273</ele>
        <time>2018-10-17T12:49:23Z</time>
      </trkpt>
      <trkpt lat="47.65622" lon="6.20138">
        <ele>273</ele>
        <time>2018-10-17T12:49:25Z</time>
      </trkpt>
      <trkpt lat="47.65617" lon="6.20132">
        <ele>273</ele>
        <time>2018-10-17T12:49:27Z</time>
      </trkpt>
      <trkpt lat="47.65611" lon="6.20126">
        <ele>273</ele>
        <time>2018-10-17T12:49:29Z</time>
      </trkpt>
      <trkpt lat="47.65606" lon="6.20121">
        <ele>273</ele>
        <time>2018-10-17T12:49:31Z</time>
      </trkpt>
      <trkpt lat="47.65601" lon="6.20115">
        <ele>273</ele>
        <time>2018-10-17T12:49:33Z</time>
      </trkpt>
      <trkpt lat="47.65596" lon="6.2011">
        <ele>273</ele>
        <time>2018-10-17T12:49:35Z</time>
      </trkpt>
      <trkpt lat="47.6559" lon="6.20104">
        <ele>273</ele>
        <time>2018-10-17T12:49:37Z</time>
      </trkpt>
      <trkpt lat="47.65584" lon="6.20098">
        <ele>273</ele>
        <time>2018-10-17T12:49:39Z</time>
      </trkpt>
      <trkpt lat="47.65577" lon="6.20091">
        <ele>270</ele>
        <time>2018-10-17T12:49:41Z</time>
      </trkpt>
      <trkpt lat="47.65571" lon="6.20085">
        <ele>270</ele>
        <time>2018-10-17T12:49:43Z</time>
      </trkpt>
      <trkpt lat="47.65564" lon="6.20078">
        <ele>271</ele>
        <time>2018-10-17T12:49:45Z</time>
      </trkpt>
      <trkpt lat="47.65558" lon="6.20071">
        <ele>271</ele>
        <time>2018-10-17T12:49:47Z</time>
      </trkpt>
      <trkpt lat="47.65553" lon="6.20065">
        <ele>270</ele>
        <time>2018-10-17T12:49:49Z</time>
      </trkpt>
      <trkpt lat="47.65547" lon="6.20059">
        <ele>270</ele>
        <time>2018-10-17T12:49:50Z</time>
      </trkpt>
      <trkpt lat="47.65543" lon="6.20054">
        <ele>270</ele>
        <time>2018-10-17T12:49:52Z</time>
      </trkpt>
      <trkpt lat="47.65537" lon="6.20047">
        <ele>270</ele>
        <time>2018-10-17T12:49:54Z</time>
      </trkpt>
      <trkpt lat="47.65533" lon="6.20043">
        <ele>270</ele>
        <time>2018-10-17T12:49:55Z</time>
      </trkpt>
      <trkpt lat="47.65527" lon="6.20036">
        <ele>270</ele>
        <time>2018-10-17T12:49:57Z</time>
      </trkpt>
      <trkpt lat="47.65523" lon="6.2003">
        <ele>270</ele>
        <time>2018-10-17T12:49:59Z</time>
      </trkpt>
      <trkpt lat="47.65519" lon="6.20024">
        <ele>270</ele>
        <time>2018-10-17T12:50:01Z</time>
      </trkpt>
      <trkpt lat="47.65514" lon="6.20018">
        <ele>270</ele>
        <time>2018-10-17T12:50:03Z</time>
      </trkpt>
      <trkpt lat="47.65509" lon="6.20012">
        <ele>270</ele>
        <time>2018-10-17T12:50:05Z</time>
      </trkpt>
      <trkpt lat="47.65504" lon="6.20007">
        <ele>269</ele>
        <time>2018-10-17T12:50:07Z</time>
      </trkpt>
      <trkpt lat="47.65499" lon="6.2">
        <ele>269</ele>
        <time>2018-10-17T12:50:09Z</time>
      </trkpt>
      <trkpt lat="47.65495" lon="6.19993">
        <ele>268</ele>
        <time>2018-10-17T12:50:11Z</time>
      </trkpt>
      <trkpt lat="47.65489" lon="6.19984">
        <ele>267</ele>
        <time>2018-10-17T12:50:13Z</time>
      </trkpt>
      <trkpt lat="47.65483" lon="6.19975">
        <ele>266</ele>
        <time>2018-10-17T12:50:15Z</time>
      </trkpt>
      <trkpt lat="47.65477" lon="6.19965">
        <ele>266</ele>
        <time>2018-10-17T12:50:16Z</time>
      </trkpt>
      <trkpt lat="47.65472" lon="6.19956">
        <ele>266</ele>
        <time>2018-10-17T12:50:18Z</time>
      </trkpt>
      <trkpt lat="47.65467" lon="6.19947">
        <ele>266</ele>
        <time>2018-10-17T12:50:20Z</time>
      </trkpt>
      <trkpt lat="47.65464" lon="6.19941">
        <ele>266</ele>
        <time>2018-10-17T12:50:22Z</time>
      </trkpt>
      <trkpt lat="47.65461" lon="6.19933">
        <ele>266</ele>
        <time>2018-10-17T12:50:25Z</time>
      </trkpt>
      <trkpt lat="47.65458" lon="6.19926">
        <ele>266</ele>
        <time>2018-10-17T12:50:27Z</time>
      </trkpt>
      <trkpt lat="47.65455" lon="6.19918">
        <ele>266</ele>
        <time>2018-10-17T12:50:29Z</time>
      </trkpt>
      <trkpt lat="47.65451" lon="6.1991">
        <ele>269</ele>
        <time>2018-10-17T12:50:31Z</time>
      </trkpt>
      <trkpt lat="47.65448" lon="6.19902">
        <ele>270</ele>
        <time>2018-10-17T12:50:33Z</time>
      </trkpt>
      <trkpt lat="47.65446" lon="6.19893">
        <ele>270</ele>
        <time>2018-10-17T12:50:35Z</time>
      </trkpt>
      <trkpt lat="47.65443" lon="6.19885">
        <ele>270</ele>
        <time>2018-10-17T12:50:37Z</time>
      </trkpt>
      <trkpt lat="47.65442" lon="6.19879">
        <ele>270</ele>
        <time>2018-10-17T12:50:39Z</time>
      </trkpt>
      <trkpt lat="47.65439" lon="6.1987">
        <ele>271</ele>
        <time>2018-10-17T12:50:42Z</time>
      </trkpt>
      <trkpt lat="47.65436" lon="6.19862">
        <ele>271</ele>
        <time>2018-10-17T12:50:44Z</time>
      </trkpt>
      <trkpt lat="47.65431" lon="6.19853">
        <ele>271</ele>
        <time>2018-10-17T12:50:46Z</time>
      </trkpt>
      <trkpt lat="47.65427" lon="6.19845">
        <ele>272</ele>
        <time>2018-10-17T12:50:48Z</time>
      </trkpt>
      <trkpt lat="47.65423" lon="6.19838">
        <ele>272</ele>
        <time>2018-10-17T12:50:50Z</time>
      </trkpt>
      <trkpt lat="47.65417" lon="6.19829">
        <ele>273</ele>
        <time>2018-10-17T12:50:52Z</time>
      </trkpt>
      <trkpt lat="47.65411" lon="6.1982">
        <ele>270</ele>
        <time>2018-10-17T12:50:54Z</time>
      </trkpt>
      <trkpt lat="47.65406" lon="6.1981">
        <ele>270</ele>
        <time>2018-10-17T12:50:56Z</time>
      </trkpt>
      <trkpt lat="47.65403" lon="6.19805">
        <ele>270</ele>
        <time>2018-10-17T12:50:57Z</time>
      </trkpt>
      <trkpt lat="47.65399" lon="6.19799">
        <ele>269</ele>
        <time>2018-10-17T12:50:58Z</time>
      </trkpt>
      <trkpt lat="47.65391" lon="6.19785">
        <ele>269</ele>
        <time>2018-10-17T12:51:00Z</time>
      </trkpt>
      <trkpt lat="47.65386" lon="6.19775">
        <ele>269</ele>
        <time>2018-10-17T12:51:02Z</time>
      </trkpt>
      <trkpt lat="47.65383" lon="6.19769">
        <ele>269</ele>
        <time>2018-10-17T12:51:03Z</time>
      </trkpt>
      <trkpt lat="47.65381" lon="6.19764">
        <ele>269</ele>
        <time>2018-10-17T12:51:04Z</time>
      </trkpt>
      <trkpt lat="47.65377" lon="6.19755">
        <ele>269</ele>
        <time>2018-10-17T12:51:06Z</time>
      </trkpt>
      <trkpt lat="47.65374" lon="6.19749">
        <ele>272</ele>
        <time>2018-10-17T12:51:07Z</time>
      </trkpt>
      <trkpt lat="47.6537" lon="6.19742">
        <ele>271</ele>
        <time>2018-10-17T12:51:09Z</time>
      </trkpt>
      <trkpt lat="47.65367" lon="6.19734">
        <ele>271</ele>
        <time>2018-10-17T12:51:11Z</time>
      </trkpt>
      <trkpt lat="47.65363" lon="6.19724">
        <ele>271</ele>
        <time>2018-10-17T12:51:13Z</time>
      </trkpt>
      <trkpt lat="47.65358" lon="6.19712">
        <ele>271</ele>
        <time>2018-10-17T12:51:14Z</time>
      </trkpt>
      <trkpt lat="47.65354" lon="6.19706">
        <ele>272</ele>
        <time>2018-10-17T12:51:15Z</time>
      </trkpt>
      <trkpt lat="47.65349" lon="6.19695">
        <ele>271</ele>
        <time>2018-10-17T12:51:17Z</time>
      </trkpt>
      <trkpt lat="47.65345" lon="6.19686">
        <ele>271</ele>
        <time>2018-10-17T12:51:19Z</time>
      </trkpt>
      <trkpt lat="47.6534" lon="6.19675">
        <ele>271</ele>
        <time>2018-10-17T12:51:21Z</time>
      </trkpt>
      <trkpt lat="47.65336" lon="6.19666">
        <ele>271</ele>
        <time>2018-10-17T12:51:23Z</time>
      </trkpt>
      <trkpt lat="47.65331" lon="6.19656">
        <ele>270</ele>
        <time>2018-10-17T12:51:25Z</time>
      </trkpt>
      <trkpt lat="47.65327" lon="6.19644">
        <ele>270</ele>
        <time>2018-10-17T12:51:27Z</time>
      </trkpt>
      <trkpt lat="47.65324" lon="6.19638">
        <ele>270</ele>
        <time>2018-10-17T12:51:29Z</time>
      </trkpt>
      <trkpt lat="47.65321" lon="6.19629">
        <ele>270</ele>
        <time>2018-10-17T12:51:32Z</time>
      </trkpt>
      <trkpt lat="47.65318" lon="6.19622">
        <ele>270</ele>
        <time>2018-10-17T12:51:34Z</time>
      </trkpt>
      <trkpt lat="47.65315" lon="6.19612">
        <ele>270</ele>
        <time>2018-10-17T12:51:36Z</time>
      </trkpt>
      <trkpt lat="47.65312" lon="6.19603">
        <ele>271</ele>
        <time>2018-10-17T12:51:38Z</time>
      </trkpt>
      <trkpt lat="47.6531" lon="6.19594">
        <ele>271</ele>
        <time>2018-10-17T12:51:40Z</time>
      </trkpt>
      <trkpt lat="47.65308" lon="6.19587">
        <ele>271</ele>
        <time>2018-10-17T12:51:42Z</time>
      </trkpt>
      <trkpt lat="47.65306" lon="6.19578">
        <ele>271</ele>
        <time>2018-10-17T12:51:45Z</time>
      </trkpt>
      <trkpt lat="47.65304" lon="6.19572">
        <ele>271</ele>
        <time>2018-10-17T12:51:48Z</time>
      </trkpt>
      <trkpt lat="47.653" lon="6.19565">
        <ele>271</ele>
        <time>2018-10-17T12:51:51Z</time>
      </trkpt>
      <trkpt lat="47.65297" lon="6.19559">
        <ele>271</ele>
        <time>2018-10-17T12:51:54Z</time>
      </trkpt>
      <trkpt lat="47.65294" lon="6.19553">
        <ele>271</ele>
        <time>2018-10-17T12:51:57Z</time>
      </trkpt>
      <trkpt lat="47.65291" lon="6.19545">
        <ele>271</ele>
        <time>2018-10-17T12:52:00Z</time>
      </trkpt>
      <trkpt lat="47.6529" lon="6.19537">
        <ele>271</ele>
        <time>2018-10-17T12:52:03Z</time>
      </trkpt>
      <trkpt lat="47.65289" lon="6.1953">
        <ele>271</ele>
        <time>2018-10-17T12:52:05Z</time>
      </trkpt>
      <trkpt lat="47.65289" lon="6.19522">
        <ele>271</ele>
        <time>2018-10-17T12:52:07Z</time>
      </trkpt>
      <trkpt lat="47.65288" lon="6.19514">
        <ele>271</ele>
        <time>2018-10-17T12:52:09Z</time>
      </trkpt>
      <trkpt lat="47.65286" lon="6.19507">
        <ele>271</ele>
        <time>2018-10-17T12:52:11Z</time>
      </trkpt>
      <trkpt lat="47.65283" lon="6.195">
        <ele>271</ele>
        <time>2018-10-17T12:52:13Z</time>
      </trkpt>
      <trkpt lat="47.65281" lon="6.19494">
        <ele>271</ele>
        <time>2018-10-17T12:52:15Z</time>
      </trkpt>
      <trkpt lat="47.65278" lon="6.19489">
        <ele>271</ele>
        <time>2018-10-17T12:52:17Z</time>
      </trkpt>
      <trkpt lat="47.65275" lon="6.19483">
        <ele>270</ele>
        <time>2018-10-17T12:52:19Z</time>
      </trkpt>
      <trkpt lat="47.65273" lon="6.19477">
        <ele>270</ele>
        <time>2018-10-17T12:52:21Z</time>
      </trkpt>
      <trkpt lat="47.6527" lon="6.19472">
        <ele>270</ele>
        <time>2018-10-17T12:52:23Z</time>
      </trkpt>
      <trkpt lat="47.65266" lon="6.19466">
        <ele>270</ele>
        <time>2018-10-17T12:52:25Z</time>
      </trkpt>
      <trkpt lat="47.65262" lon="6.19461">
        <ele>270</ele>
        <time>2018-10-17T12:52:27Z</time>
      </trkpt>
      <trkpt lat="47.65258" lon="6.19456">
        <ele>270</ele>
        <time>2018-10-17T12:52:29Z</time>
      </trkpt>
      <trkpt lat="47.65254" lon="6.19451">
        <ele>270</ele>
        <time>2018-10-17T12:52:31Z</time>
      </trkpt>
      <trkpt lat="47.6525" lon="6.19447">
        <ele>267</ele>
        <time>2018-10-17T12:52:33Z</time>
      </trkpt>
      <trkpt lat="47.65245" lon="6.19442">
        <ele>267</ele>
        <time>2018-10-17T12:52:35Z</time>
      </trkpt>
      <trkpt lat="47.65241" lon="6.19436">
        <ele>267</ele>
        <time>2018-10-17T12:52:37Z</time>
      </trkpt>
      <trkpt lat="47.65236" lon="6.19429">
        <ele>267</ele>
        <time>2018-10-17T12:52:39Z</time>
      </trkpt>
      <trkpt lat="47.65231" lon="6.1942">
        <ele>267</ele>
        <time>2018-10-17T12:52:41Z</time>
      </trkpt>
      <trkpt lat="47.65226" lon="6.19411">
        <ele>268</ele>
        <time>2018-10-17T12:52:43Z</time>
      </trkpt>
      <trkpt lat="47.65222" lon="6.19403">
        <ele>268</ele>
        <time>2018-10-17T12:52:45Z</time>
      </trkpt>
      <trkpt lat="47.65218" lon="6.19396">
        <ele>268</ele>
        <time>2018-10-17T12:52:47Z</time>
      </trkpt>
      <trkpt lat="47.65214" lon="6.19389">
        <ele>268</ele>
        <time>2018-10-17T12:52:49Z</time>
      </trkpt>
      <trkpt lat="47.6521" lon="6.19382">
        <ele>268</ele>
        <time>2018-10-17T12:52:51Z</time>
      </trkpt>
      <trkpt lat="47.65206" lon="6.19375">
        <ele>268</ele>
        <time>2018-10-17T12:52:53Z</time>
      </trkpt>
      <trkpt lat="47.65201" lon="6.19365">
        <ele>268</ele>
        <time>2018-10-17T12:52:55Z</time>
      </trkpt>
      <trkpt lat="47.65196" lon="6.19356">
        <ele>268</ele>
        <time>2018-10-17T12:52:57Z</time>
      </trkpt>
      <trkpt lat="47.65192" lon="6.19349">
        <ele>268</ele>
        <time>2018-10-17T12:52:59Z</time>
      </trkpt>
      <trkpt lat="47.65189" lon="6.19342">
        <ele>268</ele>
        <time>2018-10-17T12:53:01Z</time>
      </trkpt>
      <trkpt lat="47.65185" lon="6.19337">
        <ele>268</ele>
        <time>2018-10-17T12:53:03Z</time>
      </trkpt>
      <trkpt lat="47.65182" lon="6.19331">
        <ele>269</ele>
        <time>2018-10-17T12:53:05Z</time>
      </trkpt>
      <trkpt lat="47.65178" lon="6.19324">
        <ele>269</ele>
        <time>2018-10-17T12:53:08Z</time>
      </trkpt>
      <trkpt lat="47.65174" lon="6.1932">
        <ele>269</ele>
        <time>2018-10-17T12:53:10Z</time>
      </trkpt>
      <trkpt lat="47.6517" lon="6.19316">
        <ele>269</ele>
        <time>2018-10-17T12:53:12Z</time>
      </trkpt>
      <trkpt lat="47.65165" lon="6.19312">
        <ele>268</ele>
        <time>2018-10-17T12:53:14Z</time>
      </trkpt>
      <trkpt lat="47.65162" lon="6.19308">
        <ele>268</ele>
        <time>2018-10-17T12:53:16Z</time>
      </trkpt>
      <trkpt lat="47.65157" lon="6.19304">
        <ele>268</ele>
        <time>2018-10-17T12:53:18Z</time>
      </trkpt>
      <trkpt lat="47.65153" lon="6.193">
        <ele>268</ele>
        <time>2018-10-17T12:53:20Z</time>
      </trkpt>
      <trkpt lat="47.65148" lon="6.19294">
        <ele>268</ele>
        <time>2018-10-17T12:53:22Z</time>
      </trkpt>
      <trkpt lat="47.65143" lon="6.19289">
        <ele>268</ele>
        <time>2018-10-17T12:53:24Z</time>
      </trkpt>
      <trkpt lat="47.65138" lon="6.19284">
        <ele>268</ele>
        <time>2018-10-17T12:53:26Z</time>
      </trkpt>
      <trkpt lat="47.65132" lon="6.19276">
        <ele>268</ele>
        <time>2018-10-17T12:53:28Z</time>
      </trkpt>
      <trkpt lat="47.65125" lon="6.19269">
        <ele>268</ele>
        <time>2018-10-17T12:53:30Z</time>
      </trkpt>
      <trkpt lat="47.65119" lon="6.19261">
        <ele>268</ele>
        <time>2018-10-17T12:53:32Z</time>
      </trkpt>
      <trkpt lat="47.65113" lon="6.19253">
        <ele>268</ele>
        <time>2018-10-17T12:53:34Z</time>
      </trkpt>
      <trkpt lat="47.65108" lon="6.19245">
        <ele>268</ele>
        <time>2018-10-17T12:53:36Z</time>
      </trkpt>
      <trkpt lat="47.651" lon="6.19233">
        <ele>268</ele>
        <time>2018-10-17T12:53:38Z</time>
      </trkpt>
      <trkpt lat="47.65093" lon="6.19223">
        <ele>268</ele>
        <time>2018-10-17T12:53:40Z</time>
      </trkpt>
      <trkpt lat="47.6509" lon="6.19219">
        <ele>268</ele>
        <time>2018-10-17T12:53:41Z</time>
      </trkpt>
      <trkpt lat="47.65084" lon="6.19209">
        <ele>268</ele>
        <time>2018-10-17T12:53:43Z</time>
      </trkpt>
      <trkpt lat="47.65081" lon="6.19204">
        <ele>266</ele>
        <time>2018-10-17T12:53:44Z</time>
      </trkpt>
      <trkpt lat="47.65075" lon="6.19195">
        <ele>266</ele>
        <time>2018-10-17T12:53:46Z</time>
      </trkpt>
      <trkpt lat="47.65069" lon="6.19186">
        <ele>266</ele>
        <time>2018-10-17T12:53:48Z</time>
      </trkpt>
      <trkpt lat="47.65063" lon="6.19177">
        <ele>266</ele>
        <time>2018-10-17T12:53:50Z</time>
      </trkpt>
      <trkpt lat="47.65058" lon="6.19169">
        <ele>265</ele>
        <time>2018-10-17T12:53:52Z</time>
      </trkpt>
      <trkpt lat="47.65053" lon="6.1916">
        <ele>266</ele>
        <time>2018-10-17T12:53:54Z</time>
      </trkpt>
      <trkpt lat="47.65048" lon="6.19152">
        <ele>266</ele>
        <time>2018-10-17T12:53:56Z</time>
      </trkpt>
      <trkpt lat="47.65044" lon="6.19147">
        <ele>265</ele>
        <time>2018-10-17T12:53:57Z</time>
      </trkpt>
      <trkpt lat="47.65039" lon="6.19138">
        <ele>265</ele>
        <time>2018-10-17T12:53:59Z</time>
      </trkpt>
      <trkpt lat="47.65035" lon="6.19133">
        <ele>265</ele>
        <time>2018-10-17T12:54:00Z</time>
      </trkpt>
      <trkpt lat="47.65032" lon="6.19127">
        <ele>265</ele>
        <time>2018-10-17T12:54:01Z</time>
      </trkpt>
      <trkpt lat="47.65029" lon="6.19122">
        <ele>265</ele>
        <time>2018-10-17T12:54:02Z</time>
      </trkpt>
      <trkpt lat="47.65026" lon="6.19117">
        <ele>265</ele>
        <time>2018-10-17T12:54:03Z</time>
      </trkpt>
      <trkpt lat="47.65022" lon="6.19112">
        <ele>265</ele>
        <time>2018-10-17T12:54:04Z</time>
      </trkpt>
      <trkpt lat="47.65017" lon="6.19102">
        <ele>265</ele>
        <time>2018-10-17T12:54:06Z</time>
      </trkpt>
      <trkpt lat="47.65013" lon="6.19097">
        <ele>265</ele>
        <time>2018-10-17T12:54:07Z</time>
      </trkpt>
      <trkpt lat="47.6501" lon="6.19092">
        <ele>265</ele>
        <time>2018-10-17T12:54:08Z</time>
      </trkpt>
      <trkpt lat="47.65007" lon="6.19086">
        <ele>264</ele>
        <time>2018-10-17T12:54:09Z</time>
      </trkpt>
      <trkpt lat="47.65001" lon="6.19077">
        <ele>265</ele>
        <time>2018-10-17T12:54:11Z</time>
      </trkpt>
      <trkpt lat="47.64996" lon="6.19068">
        <ele>263</ele>
        <time>2018-10-17T12:54:13Z</time>
      </trkpt>
      <trkpt lat="47.64991" lon="6.19059">
        <ele>263</ele>
        <time>2018-10-17T12:54:15Z</time>
      </trkpt>
      <trkpt lat="47.64987" lon="6.19049">
        <ele>263</ele>
        <time>2018-10-17T12:54:17Z</time>
      </trkpt>
      <trkpt lat="47.64983" lon="6.1904">
        <ele>263</ele>
        <time>2018-10-17T12:54:19Z</time>
      </trkpt>
      <trkpt lat="47.64978" lon="6.19031">
        <ele>263</ele>
        <time>2018-10-17T12:54:21Z</time>
      </trkpt>
      <trkpt lat="47.64974" lon="6.19022">
        <ele>263</ele>
        <time>2018-10-17T12:54:23Z</time>
      </trkpt>
      <trkpt lat="47.6497" lon="6.19013">
        <ele>263</ele>
        <time>2018-10-17T12:54:25Z</time>
      </trkpt>
      <trkpt lat="47.64965" lon="6.19004">
        <ele>262</ele>
        <time>2018-10-17T12:54:27Z</time>
      </trkpt>
      <trkpt lat="47.6496" lon="6.18995">
        <ele>263</ele>
        <time>2018-10-17T12:54:29Z</time>
      </trkpt>
      <trkpt lat="47.64956" lon="6.18986">
        <ele>263</ele>
        <time>2018-10-17T12:54:31Z</time>
      </trkpt>
      <trkpt lat="47.6495" lon="6.18976">
        <ele>263</ele>
        <time>2018-10-17T12:54:33Z</time>
      </trkpt>
      <trkpt lat="47.64945" lon="6.18967">
        <ele>263</ele>
        <time>2018-10-17T12:54:35Z</time>
      </trkpt>
      <trkpt lat="47.64939" lon="6.18957">
        <ele>263</ele>
        <time>2018-10-17T12:54:37Z</time>
      </trkpt>
      <trkpt lat="47.64935" lon="6.18952">
        <ele>263</ele>
        <time>2018-10-17T12:54:38Z</time>
      </trkpt>
      <trkpt lat="47.64929" lon="6.18943">
        <ele>263</ele>
        <time>2018-10-17T12:54:40Z</time>
      </trkpt>
      <trkpt lat="47.64924" lon="6.18935">
        <ele>263</ele>
        <time>2018-10-17T12:54:42Z</time>
      </trkpt>
      <trkpt lat="47.64919" lon="6.18926">
        <ele>262</ele>
        <time>2018-10-17T12:54:44Z</time>
      </trkpt>
      <trkpt lat="47.64913" lon="6.18918">
        <ele>262</ele>
        <time>2018-10-17T12:54:46Z</time>
      </trkpt>
      <trkpt lat="47.64908" lon="6.1891">
        <ele>261</ele>
        <time>2018-10-17T12:54:48Z</time>
      </trkpt>
      <trkpt lat="47.64902" lon="6.18903">
        <ele>261</ele>
        <time>2018-10-17T12:54:50Z</time>
      </trkpt>
      <trkpt lat="47.64897" lon="6.18897">
        <ele>261</ele>
        <time>2018-10-17T12:54:52Z</time>
      </trkpt>
      <trkpt lat="47.64893" lon="6.18891">
        <ele>261</ele>
        <time>2018-10-17T12:54:54Z</time>
      </trkpt>
      <trkpt lat="47.6489" lon="6.18885">
        <ele>261</ele>
        <time>2018-10-17T12:54:56Z</time>
      </trkpt>
      <trkpt lat="47.64888" lon="6.18878">
        <ele>261</ele>
        <time>2018-10-17T12:54:58Z</time>
      </trkpt>
      <trkpt lat="47.64884" lon="6.18872">
        <ele>261</ele>
        <time>2018-10-17T12:55:00Z</time>
      </trkpt>
      <trkpt lat="47.6488" lon="6.18867">
        <ele>261</ele>
        <time>2018-10-17T12:55:02Z</time>
      </trkpt>
      <trkpt lat="47.64874" lon="6.18865">
        <ele>261</ele>
        <time>2018-10-17T12:55:04Z</time>
      </trkpt>
      <trkpt lat="47.64862" lon="6.1887">
        <ele>260</ele>
        <time>2018-10-17T12:55:06Z</time>
      </trkpt>
      <trkpt lat="47.64857" lon="6.18872">
        <ele>260</ele>
        <time>2018-10-17T12:55:07Z</time>
      </trkpt>
      <trkpt lat="47.64851" lon="6.18874">
        <ele>260</ele>
        <time>2018-10-17T12:55:08Z</time>
      </trkpt>
      <trkpt lat="47.64846" lon="6.18877">
        <ele>260</ele>
        <time>2018-10-17T12:55:09Z</time>
      </trkpt>
      <trkpt lat="47.64841" lon="6.18878">
        <ele>260</ele>
        <time>2018-10-17T12:55:10Z</time>
      </trkpt>
      <trkpt lat="47.64836" lon="6.18879">
        <ele>260</ele>
        <time>2018-10-17T12:55:11Z</time>
      </trkpt>
      <trkpt lat="47.6483" lon="6.18878">
        <ele>256</ele>
        <time>2018-10-17T12:55:12Z</time>
      </trkpt>
      <trkpt lat="47.64825" lon="6.18876">
        <ele>256</ele>
        <time>2018-10-17T12:55:13Z</time>
      </trkpt>
      <trkpt lat="47.6482" lon="6.18871">
        <ele>256</ele>
        <time>2018-10-17T12:55:14Z</time>
      </trkpt>
      <trkpt lat="47.64816" lon="6.18865">
        <ele>256</ele>
        <time>2018-10-17T12:55:15Z</time>
      </trkpt>
      <trkpt lat="47.64812" lon="6.18858">
        <ele>256</ele>
        <time>2018-10-17T12:55:16Z</time>
      </trkpt>
      <trkpt lat="47.64809" lon="6.18851">
        <ele>256</ele>
        <time>2018-10-17T12:55:17Z</time>
      </trkpt>
      <trkpt lat="47.64807" lon="6.18844">
        <ele>256</ele>
        <time>2018-10-17T12:55:18Z</time>
      </trkpt>
      <trkpt lat="47.64804" lon="6.18837">
        <ele>256</ele>
        <time>2018-10-17T12:55:19Z</time>
      </trkpt>
      <trkpt lat="47.64802" lon="6.18829">
        <ele>256</ele>
        <time>2018-10-17T12:55:20Z</time>
      </trkpt>
      <trkpt lat="47.64801" lon="6.18823">
        <ele>256</ele>
        <time>2018-10-17T12:55:21Z</time>
      </trkpt>
      <trkpt lat="47.64799" lon="6.18816">
        <ele>256</ele>
        <time>2018-10-17T12:55:22Z</time>
      </trkpt>
      <trkpt lat="47.64796" lon="6.18805">
        <ele>255</ele>
        <time>2018-10-17T12:55:24Z</time>
      </trkpt>
      <trkpt lat="47.64793" lon="6.18794">
        <ele>255</ele>
        <time>2018-10-17T12:55:26Z</time>
      </trkpt>
      <trkpt lat="47.64789" lon="6.18784">
        <ele>255</ele>
        <time>2018-10-17T12:55:28Z</time>
      </trkpt>
      <trkpt lat="47.64785" lon="6.18776">
        <ele>255</ele>
        <time>2018-10-17T12:55:30Z</time>
      </trkpt>
      <trkpt lat="47.64783" lon="6.18769">
        <ele>255</ele>
        <time>2018-10-17T12:55:32Z</time>
      </trkpt>
      <trkpt lat="47.6478" lon="6.18762">
        <ele>255</ele>
        <time>2018-10-17T12:55:34Z</time>
      </trkpt>
      <trkpt lat="47.64776" lon="6.18756">
        <ele>254</ele>
        <time>2018-10-17T12:55:36Z</time>
      </trkpt>
      <trkpt lat="47.64773" lon="6.1875">
        <ele>254</ele>
        <time>2018-10-17T12:55:38Z</time>
      </trkpt>
      <trkpt lat="47.64769" lon="6.18744">
        <ele>254</ele>
        <time>2018-10-17T12:55:40Z</time>
      </trkpt>
      <trkpt lat="47.64766" lon="6.18738">
        <ele>254</ele>
        <time>2018-10-17T12:55:42Z</time>
      </trkpt>
      <trkpt lat="47.64761" lon="6.1873">
        <ele>254</ele>
        <time>2018-10-17T12:55:44Z</time>
      </trkpt>
      <trkpt lat="47.64756" lon="6.1872">
        <ele>254</ele>
        <time>2018-10-17T12:55:46Z</time>
      </trkpt>
      <trkpt lat="47.6475" lon="6.18711">
        <ele>254</ele>
        <time>2018-10-17T12:55:48Z</time>
      </trkpt>
      <trkpt lat="47.64741" lon="6.18696">
        <ele>248</ele>
        <time>2018-10-17T12:55:50Z</time>
      </trkpt>
      <trkpt lat="47.64737" lon="6.18693">
        <ele>248</ele>
        <time>2018-10-17T12:55:51Z</time>
      </trkpt>
      <trkpt lat="47.64729" lon="6.18684">
        <ele>248</ele>
        <time>2018-10-17T12:55:53Z</time>
      </trkpt>
      <trkpt lat="47.64723" lon="6.18676">
        <ele>248</ele>
        <time>2018-10-17T12:55:55Z</time>
      </trkpt>
      <trkpt lat="47.64719" lon="6.18672">
        <ele>247</ele>
        <time>2018-10-17T12:55:56Z</time>
      </trkpt>
      <trkpt lat="47.64715" lon="6.18668">
        <ele>247</ele>
        <time>2018-10-17T12:55:57Z</time>
      </trkpt>
      <trkpt lat="47.6471" lon="6.18661">
        <ele>249</ele>
        <time>2018-10-17T12:55:59Z</time>
      </trkpt>
      <trkpt lat="47.64705" lon="6.18659">
        <ele>248</ele>
        <time>2018-10-17T12:56:01Z</time>
      </trkpt>
      <trkpt lat="47.64694" lon="6.18648">
        <ele>248</ele>
        <time>2018-10-17T12:56:03Z</time>
      </trkpt>
      <trkpt lat="47.64689" lon="6.18641">
        <ele>248</ele>
        <time>2018-10-17T12:56:04Z</time>
      </trkpt>
      <trkpt lat="47.64685" lon="6.18636">
        <ele>248</ele>
        <time>2018-10-17T12:56:05Z</time>
      </trkpt>
      <trkpt lat="47.64678" lon="6.18628">
        <ele>248</ele>
        <time>2018-10-17T12:56:07Z</time>
      </trkpt>
      <trkpt lat="47.64674" lon="6.18624">
        <ele>248</ele>
        <time>2018-10-17T12:56:08Z</time>
      </trkpt>
      <trkpt lat="47.6467" lon="6.1862">
        <ele>248</ele>
        <time>2018-10-17T12:56:09Z</time>
      </trkpt>
      <trkpt lat="47.64665" lon="6.18616">
        <ele>243</ele>
        <time>2018-10-17T12:56:10Z</time>
      </trkpt>
      <trkpt lat="47.64659" lon="6.18611">
        <ele>243</ele>
        <time>2018-10-17T12:56:11Z</time>
      </trkpt>
      <trkpt lat="47.64655" lon="6.18607">
        <ele>244</ele>
        <time>2018-10-17T12:56:12Z</time>
      </trkpt>
      <trkpt lat="47.64649" lon="6.18604">
        <ele>243</ele>
        <time>2018-10-17T12:56:13Z</time>
      </trkpt>
      <trkpt lat="47.64643" lon="6.18603">
        <ele>243</ele>
        <time>2018-10-17T12:56:14Z</time>
      </trkpt>
      <trkpt lat="47.64637" lon="6.186">
        <ele>243</ele>
        <time>2018-10-17T12:56:15Z</time>
      </trkpt>
      <trkpt lat="47.64631" lon="6.18598">
        <ele>243</ele>
        <time>2018-10-17T12:56:16Z</time>
      </trkpt>
      <trkpt lat="47.64625" lon="6.18596">
        <ele>243</ele>
        <time>2018-10-17T12:56:17Z</time>
      </trkpt>
      <trkpt lat="47.64619" lon="6.18593">
        <ele>242</ele>
        <time>2018-10-17T12:56:18Z</time>
      </trkpt>
      <trkpt lat="47.64614" lon="6.18591">
        <ele>242</ele>
        <time>2018-10-17T12:56:19Z</time>
      </trkpt>
      <trkpt lat="47.64609" lon="6.18589">
        <ele>242</ele>
        <time>2018-10-17T12:56:20Z</time>
      </trkpt>
      <trkpt lat="47.64604" lon="6.18587">
        <ele>242</ele>
        <time>2018-10-17T12:56:21Z</time>
      </trkpt>
      <trkpt lat="47.64599" lon="6.18584">
        <ele>242</ele>
        <time>2018-10-17T12:56:22Z</time>
      </trkpt>
      <trkpt lat="47.64594" lon="6.18582">
        <ele>245</ele>
        <time>2018-10-17T12:56:23Z</time>
      </trkpt>
      <trkpt lat="47.64589" lon="6.1858">
        <ele>244</ele>
        <time>2018-10-17T12:56:24Z</time>
      </trkpt>
      <trkpt lat="47.64584" lon="6.18577">
        <ele>244</ele>
        <time>2018-10-17T12:56:25Z</time>
      </trkpt>
      <trkpt lat="47.64579" lon="6.18575">
        <ele>243</ele>
        <time>2018-10-17T12:56:26Z</time>
      </trkpt>
      <trkpt lat="47.64574" lon="6.18572">
        <ele>243</ele>
        <time>2018-10-17T12:56:27Z</time>
      </trkpt>
      <trkpt lat="47.64569" lon="6.1857">
        <ele>243</ele>
        <time>2018-10-17T12:56:28Z</time>
      </trkpt>
      <trkpt lat="47.64564" lon="6.18568">
        <ele>243</ele>
        <time>2018-10-17T12:56:29Z</time>
      </trkpt>
      <trkpt lat="47.64557" lon="6.18562">
        <ele>243</ele>
        <time>2018-10-17T12:56:31Z</time>
      </trkpt>
      <trkpt lat="47.64552" lon="6.1856">
        <ele>243</ele>
        <time>2018-10-17T12:56:32Z</time>
      </trkpt>
      <trkpt lat="47.64544" lon="6.18555">
        <ele>243</ele>
        <time>2018-10-17T12:56:34Z</time>
      </trkpt>
      <trkpt lat="47.64536" lon="6.18552">
        <ele>243</ele>
        <time>2018-10-17T12:56:36Z</time>
      </trkpt>
      <trkpt lat="47.64531" lon="6.1855">
        <ele>243</ele>
        <time>2018-10-17T12:56:37Z</time>
      </trkpt>
      <trkpt lat="47.64527" lon="6.18547">
        <ele>243</ele>
        <time>2018-10-17T12:56:38Z</time>
      </trkpt>
      <trkpt lat="47.64521" lon="6.18544">
        <ele>243</ele>
        <time>2018-10-17T12:56:39Z</time>
      </trkpt>
      <trkpt lat="47.64514" lon="6.18539">
        <ele>243</ele>
        <time>2018-10-17T12:56:40Z</time>
      </trkpt>
      <trkpt lat="47.64508" lon="6.18537">
        <ele>244</ele>
        <time>2018-10-17T12:56:41Z</time>
      </trkpt>
      <trkpt lat="47.64501" lon="6.18534">
        <ele>244</ele>
        <time>2018-10-17T12:56:43Z</time>
      </trkpt>
      <trkpt lat="47.64493" lon="6.18534">
        <ele>239</ele>
        <time>2018-10-17T12:56:45Z</time>
      </trkpt>
      <trkpt lat="47.64485" lon="6.1853">
        <ele>239</ele>
        <time>2018-10-17T12:56:47Z</time>
      </trkpt>
      <trkpt lat="47.64479" lon="6.18524">
        <ele>239</ele>
        <time>2018-10-17T12:56:49Z</time>
      </trkpt>
      <trkpt lat="47.64474" lon="6.1852">
        <ele>239</ele>
        <time>2018-10-17T12:56:51Z</time>
      </trkpt>
      <trkpt lat="47.64469" lon="6.18516">
        <ele>239</ele>
        <time>2018-10-17T12:56:52Z</time>
      </trkpt>
      <trkpt lat="47.64465" lon="6.18512">
        <ele>239</ele>
        <time>2018-10-17T12:56:53Z</time>
      </trkpt>
      <trkpt lat="47.6446" lon="6.18508">
        <ele>239</ele>
        <time>2018-10-17T12:56:54Z</time>
      </trkpt>
      <trkpt lat="47.64456" lon="6.18503">
        <ele>238</ele>
        <time>2018-10-17T12:56:55Z</time>
      </trkpt>
      <trkpt lat="47.6445" lon="6.18495">
        <ele>242</ele>
        <time>2018-10-17T12:56:57Z</time>
      </trkpt>
      <trkpt lat="47.64443" lon="6.18488">
        <ele>241</ele>
        <time>2018-10-17T12:56:59Z</time>
      </trkpt>
      <trkpt lat="47.64439" lon="6.18484">
        <ele>241</ele>
        <time>2018-10-17T12:57:00Z</time>
      </trkpt>
      <trkpt lat="47.64432" lon="6.1848">
        <ele>241</ele>
        <time>2018-10-17T12:57:02Z</time>
      </trkpt>
      <trkpt lat="47.64427" lon="6.18477">
        <ele>241</ele>
        <time>2018-10-17T12:57:04Z</time>
      </trkpt>
      <trkpt lat="47.64422" lon="6.18475">
        <ele>240</ele>
        <time>2018-10-17T12:57:06Z</time>
      </trkpt>
      <trkpt lat="47.64417" lon="6.18474">
        <ele>240</ele>
        <time>2018-10-17T12:57:08Z</time>
      </trkpt>
      <trkpt lat="47.64412" lon="6.18473">
        <ele>233</ele>
        <time>2018-10-17T12:57:10Z</time>
      </trkpt>
      <trkpt lat="47.64407" lon="6.1847">
        <ele>232</ele>
        <time>2018-10-17T12:57:12Z</time>
      </trkpt>
      <trkpt lat="47.64399" lon="6.18468">
        <ele>232</ele>
        <time>2018-10-17T12:57:14Z</time>
      </trkpt>
      <trkpt lat="47.6439" lon="6.18467">
        <ele>231</ele>
        <time>2018-10-17T12:57:16Z</time>
      </trkpt>
      <trkpt lat="47.64384" lon="6.18466">
        <ele>231</ele>
        <time>2018-10-17T12:57:17Z</time>
      </trkpt>
      <trkpt lat="47.64378" lon="6.18465">
        <ele>230</ele>
        <time>2018-10-17T12:57:18Z</time>
      </trkpt>
      <trkpt lat="47.64366" lon="6.18463">
        <ele>229</ele>
        <time>2018-10-17T12:57:19Z</time>
      </trkpt>
      <trkpt lat="47.6436" lon="6.1846">
        <ele>229</ele>
        <time>2018-10-17T12:57:20Z</time>
      </trkpt>
      <trkpt lat="47.64354" lon="6.18457">
        <ele>228</ele>
        <time>2018-10-17T12:57:21Z</time>
      </trkpt>
      <trkpt lat="47.64349" lon="6.18454">
        <ele>228</ele>
        <time>2018-10-17T12:57:22Z</time>
      </trkpt>
      <trkpt lat="47.64343" lon="6.1845">
        <ele>227</ele>
        <time>2018-10-17T12:57:23Z</time>
      </trkpt>
      <trkpt lat="47.64338" lon="6.18444">
        <ele>227</ele>
        <time>2018-10-17T12:57:24Z</time>
      </trkpt>
      <trkpt lat="47.64334" lon="6.18438">
        <ele>226</ele>
        <time>2018-10-17T12:57:25Z</time>
      </trkpt>
      <trkpt lat="47.6433" lon="6.18433">
        <ele>222</ele>
        <time>2018-10-17T12:57:26Z</time>
      </trkpt>
      <trkpt lat="47.64328" lon="6.18422">
        <ele>222</ele>
        <time>2018-10-17T12:57:28Z</time>
      </trkpt>
      <trkpt lat="47.64329" lon="6.18415">
        <ele>222</ele>
        <time>2018-10-17T12:57:29Z</time>
      </trkpt>
      <trkpt lat="47.64334" lon="6.18405">
        <ele>224</ele>
        <time>2018-10-17T12:57:31Z</time>
      </trkpt>
      <trkpt lat="47.64339" lon="6.18395">
        <ele>225</ele>
        <time>2018-10-17T12:57:33Z</time>
      </trkpt>
      <trkpt lat="47.64343" lon="6.18387">
        <ele>225</ele>
        <time>2018-10-17T12:57:35Z</time>
      </trkpt>
      <trkpt lat="47.64347" lon="6.18379">
        <ele>226</ele>
        <time>2018-10-17T12:57:37Z</time>
      </trkpt>
      <trkpt lat="47.64353" lon="6.18372">
        <ele>226</ele>
        <time>2018-10-17T12:57:39Z</time>
      </trkpt>
      <trkpt lat="47.6436" lon="6.18365">
        <ele>226</ele>
        <time>2018-10-17T12:57:41Z</time>
      </trkpt>
      <trkpt lat="47.64368" lon="6.18359">
        <ele>226</ele>
        <time>2018-10-17T12:57:43Z</time>
      </trkpt>
      <trkpt lat="47.64376" lon="6.18354">
        <ele>227</ele>
        <time>2018-10-17T12:57:45Z</time>
      </trkpt>
      <trkpt lat="47.64382" lon="6.18348">
        <ele>227</ele>
        <time>2018-10-17T12:57:47Z</time>
      </trkpt>
      <trkpt lat="47.64386" lon="6.18345">
        <ele>227</ele>
        <time>2018-10-17T12:57:49Z</time>
      </trkpt>
      <trkpt lat="47.64391" lon="6.18341">
        <ele>227</ele>
        <time>2018-10-17T12:57:51Z</time>
      </trkpt>
      <trkpt lat="47.64396" lon="6.18336">
        <ele>227</ele>
        <time>2018-10-17T12:57:53Z</time>
      </trkpt>
      <trkpt lat="47.64401" lon="6.18331">
        <ele>226</ele>
        <time>2018-10-17T12:57:55Z</time>
      </trkpt>
      <trkpt lat="47.64407" lon="6.18325">
        <ele>226</ele>
        <time>2018-10-17T12:57:57Z</time>
      </trkpt>
      <trkpt lat="47.64413" lon="6.18318">
        <ele>226</ele>
        <time>2018-10-17T12:57:59Z</time>
      </trkpt>
      <trkpt lat="47.64417" lon="6.18314">
        <ele>229</ele>
        <time>2018-10-17T12:58:01Z</time>
      </trkpt>
      <trkpt lat="47.64423" lon="6.1831">
        <ele>230</ele>
        <time>2018-10-17T12:58:03Z</time>
      </trkpt>
      <trkpt lat="47.64427" lon="6.18307">
        <ele>230</ele>
        <time>2018-10-17T12:58:05Z</time>
      </trkpt>
      <trkpt lat="47.64432" lon="6.18301">
        <ele>230</ele>
        <time>2018-10-17T12:58:08Z</time>
      </trkpt>
      <trkpt lat="47.64437" lon="6.18297">
        <ele>230</ele>
        <time>2018-10-17T12:58:12Z</time>
      </trkpt>
      <trkpt lat="47.64441" lon="6.18302">
        <ele>230</ele>
        <time>2018-10-17T12:58:17Z</time>
      </trkpt>
      <trkpt lat="47.64439" lon="6.18309">
        <ele>231</ele>
        <time>2018-10-17T12:58:20Z</time>
      </trkpt>
      <trkpt lat="47.64458" lon="6.18335">
        <ele>239</ele>
        <time>2018-10-17T13:53:53Z</time>
      </trkpt>
      <trkpt lat="47.6446" lon="6.18325">
        <ele>233</ele>
        <time>2018-10-17T13:53:54Z</time>
      </trkpt>
      <trkpt lat="47.64455" lon="6.18314">
        <ele>232</ele>
        <time>2018-10-17T13:53:56Z</time>
      </trkpt>
      <trkpt lat="47.6445" lon="6.18313">
        <ele>232</ele>
        <time>2018-10-17T13:53:59Z</time>
      </trkpt>
      <trkpt lat="47.6445" lon="6.1832">
        <ele>232</ele>
        <time>2018-10-17T13:54:11Z</time>
      </trkpt>
      <trkpt lat="47.64449" lon="6.18326">
        <ele>232</ele>
        <time>2018-10-17T13:54:21Z</time>
      </trkpt>
      <trkpt lat="47.64444" lon="6.18328">
        <ele>231</ele>
        <time>2018-10-17T13:54:25Z</time>
      </trkpt>
      <trkpt lat="47.64443" lon="6.18321">
        <ele>231</ele>
        <time>2018-10-17T13:54:33Z</time>
      </trkpt>
      <trkpt lat="47.64439" lon="6.18325">
        <ele>231</ele>
        <time>2018-10-17T13:55:05Z</time>
      </trkpt>
      <trkpt lat="47.6444" lon="6.18332">
        <ele>231</ele>
        <time>2018-10-17T13:55:13Z</time>
      </trkpt>
      <trkpt lat="47.64434" lon="6.18322">
        <ele>230</ele>
        <time>2018-10-17T13:55:48Z</time>
      </trkpt>
      <trkpt lat="47.64438" lon="6.18325">
        <ele>231</ele>
        <time>2018-10-17T13:56:05Z</time>
      </trkpt>
    </trkseg>
  </trk>
</gpx>